<?xml version="1.0" encoding="UTF-8"?><gpx xmlns="http://www.topografix.com/GPX/1/1" version="1.1" creator="iOrient"><trk><name>Долина Басандайки (Томск)</name><trkseg><trkpt lat="56.3746744" lon="85.1024978"><time>2024-08-03T03:37:50.267</time></trkpt><trkpt lat="56.3747337" lon="85.1009935"><time>2024-08-03T03:37:50.423</time></trkpt><trkpt lat="56.3747734" lon="85.1009527"><time>2024-08-03T03:37:55.427</time></trkpt><trkpt lat="56.3748001" lon="85.1010296"><time>2024-08-03T03:38:00.437</time></trkpt><trkpt lat="56.3748322" lon="85.1010897"><time>2024-08-03T03:38:04.370</time></trkpt><trkpt lat="56.3748777" lon="85.1011428"><time>2024-08-03T03:38:09.443</time></trkpt><trkpt lat="56.3749218" lon="85.1011924"><time>2024-08-03T03:38:14.433</time></trkpt><trkpt lat="56.3749600" lon="85.1012514"><time>2024-08-03T03:38:19.390</time></trkpt><trkpt lat="56.3749966" lon="85.1013062"><time>2024-08-03T03:38:23.397</time></trkpt><trkpt lat="56.3750382" lon="85.1013770"><time>2024-08-03T03:38:28.420</time></trkpt><trkpt lat="56.3750638" lon="85.1014533"><time>2024-08-03T03:38:32.413</time></trkpt><trkpt lat="56.3750782" lon="85.1015422"><time>2024-08-03T03:38:36.420</time></trkpt><trkpt lat="56.3750836" lon="85.1016517"><time>2024-08-03T03:38:40.393</time></trkpt><trkpt lat="56.3750613" lon="85.1017327"><time>2024-08-03T03:38:43.420</time></trkpt><trkpt lat="56.3750365" lon="85.1018123"><time>2024-08-03T03:38:46.413</time></trkpt><trkpt lat="56.3750101" lon="85.1018823"><time>2024-08-03T03:38:49.437</time></trkpt><trkpt lat="56.3749862" lon="85.1019531"><time>2024-08-03T03:38:52.437</time></trkpt><trkpt lat="56.3749503" lon="85.1020236"><time>2024-08-03T03:38:56.420</time></trkpt><trkpt lat="56.3749097" lon="85.1021014"><time>2024-08-03T03:39:00.430</time></trkpt><trkpt lat="56.3748867" lon="85.1021845"><time>2024-08-03T03:39:04.397</time></trkpt><trkpt lat="56.3748567" lon="85.1022682"><time>2024-08-03T03:39:08.427</time></trkpt><trkpt lat="56.3748127" lon="85.1023416"><time>2024-08-03T03:39:12.417</time></trkpt><trkpt lat="56.3747687" lon="85.1023915"><time>2024-08-03T03:39:16.403</time></trkpt><trkpt lat="56.3747251" lon="85.1024389"><time>2024-08-03T03:39:19.417</time></trkpt><trkpt lat="56.3746888" lon="85.1024927"><time>2024-08-03T03:39:22.400</time></trkpt><trkpt lat="56.3746461" lon="85.1025641"><time>2024-08-03T03:39:26.410</time></trkpt><trkpt lat="56.3746060" lon="85.1026217"><time>2024-08-03T03:39:29.423</time></trkpt><trkpt lat="56.3745709" lon="85.1026741"><time>2024-08-03T03:39:32.423</time></trkpt><trkpt lat="56.3745344" lon="85.1027355"><time>2024-08-03T03:39:35.437</time></trkpt><trkpt lat="56.3745024" lon="85.1028020"><time>2024-08-03T03:39:38.427</time></trkpt><trkpt lat="56.3744695" lon="85.1028578"><time>2024-08-03T03:39:41.447</time></trkpt><trkpt lat="56.3744295" lon="85.1029073"><time>2024-08-03T03:39:44.437</time></trkpt><trkpt lat="56.3743910" lon="85.1029525"><time>2024-08-03T03:39:47.430</time></trkpt><trkpt lat="56.3743534" lon="85.1030045"><time>2024-08-03T03:39:50.410</time></trkpt><trkpt lat="56.3743170" lon="85.1030570"><time>2024-08-03T03:39:53.433</time></trkpt><trkpt lat="56.3742775" lon="85.1031182"><time>2024-08-03T03:39:57.413</time></trkpt><trkpt lat="56.3742389" lon="85.1031644"><time>2024-08-03T03:40:00.447</time></trkpt><trkpt lat="56.3741929" lon="85.1032087"><time>2024-08-03T03:40:03.407</time></trkpt><trkpt lat="56.3741526" lon="85.1032529"><time>2024-08-03T03:40:06.430</time></trkpt><trkpt lat="56.3741160" lon="85.1033042"><time>2024-08-03T03:40:09.420</time></trkpt><trkpt lat="56.3740790" lon="85.1033598"><time>2024-08-03T03:40:12.423</time></trkpt><trkpt lat="56.3740426" lon="85.1034140"><time>2024-08-03T03:40:15.413</time></trkpt><trkpt lat="56.3739966" lon="85.1034817"><time>2024-08-03T03:40:19.400</time></trkpt><trkpt lat="56.3739491" lon="85.1035387"><time>2024-08-03T03:40:23.400</time></trkpt><trkpt lat="56.3739062" lon="85.1036010"><time>2024-08-03T03:40:27.517</time></trkpt><trkpt lat="56.3738732" lon="85.1036573"><time>2024-08-03T03:40:30.487</time></trkpt><trkpt lat="56.3738243" lon="85.1037204"><time>2024-08-03T03:40:34.480</time></trkpt><trkpt lat="56.3737797" lon="85.1037738"><time>2024-08-03T03:40:38.490</time></trkpt><trkpt lat="56.3737306" lon="85.1038197"><time>2024-08-03T03:40:42.407</time></trkpt><trkpt lat="56.3736914" lon="85.1038704"><time>2024-08-03T03:40:45.480</time></trkpt><trkpt lat="56.3736517" lon="85.1039167"><time>2024-08-03T03:40:48.547</time></trkpt><trkpt lat="56.3736087" lon="85.1039668"><time>2024-08-03T03:40:51.507</time></trkpt><trkpt lat="56.3735585" lon="85.1040302"><time>2024-08-03T03:40:55.477</time></trkpt><trkpt lat="56.3735157" lon="85.1040756"><time>2024-08-03T03:40:58.483</time></trkpt><trkpt lat="56.3734683" lon="85.1041093"><time>2024-08-03T03:41:01.410</time></trkpt><trkpt lat="56.3734258" lon="85.1041475"><time>2024-08-03T03:41:04.487</time></trkpt><trkpt lat="56.3733844" lon="85.1041864"><time>2024-08-03T03:41:07.487</time></trkpt><trkpt lat="56.3733368" lon="85.1042338"><time>2024-08-03T03:41:11.487</time></trkpt><trkpt lat="56.3732862" lon="85.1042725"><time>2024-08-03T03:41:15.497</time></trkpt><trkpt lat="56.3732415" lon="85.1043330"><time>2024-08-03T03:41:19.387</time></trkpt><trkpt lat="56.3731909" lon="85.1043895"><time>2024-08-03T03:41:23.427</time></trkpt><trkpt lat="56.3731460" lon="85.1044503"><time>2024-08-03T03:41:27.420</time></trkpt><trkpt lat="56.3731042" lon="85.1045046"><time>2024-08-03T03:41:31.390</time></trkpt><trkpt lat="56.3730594" lon="85.1045584"><time>2024-08-03T03:41:35.393</time></trkpt><trkpt lat="56.3730138" lon="85.1046140"><time>2024-08-03T03:41:39.447</time></trkpt><trkpt lat="56.3729737" lon="85.1046548"><time>2024-08-03T03:41:42.440</time></trkpt><trkpt lat="56.3729274" lon="85.1047050"><time>2024-08-03T03:41:46.420</time></trkpt><trkpt lat="56.3728776" lon="85.1047533"><time>2024-08-03T03:41:50.420</time></trkpt><trkpt lat="56.3728360" lon="85.1048003"><time>2024-08-03T03:41:54.383</time></trkpt><trkpt lat="56.3727901" lon="85.1048531"><time>2024-08-03T03:41:58.417</time></trkpt><trkpt lat="56.3727564" lon="85.1049188"><time>2024-08-03T03:42:02.373</time></trkpt><trkpt lat="56.3727132" lon="85.1049599"><time>2024-08-03T03:42:06.417</time></trkpt><trkpt lat="56.3726733" lon="85.1049985"><time>2024-08-03T03:42:09.400</time></trkpt><trkpt lat="56.3726314" lon="85.1050367"><time>2024-08-03T03:42:13.373</time></trkpt><trkpt lat="56.3725831" lon="85.1050687"><time>2024-08-03T03:42:16.407</time></trkpt><trkpt lat="56.3725331" lon="85.1051067"><time>2024-08-03T03:42:19.370</time></trkpt><trkpt lat="56.3724815" lon="85.1051530"><time>2024-08-03T03:42:22.370</time></trkpt><trkpt lat="56.3724452" lon="85.1052057"><time>2024-08-03T03:42:25.377</time></trkpt><trkpt lat="56.3724004" lon="85.1052632"><time>2024-08-03T03:42:28.377</time></trkpt><trkpt lat="56.3723513" lon="85.1053067"><time>2024-08-03T03:42:31.377</time></trkpt><trkpt lat="56.3723137" lon="85.1053675"><time>2024-08-03T03:42:35.367</time></trkpt><trkpt lat="56.3722750" lon="85.1054250"><time>2024-08-03T03:42:39.377</time></trkpt><trkpt lat="56.3722675" lon="85.1055181"><time>2024-08-03T03:42:43.377</time></trkpt><trkpt lat="56.3722316" lon="85.1055968"><time>2024-08-03T03:42:49.393</time></trkpt><trkpt lat="56.3721820" lon="85.1056559"><time>2024-08-03T03:42:53.483</time></trkpt><trkpt lat="56.3721294" lon="85.1057076"><time>2024-08-03T03:42:56.417</time></trkpt><trkpt lat="56.3720836" lon="85.1057586"><time>2024-08-03T03:42:59.520</time></trkpt><trkpt lat="56.3720405" lon="85.1058050"><time>2024-08-03T03:43:02.497</time></trkpt><trkpt lat="56.3719983" lon="85.1058438"><time>2024-08-03T03:43:05.387</time></trkpt><trkpt lat="56.3719537" lon="85.1058569"><time>2024-08-03T03:43:08.413</time></trkpt><trkpt lat="56.3719049" lon="85.1058636"><time>2024-08-03T03:43:11.377</time></trkpt><trkpt lat="56.3718543" lon="85.1058613"><time>2024-08-03T03:43:14.380</time></trkpt><trkpt lat="56.3718036" lon="85.1058564"><time>2024-08-03T03:43:17.410</time></trkpt><trkpt lat="56.3717541" lon="85.1058429"><time>2024-08-03T03:43:21.417</time></trkpt><trkpt lat="56.3716957" lon="85.1058546"><time>2024-08-03T03:43:25.407</time></trkpt><trkpt lat="56.3716372" lon="85.1058527"><time>2024-08-03T03:43:29.423</time></trkpt><trkpt lat="56.3715785" lon="85.1058480"><time>2024-08-03T03:43:33.380</time></trkpt><trkpt lat="56.3715186" lon="85.1058487"><time>2024-08-03T03:43:37.410</time></trkpt><trkpt lat="56.3714593" lon="85.1058545"><time>2024-08-03T03:43:41.413</time></trkpt><trkpt lat="56.3714126" lon="85.1058840"><time>2024-08-03T03:43:44.410</time></trkpt><trkpt lat="56.3713722" lon="85.1059253"><time>2024-08-03T03:43:47.423</time></trkpt><trkpt lat="56.3713161" lon="85.1059566"><time>2024-08-03T03:43:51.377</time></trkpt><trkpt lat="56.3712700" lon="85.1059616"><time>2024-08-03T03:43:54.383</time></trkpt><trkpt lat="56.3712226" lon="85.1059707"><time>2024-08-03T03:43:57.427</time></trkpt><trkpt lat="56.3711627" lon="85.1059765"><time>2024-08-03T03:44:01.447</time></trkpt><trkpt lat="56.3711151" lon="85.1059714"><time>2024-08-03T03:44:04.417</time></trkpt><trkpt lat="56.3710681" lon="85.1059754"><time>2024-08-03T03:44:07.417</time></trkpt><trkpt lat="56.3710105" lon="85.1059892"><time>2024-08-03T03:44:11.403</time></trkpt><trkpt lat="56.3709631" lon="85.1060014"><time>2024-08-03T03:44:14.423</time></trkpt><trkpt lat="56.3709073" lon="85.1060162"><time>2024-08-03T03:44:18.403</time></trkpt><trkpt lat="56.3708527" lon="85.1060287"><time>2024-08-03T03:44:22.420</time></trkpt><trkpt lat="56.3707931" lon="85.1060383"><time>2024-08-03T03:44:26.417</time></trkpt><trkpt lat="56.3707460" lon="85.1060392"><time>2024-08-03T03:44:29.423</time></trkpt><trkpt lat="56.3706912" lon="85.1060480"><time>2024-08-03T03:44:33.387</time></trkpt><trkpt lat="56.3706468" lon="85.1060677"><time>2024-08-03T03:44:36.417</time></trkpt><trkpt lat="56.3705881" lon="85.1060911"><time>2024-08-03T03:44:40.420</time></trkpt><trkpt lat="56.3705311" lon="85.1061300"><time>2024-08-03T03:44:44.383</time></trkpt><trkpt lat="56.3704891" lon="85.1060723"><time>2024-08-03T03:44:53.447</time></trkpt><trkpt lat="56.3704691" lon="85.1059988"><time>2024-08-03T03:44:56.413</time></trkpt><trkpt lat="56.3704404" lon="85.1059066"><time>2024-08-03T03:45:00.380</time></trkpt><trkpt lat="56.3704054" lon="85.1058297"><time>2024-08-03T03:45:04.370</time></trkpt><trkpt lat="56.3703733" lon="85.1057481"><time>2024-08-03T03:45:08.427</time></trkpt><trkpt lat="56.3703420" lon="85.1056602"><time>2024-08-03T03:45:12.420</time></trkpt><trkpt lat="56.3703073" lon="85.1055746"><time>2024-08-03T03:45:16.417</time></trkpt><trkpt lat="56.3702746" lon="85.1054899"><time>2024-08-03T03:45:20.397</time></trkpt><trkpt lat="56.3702446" lon="85.1053996"><time>2024-08-03T03:45:24.413</time></trkpt><trkpt lat="56.3702215" lon="85.1053115"><time>2024-08-03T03:45:28.373</time></trkpt><trkpt lat="56.3702005" lon="85.1052129"><time>2024-08-03T03:45:32.380</time></trkpt><trkpt lat="56.3702015" lon="85.1051185"><time>2024-08-03T03:45:36.383</time></trkpt><trkpt lat="56.3702180" lon="85.1050232"><time>2024-08-03T03:45:40.380</time></trkpt><trkpt lat="56.3702285" lon="85.1049253"><time>2024-08-03T03:45:44.390</time></trkpt><trkpt lat="56.3702335" lon="85.1048406"><time>2024-08-03T03:45:47.410</time></trkpt><trkpt lat="56.3702431" lon="85.1047391"><time>2024-08-03T03:45:51.437</time></trkpt><trkpt lat="56.3702487" lon="85.1046327"><time>2024-08-03T03:45:55.410</time></trkpt><trkpt lat="56.3702525" lon="85.1045496"><time>2024-08-03T03:45:58.437</time></trkpt><trkpt lat="56.3702614" lon="85.1044656"><time>2024-08-03T03:46:01.400</time></trkpt><trkpt lat="56.3702746" lon="85.1043841"><time>2024-08-03T03:46:04.410</time></trkpt><trkpt lat="56.3702910" lon="85.1042903"><time>2024-08-03T03:46:08.410</time></trkpt><trkpt lat="56.3702950" lon="85.1042094"><time>2024-08-03T03:46:11.430</time></trkpt><trkpt lat="56.3703050" lon="85.1041268"><time>2024-08-03T03:46:14.433</time></trkpt><trkpt lat="56.3703223" lon="85.1040254"><time>2024-08-03T03:46:18.410</time></trkpt><trkpt lat="56.3703358" lon="85.1039429"><time>2024-08-03T03:46:21.397</time></trkpt><trkpt lat="56.3703500" lon="85.1038602"><time>2024-08-03T03:46:24.417</time></trkpt><trkpt lat="56.3703662" lon="85.1037598"><time>2024-08-03T03:46:28.417</time></trkpt><trkpt lat="56.3703884" lon="85.1036668"><time>2024-08-03T03:46:32.420</time></trkpt><trkpt lat="56.3704087" lon="85.1035868"><time>2024-08-03T03:46:35.427</time></trkpt><trkpt lat="56.3704360" lon="85.1034944"><time>2024-08-03T03:46:39.413</time></trkpt><trkpt lat="56.3704653" lon="85.1034068"><time>2024-08-03T03:46:43.437</time></trkpt><trkpt lat="56.3704841" lon="85.1033273"><time>2024-08-03T03:46:46.420</time></trkpt><trkpt lat="56.3705044" lon="85.1032341"><time>2024-08-03T03:46:50.417</time></trkpt><trkpt lat="56.3705131" lon="85.1031533"><time>2024-08-03T03:46:53.423</time></trkpt><trkpt lat="56.3705220" lon="85.1030712"><time>2024-08-03T03:46:56.413</time></trkpt><trkpt lat="56.3705365" lon="85.1029921"><time>2024-08-03T03:46:59.440</time></trkpt><trkpt lat="56.3705473" lon="85.1028901"><time>2024-08-03T03:47:03.417</time></trkpt><trkpt lat="56.3705652" lon="85.1027950"><time>2024-08-03T03:47:07.407</time></trkpt><trkpt lat="56.3705876" lon="85.1027018"><time>2024-08-03T03:47:11.420</time></trkpt><trkpt lat="56.3706097" lon="85.1026058"><time>2024-08-03T03:47:15.403</time></trkpt><trkpt lat="56.3706354" lon="85.1025126"><time>2024-08-03T03:47:19.417</time></trkpt><trkpt lat="56.3706662" lon="85.1024243"><time>2024-08-03T03:47:23.417</time></trkpt><trkpt lat="56.3706983" lon="85.1023361"><time>2024-08-03T03:47:27.407</time></trkpt><trkpt lat="56.3707230" lon="85.1022519"><time>2024-08-03T03:47:31.400</time></trkpt><trkpt lat="56.3707573" lon="85.1021856"><time>2024-08-03T03:47:35.413</time></trkpt><trkpt lat="56.3707894" lon="85.1020992"><time>2024-08-03T03:47:39.410</time></trkpt><trkpt lat="56.3708112" lon="85.1020079"><time>2024-08-03T03:47:43.413</time></trkpt><trkpt lat="56.3708282" lon="85.1019108"><time>2024-08-03T03:47:47.410</time></trkpt><trkpt lat="56.3708452" lon="85.1018064"><time>2024-08-03T03:47:51.413</time></trkpt><trkpt lat="56.3708538" lon="85.1017082"><time>2024-08-03T03:47:55.410</time></trkpt><trkpt lat="56.3708501" lon="85.1016184"><time>2024-08-03T03:47:59.410</time></trkpt><trkpt lat="56.3708231" lon="85.1015531"><time>2024-08-03T03:48:03.413</time></trkpt><trkpt lat="56.3707776" lon="85.1015035"><time>2024-08-03T03:48:07.417</time></trkpt><trkpt lat="56.3707380" lon="85.1014561"><time>2024-08-03T03:48:11.383</time></trkpt><trkpt lat="56.3706962" lon="85.1013991"><time>2024-08-03T03:48:15.420</time></trkpt><trkpt lat="56.3706461" lon="85.1013745"><time>2024-08-03T03:48:18.413</time></trkpt><trkpt lat="56.3705950" lon="85.1013323"><time>2024-08-03T03:48:22.407</time></trkpt><trkpt lat="56.3705439" lon="85.1013131"><time>2024-08-03T03:48:26.407</time></trkpt><trkpt lat="56.3704910" lon="85.1012864"><time>2024-08-03T03:48:30.423</time></trkpt><trkpt lat="56.3704456" lon="85.1012553"><time>2024-08-03T03:48:34.417</time></trkpt><trkpt lat="56.3703939" lon="85.1012111"><time>2024-08-03T03:48:38.403</time></trkpt><trkpt lat="56.3703467" lon="85.1011620"><time>2024-08-03T03:48:43.397</time></trkpt><trkpt lat="56.3703003" lon="85.1011418"><time>2024-08-03T03:48:47.423</time></trkpt><trkpt lat="56.3702545" lon="85.1011321"><time>2024-08-03T03:48:51.393</time></trkpt><trkpt lat="56.3702137" lon="85.1011712"><time>2024-08-03T03:49:08.430</time></trkpt><trkpt lat="56.3701747" lon="85.1012173"><time>2024-08-03T03:49:11.413</time></trkpt><trkpt lat="56.3701289" lon="85.1012716"><time>2024-08-03T03:49:15.417</time></trkpt><trkpt lat="56.3700884" lon="85.1013405"><time>2024-08-03T03:49:20.417</time></trkpt><trkpt lat="56.3700697" lon="85.1014230"><time>2024-08-03T03:49:25.423</time></trkpt><trkpt lat="56.3700389" lon="85.1014836"><time>2024-08-03T03:49:29.417</time></trkpt><trkpt lat="56.3700003" lon="85.1015351"><time>2024-08-03T03:49:33.417</time></trkpt><trkpt lat="56.3699626" lon="85.1016172"><time>2024-08-03T03:49:47.427</time></trkpt><trkpt lat="56.3699296" lon="85.1016777"><time>2024-08-03T03:49:50.420</time></trkpt><trkpt lat="56.3698981" lon="85.1017676"><time>2024-08-03T03:49:54.390</time></trkpt><trkpt lat="56.3698693" lon="85.1018469"><time>2024-08-03T03:49:59.413</time></trkpt><trkpt lat="56.3698424" lon="85.1019292"><time>2024-08-03T03:50:15.417</time></trkpt><trkpt lat="56.3698041" lon="85.1019979"><time>2024-08-03T03:50:19.387</time></trkpt><trkpt lat="56.3697628" lon="85.1020576"><time>2024-08-03T03:50:23.397</time></trkpt><trkpt lat="56.3697345" lon="85.1021337"><time>2024-08-03T03:50:27.437</time></trkpt><trkpt lat="56.3697099" lon="85.1022019"><time>2024-08-03T03:50:31.400</time></trkpt><trkpt lat="56.3696752" lon="85.1022735"><time>2024-08-03T03:50:36.437</time></trkpt><trkpt lat="56.3696413" lon="85.1023488"><time>2024-08-03T03:50:41.397</time></trkpt><trkpt lat="56.3696090" lon="85.1024242"><time>2024-08-03T03:50:45.420</time></trkpt><trkpt lat="56.3695829" lon="85.1025111"><time>2024-08-03T03:50:50.410</time></trkpt><trkpt lat="56.3695824" lon="85.1025958"><time>2024-08-03T03:50:56.367</time></trkpt><trkpt lat="56.3695503" lon="85.1025185"><time>2024-08-03T03:51:18.410</time></trkpt><trkpt lat="56.3695810" lon="85.1025860"><time>2024-08-03T03:51:31.407</time></trkpt><trkpt lat="56.3696138" lon="85.1026423"><time>2024-08-03T03:51:38.417</time></trkpt><trkpt lat="56.3696580" lon="85.1026695"><time>2024-08-03T03:51:44.407</time></trkpt><trkpt lat="56.3696926" lon="85.1027217"><time>2024-08-03T03:51:54.377</time></trkpt><trkpt lat="56.3696876" lon="85.1028056"><time>2024-08-03T03:52:04.420</time></trkpt><trkpt lat="56.3696994" lon="85.1028874"><time>2024-08-03T03:52:12.420</time></trkpt><trkpt lat="56.3696573" lon="85.1028553"><time>2024-08-03T03:52:51.410</time></trkpt><trkpt lat="56.3696255" lon="85.1029202"><time>2024-08-03T03:53:01.413</time></trkpt><trkpt lat="56.3695808" lon="85.1029047"><time>2024-08-03T03:53:51.387</time></trkpt><trkpt lat="56.3695675" lon="85.1028130"><time>2024-08-03T03:54:13.377</time></trkpt><trkpt lat="56.3695199" lon="85.1028104"><time>2024-08-03T03:54:19.377</time></trkpt><trkpt lat="56.3695070" lon="85.1028383"><time>2024-08-03T03:54:23.810</time></trkpt><trkpt lat="56.3695426" lon="85.1027238"><time>2024-08-03T03:54:33.373</time></trkpt><trkpt lat="56.3695736" lon="85.1026580"><time>2024-08-03T03:54:37.383</time></trkpt><trkpt lat="56.3695650" lon="85.1025697"><time>2024-08-03T03:55:17.423</time></trkpt><trkpt lat="56.3695591" lon="85.1024799"><time>2024-08-03T03:55:56.500</time></trkpt><trkpt lat="56.3695704" lon="85.1023957"><time>2024-08-03T03:56:04.537</time></trkpt><trkpt lat="56.3695975" lon="85.1023238"><time>2024-08-03T03:56:11.490</time></trkpt><trkpt lat="56.3696299" lon="85.1022651"><time>2024-08-03T03:56:16.480</time></trkpt><trkpt lat="56.3696598" lon="85.1022011"><time>2024-08-03T03:56:21.387</time></trkpt><trkpt lat="56.3696996" lon="85.1021540"><time>2024-08-03T03:56:27.387</time></trkpt><trkpt lat="56.3697291" lon="85.1020796"><time>2024-08-03T03:56:37.480</time></trkpt><trkpt lat="56.3697541" lon="85.1020116"><time>2024-08-03T03:56:43.483</time></trkpt><trkpt lat="56.3697937" lon="85.1019634"><time>2024-08-03T03:56:50.523</time></trkpt><trkpt lat="56.3698317" lon="85.1019179"><time>2024-08-03T03:56:58.487</time></trkpt><trkpt lat="56.3698568" lon="85.1018441"><time>2024-08-03T03:57:06.427</time></trkpt><trkpt lat="56.3698831" lon="85.1017669"><time>2024-08-03T03:57:15.507</time></trkpt><trkpt lat="56.3699136" lon="85.1016980"><time>2024-08-03T03:57:23.487</time></trkpt><trkpt lat="56.3699424" lon="85.1016331"><time>2024-08-03T03:57:29.467</time></trkpt><trkpt lat="56.3699771" lon="85.1015718"><time>2024-08-03T03:57:34.483</time></trkpt><trkpt lat="56.3700070" lon="85.1014952"><time>2024-08-03T03:57:40.430</time></trkpt><trkpt lat="56.3700491" lon="85.1014260"><time>2024-08-03T03:57:45.527</time></trkpt><trkpt lat="56.3700840" lon="85.1013540"><time>2024-08-03T03:57:50.407</time></trkpt><trkpt lat="56.3701045" lon="85.1012803"><time>2024-08-03T03:57:53.493</time></trkpt><trkpt lat="56.3701465" lon="85.1012331"><time>2024-08-03T03:57:57.470</time></trkpt><trkpt lat="56.3701814" lon="85.1011549"><time>2024-08-03T03:58:01.487</time></trkpt><trkpt lat="56.3701907" lon="85.1010703"><time>2024-08-03T03:58:04.407</time></trkpt><trkpt lat="56.3701961" lon="85.1009761"><time>2024-08-03T03:58:08.410</time></trkpt><trkpt lat="56.3701490" lon="85.1009195"><time>2024-08-03T03:58:12.497</time></trkpt><trkpt lat="56.3701238" lon="85.1008497"><time>2024-08-03T03:58:36.490</time></trkpt><trkpt lat="56.3700730" lon="85.1008146"><time>2024-08-03T03:58:40.497</time></trkpt><trkpt lat="56.3700231" lon="85.1007833"><time>2024-08-03T03:58:44.473</time></trkpt><trkpt lat="56.3699712" lon="85.1007400"><time>2024-08-03T03:58:48.373</time></trkpt><trkpt lat="56.3699276" lon="85.1007029"><time>2024-08-03T03:58:52.373</time></trkpt><trkpt lat="56.3698808" lon="85.1006724"><time>2024-08-03T03:58:56.403</time></trkpt><trkpt lat="56.3698286" lon="85.1006338"><time>2024-08-03T03:59:00.397</time></trkpt><trkpt lat="56.3697758" lon="85.1005971"><time>2024-08-03T03:59:04.417</time></trkpt><trkpt lat="56.3697266" lon="85.1005527"><time>2024-08-03T03:59:08.440</time></trkpt><trkpt lat="56.3696745" lon="85.1005160"><time>2024-08-03T03:59:12.410</time></trkpt><trkpt lat="56.3696211" lon="85.1004752"><time>2024-08-03T03:59:16.410</time></trkpt><trkpt lat="56.3695704" lon="85.1004466"><time>2024-08-03T03:59:20.407</time></trkpt><trkpt lat="56.3695203" lon="85.1004179"><time>2024-08-03T03:59:24.407</time></trkpt><trkpt lat="56.3694652" lon="85.1003921"><time>2024-08-03T03:59:28.440</time></trkpt><trkpt lat="56.3694131" lon="85.1003728"><time>2024-08-03T03:59:32.433</time></trkpt><trkpt lat="56.3693626" lon="85.1003521"><time>2024-08-03T03:59:36.423</time></trkpt><trkpt lat="56.3693150" lon="85.1003351"><time>2024-08-03T03:59:40.410</time></trkpt><trkpt lat="56.3692727" lon="85.1003007"><time>2024-08-03T03:59:44.403</time></trkpt><trkpt lat="56.3692197" lon="85.1002921"><time>2024-08-03T03:59:48.410</time></trkpt><trkpt lat="56.3691724" lon="85.1002727"><time>2024-08-03T03:59:52.413</time></trkpt><trkpt lat="56.3691254" lon="85.1002622"><time>2024-08-03T03:59:56.407</time></trkpt><trkpt lat="56.3690790" lon="85.1002543"><time>2024-08-03T04:00:00.410</time></trkpt><trkpt lat="56.3690331" lon="85.1002488"><time>2024-08-03T04:00:04.380</time></trkpt><trkpt lat="56.3689823" lon="85.1002408"><time>2024-08-03T04:00:08.427</time></trkpt><trkpt lat="56.3689315" lon="85.1002314"><time>2024-08-03T04:00:12.410</time></trkpt><trkpt lat="56.3688872" lon="85.1002030"><time>2024-08-03T04:00:16.413</time></trkpt><trkpt lat="56.3688381" lon="85.1001673"><time>2024-08-03T04:00:21.393</time></trkpt><trkpt lat="56.3687895" lon="85.1001418"><time>2024-08-03T04:00:26.377</time></trkpt><trkpt lat="56.3687441" lon="85.1001270"><time>2024-08-03T04:00:30.370</time></trkpt><trkpt lat="56.3686911" lon="85.1001144"><time>2024-08-03T04:00:34.427</time></trkpt><trkpt lat="56.3686372" lon="85.1001090"><time>2024-08-03T04:00:39.367</time></trkpt><trkpt lat="56.3685845" lon="85.1000956"><time>2024-08-03T04:00:44.387</time></trkpt><trkpt lat="56.3685325" lon="85.1000907"><time>2024-08-03T04:00:54.407</time></trkpt><trkpt lat="56.3684840" lon="85.1000908"><time>2024-08-03T04:00:58.407</time></trkpt><trkpt lat="56.3684322" lon="85.1000907"><time>2024-08-03T04:01:02.443</time></trkpt><trkpt lat="56.3683780" lon="85.1001001"><time>2024-08-03T04:01:06.410</time></trkpt><trkpt lat="56.3683291" lon="85.1001025"><time>2024-08-03T04:01:10.413</time></trkpt><trkpt lat="56.3682736" lon="85.1001032"><time>2024-08-03T04:01:15.400</time></trkpt><trkpt lat="56.3682252" lon="85.1000991"><time>2024-08-03T04:01:19.427</time></trkpt><trkpt lat="56.3681710" lon="85.1001107"><time>2024-08-03T04:01:23.403</time></trkpt><trkpt lat="56.3681233" lon="85.1001301"><time>2024-08-03T04:01:27.397</time></trkpt><trkpt lat="56.3680705" lon="85.1001488"><time>2024-08-03T04:01:31.413</time></trkpt><trkpt lat="56.3680225" lon="85.1001831"><time>2024-08-03T04:01:35.423</time></trkpt><trkpt lat="56.3679747" lon="85.1002000"><time>2024-08-03T04:01:39.407</time></trkpt><trkpt lat="56.3679305" lon="85.1002504"><time>2024-08-03T04:01:43.400</time></trkpt><trkpt lat="56.3679019" lon="85.1003235"><time>2024-08-03T04:01:47.410</time></trkpt><trkpt lat="56.3678744" lon="85.1004050"><time>2024-08-03T04:01:51.420</time></trkpt><trkpt lat="56.3678447" lon="85.1004836"><time>2024-08-03T04:01:55.407</time></trkpt><trkpt lat="56.3678239" lon="85.1005690"><time>2024-08-03T04:01:59.407</time></trkpt><trkpt lat="56.3677892" lon="85.1006559"><time>2024-08-03T04:02:03.410</time></trkpt><trkpt lat="56.3677603" lon="85.1007414"><time>2024-08-03T04:02:07.440</time></trkpt><trkpt lat="56.3677339" lon="85.1008237"><time>2024-08-03T04:02:11.420</time></trkpt><trkpt lat="56.3677070" lon="85.1009128"><time>2024-08-03T04:02:16.430</time></trkpt><trkpt lat="56.3676800" lon="85.1010031"><time>2024-08-03T04:02:21.423</time></trkpt><trkpt lat="56.3676508" lon="85.1010710"><time>2024-08-03T04:02:25.423</time></trkpt><trkpt lat="56.3676185" lon="85.1011379"><time>2024-08-03T04:02:29.427</time></trkpt><trkpt lat="56.3675799" lon="85.1011858"><time>2024-08-03T04:02:33.413</time></trkpt><trkpt lat="56.3675292" lon="85.1012284"><time>2024-08-03T04:02:38.410</time></trkpt><trkpt lat="56.3674776" lon="85.1012086"><time>2024-08-03T04:02:42.383</time></trkpt><trkpt lat="56.3674287" lon="85.1011723"><time>2024-08-03T04:02:46.413</time></trkpt><trkpt lat="56.3673855" lon="85.1011335"><time>2024-08-03T04:02:50.393</time></trkpt><trkpt lat="56.3673366" lon="85.1011071"><time>2024-08-03T04:02:54.373</time></trkpt><trkpt lat="56.3672846" lon="85.1010971"><time>2024-08-03T04:02:58.373</time></trkpt><trkpt lat="56.3672325" lon="85.1011099"><time>2024-08-03T04:03:02.393</time></trkpt><trkpt lat="56.3671796" lon="85.1011166"><time>2024-08-03T04:03:06.480</time></trkpt><trkpt lat="56.3671241" lon="85.1011109"><time>2024-08-03T04:03:10.500</time></trkpt><trkpt lat="56.3670754" lon="85.1010969"><time>2024-08-03T04:03:14.477</time></trkpt><trkpt lat="56.3670211" lon="85.1010856"><time>2024-08-03T04:03:18.417</time></trkpt><trkpt lat="56.3669669" lon="85.1010758"><time>2024-08-03T04:03:22.400</time></trkpt><trkpt lat="56.3669138" lon="85.1010598"><time>2024-08-03T04:03:26.380</time></trkpt><trkpt lat="56.3668662" lon="85.1010486"><time>2024-08-03T04:03:29.447</time></trkpt><trkpt lat="56.3668137" lon="85.1010360"><time>2024-08-03T04:03:33.500</time></trkpt><trkpt lat="56.3667554" lon="85.1010292"><time>2024-08-03T04:03:37.410</time></trkpt><trkpt lat="56.3666984" lon="85.1010294"><time>2024-08-03T04:03:41.403</time></trkpt><trkpt lat="56.3666514" lon="85.1010359"><time>2024-08-03T04:03:44.407</time></trkpt><trkpt lat="56.3666008" lon="85.1010403"><time>2024-08-03T04:03:47.373</time></trkpt><trkpt lat="56.3665422" lon="85.1010283"><time>2024-08-03T04:03:51.367</time></trkpt><trkpt lat="56.3664859" lon="85.1010151"><time>2024-08-03T04:03:55.413</time></trkpt><trkpt lat="56.3664295" lon="85.1009932"><time>2024-08-03T04:03:59.407</time></trkpt><trkpt lat="56.3663806" lon="85.1009795"><time>2024-08-03T04:04:03.427</time></trkpt><trkpt lat="56.3663308" lon="85.1009532"><time>2024-08-03T04:04:07.403</time></trkpt><trkpt lat="56.3662811" lon="85.1009358"><time>2024-08-03T04:04:11.407</time></trkpt><trkpt lat="56.3662255" lon="85.1009151"><time>2024-08-03T04:04:15.423</time></trkpt><trkpt lat="56.3661714" lon="85.1008938"><time>2024-08-03T04:04:19.417</time></trkpt><trkpt lat="56.3661156" lon="85.1008840"><time>2024-08-03T04:04:23.420</time></trkpt><trkpt lat="56.3660606" lon="85.1008811"><time>2024-08-03T04:04:27.407</time></trkpt><trkpt lat="56.3660079" lon="85.1008830"><time>2024-08-03T04:04:31.377</time></trkpt><trkpt lat="56.3659562" lon="85.1008782"><time>2024-08-03T04:04:35.430</time></trkpt><trkpt lat="56.3658988" lon="85.1008655"><time>2024-08-03T04:04:39.433</time></trkpt><trkpt lat="56.3658444" lon="85.1008655"><time>2024-08-03T04:04:43.407</time></trkpt><trkpt lat="56.3657872" lon="85.1008537"><time>2024-08-03T04:04:47.410</time></trkpt><trkpt lat="56.3657289" lon="85.1008421"><time>2024-08-03T04:04:51.420</time></trkpt><trkpt lat="56.3656713" lon="85.1008285"><time>2024-08-03T04:04:55.423</time></trkpt><trkpt lat="56.3656177" lon="85.1008166"><time>2024-08-03T04:04:59.410</time></trkpt><trkpt lat="56.3655607" lon="85.1007990"><time>2024-08-03T04:05:03.397</time></trkpt><trkpt lat="56.3655045" lon="85.1007697"><time>2024-08-03T04:05:07.410</time></trkpt><trkpt lat="56.3654500" lon="85.1007409"><time>2024-08-03T04:05:11.403</time></trkpt><trkpt lat="56.3653980" lon="85.1007175"><time>2024-08-03T04:05:15.423</time></trkpt><trkpt lat="56.3653453" lon="85.1006934"><time>2024-08-03T04:05:19.437</time></trkpt><trkpt lat="56.3653013" lon="85.1006760"><time>2024-08-03T04:05:24.407</time></trkpt><trkpt lat="56.3652472" lon="85.1006733"><time>2024-08-03T04:05:44.403</time></trkpt><trkpt lat="56.3651950" lon="85.1006831"><time>2024-08-03T04:05:49.400</time></trkpt><trkpt lat="56.3651501" lon="85.1006584"><time>2024-08-03T04:05:53.423</time></trkpt><trkpt lat="56.3651100" lon="85.1006193"><time>2024-08-03T04:05:57.407</time></trkpt><trkpt lat="56.3650722" lon="85.1005516"><time>2024-08-03T04:06:01.407</time></trkpt><trkpt lat="56.3650252" lon="85.1005101"><time>2024-08-03T04:06:05.410</time></trkpt><trkpt lat="56.3649773" lon="85.1004970"><time>2024-08-03T04:06:09.430</time></trkpt><trkpt lat="56.3649237" lon="85.1004929"><time>2024-08-03T04:06:13.427</time></trkpt><trkpt lat="56.3648681" lon="85.1004964"><time>2024-08-03T04:06:17.407</time></trkpt><trkpt lat="56.3648195" lon="85.1005182"><time>2024-08-03T04:06:21.407</time></trkpt><trkpt lat="56.3647718" lon="85.1005381"><time>2024-08-03T04:06:25.403</time></trkpt><trkpt lat="56.3647259" lon="85.1005711"><time>2024-08-03T04:06:29.390</time></trkpt><trkpt lat="56.3646783" lon="85.1005844"><time>2024-08-03T04:06:33.410</time></trkpt><trkpt lat="56.3646331" lon="85.1005988"><time>2024-08-03T04:06:37.400</time></trkpt><trkpt lat="56.3645832" lon="85.1006118"><time>2024-08-03T04:06:41.437</time></trkpt><trkpt lat="56.3645329" lon="85.1006208"><time>2024-08-03T04:06:45.407</time></trkpt><trkpt lat="56.3644849" lon="85.1006322"><time>2024-08-03T04:06:49.433</time></trkpt><trkpt lat="56.3644340" lon="85.1006465"><time>2024-08-03T04:06:53.423</time></trkpt><trkpt lat="56.3643840" lon="85.1006376"><time>2024-08-03T04:06:57.413</time></trkpt><trkpt lat="56.3643375" lon="85.1005932"><time>2024-08-03T04:07:01.437</time></trkpt><trkpt lat="56.3642974" lon="85.1005277"><time>2024-08-03T04:07:05.410</time></trkpt><trkpt lat="56.3642526" lon="85.1004643"><time>2024-08-03T04:07:09.390</time></trkpt><trkpt lat="56.3642033" lon="85.1004201"><time>2024-08-03T04:07:13.443</time></trkpt><trkpt lat="56.3641468" lon="85.1003836"><time>2024-08-03T04:07:17.403</time></trkpt><trkpt lat="56.3640969" lon="85.1003535"><time>2024-08-03T04:07:21.400</time></trkpt><trkpt lat="56.3640424" lon="85.1003288"><time>2024-08-03T04:07:25.400</time></trkpt><trkpt lat="56.3639913" lon="85.1003042"><time>2024-08-03T04:07:29.407</time></trkpt><trkpt lat="56.3639361" lon="85.1002853"><time>2024-08-03T04:07:33.403</time></trkpt><trkpt lat="56.3638814" lon="85.1002510"><time>2024-08-03T04:07:37.377</time></trkpt><trkpt lat="56.3638308" lon="85.1002171"><time>2024-08-03T04:07:41.397</time></trkpt><trkpt lat="56.3637808" lon="85.1001801"><time>2024-08-03T04:07:45.423</time></trkpt><trkpt lat="56.3637305" lon="85.1001433"><time>2024-08-03T04:07:49.503</time></trkpt><trkpt lat="56.3636798" lon="85.1001101"><time>2024-08-03T04:07:53.410</time></trkpt><trkpt lat="56.3636321" lon="85.1000609"><time>2024-08-03T04:07:57.367</time></trkpt><trkpt lat="56.3635784" lon="85.1000255"><time>2024-08-03T04:08:01.373</time></trkpt><trkpt lat="56.3635253" lon="85.0999967"><time>2024-08-03T04:08:05.367</time></trkpt><trkpt lat="56.3634691" lon="85.0999775"><time>2024-08-03T04:08:09.420</time></trkpt><trkpt lat="56.3634210" lon="85.0999450"><time>2024-08-03T04:08:13.403</time></trkpt><trkpt lat="56.3633669" lon="85.0999176"><time>2024-08-03T04:08:17.410</time></trkpt><trkpt lat="56.3633156" lon="85.0998960"><time>2024-08-03T04:08:21.387</time></trkpt><trkpt lat="56.3632658" lon="85.0998785"><time>2024-08-03T04:08:25.407</time></trkpt><trkpt lat="56.3632185" lon="85.0998489"><time>2024-08-03T04:08:29.393</time></trkpt><trkpt lat="56.3631662" lon="85.0998301"><time>2024-08-03T04:08:33.380</time></trkpt><trkpt lat="56.3631190" lon="85.0998046"><time>2024-08-03T04:08:37.403</time></trkpt><trkpt lat="56.3630751" lon="85.0997660"><time>2024-08-03T04:08:41.397</time></trkpt><trkpt lat="56.3630278" lon="85.0997179"><time>2024-08-03T04:08:45.400</time></trkpt><trkpt lat="56.3629842" lon="85.0996621"><time>2024-08-03T04:08:49.410</time></trkpt><trkpt lat="56.3629384" lon="85.0996073"><time>2024-08-03T04:08:53.400</time></trkpt><trkpt lat="56.3628890" lon="85.0995553"><time>2024-08-03T04:08:57.407</time></trkpt><trkpt lat="56.3628423" lon="85.0995153"><time>2024-08-03T04:09:01.403</time></trkpt><trkpt lat="56.3627924" lon="85.0994793"><time>2024-08-03T04:09:05.413</time></trkpt><trkpt lat="56.3627463" lon="85.0994470"><time>2024-08-03T04:09:09.397</time></trkpt><trkpt lat="56.3627025" lon="85.0994167"><time>2024-08-03T04:09:13.413</time></trkpt><trkpt lat="56.3626607" lon="85.0993743"><time>2024-08-03T04:09:17.427</time></trkpt><trkpt lat="56.3626165" lon="85.0993346"><time>2024-08-03T04:09:21.433</time></trkpt><trkpt lat="56.3625756" lon="85.0992861"><time>2024-08-03T04:09:25.410</time></trkpt><trkpt lat="56.3625214" lon="85.0992511"><time>2024-08-03T04:09:29.397</time></trkpt><trkpt lat="56.3624781" lon="85.0992145"><time>2024-08-03T04:09:33.403</time></trkpt><trkpt lat="56.3624281" lon="85.0991791"><time>2024-08-03T04:09:37.420</time></trkpt><trkpt lat="56.3623855" lon="85.0991444"><time>2024-08-03T04:09:40.390</time></trkpt><trkpt lat="56.3623351" lon="85.0991078"><time>2024-08-03T04:09:44.397</time></trkpt><trkpt lat="56.3622815" lon="85.0990615"><time>2024-08-03T04:09:48.417</time></trkpt><trkpt lat="56.3622243" lon="85.0990252"><time>2024-08-03T04:09:52.403</time></trkpt><trkpt lat="56.3621706" lon="85.0989919"><time>2024-08-03T04:09:56.397</time></trkpt><trkpt lat="56.3621294" lon="85.0989588"><time>2024-08-03T04:09:59.403</time></trkpt><trkpt lat="56.3620796" lon="85.0989155"><time>2024-08-03T04:10:03.407</time></trkpt><trkpt lat="56.3620355" lon="85.0988631"><time>2024-08-03T04:10:07.400</time></trkpt><trkpt lat="56.3619855" lon="85.0988422"><time>2024-08-03T04:10:11.417</time></trkpt><trkpt lat="56.3619382" lon="85.0988366"><time>2024-08-03T04:10:19.403</time></trkpt><trkpt lat="56.3619906" lon="85.0988175"><time>2024-08-03T04:10:33.400</time></trkpt><trkpt lat="56.3620332" lon="85.0988507"><time>2024-08-03T04:10:38.403</time></trkpt><trkpt lat="56.3620794" lon="85.0988768"><time>2024-08-03T04:10:43.370</time></trkpt><trkpt lat="56.3621270" lon="85.0989177"><time>2024-08-03T04:10:48.390</time></trkpt><trkpt lat="56.3621697" lon="85.0989509"><time>2024-08-03T04:10:52.417</time></trkpt><trkpt lat="56.3622136" lon="85.0989819"><time>2024-08-03T04:10:56.390</time></trkpt><trkpt lat="56.3622566" lon="85.0990181"><time>2024-08-03T04:11:00.400</time></trkpt><trkpt lat="56.3622995" lon="85.0990445"><time>2024-08-03T04:11:04.437</time></trkpt><trkpt lat="56.3623445" lon="85.0990708"><time>2024-08-03T04:11:08.427</time></trkpt><trkpt lat="56.3623870" lon="85.0991112"><time>2024-08-03T04:11:13.397</time></trkpt><trkpt lat="56.3624334" lon="85.0991434"><time>2024-08-03T04:11:17.393</time></trkpt><trkpt lat="56.3624754" lon="85.0991802"><time>2024-08-03T04:11:21.420</time></trkpt><trkpt lat="56.3625233" lon="85.0992104"><time>2024-08-03T04:11:26.403</time></trkpt><trkpt lat="56.3625703" lon="85.0992485"><time>2024-08-03T04:11:31.397</time></trkpt><trkpt lat="56.3626147" lon="85.0992904"><time>2024-08-03T04:11:37.407</time></trkpt><trkpt lat="56.3626637" lon="85.0993215"><time>2024-08-03T04:11:46.437</time></trkpt><trkpt lat="56.3627065" lon="85.0993533"><time>2024-08-03T04:11:56.390</time></trkpt><trkpt lat="56.3627430" lon="85.0994087"><time>2024-08-03T04:12:09.420</time></trkpt><trkpt lat="56.3627859" lon="85.0994392"><time>2024-08-03T04:12:23.413</time></trkpt><trkpt lat="56.3627409" lon="85.0994608"><time>2024-08-03T04:13:15.410</time></trkpt><trkpt lat="56.3626942" lon="85.0994329"><time>2024-08-03T04:13:20.390</time></trkpt><trkpt lat="56.3626474" lon="85.0993801"><time>2024-08-03T04:13:27.403</time></trkpt><trkpt lat="56.3626056" lon="85.0993428"><time>2024-08-03T04:13:31.413</time></trkpt><trkpt lat="56.3625631" lon="85.0993008"><time>2024-08-03T04:13:37.363</time></trkpt><trkpt lat="56.3625169" lon="85.0992657"><time>2024-08-03T04:13:43.397</time></trkpt><trkpt lat="56.3624679" lon="85.0992404"><time>2024-08-03T04:13:49.460</time></trkpt><trkpt lat="56.3624461" lon="85.0993149"><time>2024-08-03T04:13:59.417</time></trkpt><trkpt lat="56.3624405" lon="85.0994017"><time>2024-08-03T04:14:12.413</time></trkpt><trkpt lat="56.3624637" lon="85.0994742"><time>2024-08-03T04:14:23.403</time></trkpt><trkpt lat="56.3624710" lon="85.0995619"><time>2024-08-03T04:14:34.413</time></trkpt><trkpt lat="56.3624574" lon="85.0996481"><time>2024-08-03T04:14:42.407</time></trkpt><trkpt lat="56.3624532" lon="85.0997306"><time>2024-08-03T04:14:49.397</time></trkpt><trkpt lat="56.3624388" lon="85.0998077"><time>2024-08-03T04:14:56.390</time></trkpt><trkpt lat="56.3624057" lon="85.0998652"><time>2024-08-03T04:15:09.380</time></trkpt><trkpt lat="56.3623894" lon="85.0999543"><time>2024-08-03T04:15:18.367</time></trkpt><trkpt lat="56.3623770" lon="85.1000413"><time>2024-08-03T04:15:28.400</time></trkpt><trkpt lat="56.3623388" lon="85.1000971"><time>2024-08-03T04:15:36.400</time></trkpt><trkpt lat="56.3622939" lon="85.1001202"><time>2024-08-03T04:15:42.397</time></trkpt><trkpt lat="56.3622446" lon="85.1001441"><time>2024-08-03T04:15:49.390</time></trkpt><trkpt lat="56.3622078" lon="85.1002066"><time>2024-08-03T04:15:56.400</time></trkpt><trkpt lat="56.3621697" lon="85.1002690"><time>2024-08-03T04:16:04.420</time></trkpt><trkpt lat="56.3621345" lon="85.1003226"><time>2024-08-03T04:16:10.383</time></trkpt><trkpt lat="56.3620966" lon="85.1003906"><time>2024-08-03T04:16:17.393</time></trkpt><trkpt lat="56.3620473" lon="85.1004252"><time>2024-08-03T04:16:22.400</time></trkpt><trkpt lat="56.3620127" lon="85.1004983"><time>2024-08-03T04:16:27.390</time></trkpt><trkpt lat="56.3619665" lon="85.1005080"><time>2024-08-03T04:16:31.410</time></trkpt><trkpt lat="56.3619195" lon="85.1005198"><time>2024-08-03T04:16:36.407</time></trkpt><trkpt lat="56.3618800" lon="85.1004783"><time>2024-08-03T04:16:42.387</time></trkpt><trkpt lat="56.3618457" lon="85.1003958"><time>2024-08-03T04:16:47.407</time></trkpt><trkpt lat="56.3618235" lon="85.1003137"><time>2024-08-03T04:16:51.397</time></trkpt><trkpt lat="56.3617982" lon="85.1002277"><time>2024-08-03T04:16:56.400</time></trkpt><trkpt lat="56.3617669" lon="85.1001670"><time>2024-08-03T04:17:00.390</time></trkpt><trkpt lat="56.3617297" lon="85.1001074"><time>2024-08-03T04:17:05.410</time></trkpt><trkpt lat="56.3616871" lon="85.1000441"><time>2024-08-03T04:17:09.393</time></trkpt><trkpt lat="56.3616501" lon="85.0999735"><time>2024-08-03T04:17:13.363</time></trkpt><trkpt lat="56.3616058" lon="85.0999155"><time>2024-08-03T04:17:17.407</time></trkpt><trkpt lat="56.3615593" lon="85.0999017"><time>2024-08-03T04:17:21.403</time></trkpt><trkpt lat="56.3615228" lon="85.0999654"><time>2024-08-03T04:17:26.430</time></trkpt><trkpt lat="56.3615017" lon="85.1000434"><time>2024-08-03T04:17:31.557</time></trkpt><trkpt lat="56.3614925" lon="85.1000854"><time>2024-08-03T04:17:34.377</time></trkpt><trkpt lat="56.3615348" lon="85.0999611"><time>2024-08-03T04:17:43.370</time></trkpt><trkpt lat="56.3615491" lon="85.0998824"><time>2024-08-03T04:17:49.407</time></trkpt><trkpt lat="56.3615092" lon="85.0998424"><time>2024-08-03T04:17:52.440</time></trkpt><trkpt lat="56.3614658" lon="85.0998119"><time>2024-08-03T04:19:17.417</time></trkpt><trkpt lat="56.3614191" lon="85.0998090"><time>2024-08-03T04:19:23.367</time></trkpt><trkpt lat="56.3613750" lon="85.0998260"><time>2024-08-03T04:19:40.367</time></trkpt><trkpt lat="56.3613302" lon="85.0998141"><time>2024-08-03T04:19:50.357</time></trkpt><trkpt lat="56.3612787" lon="85.0997956"><time>2024-08-03T04:19:56.397</time></trkpt><trkpt lat="56.3612324" lon="85.0997766"><time>2024-08-03T04:20:01.390</time></trkpt><trkpt lat="56.3611874" lon="85.0997455"><time>2024-08-03T04:20:07.497</time></trkpt><trkpt lat="56.3611623" lon="85.0996732"><time>2024-08-03T04:20:11.520</time></trkpt><trkpt lat="56.3611232" lon="85.0995963"><time>2024-08-03T04:20:15.483</time></trkpt><trkpt lat="56.3611238" lon="85.0994931"><time>2024-08-03T04:20:19.540</time></trkpt><trkpt lat="56.3611287" lon="85.0994110"><time>2024-08-03T04:20:22.490</time></trkpt><trkpt lat="56.3611216" lon="85.0993283"><time>2024-08-03T04:20:25.493</time></trkpt><trkpt lat="56.3611085" lon="85.0992467"><time>2024-08-03T04:20:29.113</time></trkpt><trkpt lat="56.3610954" lon="85.0991676"><time>2024-08-03T04:20:31.503</time></trkpt><trkpt lat="56.3610789" lon="85.0990679"><time>2024-08-03T04:20:35.493</time></trkpt><trkpt lat="56.3610598" lon="85.0989669"><time>2024-08-03T04:20:39.553</time></trkpt><trkpt lat="56.3610489" lon="85.0988626"><time>2024-08-03T04:20:43.460</time></trkpt><trkpt lat="56.3610284" lon="85.0987899"><time>2024-08-03T04:20:46.537</time></trkpt><trkpt lat="56.3610101" lon="85.0986930"><time>2024-08-03T04:20:50.417</time></trkpt><trkpt lat="56.3609917" lon="85.0985904"><time>2024-08-03T04:20:54.480</time></trkpt><trkpt lat="56.3609696" lon="85.0985151"><time>2024-08-03T04:20:57.467</time></trkpt><trkpt lat="56.3609504" lon="85.0984373"><time>2024-08-03T04:21:00.573</time></trkpt><trkpt lat="56.3609374" lon="85.0983369"><time>2024-08-03T04:21:04.420</time></trkpt><trkpt lat="56.3609242" lon="85.0982499"><time>2024-08-03T04:21:08.420</time></trkpt><trkpt lat="56.3609017" lon="85.0981790"><time>2024-08-03T04:21:12.377</time></trkpt><trkpt lat="56.3608667" lon="85.0981275"><time>2024-08-03T04:21:48.413</time></trkpt><trkpt lat="56.3608267" lon="85.0980613"><time>2024-08-03T04:21:53.427</time></trkpt><trkpt lat="56.3607867" lon="85.0979979"><time>2024-08-03T04:21:58.367</time></trkpt><trkpt lat="56.3607484" lon="85.0979503"><time>2024-08-03T04:22:02.363</time></trkpt><trkpt lat="56.3607023" lon="85.0979114"><time>2024-08-03T04:22:06.370</time></trkpt><trkpt lat="56.3606495" lon="85.0978771"><time>2024-08-03T04:22:11.363</time></trkpt><trkpt lat="56.3606025" lon="85.0978569"><time>2024-08-03T04:22:15.417</time></trkpt><trkpt lat="56.3605547" lon="85.0978465"><time>2024-08-03T04:22:19.417</time></trkpt><trkpt lat="56.3605057" lon="85.0978535"><time>2024-08-03T04:22:24.393</time></trkpt><trkpt lat="56.3604567" lon="85.0978450"><time>2024-08-03T04:22:56.410</time></trkpt><trkpt lat="56.3604036" lon="85.0978564"><time>2024-08-03T04:23:01.417</time></trkpt><trkpt lat="56.3603528" lon="85.0978914"><time>2024-08-03T04:23:37.423</time></trkpt><trkpt lat="56.3603104" lon="85.0979211"><time>2024-08-03T04:23:40.407</time></trkpt><trkpt lat="56.3602614" lon="85.0979637"><time>2024-08-03T04:23:44.400</time></trkpt><trkpt lat="56.3602159" lon="85.0979768"><time>2024-08-03T04:23:47.433</time></trkpt><trkpt lat="56.3601608" lon="85.0980067"><time>2024-08-03T04:23:51.377</time></trkpt><trkpt lat="56.3601084" lon="85.0980458"><time>2024-08-03T04:23:55.397</time></trkpt><trkpt lat="56.3600645" lon="85.0980905"><time>2024-08-03T04:23:59.517</time></trkpt><trkpt lat="56.3600190" lon="85.0981239"><time>2024-08-03T04:24:03.547</time></trkpt><trkpt lat="56.3599770" lon="85.0981649"><time>2024-08-03T04:24:07.393</time></trkpt><trkpt lat="56.3599300" lon="85.0982024"><time>2024-08-03T04:24:11.513</time></trkpt><trkpt lat="56.3598873" lon="85.0982598"><time>2024-08-03T04:24:15.470</time></trkpt><trkpt lat="56.3598472" lon="85.0983076"><time>2024-08-03T04:24:19.507</time></trkpt><trkpt lat="56.3597980" lon="85.0983545"><time>2024-08-03T04:24:23.467</time></trkpt><trkpt lat="56.3597527" lon="85.0983999"><time>2024-08-03T04:24:27.527</time></trkpt><trkpt lat="56.3597026" lon="85.0984449"><time>2024-08-03T04:24:31.487</time></trkpt><trkpt lat="56.3596550" lon="85.0984947"><time>2024-08-03T04:24:35.507</time></trkpt><trkpt lat="56.3596047" lon="85.0985428"><time>2024-08-03T04:24:39.520</time></trkpt><trkpt lat="56.3595503" lon="85.0985924"><time>2024-08-03T04:24:43.493</time></trkpt><trkpt lat="56.3594973" lon="85.0986420"><time>2024-08-03T04:24:47.473</time></trkpt><trkpt lat="56.3594447" lon="85.0986915"><time>2024-08-03T04:24:51.540</time></trkpt><trkpt lat="56.3593949" lon="85.0987364"><time>2024-08-03T04:24:55.470</time></trkpt><trkpt lat="56.3593401" lon="85.0987721"><time>2024-08-03T04:24:59.460</time></trkpt><trkpt lat="56.3592955" lon="85.0988061"><time>2024-08-03T04:25:02.557</time></trkpt><trkpt lat="56.3592545" lon="85.0988418"><time>2024-08-03T04:25:05.520</time></trkpt><trkpt lat="56.3592125" lon="85.0988766"><time>2024-08-03T04:25:08.497</time></trkpt><trkpt lat="56.3591705" lon="85.0989083"><time>2024-08-03T04:25:11.457</time></trkpt><trkpt lat="56.3591163" lon="85.0989563"><time>2024-08-03T04:25:15.537</time></trkpt><trkpt lat="56.3590679" lon="85.0989963"><time>2024-08-03T04:25:19.503</time></trkpt><trkpt lat="56.3590167" lon="85.0990290"><time>2024-08-03T04:25:23.380</time></trkpt><trkpt lat="56.3589653" lon="85.0990524"><time>2024-08-03T04:25:27.360</time></trkpt><trkpt lat="56.3589139" lon="85.0990868"><time>2024-08-03T04:25:31.373</time></trkpt><trkpt lat="56.3588693" lon="85.0990973"><time>2024-08-03T04:25:34.407</time></trkpt><trkpt lat="56.3588114" lon="85.0991103"><time>2024-08-03T04:25:38.427</time></trkpt><trkpt lat="56.3587529" lon="85.0991197"><time>2024-08-03T04:25:42.400</time></trkpt><trkpt lat="56.3586962" lon="85.0991237"><time>2024-08-03T04:25:46.397</time></trkpt><trkpt lat="56.3586410" lon="85.0991247"><time>2024-08-03T04:25:50.427</time></trkpt><trkpt lat="56.3585897" lon="85.0991286"><time>2024-08-03T04:25:54.363</time></trkpt><trkpt lat="56.3585346" lon="85.0991226"><time>2024-08-03T04:25:58.367</time></trkpt><trkpt lat="56.3584847" lon="85.0991167"><time>2024-08-03T04:26:02.410</time></trkpt><trkpt lat="56.3584393" lon="85.0990966"><time>2024-08-03T04:26:06.390</time></trkpt><trkpt lat="56.3583889" lon="85.0990782"><time>2024-08-03T04:26:10.400</time></trkpt><trkpt lat="56.3583395" lon="85.0990505"><time>2024-08-03T04:26:14.410</time></trkpt><trkpt lat="56.3582913" lon="85.0990192"><time>2024-08-03T04:26:18.393</time></trkpt><trkpt lat="56.3582390" lon="85.0989744"><time>2024-08-03T04:26:22.403</time></trkpt><trkpt lat="56.3581973" lon="85.0989366"><time>2024-08-03T04:26:25.387</time></trkpt><trkpt lat="56.3581486" lon="85.0989005"><time>2024-08-03T04:26:28.413</time></trkpt><trkpt lat="56.3580983" lon="85.0988766"><time>2024-08-03T04:26:32.357</time></trkpt><trkpt lat="56.3580453" lon="85.0988503"><time>2024-08-03T04:26:36.390</time></trkpt><trkpt lat="56.3579967" lon="85.0988251"><time>2024-08-03T04:26:40.413</time></trkpt><trkpt lat="56.3579503" lon="85.0988003"><time>2024-08-03T04:26:44.400</time></trkpt><trkpt lat="56.3579126" lon="85.0987494"><time>2024-08-03T04:26:48.393</time></trkpt><trkpt lat="56.3578790" lon="85.0986834"><time>2024-08-03T04:26:52.360</time></trkpt><trkpt lat="56.3578484" lon="85.0986148"><time>2024-08-03T04:26:56.360</time></trkpt><trkpt lat="56.3578209" lon="85.0985370"><time>2024-08-03T04:27:00.420</time></trkpt><trkpt lat="56.3577908" lon="85.0984581"><time>2024-08-03T04:27:04.410</time></trkpt><trkpt lat="56.3577585" lon="85.0983808"><time>2024-08-03T04:27:08.370</time></trkpt><trkpt lat="56.3577298" lon="85.0983043"><time>2024-08-03T04:27:12.373</time></trkpt><trkpt lat="56.3577010" lon="85.0982187"><time>2024-08-03T04:27:16.413</time></trkpt><trkpt lat="56.3576715" lon="85.0981234"><time>2024-08-03T04:27:20.547</time></trkpt><trkpt lat="56.3576428" lon="85.0980332"><time>2024-08-03T04:27:24.513</time></trkpt><trkpt lat="56.3576201" lon="85.0979437"><time>2024-08-03T04:27:28.507</time></trkpt><trkpt lat="56.3575971" lon="85.0978677"><time>2024-08-03T04:27:31.557</time></trkpt><trkpt lat="56.3575815" lon="85.0977884"><time>2024-08-03T04:27:34.493</time></trkpt><trkpt lat="56.3575679" lon="85.0976906"><time>2024-08-03T04:27:38.493</time></trkpt><trkpt lat="56.3575420" lon="85.0976071"><time>2024-08-03T04:27:42.477</time></trkpt><trkpt lat="56.3575129" lon="85.0975286"><time>2024-08-03T04:27:46.483</time></trkpt><trkpt lat="56.3574825" lon="85.0974429"><time>2024-08-03T04:27:50.393</time></trkpt><trkpt lat="56.3574509" lon="85.0973729"><time>2024-08-03T04:27:54.557</time></trkpt><trkpt lat="56.3574191" lon="85.0972880"><time>2024-08-03T04:27:58.403</time></trkpt><trkpt lat="56.3573939" lon="85.0972175"><time>2024-08-03T04:28:01.553</time></trkpt><trkpt lat="56.3573695" lon="85.0971446"><time>2024-08-03T04:28:04.563</time></trkpt><trkpt lat="56.3573359" lon="85.0970583"><time>2024-08-03T04:28:08.580</time></trkpt><trkpt lat="56.3573089" lon="85.0969879"><time>2024-08-03T04:28:11.410</time></trkpt><trkpt lat="56.3572801" lon="85.0968998"><time>2024-08-03T04:28:15.420</time></trkpt><trkpt lat="56.3572550" lon="85.0968112"><time>2024-08-03T04:28:19.417</time></trkpt><trkpt lat="56.3572307" lon="85.0967312"><time>2024-08-03T04:28:23.487</time></trkpt><trkpt lat="56.3572051" lon="85.0966504"><time>2024-08-03T04:28:27.530</time></trkpt><trkpt lat="56.3571786" lon="85.0965733"><time>2024-08-03T04:28:31.490</time></trkpt><trkpt lat="56.3571593" lon="85.0964978"><time>2024-08-03T04:28:35.507</time></trkpt><trkpt lat="56.3571310" lon="85.0964125"><time>2024-08-03T04:28:39.490</time></trkpt><trkpt lat="56.3570984" lon="85.0963264"><time>2024-08-03T04:28:43.417</time></trkpt><trkpt lat="56.3570652" lon="85.0962434"><time>2024-08-03T04:28:47.417</time></trkpt><trkpt lat="56.3570407" lon="85.0961641"><time>2024-08-03T04:28:50.513</time></trkpt><trkpt lat="56.3570074" lon="85.0960754"><time>2024-08-03T04:28:54.493</time></trkpt><trkpt lat="56.3569751" lon="85.0959932"><time>2024-08-03T04:28:58.367</time></trkpt><trkpt lat="56.3569434" lon="85.0959136"><time>2024-08-03T04:29:02.380</time></trkpt><trkpt lat="56.3569111" lon="85.0958311"><time>2024-08-03T04:29:06.423</time></trkpt><trkpt lat="56.3568790" lon="85.0957456"><time>2024-08-03T04:29:10.417</time></trkpt><trkpt lat="56.3568490" lon="85.0956657"><time>2024-08-03T04:29:14.407</time></trkpt><trkpt lat="56.3568196" lon="85.0955902"><time>2024-08-03T04:29:18.397</time></trkpt><trkpt lat="56.3567974" lon="85.0955035"><time>2024-08-03T04:29:22.403</time></trkpt><trkpt lat="56.3567708" lon="85.0954169"><time>2024-08-03T04:29:26.400</time></trkpt><trkpt lat="56.3567397" lon="85.0953304"><time>2024-08-03T04:29:30.407</time></trkpt><trkpt lat="56.3567093" lon="85.0952476"><time>2024-08-03T04:29:34.413</time></trkpt><trkpt lat="56.3566824" lon="85.0951609"><time>2024-08-03T04:29:38.397</time></trkpt><trkpt lat="56.3566524" lon="85.0950794"><time>2024-08-03T04:29:42.397</time></trkpt><trkpt lat="56.3566159" lon="85.0949965"><time>2024-08-03T04:29:46.373</time></trkpt><trkpt lat="56.3565856" lon="85.0949112"><time>2024-08-03T04:29:50.413</time></trkpt><trkpt lat="56.3565518" lon="85.0948236"><time>2024-08-03T04:29:54.383</time></trkpt><trkpt lat="56.3565202" lon="85.0947343"><time>2024-08-03T04:29:58.420</time></trkpt><trkpt lat="56.3564876" lon="85.0946476"><time>2024-08-03T04:30:02.403</time></trkpt><trkpt lat="56.3564534" lon="85.0945606"><time>2024-08-03T04:30:06.403</time></trkpt><trkpt lat="56.3564246" lon="85.0944723"><time>2024-08-03T04:30:10.403</time></trkpt><trkpt lat="56.3563991" lon="85.0943978"><time>2024-08-03T04:30:14.403</time></trkpt><trkpt lat="56.3563691" lon="85.0943344"><time>2024-08-03T04:30:18.397</time></trkpt><trkpt lat="56.3563380" lon="85.0942735"><time>2024-08-03T04:30:32.367</time></trkpt><trkpt lat="56.3562882" lon="85.0942251"><time>2024-08-03T04:30:39.410</time></trkpt><trkpt lat="56.3562296" lon="85.0942057"><time>2024-08-03T04:30:43.387</time></trkpt><trkpt lat="56.3561750" lon="85.0942183"><time>2024-08-03T04:30:47.420</time></trkpt><trkpt lat="56.3561382" lon="85.0942673"><time>2024-08-03T04:30:50.397</time></trkpt><trkpt lat="56.3561016" lon="85.0943167"><time>2024-08-03T04:30:53.383</time></trkpt><trkpt lat="56.3560585" lon="85.0943666"><time>2024-08-03T04:30:57.370</time></trkpt><trkpt lat="56.3560121" lon="85.0944267"><time>2024-08-03T04:31:01.380</time></trkpt><trkpt lat="56.3559657" lon="85.0944894"><time>2024-08-03T04:31:05.383</time></trkpt><trkpt lat="56.3559245" lon="85.0945449"><time>2024-08-03T04:31:09.420</time></trkpt><trkpt lat="56.3558745" lon="85.0945931"><time>2024-08-03T04:31:13.370</time></trkpt><trkpt lat="56.3558288" lon="85.0946528"><time>2024-08-03T04:31:17.390</time></trkpt><trkpt lat="56.3557801" lon="85.0947109"><time>2024-08-03T04:31:21.383</time></trkpt><trkpt lat="56.3557345" lon="85.0947678"><time>2024-08-03T04:31:25.393</time></trkpt><trkpt lat="56.3556892" lon="85.0948268"><time>2024-08-03T04:31:29.397</time></trkpt><trkpt lat="56.3556430" lon="85.0948791"><time>2024-08-03T04:31:33.387</time></trkpt><trkpt lat="56.3555939" lon="85.0949326"><time>2024-08-03T04:31:37.393</time></trkpt><trkpt lat="56.3555515" lon="85.0949948"><time>2024-08-03T04:31:41.397</time></trkpt><trkpt lat="56.3555030" lon="85.0950534"><time>2024-08-03T04:31:45.393</time></trkpt><trkpt lat="56.3554578" lon="85.0951147"><time>2024-08-03T04:31:49.390</time></trkpt><trkpt lat="56.3554165" lon="85.0951846"><time>2024-08-03T04:31:53.393</time></trkpt><trkpt lat="56.3553853" lon="85.0952588"><time>2024-08-03T04:31:57.377</time></trkpt><trkpt lat="56.3553458" lon="85.0953139"><time>2024-08-03T04:32:01.407</time></trkpt><trkpt lat="56.3553055" lon="85.0953770"><time>2024-08-03T04:32:05.377</time></trkpt><trkpt lat="56.3552785" lon="85.0954611"><time>2024-08-03T04:32:10.363</time></trkpt><trkpt lat="56.3552494" lon="85.0955296"><time>2024-08-03T04:32:16.423</time></trkpt><trkpt lat="56.3552647" lon="85.0954453"><time>2024-08-03T04:32:47.363</time></trkpt><trkpt lat="56.3552986" lon="85.0953837"><time>2024-08-03T04:32:51.367</time></trkpt><trkpt lat="56.3553351" lon="85.0953252"><time>2024-08-03T04:32:55.373</time></trkpt><trkpt lat="56.3553742" lon="85.0952782"><time>2024-08-03T04:32:59.403</time></trkpt><trkpt lat="56.3554176" lon="85.0952264"><time>2024-08-03T04:33:03.377</time></trkpt><trkpt lat="56.3554639" lon="85.0951740"><time>2024-08-03T04:33:07.387</time></trkpt><trkpt lat="56.3555067" lon="85.0951115"><time>2024-08-03T04:33:11.363</time></trkpt><trkpt lat="56.3555538" lon="85.0950456"><time>2024-08-03T04:33:15.400</time></trkpt><trkpt lat="56.3555929" lon="85.0949965"><time>2024-08-03T04:33:19.380</time></trkpt><trkpt lat="56.3556295" lon="85.0949355"><time>2024-08-03T04:33:23.433</time></trkpt><trkpt lat="56.3556725" lon="85.0948810"><time>2024-08-03T04:33:27.543</time></trkpt><trkpt lat="56.3557121" lon="85.0948323"><time>2024-08-03T04:33:30.487</time></trkpt><trkpt lat="56.3557547" lon="85.0947724"><time>2024-08-03T04:33:34.573</time></trkpt><trkpt lat="56.3557954" lon="85.0947231"><time>2024-08-03T04:33:37.403</time></trkpt><trkpt lat="56.3558355" lon="85.0946635"><time>2024-08-03T04:33:42.560</time></trkpt><trkpt lat="56.3558822" lon="85.0946007"><time>2024-08-03T04:33:46.530</time></trkpt><trkpt lat="56.3559222" lon="85.0945454"><time>2024-08-03T04:33:50.487</time></trkpt><trkpt lat="56.3559611" lon="85.0944864"><time>2024-08-03T04:33:54.387</time></trkpt><trkpt lat="56.3560077" lon="85.0944257"><time>2024-08-03T04:33:58.433</time></trkpt><trkpt lat="56.3560472" lon="85.0943755"><time>2024-08-03T04:34:02.553</time></trkpt><trkpt lat="56.3560918" lon="85.0943206"><time>2024-08-03T04:34:06.490</time></trkpt><trkpt lat="56.3561364" lon="85.0942659"><time>2024-08-03T04:34:11.533</time></trkpt><trkpt lat="56.3561821" lon="85.0942107"><time>2024-08-03T04:34:15.383</time></trkpt><trkpt lat="56.3562239" lon="85.0941512"><time>2024-08-03T04:34:19.363</time></trkpt><trkpt lat="56.3562696" lon="85.0940939"><time>2024-08-03T04:34:23.367</time></trkpt><trkpt lat="56.3563137" lon="85.0940373"><time>2024-08-03T04:34:27.367</time></trkpt><trkpt lat="56.3563588" lon="85.0939824"><time>2024-08-03T04:34:31.367</time></trkpt><trkpt lat="56.3564048" lon="85.0939313"><time>2024-08-03T04:34:35.360</time></trkpt><trkpt lat="56.3564493" lon="85.0938892"><time>2024-08-03T04:34:39.393</time></trkpt><trkpt lat="56.3564933" lon="85.0938396"><time>2024-08-03T04:34:43.363</time></trkpt><trkpt lat="56.3565390" lon="85.0937862"><time>2024-08-03T04:34:47.367</time></trkpt><trkpt lat="56.3565861" lon="85.0937354"><time>2024-08-03T04:34:51.357</time></trkpt><trkpt lat="56.3566329" lon="85.0936890"><time>2024-08-03T04:34:55.363</time></trkpt><trkpt lat="56.3566834" lon="85.0936496"><time>2024-08-03T04:34:59.367</time></trkpt><trkpt lat="56.3567321" lon="85.0936112"><time>2024-08-03T04:35:03.367</time></trkpt><trkpt lat="56.3567708" lon="85.0935657"><time>2024-08-03T04:35:07.363</time></trkpt><trkpt lat="56.3568103" lon="85.0935135"><time>2024-08-03T04:35:11.357</time></trkpt><trkpt lat="56.3568558" lon="85.0934759"><time>2024-08-03T04:35:15.367</time></trkpt><trkpt lat="56.3569007" lon="85.0934371"><time>2024-08-03T04:35:19.360</time></trkpt><trkpt lat="56.3569438" lon="85.0933899"><time>2024-08-03T04:35:23.367</time></trkpt><trkpt lat="56.3569876" lon="85.0933457"><time>2024-08-03T04:35:27.363</time></trkpt><trkpt lat="56.3570314" lon="85.0932985"><time>2024-08-03T04:35:31.373</time></trkpt><trkpt lat="56.3570746" lon="85.0932484"><time>2024-08-03T04:35:35.403</time></trkpt><trkpt lat="56.3571185" lon="85.0932071"><time>2024-08-03T04:35:39.367</time></trkpt><trkpt lat="56.3571620" lon="85.0931571"><time>2024-08-03T04:35:43.390</time></trkpt><trkpt lat="56.3572009" lon="85.0931127"><time>2024-08-03T04:35:47.380</time></trkpt><trkpt lat="56.3572478" lon="85.0930606"><time>2024-08-03T04:35:51.500</time></trkpt><trkpt lat="56.3572995" lon="85.0930132"><time>2024-08-03T04:35:55.493</time></trkpt><trkpt lat="56.3573386" lon="85.0929665"><time>2024-08-03T04:35:58.573</time></trkpt><trkpt lat="56.3573887" lon="85.0929285"><time>2024-08-03T04:36:02.420</time></trkpt><trkpt lat="56.3574354" lon="85.0928923"><time>2024-08-03T04:36:06.420</time></trkpt><trkpt lat="56.3574806" lon="85.0928570"><time>2024-08-03T04:36:10.407</time></trkpt><trkpt lat="56.3575224" lon="85.0928227"><time>2024-08-03T04:36:14.417</time></trkpt><trkpt lat="56.3575748" lon="85.0927844"><time>2024-08-03T04:36:18.403</time></trkpt><trkpt lat="56.3576133" lon="85.0927427"><time>2024-08-03T04:36:21.420</time></trkpt><trkpt lat="56.3576555" lon="85.0927048"><time>2024-08-03T04:36:24.380</time></trkpt><trkpt lat="56.3577044" lon="85.0926604"><time>2024-08-03T04:36:28.383</time></trkpt><trkpt lat="56.3577491" lon="85.0926190"><time>2024-08-03T04:36:32.397</time></trkpt><trkpt lat="56.3577909" lon="85.0925696"><time>2024-08-03T04:36:36.413</time></trkpt><trkpt lat="56.3578328" lon="85.0925238"><time>2024-08-03T04:36:40.413</time></trkpt><trkpt lat="56.3578707" lon="85.0924762"><time>2024-08-03T04:36:43.467</time></trkpt><trkpt lat="56.3579202" lon="85.0924242"><time>2024-08-03T04:36:47.553</time></trkpt><trkpt lat="56.3579624" lon="85.0923831"><time>2024-08-03T04:36:50.400</time></trkpt><trkpt lat="56.3580021" lon="85.0923380"><time>2024-08-03T04:36:53.457</time></trkpt><trkpt lat="56.3580405" lon="85.0922906"><time>2024-08-03T04:36:56.550</time></trkpt><trkpt lat="56.3580813" lon="85.0922319"><time>2024-08-03T04:37:00.537</time></trkpt><trkpt lat="56.3581198" lon="85.0921662"><time>2024-08-03T04:37:04.503</time></trkpt><trkpt lat="56.3581534" lon="85.0921049"><time>2024-08-03T04:37:08.477</time></trkpt><trkpt lat="56.3581825" lon="85.0920419"><time>2024-08-03T04:37:12.453</time></trkpt><trkpt lat="56.3582131" lon="85.0919562"><time>2024-08-03T04:37:16.480</time></trkpt><trkpt lat="56.3582415" lon="85.0918888"><time>2024-08-03T04:37:19.537</time></trkpt><trkpt lat="56.3582719" lon="85.0918067"><time>2024-08-03T04:37:23.443</time></trkpt><trkpt lat="56.3583010" lon="85.0917144"><time>2024-08-03T04:37:27.550</time></trkpt><trkpt lat="56.3583237" lon="85.0916194"><time>2024-08-03T04:37:31.493</time></trkpt><trkpt lat="56.3583470" lon="85.0915304"><time>2024-08-03T04:37:35.573</time></trkpt><trkpt lat="56.3583702" lon="85.0914443"><time>2024-08-03T04:37:39.470</time></trkpt><trkpt lat="56.3583907" lon="85.0913639"><time>2024-08-03T04:37:43.537</time></trkpt><trkpt lat="56.3584119" lon="85.0912613"><time>2024-08-03T04:37:47.437</time></trkpt><trkpt lat="56.3584271" lon="85.0911739"><time>2024-08-03T04:37:52.473</time></trkpt><trkpt lat="56.3584410" lon="85.0910803"><time>2024-08-03T04:37:55.550</time></trkpt><trkpt lat="56.3584581" lon="85.0909784"><time>2024-08-03T04:37:59.537</time></trkpt><trkpt lat="56.3584725" lon="85.0908793"><time>2024-08-03T04:38:03.353</time></trkpt><trkpt lat="56.3584822" lon="85.0907829"><time>2024-08-03T04:38:07.380</time></trkpt><trkpt lat="56.3584893" lon="85.0906831"><time>2024-08-03T04:38:11.397</time></trkpt><trkpt lat="56.3584992" lon="85.0905869"><time>2024-08-03T04:38:15.397</time></trkpt><trkpt lat="56.3585102" lon="85.0904919"><time>2024-08-03T04:38:19.393</time></trkpt><trkpt lat="56.3585152" lon="85.0903992"><time>2024-08-03T04:38:23.423</time></trkpt><trkpt lat="56.3585317" lon="85.0903043"><time>2024-08-03T04:38:27.480</time></trkpt><trkpt lat="56.3585440" lon="85.0902117"><time>2024-08-03T04:38:31.407</time></trkpt><trkpt lat="56.3585582" lon="85.0901178"><time>2024-08-03T04:38:35.383</time></trkpt><trkpt lat="56.3585703" lon="85.0900163"><time>2024-08-03T04:38:39.407</time></trkpt><trkpt lat="56.3585810" lon="85.0899133"><time>2024-08-03T04:38:43.397</time></trkpt><trkpt lat="56.3585896" lon="85.0898108"><time>2024-08-03T04:38:47.407</time></trkpt><trkpt lat="56.3585968" lon="85.0897257"><time>2024-08-03T04:38:50.470</time></trkpt><trkpt lat="56.3586091" lon="85.0896465"><time>2024-08-03T04:38:53.417</time></trkpt><trkpt lat="56.3586262" lon="85.0895554"><time>2024-08-03T04:38:57.537</time></trkpt><trkpt lat="56.3586335" lon="85.0894593"><time>2024-08-03T04:39:01.537</time></trkpt><trkpt lat="56.3586433" lon="85.0893626"><time>2024-08-03T04:39:05.563</time></trkpt><trkpt lat="56.3586525" lon="85.0892648"><time>2024-08-03T04:39:09.400</time></trkpt><trkpt lat="56.3586634" lon="85.0891707"><time>2024-08-03T04:39:13.427</time></trkpt><trkpt lat="56.3586693" lon="85.0890798"><time>2024-08-03T04:39:17.427</time></trkpt><trkpt lat="56.3586789" lon="85.0889755"><time>2024-08-03T04:39:21.410</time></trkpt><trkpt lat="56.3586839" lon="85.0888795"><time>2024-08-03T04:39:25.413</time></trkpt><trkpt lat="56.3586927" lon="85.0887746"><time>2024-08-03T04:39:29.387</time></trkpt><trkpt lat="56.3587094" lon="85.0886811"><time>2024-08-03T04:39:33.397</time></trkpt><trkpt lat="56.3587176" lon="85.0885783"><time>2024-08-03T04:39:37.407</time></trkpt><trkpt lat="56.3587248" lon="85.0884949"><time>2024-08-03T04:39:40.537</time></trkpt><trkpt lat="56.3587363" lon="85.0883927"><time>2024-08-03T04:39:44.370</time></trkpt><trkpt lat="56.3587384" lon="85.0882936"><time>2024-08-03T04:39:48.363</time></trkpt><trkpt lat="56.3587450" lon="85.0881892"><time>2024-08-03T04:39:52.387</time></trkpt><trkpt lat="56.3587549" lon="85.0880846"><time>2024-08-03T04:39:56.420</time></trkpt><trkpt lat="56.3587626" lon="85.0879831"><time>2024-08-03T04:40:00.383</time></trkpt><trkpt lat="56.3587686" lon="85.0878779"><time>2024-08-03T04:40:04.393</time></trkpt><trkpt lat="56.3587734" lon="85.0877972"><time>2024-08-03T04:40:07.410</time></trkpt><trkpt lat="56.3587850" lon="85.0876987"><time>2024-08-03T04:40:11.363</time></trkpt><trkpt lat="56.3587899" lon="85.0876027"><time>2024-08-03T04:40:15.367</time></trkpt><trkpt lat="56.3587979" lon="85.0875090"><time>2024-08-03T04:40:19.387</time></trkpt><trkpt lat="56.3588068" lon="85.0874120"><time>2024-08-03T04:40:23.380</time></trkpt><trkpt lat="56.3588180" lon="85.0873128"><time>2024-08-03T04:40:27.387</time></trkpt><trkpt lat="56.3588293" lon="85.0872171"><time>2024-08-03T04:40:31.380</time></trkpt><trkpt lat="56.3588356" lon="85.0871209"><time>2024-08-03T04:40:35.373</time></trkpt><trkpt lat="56.3588409" lon="85.0870205"><time>2024-08-03T04:40:39.390</time></trkpt><trkpt lat="56.3588474" lon="85.0869218"><time>2024-08-03T04:40:43.417</time></trkpt><trkpt lat="56.3588559" lon="85.0868405"><time>2024-08-03T04:40:46.403</time></trkpt><trkpt lat="56.3588663" lon="85.0867375"><time>2024-08-03T04:40:50.393</time></trkpt><trkpt lat="56.3588726" lon="85.0866378"><time>2024-08-03T04:40:54.400</time></trkpt><trkpt lat="56.3588790" lon="85.0865414"><time>2024-08-03T04:40:58.400</time></trkpt><trkpt lat="56.3588941" lon="85.0864449"><time>2024-08-03T04:41:02.383</time></trkpt><trkpt lat="56.3589405" lon="85.0863855"><time>2024-08-03T04:41:06.403</time></trkpt><trkpt lat="56.3589852" lon="85.0864013"><time>2024-08-03T04:41:09.393</time></trkpt><trkpt lat="56.3590271" lon="85.0864330"><time>2024-08-03T04:41:12.387</time></trkpt><trkpt lat="56.3590827" lon="85.0864623"><time>2024-08-03T04:41:16.397</time></trkpt><trkpt lat="56.3591337" lon="85.0864863"><time>2024-08-03T04:41:20.397</time></trkpt><trkpt lat="56.3591835" lon="85.0865214"><time>2024-08-03T04:41:24.403</time></trkpt><trkpt lat="56.3592348" lon="85.0865566"><time>2024-08-03T04:41:28.417</time></trkpt><trkpt lat="56.3592882" lon="85.0865984"><time>2024-08-03T04:41:32.390</time></trkpt><trkpt lat="56.3593386" lon="85.0866293"><time>2024-08-03T04:41:36.400</time></trkpt><trkpt lat="56.3593873" lon="85.0866593"><time>2024-08-03T04:41:40.383</time></trkpt><trkpt lat="56.3594285" lon="85.0866994"><time>2024-08-03T04:41:43.390</time></trkpt><trkpt lat="56.3594739" lon="85.0867239"><time>2024-08-03T04:41:46.407</time></trkpt><trkpt lat="56.3595270" lon="85.0867540"><time>2024-08-03T04:41:50.400</time></trkpt><trkpt lat="56.3595718" lon="85.0867771"><time>2024-08-03T04:41:53.400</time></trkpt><trkpt lat="56.3596193" lon="85.0868072"><time>2024-08-03T04:41:56.390</time></trkpt><trkpt lat="56.3596657" lon="85.0868391"><time>2024-08-03T04:41:59.383</time></trkpt><trkpt lat="56.3597172" lon="85.0868851"><time>2024-08-03T04:42:03.387</time></trkpt><trkpt lat="56.3597604" lon="85.0869249"><time>2024-08-03T04:42:06.393</time></trkpt><trkpt lat="56.3598151" lon="85.0869635"><time>2024-08-03T04:42:10.387</time></trkpt><trkpt lat="56.3598615" lon="85.0869785"><time>2024-08-03T04:42:13.357</time></trkpt><trkpt lat="56.3599120" lon="85.0869971"><time>2024-08-03T04:42:16.407</time></trkpt><trkpt lat="56.3599600" lon="85.0870076"><time>2024-08-03T04:42:19.390</time></trkpt><trkpt lat="56.3600055" lon="85.0870070"><time>2024-08-03T04:42:22.380</time></trkpt><trkpt lat="56.3600550" lon="85.0870012"><time>2024-08-03T04:42:25.417</time></trkpt><trkpt lat="56.3601111" lon="85.0869886"><time>2024-08-03T04:42:29.397</time></trkpt><trkpt lat="56.3601646" lon="85.0869647"><time>2024-08-03T04:42:33.390</time></trkpt><trkpt lat="56.3602182" lon="85.0869248"><time>2024-08-03T04:42:37.413</time></trkpt><trkpt lat="56.3602706" lon="85.0868695"><time>2024-08-03T04:42:41.387</time></trkpt><trkpt lat="56.3603195" lon="85.0868228"><time>2024-08-03T04:42:45.377</time></trkpt><trkpt lat="56.3603722" lon="85.0867836"><time>2024-08-03T04:42:49.390</time></trkpt><trkpt lat="56.3604061" lon="85.0867009"><time>2024-08-03T04:42:53.417</time></trkpt><trkpt lat="56.3604271" lon="85.0866008"><time>2024-08-03T04:42:57.367</time></trkpt><trkpt lat="56.3604399" lon="85.0864961"><time>2024-08-03T04:43:01.373</time></trkpt><trkpt lat="56.3604415" lon="85.0863900"><time>2024-08-03T04:43:05.373</time></trkpt><trkpt lat="56.3604340" lon="85.0863101"><time>2024-08-03T04:43:08.390</time></trkpt><trkpt lat="56.3604236" lon="85.0862292"><time>2024-08-03T04:43:11.367</time></trkpt><trkpt lat="56.3604132" lon="85.0861319"><time>2024-08-03T04:43:15.390</time></trkpt><trkpt lat="56.3603972" lon="85.0860295"><time>2024-08-03T04:43:19.357</time></trkpt><trkpt lat="56.3603924" lon="85.0859304"><time>2024-08-03T04:43:23.403</time></trkpt><trkpt lat="56.3604013" lon="85.0858268"><time>2024-08-03T04:43:27.397</time></trkpt><trkpt lat="56.3603931" lon="85.0857233"><time>2024-08-03T04:43:31.390</time></trkpt><trkpt lat="56.3603731" lon="85.0856479"><time>2024-08-03T04:43:34.380</time></trkpt><trkpt lat="56.3603356" lon="85.0855654"><time>2024-08-03T04:43:38.397</time></trkpt><trkpt lat="56.3603050" lon="85.0854997"><time>2024-08-03T04:43:41.387</time></trkpt><trkpt lat="56.3602738" lon="85.0854225"><time>2024-08-03T04:43:45.397</time></trkpt><trkpt lat="56.3602279" lon="85.0854087"><time>2024-08-03T04:43:49.397</time></trkpt><trkpt lat="56.3602014" lon="85.0853705"><time>2024-08-03T04:43:54.207</time></trkpt><trkpt lat="56.3602615" lon="85.0854876"><time>2024-08-03T04:44:04.380</time></trkpt><trkpt lat="56.3603027" lon="85.0855504"><time>2024-08-03T04:44:09.513</time></trkpt><trkpt lat="56.3603358" lon="85.0856162"><time>2024-08-03T04:44:13.533</time></trkpt><trkpt lat="56.3603746" lon="85.0856866"><time>2024-08-03T04:44:18.500</time></trkpt><trkpt lat="56.3604036" lon="85.0857490"><time>2024-08-03T04:44:23.350</time></trkpt><trkpt lat="56.3604439" lon="85.0856969"><time>2024-08-03T04:46:55.433</time></trkpt><trkpt lat="56.3604747" lon="85.0856172"><time>2024-08-03T04:46:59.417</time></trkpt><trkpt lat="56.3605072" lon="85.0855346"><time>2024-08-03T04:47:03.430</time></trkpt><trkpt lat="56.3605415" lon="85.0854528"><time>2024-08-03T04:47:07.420</time></trkpt><trkpt lat="56.3605725" lon="85.0853769"><time>2024-08-03T04:47:11.490</time></trkpt><trkpt lat="56.3606068" lon="85.0853087"><time>2024-08-03T04:47:15.477</time></trkpt><trkpt lat="56.3606367" lon="85.0852308"><time>2024-08-03T04:47:19.480</time></trkpt><trkpt lat="56.3606688" lon="85.0851550"><time>2024-08-03T04:47:23.540</time></trkpt><trkpt lat="56.3606940" lon="85.0850779"><time>2024-08-03T04:47:26.493</time></trkpt><trkpt lat="56.3607146" lon="85.0850020"><time>2024-08-03T04:47:29.417</time></trkpt><trkpt lat="56.3607269" lon="85.0848974"><time>2024-08-03T04:47:33.363</time></trkpt><trkpt lat="56.3607439" lon="85.0848060"><time>2024-08-03T04:47:37.367</time></trkpt><trkpt lat="56.3607599" lon="85.0847159"><time>2024-08-03T04:47:41.357</time></trkpt><trkpt lat="56.3607776" lon="85.0846339"><time>2024-08-03T04:47:45.350</time></trkpt><trkpt lat="56.3608020" lon="85.0845659"><time>2024-08-03T04:47:53.410</time></trkpt><trkpt lat="56.3608284" lon="85.0844820"><time>2024-08-03T04:47:57.407</time></trkpt><trkpt lat="56.3608591" lon="85.0843998"><time>2024-08-03T04:48:01.377</time></trkpt><trkpt lat="56.3608939" lon="85.0843211"><time>2024-08-03T04:48:05.397</time></trkpt><trkpt lat="56.3609315" lon="85.0842428"><time>2024-08-03T04:48:09.363</time></trkpt><trkpt lat="56.3609667" lon="85.0841819"><time>2024-08-03T04:48:13.403</time></trkpt><trkpt lat="56.3610072" lon="85.0841371"><time>2024-08-03T04:48:17.497</time></trkpt><trkpt lat="56.3610494" lon="85.0841039"><time>2024-08-03T04:48:20.483</time></trkpt><trkpt lat="56.3611031" lon="85.0840654"><time>2024-08-03T04:48:24.407</time></trkpt><trkpt lat="56.3611391" lon="85.0840161"><time>2024-08-03T04:48:29.410</time></trkpt><trkpt lat="56.3611512" lon="85.0839374"><time>2024-08-03T04:48:32.390</time></trkpt><trkpt lat="56.3611548" lon="85.0838530"><time>2024-08-03T04:48:36.493</time></trkpt><trkpt lat="56.3611566" lon="85.0837611"><time>2024-08-03T04:48:40.477</time></trkpt><trkpt lat="56.3611602" lon="85.0836731"><time>2024-08-03T04:48:44.463</time></trkpt><trkpt lat="56.3611823" lon="85.0835802"><time>2024-08-03T04:48:48.513</time></trkpt><trkpt lat="56.3611991" lon="85.0834878"><time>2024-08-03T04:48:52.400</time></trkpt><trkpt lat="56.3612263" lon="85.0834137"><time>2024-08-03T04:48:56.393</time></trkpt><trkpt lat="56.3612551" lon="85.0833284"><time>2024-08-03T04:49:00.397</time></trkpt><trkpt lat="56.3612841" lon="85.0832494"><time>2024-08-03T04:49:04.547</time></trkpt><trkpt lat="56.3613116" lon="85.0831793"><time>2024-08-03T04:49:07.537</time></trkpt><trkpt lat="56.3613353" lon="85.0831048"><time>2024-08-03T04:49:10.487</time></trkpt><trkpt lat="56.3613571" lon="85.0830262"><time>2024-08-03T04:49:13.510</time></trkpt><trkpt lat="56.3613887" lon="85.0829616"><time>2024-08-03T04:49:16.547</time></trkpt><trkpt lat="56.3614179" lon="85.0828881"><time>2024-08-03T04:49:20.503</time></trkpt><trkpt lat="56.3614467" lon="85.0828229"><time>2024-08-03T04:49:24.550</time></trkpt><trkpt lat="56.3614707" lon="85.0827324"><time>2024-08-03T04:49:29.467</time></trkpt><trkpt lat="56.3614946" lon="85.0826462"><time>2024-08-03T04:49:33.473</time></trkpt><trkpt lat="56.3615093" lon="85.0825631"><time>2024-08-03T04:49:36.563</time></trkpt><trkpt lat="56.3615201" lon="85.0824785"><time>2024-08-03T04:49:39.457</time></trkpt><trkpt lat="56.3615361" lon="85.0823861"><time>2024-08-03T04:49:43.477</time></trkpt><trkpt lat="56.3615330" lon="85.0822937"><time>2024-08-03T04:49:47.537</time></trkpt><trkpt lat="56.3615339" lon="85.0822065"><time>2024-08-03T04:49:51.473</time></trkpt><trkpt lat="56.3615329" lon="85.0821046"><time>2024-08-03T04:49:55.403</time></trkpt><trkpt lat="56.3615195" lon="85.0820093"><time>2024-08-03T04:49:59.540</time></trkpt><trkpt lat="56.3615062" lon="85.0819032"><time>2024-08-03T04:50:03.410</time></trkpt><trkpt lat="56.3614936" lon="85.0817987"><time>2024-08-03T04:50:07.403</time></trkpt><trkpt lat="56.3614866" lon="85.0817001"><time>2024-08-03T04:50:11.473</time></trkpt><trkpt lat="56.3614829" lon="85.0816186"><time>2024-08-03T04:50:14.453</time></trkpt><trkpt lat="56.3614736" lon="85.0815358"><time>2024-08-03T04:50:17.357</time></trkpt><trkpt lat="56.3614659" lon="85.0814417"><time>2024-08-03T04:50:21.360</time></trkpt><trkpt lat="56.3614567" lon="85.0813392"><time>2024-08-03T04:50:25.403</time></trkpt><trkpt lat="56.3614467" lon="85.0812406"><time>2024-08-03T04:50:29.480</time></trkpt><trkpt lat="56.3614278" lon="85.0811634"><time>2024-08-03T04:50:33.473</time></trkpt><trkpt lat="56.3613887" lon="85.0811112"><time>2024-08-03T04:50:37.480</time></trkpt><trkpt lat="56.3613506" lon="85.0810665"><time>2024-08-03T04:50:40.470</time></trkpt><trkpt lat="56.3612939" lon="85.0810477"><time>2024-08-03T04:50:44.423</time></trkpt><trkpt lat="56.3612398" lon="85.0810163"><time>2024-08-03T04:50:48.400</time></trkpt><trkpt lat="56.3611954" lon="85.0809969"><time>2024-08-03T04:50:51.397</time></trkpt><trkpt lat="56.3611486" lon="85.0809725"><time>2024-08-03T04:50:54.400</time></trkpt><trkpt lat="56.3610998" lon="85.0809265"><time>2024-08-03T04:50:58.387</time></trkpt><trkpt lat="56.3610579" lon="85.0808901"><time>2024-08-03T04:51:02.397</time></trkpt><trkpt lat="56.3610107" lon="85.0808327"><time>2024-08-03T04:51:07.467</time></trkpt><trkpt lat="56.3609860" lon="85.0807492"><time>2024-08-03T04:51:11.480</time></trkpt><trkpt lat="56.3609508" lon="85.0806970"><time>2024-08-03T04:51:33.460</time></trkpt><trkpt lat="56.3609114" lon="85.0806559"><time>2024-08-03T04:51:44.483</time></trkpt><trkpt lat="56.3608862" lon="85.0805806"><time>2024-08-03T04:51:58.477</time></trkpt><trkpt lat="56.3608638" lon="85.0804975"><time>2024-08-03T04:52:06.493</time></trkpt><trkpt lat="56.3591598" lon="85.0689021"><time>2024-08-03T05:18:42.793</time></trkpt><trkpt lat="56.3595998" lon="85.0686387"><time>2024-08-03T05:18:44.297</time></trkpt><trkpt lat="56.3596522" lon="85.0686338"><time>2024-08-03T05:18:48.197</time></trkpt><trkpt lat="56.3597014" lon="85.0686238"><time>2024-08-03T05:18:52.317</time></trkpt><trkpt lat="56.3597508" lon="85.0686151"><time>2024-08-03T05:18:54.327</time></trkpt><trkpt lat="56.3597980" lon="85.0686054"><time>2024-08-03T05:18:57.233</time></trkpt><trkpt lat="56.3598566" lon="85.0685887"><time>2024-08-03T05:19:01.320</time></trkpt><trkpt lat="56.3599129" lon="85.0685622"><time>2024-08-03T05:19:05.367</time></trkpt><trkpt lat="56.3599676" lon="85.0685404"><time>2024-08-03T05:19:09.390</time></trkpt><trkpt lat="56.3600201" lon="85.0685098"><time>2024-08-03T05:19:13.317</time></trkpt><trkpt lat="56.3600715" lon="85.0684784"><time>2024-08-03T05:19:17.323</time></trkpt><trkpt lat="56.3601250" lon="85.0684427"><time>2024-08-03T05:19:21.293</time></trkpt><trkpt lat="56.3601720" lon="85.0684228"><time>2024-08-03T05:19:25.310</time></trkpt><trkpt lat="56.3602278" lon="85.0684051"><time>2024-08-03T05:19:29.257</time></trkpt><trkpt lat="56.3602738" lon="85.0684086"><time>2024-08-03T05:19:32.363</time></trkpt><trkpt lat="56.3603320" lon="85.0684022"><time>2024-08-03T05:19:36.243</time></trkpt><trkpt lat="56.3603795" lon="85.0683811"><time>2024-08-03T05:19:39.317</time></trkpt><trkpt lat="56.3604288" lon="85.0683677"><time>2024-08-03T05:19:43.363</time></trkpt><trkpt lat="56.3604752" lon="85.0683531"><time>2024-08-03T05:19:47.387</time></trkpt><trkpt lat="56.3605234" lon="85.0683351"><time>2024-08-03T05:19:52.317</time></trkpt><trkpt lat="56.3605785" lon="85.0683077"><time>2024-08-03T05:19:57.323</time></trkpt><trkpt lat="56.3606194" lon="85.0682731"><time>2024-08-03T05:20:00.357</time></trkpt><trkpt lat="56.3606606" lon="85.0682283"><time>2024-08-03T05:20:03.367</time></trkpt><trkpt lat="56.3607027" lon="85.0681707"><time>2024-08-03T05:20:06.257</time></trkpt><trkpt lat="56.3607457" lon="85.0681194"><time>2024-08-03T05:20:10.333</time></trkpt><trkpt lat="56.3607845" lon="85.0680565"><time>2024-08-03T05:20:15.353</time></trkpt><trkpt lat="56.3608185" lon="85.0679906"><time>2024-08-03T05:20:18.337</time></trkpt><trkpt lat="56.3608539" lon="85.0679112"><time>2024-08-03T05:20:22.337</time></trkpt><trkpt lat="56.3608854" lon="85.0678504"><time>2024-08-03T05:20:26.373</time></trkpt><trkpt lat="56.3609237" lon="85.0677742"><time>2024-08-03T05:20:31.233</time></trkpt><trkpt lat="56.3609551" lon="85.0677100"><time>2024-08-03T05:20:34.313</time></trkpt><trkpt lat="56.3609933" lon="85.0676371"><time>2024-08-03T05:20:38.317</time></trkpt><trkpt lat="56.3610291" lon="85.0675804"><time>2024-08-03T05:20:43.337</time></trkpt><trkpt lat="56.3610698" lon="85.0675187"><time>2024-08-03T05:20:47.387</time></trkpt><trkpt lat="56.3611124" lon="85.0674555"><time>2024-08-03T05:20:51.317</time></trkpt><trkpt lat="56.3611520" lon="85.0673970"><time>2024-08-03T05:20:56.337</time></trkpt><trkpt lat="56.3611946" lon="85.0673430"><time>2024-08-03T05:21:00.310</time></trkpt><trkpt lat="56.3612348" lon="85.0672958"><time>2024-08-03T05:21:03.367</time></trkpt><trkpt lat="56.3612686" lon="85.0672247"><time>2024-08-03T05:21:08.360</time></trkpt><trkpt lat="56.3613003" lon="85.0671626"><time>2024-08-03T05:21:12.320</time></trkpt><trkpt lat="56.3613441" lon="85.0670918"><time>2024-08-03T05:21:16.377</time></trkpt><trkpt lat="56.3613697" lon="85.0670193"><time>2024-08-03T05:21:20.337</time></trkpt><trkpt lat="56.3614126" lon="85.0669466"><time>2024-08-03T05:21:25.383</time></trkpt><trkpt lat="56.3614564" lon="85.0669084"><time>2024-08-03T05:21:28.300</time></trkpt><trkpt lat="56.3615036" lon="85.0668758"><time>2024-08-03T05:21:31.353</time></trkpt><trkpt lat="56.3615539" lon="85.0668750"><time>2024-08-03T05:21:35.327</time></trkpt><trkpt lat="56.3616004" lon="85.0668827"><time>2024-08-03T05:21:40.333</time></trkpt><trkpt lat="56.3616571" lon="85.0668911"><time>2024-08-03T05:21:44.337</time></trkpt><trkpt lat="56.3616992" lon="85.0669266"><time>2024-08-03T05:21:47.213</time></trkpt><trkpt lat="56.3617378" lon="85.0669699"><time>2024-08-03T05:21:51.317</time></trkpt><trkpt lat="56.3617859" lon="85.0670164"><time>2024-08-03T05:21:56.210</time></trkpt><trkpt lat="56.3618265" lon="85.0670578"><time>2024-08-03T05:21:59.343</time></trkpt><trkpt lat="56.3618709" lon="85.0670896"><time>2024-08-03T05:22:02.320</time></trkpt><trkpt lat="56.3619191" lon="85.0671230"><time>2024-08-03T05:22:06.337</time></trkpt><trkpt lat="56.3619681" lon="85.0671570"><time>2024-08-03T05:22:11.380</time></trkpt><trkpt lat="56.3620222" lon="85.0671801"><time>2024-08-03T05:22:15.380</time></trkpt><trkpt lat="56.3620758" lon="85.0672095"><time>2024-08-03T05:22:19.410</time></trkpt><trkpt lat="56.3621221" lon="85.0672189"><time>2024-08-03T05:22:24.360</time></trkpt><trkpt lat="56.3621684" lon="85.0672128"><time>2024-08-03T05:22:27.190</time></trkpt><trkpt lat="56.3622175" lon="85.0671985"><time>2024-08-03T05:22:31.233</time></trkpt><trkpt lat="56.3622292" lon="85.0671066"><time>2024-08-03T05:22:47.203</time></trkpt><trkpt lat="56.3622161" lon="85.0670623"><time>2024-08-03T05:22:53.157</time></trkpt><trkpt lat="56.3622294" lon="85.0671898"><time>2024-08-03T05:23:17.233</time></trkpt><trkpt lat="56.3622776" lon="85.0671887"><time>2024-08-03T05:24:43.363</time></trkpt><trkpt lat="56.3623271" lon="85.0671980"><time>2024-08-03T05:24:48.193</time></trkpt><trkpt lat="56.3623805" lon="85.0672280"><time>2024-08-03T05:24:53.320</time></trkpt><trkpt lat="56.3624255" lon="85.0672433"><time>2024-08-03T05:26:52.343</time></trkpt><trkpt lat="56.3623703" lon="85.0672258"><time>2024-08-03T05:27:11.233</time></trkpt><trkpt lat="56.3623158" lon="85.0672112"><time>2024-08-03T05:27:16.323</time></trkpt><trkpt lat="56.3622653" lon="85.0672138"><time>2024-08-03T05:27:20.200</time></trkpt><trkpt lat="56.3622191" lon="85.0672206"><time>2024-08-03T05:27:24.243</time></trkpt><trkpt lat="56.3621674" lon="85.0672172"><time>2024-08-03T05:27:28.247</time></trkpt><trkpt lat="56.3621191" lon="85.0672198"><time>2024-08-03T05:27:32.307</time></trkpt><trkpt lat="56.3620647" lon="85.0672169"><time>2024-08-03T05:27:36.303</time></trkpt><trkpt lat="56.3620107" lon="85.0671912"><time>2024-08-03T05:27:40.303</time></trkpt><trkpt lat="56.3619642" lon="85.0671724"><time>2024-08-03T05:27:45.303</time></trkpt><trkpt lat="56.3619198" lon="85.0671473"><time>2024-08-03T05:27:50.283</time></trkpt><trkpt lat="56.3618694" lon="85.0671101"><time>2024-08-03T05:27:54.350</time></trkpt><trkpt lat="56.3618197" lon="85.0670704"><time>2024-08-03T05:27:58.397</time></trkpt><trkpt lat="56.3617761" lon="85.0670255"><time>2024-08-03T05:28:02.347</time></trkpt><trkpt lat="56.3617368" lon="85.0669843"><time>2024-08-03T05:28:06.303</time></trkpt><trkpt lat="56.3616891" lon="85.0669494"><time>2024-08-03T05:28:11.290</time></trkpt><trkpt lat="56.3616344" lon="85.0669181"><time>2024-08-03T05:28:14.197</time></trkpt><trkpt lat="56.3615769" lon="85.0668935"><time>2024-08-03T05:28:18.280</time></trkpt><trkpt lat="56.3615221" lon="85.0668829"><time>2024-08-03T05:28:22.357</time></trkpt><trkpt lat="56.3614673" lon="85.0669001"><time>2024-08-03T05:28:26.337</time></trkpt><trkpt lat="56.3614183" lon="85.0669411"><time>2024-08-03T05:28:30.320</time></trkpt><trkpt lat="56.3613738" lon="85.0670015"><time>2024-08-03T05:28:34.363</time></trkpt><trkpt lat="56.3613295" lon="85.0670747"><time>2024-08-03T05:28:38.363</time></trkpt><trkpt lat="56.3612918" lon="85.0671534"><time>2024-08-03T05:28:42.313</time></trkpt><trkpt lat="56.3612528" lon="85.0672210"><time>2024-08-03T05:28:46.297</time></trkpt><trkpt lat="56.3612136" lon="85.0672850"><time>2024-08-03T05:28:50.307</time></trkpt><trkpt lat="56.3611715" lon="85.0673465"><time>2024-08-03T05:28:54.377</time></trkpt><trkpt lat="56.3611357" lon="85.0674185"><time>2024-08-03T05:28:58.370</time></trkpt><trkpt lat="56.3610904" lon="85.0674844"><time>2024-08-03T05:29:02.340</time></trkpt><trkpt lat="56.3610470" lon="85.0675526"><time>2024-08-03T05:29:06.297</time></trkpt><trkpt lat="56.3610145" lon="85.0676115"><time>2024-08-03T05:29:09.310</time></trkpt><trkpt lat="56.3609819" lon="85.0676675"><time>2024-08-03T05:29:12.297</time></trkpt><trkpt lat="56.3609405" lon="85.0677403"><time>2024-08-03T05:29:16.227</time></trkpt><trkpt lat="56.3609027" lon="85.0678238"><time>2024-08-03T05:29:20.327</time></trkpt><trkpt lat="56.3608702" lon="85.0678828"><time>2024-08-03T05:29:23.297</time></trkpt><trkpt lat="56.3608327" lon="85.0679631"><time>2024-08-03T05:29:27.320</time></trkpt><trkpt lat="56.3607937" lon="85.0680372"><time>2024-08-03T05:29:31.320</time></trkpt><trkpt lat="56.3607508" lon="85.0681122"><time>2024-08-03T05:29:35.323</time></trkpt><trkpt lat="56.3607055" lon="85.0681788"><time>2024-08-03T05:29:39.327</time></trkpt><trkpt lat="56.3606649" lon="85.0682147"><time>2024-08-03T05:29:42.293</time></trkpt><trkpt lat="56.3606232" lon="85.0682464"><time>2024-08-03T05:29:45.297</time></trkpt><trkpt lat="56.3605804" lon="85.0682750"><time>2024-08-03T05:29:48.257</time></trkpt><trkpt lat="56.3605379" lon="85.0683031"><time>2024-08-03T05:29:51.297</time></trkpt><trkpt lat="56.3604875" lon="85.0683396"><time>2024-08-03T05:29:55.207</time></trkpt><trkpt lat="56.3604332" lon="85.0683607"><time>2024-08-03T05:29:59.320</time></trkpt><trkpt lat="56.3603808" lon="85.0683903"><time>2024-08-03T05:30:03.317</time></trkpt><trkpt lat="56.3603259" lon="85.0683985"><time>2024-08-03T05:30:07.300</time></trkpt><trkpt lat="56.3602772" lon="85.0684030"><time>2024-08-03T05:30:10.287</time></trkpt><trkpt lat="56.3602199" lon="85.0684062"><time>2024-08-03T05:30:14.313</time></trkpt><trkpt lat="56.3601645" lon="85.0684130"><time>2024-08-03T05:30:18.303</time></trkpt><trkpt lat="56.3601138" lon="85.0684423"><time>2024-08-03T05:30:22.357</time></trkpt><trkpt lat="56.3600618" lon="85.0684792"><time>2024-08-03T05:30:26.320</time></trkpt><trkpt lat="56.3600124" lon="85.0685125"><time>2024-08-03T05:30:30.287</time></trkpt><trkpt lat="56.3599643" lon="85.0685331"><time>2024-08-03T05:30:34.310</time></trkpt><trkpt lat="56.3599126" lon="85.0685410"><time>2024-08-03T05:30:38.340</time></trkpt><trkpt lat="56.3598601" lon="85.0685568"><time>2024-08-03T05:30:42.320</time></trkpt><trkpt lat="56.3598152" lon="85.0685690"><time>2024-08-03T05:30:45.293</time></trkpt><trkpt lat="56.3597577" lon="85.0685926"><time>2024-08-03T05:30:49.287</time></trkpt><trkpt lat="56.3597032" lon="85.0686169"><time>2024-08-03T05:30:53.353</time></trkpt><trkpt lat="56.3596590" lon="85.0686380"><time>2024-08-03T05:30:56.313</time></trkpt><trkpt lat="56.3596148" lon="85.0686557"><time>2024-08-03T05:30:59.330</time></trkpt><trkpt lat="56.3595593" lon="85.0686876"><time>2024-08-03T05:31:03.297</time></trkpt><trkpt lat="56.3595157" lon="85.0687138"><time>2024-08-03T05:31:06.320</time></trkpt><trkpt lat="56.3594616" lon="85.0687347"><time>2024-08-03T05:31:10.327</time></trkpt><trkpt lat="56.3594066" lon="85.0687578"><time>2024-08-03T05:31:14.307</time></trkpt><trkpt lat="56.3593493" lon="85.0687802"><time>2024-08-03T05:31:18.293</time></trkpt><trkpt lat="56.3592918" lon="85.0687947"><time>2024-08-03T05:31:22.293</time></trkpt><trkpt lat="56.3592405" lon="85.0688168"><time>2024-08-03T05:31:26.363</time></trkpt><trkpt lat="56.3591852" lon="85.0688354"><time>2024-08-03T05:31:30.290</time></trkpt><trkpt lat="56.3591297" lon="85.0688234"><time>2024-08-03T05:31:34.327</time></trkpt><trkpt lat="56.3590878" lon="85.0687934"><time>2024-08-03T05:31:37.293</time></trkpt><trkpt lat="56.3590481" lon="85.0687556"><time>2024-08-03T05:31:40.297</time></trkpt><trkpt lat="56.3590106" lon="85.0687079"><time>2024-08-03T05:31:43.307</time></trkpt><trkpt lat="56.3589772" lon="85.0686531"><time>2024-08-03T05:31:46.300</time></trkpt><trkpt lat="56.3589303" lon="85.0685912"><time>2024-08-03T05:31:50.317</time></trkpt><trkpt lat="56.3588859" lon="85.0685313"><time>2024-08-03T05:31:54.320</time></trkpt><trkpt lat="56.3588407" lon="85.0684703"><time>2024-08-03T05:31:58.327</time></trkpt><trkpt lat="56.3587993" lon="85.0683990"><time>2024-08-03T05:32:02.290</time></trkpt><trkpt lat="56.3587573" lon="85.0683356"><time>2024-08-03T05:32:06.237</time></trkpt><trkpt lat="56.3587170" lon="85.0682737"><time>2024-08-03T05:32:10.307</time></trkpt><trkpt lat="56.3586885" lon="85.0681911"><time>2024-08-03T05:32:14.327</time></trkpt><trkpt lat="56.3586743" lon="85.0680885"><time>2024-08-03T05:32:18.317</time></trkpt><trkpt lat="56.3586703" lon="85.0680065"><time>2024-08-03T05:32:21.313</time></trkpt><trkpt lat="56.3586586" lon="85.0679088"><time>2024-08-03T05:32:25.350</time></trkpt><trkpt lat="56.3586518" lon="85.0678086"><time>2024-08-03T05:32:29.293</time></trkpt><trkpt lat="56.3586481" lon="85.0677092"><time>2024-08-03T05:32:33.300</time></trkpt><trkpt lat="56.3586405" lon="85.0676244"><time>2024-08-03T05:32:37.330</time></trkpt><trkpt lat="56.3586309" lon="85.0675413"><time>2024-08-03T05:32:41.297</time></trkpt><trkpt lat="56.3586221" lon="85.0674456"><time>2024-08-03T05:32:45.327</time></trkpt><trkpt lat="56.3586103" lon="85.0673466"><time>2024-08-03T05:32:49.300</time></trkpt><trkpt lat="56.3586040" lon="85.0672425"><time>2024-08-03T05:32:53.333</time></trkpt><trkpt lat="56.3586013" lon="85.0671461"><time>2024-08-03T05:32:57.330</time></trkpt><trkpt lat="56.3585952" lon="85.0670528"><time>2024-08-03T05:33:01.297</time></trkpt><trkpt lat="56.3585896" lon="85.0669586"><time>2024-08-03T05:33:05.293</time></trkpt><trkpt lat="56.3585828" lon="85.0668707"><time>2024-08-03T05:33:09.310</time></trkpt><trkpt lat="56.3585802" lon="85.0667728"><time>2024-08-03T05:33:13.310</time></trkpt><trkpt lat="56.3585758" lon="85.0666706"><time>2024-08-03T05:33:17.300</time></trkpt><trkpt lat="56.3585690" lon="85.0665704"><time>2024-08-03T05:33:21.317</time></trkpt><trkpt lat="56.3585641" lon="85.0664672"><time>2024-08-03T05:33:25.317</time></trkpt><trkpt lat="56.3585614" lon="85.0663595"><time>2024-08-03T05:33:29.307</time></trkpt><trkpt lat="56.3585613" lon="85.0662777"><time>2024-08-03T05:33:32.297</time></trkpt><trkpt lat="56.3585606" lon="85.0661725"><time>2024-08-03T05:33:36.320</time></trkpt><trkpt lat="56.3585558" lon="85.0660795"><time>2024-08-03T05:33:40.287</time></trkpt><trkpt lat="56.3585480" lon="85.0659859"><time>2024-08-03T05:33:44.327</time></trkpt><trkpt lat="56.3585395" lon="85.0658978"><time>2024-08-03T05:33:48.377</time></trkpt><trkpt lat="56.3585347" lon="85.0657972"><time>2024-08-03T05:33:52.280</time></trkpt><trkpt lat="56.3585329" lon="85.0657122"><time>2024-08-03T05:33:55.283</time></trkpt><trkpt lat="56.3585283" lon="85.0656292"><time>2024-08-03T05:33:58.300</time></trkpt><trkpt lat="56.3585195" lon="85.0655295"><time>2024-08-03T05:34:02.307</time></trkpt><trkpt lat="56.3585171" lon="85.0654459"><time>2024-08-03T05:34:05.297</time></trkpt><trkpt lat="56.3585125" lon="85.0653625"><time>2024-08-03T05:34:08.317</time></trkpt><trkpt lat="56.3585091" lon="85.0652807"><time>2024-08-03T05:34:11.303</time></trkpt><trkpt lat="56.3585056" lon="85.0651944"><time>2024-08-03T05:34:14.320</time></trkpt><trkpt lat="56.3585110" lon="85.0650896"><time>2024-08-03T05:34:18.317</time></trkpt><trkpt lat="56.3585085" lon="85.0649934"><time>2024-08-03T05:34:22.277</time></trkpt><trkpt lat="56.3585001" lon="85.0649063"><time>2024-08-03T05:34:26.317</time></trkpt><trkpt lat="56.3584925" lon="85.0648171"><time>2024-08-03T05:34:30.313</time></trkpt><trkpt lat="56.3584845" lon="85.0647203"><time>2024-08-03T05:34:34.293</time></trkpt><trkpt lat="56.3584770" lon="85.0646233"><time>2024-08-03T05:34:38.313</time></trkpt><trkpt lat="56.3584661" lon="85.0645230"><time>2024-08-03T05:34:42.323</time></trkpt><trkpt lat="56.3584559" lon="85.0644193"><time>2024-08-03T05:34:46.353</time></trkpt><trkpt lat="56.3584484" lon="85.0643155"><time>2024-08-03T05:34:50.280</time></trkpt><trkpt lat="56.3584411" lon="85.0642102"><time>2024-08-03T05:34:54.293</time></trkpt><trkpt lat="56.3584363" lon="85.0641039"><time>2024-08-03T05:34:58.310</time></trkpt><trkpt lat="56.3584335" lon="85.0639967"><time>2024-08-03T05:35:02.300</time></trkpt><trkpt lat="56.3584344" lon="85.0638986"><time>2024-08-03T05:35:06.300</time></trkpt><trkpt lat="56.3584295" lon="85.0637970"><time>2024-08-03T05:35:10.313</time></trkpt><trkpt lat="56.3584297" lon="85.0636942"><time>2024-08-03T05:35:14.310</time></trkpt><trkpt lat="56.3584254" lon="85.0635914"><time>2024-08-03T05:35:18.307</time></trkpt><trkpt lat="56.3584205" lon="85.0634930"><time>2024-08-03T05:35:22.317</time></trkpt><trkpt lat="56.3584115" lon="85.0633957"><time>2024-08-03T05:35:26.297</time></trkpt><trkpt lat="56.3584064" lon="85.0632950"><time>2024-08-03T05:35:30.233</time></trkpt><trkpt lat="56.3584040" lon="85.0631960"><time>2024-08-03T05:35:34.210</time></trkpt><trkpt lat="56.3584007" lon="85.0630885"><time>2024-08-03T05:35:38.250</time></trkpt><trkpt lat="56.3583975" lon="85.0630060"><time>2024-08-03T05:35:41.243</time></trkpt><trkpt lat="56.3583929" lon="85.0629240"><time>2024-08-03T05:35:44.227</time></trkpt><trkpt lat="56.3583884" lon="85.0628431"><time>2024-08-03T05:35:47.207</time></trkpt><trkpt lat="56.3583854" lon="85.0627616"><time>2024-08-03T05:35:50.237</time></trkpt><trkpt lat="56.3583826" lon="85.0626783"><time>2024-08-03T05:35:53.197</time></trkpt><trkpt lat="56.3583806" lon="85.0625958"><time>2024-08-03T05:35:56.237</time></trkpt><trkpt lat="56.3583798" lon="85.0625133"><time>2024-08-03T05:35:59.247</time></trkpt><trkpt lat="56.3583723" lon="85.0624145"><time>2024-08-03T05:36:03.247</time></trkpt><trkpt lat="56.3583702" lon="85.0623160"><time>2024-08-03T05:36:07.327</time></trkpt><trkpt lat="56.3583669" lon="85.0622206"><time>2024-08-03T05:36:11.297</time></trkpt><trkpt lat="56.3583651" lon="85.0621231"><time>2024-08-03T05:36:15.323</time></trkpt><trkpt lat="56.3583623" lon="85.0620203"><time>2024-08-03T05:36:19.307</time></trkpt><trkpt lat="56.3583592" lon="85.0619390"><time>2024-08-03T05:36:22.303</time></trkpt><trkpt lat="56.3583552" lon="85.0618333"><time>2024-08-03T05:36:26.310</time></trkpt><trkpt lat="56.3583524" lon="85.0617320"><time>2024-08-03T05:36:30.290</time></trkpt><trkpt lat="56.3583456" lon="85.0616330"><time>2024-08-03T05:36:34.317</time></trkpt><trkpt lat="56.3583433" lon="85.0615318"><time>2024-08-03T05:36:38.300</time></trkpt><trkpt lat="56.3583428" lon="85.0614251"><time>2024-08-03T05:36:43.273</time></trkpt><trkpt lat="56.3583403" lon="85.0613401"><time>2024-08-03T05:36:45.293</time></trkpt><trkpt lat="56.3583364" lon="85.0612333"><time>2024-08-03T05:36:49.287</time></trkpt><trkpt lat="56.3583334" lon="85.0611513"><time>2024-08-03T05:36:52.313</time></trkpt><trkpt lat="56.3583314" lon="85.0610681"><time>2024-08-03T05:36:55.313</time></trkpt><trkpt lat="56.3583316" lon="85.0609859"><time>2024-08-03T05:36:58.310</time></trkpt><trkpt lat="56.3583305" lon="85.0608787"><time>2024-08-03T05:37:02.310</time></trkpt><trkpt lat="56.3583296" lon="85.0607733"><time>2024-08-03T05:37:06.310</time></trkpt><trkpt lat="56.3583281" lon="85.0606674"><time>2024-08-03T05:37:10.303</time></trkpt><trkpt lat="56.3583242" lon="85.0605622"><time>2024-08-03T05:37:14.300</time></trkpt><trkpt lat="56.3583182" lon="85.0604788"><time>2024-08-03T05:37:17.317</time></trkpt><trkpt lat="56.3583144" lon="85.0603732"><time>2024-08-03T05:37:21.317</time></trkpt><trkpt lat="56.3583101" lon="85.0602687"><time>2024-08-03T05:37:25.283</time></trkpt><trkpt lat="56.3583030" lon="85.0601871"><time>2024-08-03T05:37:28.293</time></trkpt><trkpt lat="56.3583004" lon="85.0601045"><time>2024-08-03T05:37:31.293</time></trkpt><trkpt lat="56.3582971" lon="85.0600027"><time>2024-08-03T05:37:35.203</time></trkpt><trkpt lat="56.3582871" lon="85.0599100"><time>2024-08-03T05:37:39.180</time></trkpt><trkpt lat="56.3582811" lon="85.0598170"><time>2024-08-03T05:37:43.187</time></trkpt><trkpt lat="56.3582756" lon="85.0597212"><time>2024-08-03T05:37:47.187</time></trkpt><trkpt lat="56.3582665" lon="85.0596251"><time>2024-08-03T05:37:51.197</time></trkpt><trkpt lat="56.3582601" lon="85.0595319"><time>2024-08-03T05:37:55.227</time></trkpt><trkpt lat="56.3582560" lon="85.0594306"><time>2024-08-03T05:37:59.240</time></trkpt><trkpt lat="56.3582427" lon="85.0593308"><time>2024-08-03T05:38:03.230</time></trkpt><trkpt lat="56.3582374" lon="85.0592332"><time>2024-08-03T05:38:07.197</time></trkpt><trkpt lat="56.3582290" lon="85.0591367"><time>2024-08-03T05:38:11.183</time></trkpt><trkpt lat="56.3582211" lon="85.0590368"><time>2024-08-03T05:38:15.187</time></trkpt><trkpt lat="56.3582143" lon="85.0589384"><time>2024-08-03T05:38:19.197</time></trkpt><trkpt lat="56.3582116" lon="85.0588444"><time>2024-08-03T05:38:23.187</time></trkpt><trkpt lat="56.3582031" lon="85.0587523"><time>2024-08-03T05:38:27.213</time></trkpt><trkpt lat="56.3581974" lon="85.0586540"><time>2024-08-03T05:38:31.227</time></trkpt><trkpt lat="56.3581973" lon="85.0585660"><time>2024-08-03T05:38:35.220</time></trkpt><trkpt lat="56.3581913" lon="85.0584727"><time>2024-08-03T05:38:39.233</time></trkpt><trkpt lat="56.3581898" lon="85.0583886"><time>2024-08-03T05:38:42.203</time></trkpt><trkpt lat="56.3581940" lon="85.0583065"><time>2024-08-03T05:38:45.267</time></trkpt><trkpt lat="56.3581886" lon="85.0582247"><time>2024-08-03T05:38:48.230</time></trkpt><trkpt lat="56.3581937" lon="85.0581264"><time>2024-08-03T05:38:52.230</time></trkpt><trkpt lat="56.3581893" lon="85.0580372"><time>2024-08-03T05:38:56.220</time></trkpt><trkpt lat="56.3581812" lon="85.0579525"><time>2024-08-03T05:39:00.197</time></trkpt><trkpt lat="56.3581744" lon="85.0578677"><time>2024-08-03T05:39:04.193</time></trkpt><trkpt lat="56.3581709" lon="85.0577701"><time>2024-08-03T05:39:08.197</time></trkpt><trkpt lat="56.3581707" lon="85.0576644"><time>2024-08-03T05:39:12.197</time></trkpt><trkpt lat="56.3581693" lon="85.0575786"><time>2024-08-03T05:39:15.233</time></trkpt><trkpt lat="56.3581652" lon="85.0574958"><time>2024-08-03T05:39:18.213</time></trkpt><trkpt lat="56.3581650" lon="85.0574073"><time>2024-08-03T05:39:21.217</time></trkpt><trkpt lat="56.3581562" lon="85.0573007"><time>2024-08-03T05:39:25.233</time></trkpt><trkpt lat="56.3581452" lon="85.0572023"><time>2024-08-03T05:39:29.227</time></trkpt><trkpt lat="56.3581399" lon="85.0571037"><time>2024-08-03T05:39:34.243</time></trkpt><trkpt lat="56.3581349" lon="85.0570197"><time>2024-08-03T05:39:38.240</time></trkpt><trkpt lat="56.3581367" lon="85.0569200"><time>2024-08-03T05:39:42.297</time></trkpt><trkpt lat="56.3581400" lon="85.0568391"><time>2024-08-03T05:39:45.243</time></trkpt><trkpt lat="56.3581436" lon="85.0567585"><time>2024-08-03T05:39:48.243</time></trkpt><trkpt lat="56.3581428" lon="85.0566552"><time>2024-08-03T05:39:52.260</time></trkpt><trkpt lat="56.3581382" lon="85.0565523"><time>2024-08-03T05:39:56.230</time></trkpt><trkpt lat="56.3581363" lon="85.0564604"><time>2024-08-03T05:40:00.250</time></trkpt><trkpt lat="56.3581319" lon="85.0563729"><time>2024-08-03T05:40:04.293</time></trkpt><trkpt lat="56.3581315" lon="85.0562820"><time>2024-08-03T05:40:08.310</time></trkpt><trkpt lat="56.3581207" lon="85.0561792"><time>2024-08-03T05:40:12.307</time></trkpt><trkpt lat="56.3581054" lon="85.0560826"><time>2024-08-03T05:40:16.240</time></trkpt><trkpt lat="56.3580737" lon="85.0560029"><time>2024-08-03T05:40:20.300</time></trkpt><trkpt lat="56.3580597" lon="85.0559084"><time>2024-08-03T05:40:24.307</time></trkpt><trkpt lat="56.3580586" lon="85.0558059"><time>2024-08-03T05:40:28.307</time></trkpt><trkpt lat="56.3580544" lon="85.0557147"><time>2024-08-03T05:40:31.313</time></trkpt><trkpt lat="56.3580546" lon="85.0556322"><time>2024-08-03T05:40:34.280</time></trkpt><trkpt lat="56.3580462" lon="85.0555437"><time>2024-08-03T05:40:38.323</time></trkpt><trkpt lat="56.3579932" lon="85.0555355"><time>2024-08-03T05:40:43.223</time></trkpt><trkpt lat="56.3579396" lon="85.0555219"><time>2024-08-03T05:40:47.317</time></trkpt><trkpt lat="56.3578925" lon="85.0554847"><time>2024-08-03T05:40:51.327</time></trkpt><trkpt lat="56.3578522" lon="85.0554181"><time>2024-08-03T05:40:55.297</time></trkpt><trkpt lat="56.3578111" lon="85.0553520"><time>2024-08-03T05:41:00.300</time></trkpt><trkpt lat="56.3577636" lon="85.0553560"><time>2024-08-03T05:41:10.320</time></trkpt><trkpt lat="56.3577774" lon="85.0554377"><time>2024-08-03T05:41:19.283</time></trkpt><trkpt lat="56.3578221" lon="85.0554515"><time>2024-08-03T05:41:27.313</time></trkpt><trkpt lat="56.3578640" lon="85.0554097"><time>2024-08-03T05:41:32.273</time></trkpt><trkpt lat="56.3551916" lon="85.0445831"><time>2024-08-03T05:59:07.847</time></trkpt><trkpt lat="56.3552084" lon="85.0446601"><time>2024-08-03T05:59:13.227</time></trkpt><trkpt lat="56.3552192" lon="85.0447271"><time>2024-08-03T05:59:19.907</time></trkpt><trkpt lat="56.3551819" lon="85.0447330"><time>2024-08-03T05:59:27.200</time></trkpt><trkpt lat="56.3551981" lon="85.0446375"><time>2024-08-03T06:00:15.200</time></trkpt><trkpt lat="56.3551824" lon="85.0445522"><time>2024-08-03T06:00:20.173</time></trkpt><trkpt lat="56.3551895" lon="85.0444575"><time>2024-08-03T06:00:24.187</time></trkpt><trkpt lat="56.3552060" lon="85.0443604"><time>2024-08-03T06:00:28.227</time></trkpt><trkpt lat="56.3552244" lon="85.0442638"><time>2024-08-03T06:00:32.217</time></trkpt><trkpt lat="56.3552635" lon="85.0442099"><time>2024-08-03T06:00:36.233</time></trkpt><trkpt lat="56.3552951" lon="85.0441389"><time>2024-08-03T06:00:41.193</time></trkpt><trkpt lat="56.3553310" lon="85.0440868"><time>2024-08-03T06:00:47.243</time></trkpt><trkpt lat="56.3553712" lon="85.0440441"><time>2024-08-03T06:00:55.217</time></trkpt><trkpt lat="56.3554166" lon="85.0439800"><time>2024-08-03T06:01:00.197</time></trkpt><trkpt lat="56.3554665" lon="85.0440252"><time>2024-08-03T06:01:04.233</time></trkpt><trkpt lat="56.3555058" lon="85.0441091"><time>2024-08-03T06:01:13.210</time></trkpt><trkpt lat="56.3555511" lon="85.0441568"><time>2024-08-03T06:01:16.180</time></trkpt><trkpt lat="56.3556033" lon="85.0442150"><time>2024-08-03T06:01:20.193</time></trkpt><trkpt lat="56.3556407" lon="85.0442659"><time>2024-08-03T06:01:23.223</time></trkpt><trkpt lat="56.3556768" lon="85.0443162"><time>2024-08-03T06:01:26.233</time></trkpt><trkpt lat="56.3557194" lon="85.0443906"><time>2024-08-03T06:01:30.223</time></trkpt><trkpt lat="56.3557578" lon="85.0444382"><time>2024-08-03T06:01:33.220</time></trkpt><trkpt lat="56.3558061" lon="85.0444918"><time>2024-08-03T06:01:37.240</time></trkpt><trkpt lat="56.3558511" lon="85.0445563"><time>2024-08-03T06:01:41.177</time></trkpt><trkpt lat="56.3558888" lon="85.0446274"><time>2024-08-03T06:01:45.200</time></trkpt><trkpt lat="56.3559310" lon="85.0446905"><time>2024-08-03T06:01:49.187</time></trkpt><trkpt lat="56.3559670" lon="85.0447584"><time>2024-08-03T06:01:53.257</time></trkpt><trkpt lat="56.3559969" lon="85.0448415"><time>2024-08-03T06:01:57.200</time></trkpt><trkpt lat="56.3560296" lon="85.0449262"><time>2024-08-03T06:02:01.227</time></trkpt><trkpt lat="56.3560509" lon="85.0450234"><time>2024-08-03T06:02:05.207</time></trkpt><trkpt lat="56.3560667" lon="85.0451030"><time>2024-08-03T06:02:08.233</time></trkpt><trkpt lat="56.3560776" lon="85.0451878"><time>2024-08-03T06:02:11.230</time></trkpt><trkpt lat="56.3560900" lon="85.0452687"><time>2024-08-03T06:02:14.207</time></trkpt><trkpt lat="56.3560989" lon="85.0453522"><time>2024-08-03T06:02:17.277</time></trkpt><trkpt lat="56.3561081" lon="85.0454378"><time>2024-08-03T06:02:20.223</time></trkpt><trkpt lat="56.3561080" lon="85.0455211"><time>2024-08-03T06:02:23.210</time></trkpt><trkpt lat="56.3561066" lon="85.0456278"><time>2024-08-03T06:02:27.233</time></trkpt><trkpt lat="56.3561074" lon="85.0457129"><time>2024-08-03T06:02:30.323</time></trkpt><trkpt lat="56.3561079" lon="85.0457940"><time>2024-08-03T06:02:33.327</time></trkpt><trkpt lat="56.3561074" lon="85.0458763"><time>2024-08-03T06:02:36.323</time></trkpt><trkpt lat="56.3561063" lon="85.0459601"><time>2024-08-03T06:02:39.317</time></trkpt><trkpt lat="56.3561127" lon="85.0460435"><time>2024-08-03T06:02:42.307</time></trkpt><trkpt lat="56.3561221" lon="85.0461436"><time>2024-08-03T06:02:46.233</time></trkpt><trkpt lat="56.3561199" lon="85.0462314"><time>2024-08-03T06:02:50.317</time></trkpt><trkpt lat="56.3561151" lon="85.0463287"><time>2024-08-03T06:02:54.297</time></trkpt><trkpt lat="56.3561047" lon="85.0464142"><time>2024-08-03T06:02:58.303</time></trkpt><trkpt lat="56.3561044" lon="85.0465075"><time>2024-08-03T06:03:02.293</time></trkpt><trkpt lat="56.3560958" lon="85.0465949"><time>2024-08-03T06:03:06.340</time></trkpt><trkpt lat="56.3560895" lon="85.0466890"><time>2024-08-03T06:03:10.330</time></trkpt><trkpt lat="56.3560864" lon="85.0467811"><time>2024-08-03T06:03:14.307</time></trkpt><trkpt lat="56.3560774" lon="85.0468689"><time>2024-08-03T06:03:18.290</time></trkpt><trkpt lat="56.3560733" lon="85.0469563"><time>2024-08-03T06:03:22.353</time></trkpt><trkpt lat="56.3560753" lon="85.0470501"><time>2024-08-03T06:03:26.350</time></trkpt><trkpt lat="56.3560695" lon="85.0471428"><time>2024-08-03T06:03:30.287</time></trkpt><trkpt lat="56.3560701" lon="85.0472428"><time>2024-08-03T06:03:34.300</time></trkpt><trkpt lat="56.3560704" lon="85.0473444"><time>2024-08-03T06:03:38.303</time></trkpt><trkpt lat="56.3560686" lon="85.0474269"><time>2024-08-03T06:03:41.367</time></trkpt><trkpt lat="56.3560684" lon="85.0475277"><time>2024-08-03T06:03:45.337</time></trkpt><trkpt lat="56.3560709" lon="85.0476113"><time>2024-08-03T06:03:48.323</time></trkpt><trkpt lat="56.3560686" lon="85.0477172"><time>2024-08-03T06:03:52.300</time></trkpt><trkpt lat="56.3560619" lon="85.0478012"><time>2024-08-03T06:03:55.367</time></trkpt><trkpt lat="56.3560581" lon="85.0479038"><time>2024-08-03T06:03:59.303</time></trkpt><trkpt lat="56.3560592" lon="85.0479915"><time>2024-08-03T06:04:03.217</time></trkpt><trkpt lat="56.3560638" lon="85.0480743"><time>2024-08-03T06:04:07.303</time></trkpt><trkpt lat="56.3560761" lon="85.0481619"><time>2024-08-03T06:04:11.247</time></trkpt><trkpt lat="56.3560958" lon="85.0482598"><time>2024-08-03T06:04:15.230</time></trkpt><trkpt lat="56.3561202" lon="85.0483314"><time>2024-08-03T06:04:18.180</time></trkpt><trkpt lat="56.3561458" lon="85.0484207"><time>2024-08-03T06:04:22.253</time></trkpt><trkpt lat="56.3561761" lon="85.0485078"><time>2024-08-03T06:04:26.353</time></trkpt><trkpt lat="56.3562009" lon="85.0485827"><time>2024-08-03T06:04:29.347</time></trkpt><trkpt lat="56.3562291" lon="85.0486526"><time>2024-08-03T06:04:32.330</time></trkpt><trkpt lat="56.3562571" lon="85.0487282"><time>2024-08-03T06:04:35.317</time></trkpt><trkpt lat="56.3562840" lon="85.0487988"><time>2024-08-03T06:04:38.357</time></trkpt><trkpt lat="56.3563172" lon="85.0488848"><time>2024-08-03T06:04:42.293</time></trkpt><trkpt lat="56.3563425" lon="85.0489527"><time>2024-08-03T06:04:45.330</time></trkpt><trkpt lat="56.3563710" lon="85.0490441"><time>2024-08-03T06:04:49.257</time></trkpt><trkpt lat="56.3564047" lon="85.0491194"><time>2024-08-03T06:04:53.307</time></trkpt><trkpt lat="56.3564356" lon="85.0491846"><time>2024-08-03T06:04:56.287</time></trkpt><trkpt lat="56.3564699" lon="85.0492680"><time>2024-08-03T06:05:00.220</time></trkpt><trkpt lat="56.3565060" lon="85.0493465"><time>2024-08-03T06:05:04.360</time></trkpt><trkpt lat="56.3565387" lon="85.0494209"><time>2024-08-03T06:05:08.320</time></trkpt><trkpt lat="56.3565760" lon="85.0494868"><time>2024-08-03T06:05:12.297</time></trkpt><trkpt lat="56.3566154" lon="85.0495520"><time>2024-08-03T06:05:16.243</time></trkpt><trkpt lat="56.3566490" lon="85.0496222"><time>2024-08-03T06:05:20.327</time></trkpt><trkpt lat="56.3566867" lon="85.0496824"><time>2024-08-03T06:05:24.293</time></trkpt><trkpt lat="56.3567157" lon="85.0497497"><time>2024-08-03T06:05:28.310</time></trkpt><trkpt lat="56.3567526" lon="85.0498152"><time>2024-08-03T06:05:32.217</time></trkpt><trkpt lat="56.3567822" lon="85.0498794"><time>2024-08-03T06:05:35.227</time></trkpt><trkpt lat="56.3568105" lon="85.0499479"><time>2024-08-03T06:05:38.227</time></trkpt><trkpt lat="56.3568409" lon="85.0500149"><time>2024-08-03T06:05:41.227</time></trkpt><trkpt lat="56.3568736" lon="85.0500893"><time>2024-08-03T06:05:45.237</time></trkpt><trkpt lat="56.3569079" lon="85.0501792"><time>2024-08-03T06:05:49.250</time></trkpt><trkpt lat="56.3569372" lon="85.0502562"><time>2024-08-03T06:05:52.237</time></trkpt><trkpt lat="56.3569650" lon="85.0503206"><time>2024-08-03T06:05:55.220</time></trkpt><trkpt lat="56.3569955" lon="85.0503834"><time>2024-08-03T06:05:58.220</time></trkpt><trkpt lat="56.3570320" lon="85.0504622"><time>2024-08-03T06:06:02.203</time></trkpt><trkpt lat="56.3570658" lon="85.0505332"><time>2024-08-03T06:06:06.303</time></trkpt><trkpt lat="56.3570994" lon="85.0505981"><time>2024-08-03T06:06:10.250</time></trkpt><trkpt lat="56.3571290" lon="85.0506794"><time>2024-08-03T06:06:15.290</time></trkpt><trkpt lat="56.3571656" lon="85.0507512"><time>2024-08-03T06:06:19.233</time></trkpt><trkpt lat="56.3572072" lon="85.0508193"><time>2024-08-03T06:06:23.373</time></trkpt><trkpt lat="56.3572388" lon="85.0508817"><time>2024-08-03T06:06:26.280</time></trkpt><trkpt lat="56.3572817" lon="85.0509258"><time>2024-08-03T06:06:29.210</time></trkpt><trkpt lat="56.3573178" lon="85.0509816"><time>2024-08-03T06:06:32.270</time></trkpt><trkpt lat="56.3573511" lon="85.0510634"><time>2024-08-03T06:06:36.233</time></trkpt><trkpt lat="56.3573845" lon="85.0511358"><time>2024-08-03T06:06:40.290</time></trkpt><trkpt lat="56.3574137" lon="85.0512029"><time>2024-08-03T06:06:44.277</time></trkpt><trkpt lat="56.3574450" lon="85.0512762"><time>2024-08-03T06:06:48.293</time></trkpt><trkpt lat="56.3574776" lon="85.0513519"><time>2024-08-03T06:06:52.283</time></trkpt><trkpt lat="56.3575106" lon="85.0514200"><time>2024-08-03T06:06:56.350</time></trkpt><trkpt lat="56.3575477" lon="85.0514886"><time>2024-08-03T06:07:00.287</time></trkpt><trkpt lat="56.3575863" lon="85.0515634"><time>2024-08-03T06:07:04.290</time></trkpt><trkpt lat="56.3576228" lon="85.0516373"><time>2024-08-03T06:07:08.203</time></trkpt><trkpt lat="56.3576589" lon="85.0517166"><time>2024-08-03T06:07:12.287</time></trkpt><trkpt lat="56.3576978" lon="85.0517933"><time>2024-08-03T06:07:16.280</time></trkpt><trkpt lat="56.3577353" lon="85.0518705"><time>2024-08-03T06:07:20.280</time></trkpt><trkpt lat="56.3577709" lon="85.0519546"><time>2024-08-03T06:07:24.297</time></trkpt><trkpt lat="56.3577973" lon="85.0520207"><time>2024-08-03T06:07:27.290</time></trkpt><trkpt lat="56.3578301" lon="85.0521012"><time>2024-08-03T06:07:31.203</time></trkpt><trkpt lat="56.3578634" lon="85.0521831"><time>2024-08-03T06:07:35.183</time></trkpt><trkpt lat="56.3578981" lon="85.0522541"><time>2024-08-03T06:07:39.190</time></trkpt><trkpt lat="56.3579233" lon="85.0523274"><time>2024-08-03T06:07:43.180</time></trkpt><trkpt lat="56.3579521" lon="85.0523958"><time>2024-08-03T06:07:47.173</time></trkpt><trkpt lat="56.3579790" lon="85.0524619"><time>2024-08-03T06:07:51.177</time></trkpt><trkpt lat="56.3580083" lon="85.0525405"><time>2024-08-03T06:07:55.220</time></trkpt><trkpt lat="56.3580263" lon="85.0526332"><time>2024-08-03T06:07:59.227</time></trkpt><trkpt lat="56.3580409" lon="85.0527250"><time>2024-08-03T06:08:03.297</time></trkpt><trkpt lat="56.3580535" lon="85.0528245"><time>2024-08-03T06:08:07.293</time></trkpt><trkpt lat="56.3580657" lon="85.0529167"><time>2024-08-03T06:08:11.310</time></trkpt><trkpt lat="56.3580783" lon="85.0530123"><time>2024-08-03T06:08:15.297</time></trkpt><trkpt lat="56.3580892" lon="85.0531109"><time>2024-08-03T06:08:19.233</time></trkpt><trkpt lat="56.3581035" lon="85.0531881"><time>2024-08-03T06:08:23.297</time></trkpt><trkpt lat="56.3581371" lon="85.0532442"><time>2024-08-03T06:08:27.313</time></trkpt><trkpt lat="56.3581972" lon="85.0532392"><time>2024-08-03T06:08:31.300</time></trkpt><trkpt lat="56.3582521" lon="85.0532364"><time>2024-08-03T06:08:35.240</time></trkpt><trkpt lat="56.3583082" lon="85.0532446"><time>2024-08-03T06:08:39.343</time></trkpt><trkpt lat="56.3583658" lon="85.0532541"><time>2024-08-03T06:08:43.293</time></trkpt><trkpt lat="56.3584206" lon="85.0532712"><time>2024-08-03T06:08:47.283</time></trkpt><trkpt lat="56.3584667" lon="85.0532874"><time>2024-08-03T06:08:50.290</time></trkpt><trkpt lat="56.3585255" lon="85.0533042"><time>2024-08-03T06:08:54.283</time></trkpt><trkpt lat="56.3585714" lon="85.0533176"><time>2024-08-03T06:08:57.293</time></trkpt><trkpt lat="56.3586296" lon="85.0533340"><time>2024-08-03T06:09:01.280</time></trkpt><trkpt lat="56.3586887" lon="85.0533440"><time>2024-08-03T06:09:05.297</time></trkpt><trkpt lat="56.3587442" lon="85.0533748"><time>2024-08-03T06:09:09.307</time></trkpt><trkpt lat="56.3587967" lon="85.0534045"><time>2024-08-03T06:09:13.287</time></trkpt><trkpt lat="56.3588502" lon="85.0534268"><time>2024-08-03T06:09:17.280</time></trkpt><trkpt lat="56.3589061" lon="85.0534551"><time>2024-08-03T06:09:21.220</time></trkpt><trkpt lat="56.3589611" lon="85.0534858"><time>2024-08-03T06:09:25.283</time></trkpt><trkpt lat="56.3590177" lon="85.0535120"><time>2024-08-03T06:09:29.313</time></trkpt><trkpt lat="56.3590729" lon="85.0535331"><time>2024-08-03T06:09:33.293</time></trkpt><trkpt lat="56.3591279" lon="85.0535653"><time>2024-08-03T06:09:37.310</time></trkpt><trkpt lat="56.3591808" lon="85.0535985"><time>2024-08-03T06:09:41.313</time></trkpt><trkpt lat="56.3592326" lon="85.0536369"><time>2024-08-03T06:09:45.307</time></trkpt><trkpt lat="56.3592835" lon="85.0536842"><time>2024-08-03T06:09:49.227</time></trkpt><trkpt lat="56.3593378" lon="85.0537137"><time>2024-08-03T06:09:53.297</time></trkpt><trkpt lat="56.3593931" lon="85.0537419"><time>2024-08-03T06:09:57.317</time></trkpt><trkpt lat="56.3594503" lon="85.0537454"><time>2024-08-03T06:10:01.293</time></trkpt><trkpt lat="56.3595010" lon="85.0536991"><time>2024-08-03T06:10:05.310</time></trkpt><trkpt lat="56.3595377" lon="85.0536259"><time>2024-08-03T06:10:09.293</time></trkpt><trkpt lat="56.3595766" lon="85.0535514"><time>2024-08-03T06:10:13.293</time></trkpt><trkpt lat="56.3596227" lon="85.0534899"><time>2024-08-03T06:10:17.307</time></trkpt><trkpt lat="56.3596648" lon="85.0534464"><time>2024-08-03T06:10:21.230</time></trkpt><trkpt lat="56.3597083" lon="85.0534198"><time>2024-08-03T06:10:24.237</time></trkpt><trkpt lat="56.3597575" lon="85.0533643"><time>2024-08-03T06:10:28.240</time></trkpt><trkpt lat="56.3597930" lon="85.0533132"><time>2024-08-03T06:10:31.223</time></trkpt><trkpt lat="56.3598304" lon="85.0532346"><time>2024-08-03T06:10:35.213</time></trkpt><trkpt lat="56.3598637" lon="85.0531591"><time>2024-08-03T06:10:39.240</time></trkpt><trkpt lat="56.3599024" lon="85.0530811"><time>2024-08-03T06:10:43.230</time></trkpt><trkpt lat="56.3599365" lon="85.0530110"><time>2024-08-03T06:10:47.223</time></trkpt><trkpt lat="56.3599753" lon="85.0529468"><time>2024-08-03T06:10:51.317</time></trkpt><trkpt lat="56.3600182" lon="85.0528944"><time>2024-08-03T06:10:55.283</time></trkpt><trkpt lat="56.3600626" lon="85.0528393"><time>2024-08-03T06:10:59.293</time></trkpt><trkpt lat="56.3601108" lon="85.0527902"><time>2024-08-03T06:11:03.313</time></trkpt><trkpt lat="56.3601580" lon="85.0527536"><time>2024-08-03T06:11:07.327</time></trkpt><trkpt lat="56.3601932" lon="85.0526974"><time>2024-08-03T06:11:11.300</time></trkpt><trkpt lat="56.3602116" lon="85.0526191"><time>2024-08-03T06:11:15.350</time></trkpt><trkpt lat="56.3602240" lon="85.0525228"><time>2024-08-03T06:11:19.273</time></trkpt><trkpt lat="56.3602442" lon="85.0524352"><time>2024-08-03T06:11:23.283</time></trkpt><trkpt lat="56.3602675" lon="85.0523538"><time>2024-08-03T06:11:27.180</time></trkpt><trkpt lat="56.3602747" lon="85.0522736"><time>2024-08-03T06:11:36.190</time></trkpt><trkpt lat="56.3602946" lon="85.0521930"><time>2024-08-03T06:11:43.217</time></trkpt><trkpt lat="56.3603177" lon="85.0521188"><time>2024-08-03T06:11:48.213</time></trkpt><trkpt lat="56.3603442" lon="85.0520408"><time>2024-08-03T06:11:57.213</time></trkpt><trkpt lat="56.3603778" lon="85.0519578"><time>2024-08-03T06:12:02.213</time></trkpt><trkpt lat="56.3604034" lon="85.0518747"><time>2024-08-03T06:12:06.217</time></trkpt><trkpt lat="56.3604272" lon="85.0517982"><time>2024-08-03T06:12:10.197</time></trkpt><trkpt lat="56.3604487" lon="85.0516997"><time>2024-08-03T06:12:15.377</time></trkpt><trkpt lat="56.3604662" lon="85.0516095"><time>2024-08-03T06:12:18.303</time></trkpt><trkpt lat="56.3604936" lon="85.0515320"><time>2024-08-03T06:12:22.307</time></trkpt><trkpt lat="56.3605259" lon="85.0514656"><time>2024-08-03T06:12:26.313</time></trkpt><trkpt lat="56.3605639" lon="85.0514001"><time>2024-08-03T06:12:30.303</time></trkpt><trkpt lat="56.3605987" lon="85.0513404"><time>2024-08-03T06:12:33.277</time></trkpt><trkpt lat="56.3606331" lon="85.0512850"><time>2024-08-03T06:12:36.357</time></trkpt><trkpt lat="56.3606730" lon="85.0512111"><time>2024-08-03T06:12:40.307</time></trkpt><trkpt lat="56.3607043" lon="85.0511422"><time>2024-08-03T06:12:44.287</time></trkpt><trkpt lat="56.3607324" lon="85.0510673"><time>2024-08-03T06:12:48.303</time></trkpt><trkpt lat="56.3607580" lon="85.0509927"><time>2024-08-03T06:12:52.293</time></trkpt><trkpt lat="56.3607792" lon="85.0509209"><time>2024-08-03T06:12:55.293</time></trkpt><trkpt lat="56.3608053" lon="85.0508337"><time>2024-08-03T06:12:59.290</time></trkpt><trkpt lat="56.3608330" lon="85.0507562"><time>2024-08-03T06:13:03.330</time></trkpt><trkpt lat="56.3608637" lon="85.0506695"><time>2024-08-03T06:13:07.360</time></trkpt><trkpt lat="56.3608966" lon="85.0505869"><time>2024-08-03T06:13:11.267</time></trkpt><trkpt lat="56.3609317" lon="85.0505051"><time>2024-08-03T06:13:15.290</time></trkpt><trkpt lat="56.3609682" lon="85.0504268"><time>2024-08-03T06:13:19.367</time></trkpt><trkpt lat="56.3610015" lon="85.0503595"><time>2024-08-03T06:13:23.223</time></trkpt><trkpt lat="56.3610387" lon="85.0502793"><time>2024-08-03T06:13:27.227</time></trkpt><trkpt lat="56.3610679" lon="85.0502155"><time>2024-08-03T06:13:30.303</time></trkpt><trkpt lat="56.3611020" lon="85.0501405"><time>2024-08-03T06:13:34.310</time></trkpt><trkpt lat="56.3611400" lon="85.0500754"><time>2024-08-03T06:13:39.310</time></trkpt><trkpt lat="56.3611750" lon="85.0500048"><time>2024-08-03T06:13:43.213</time></trkpt><trkpt lat="56.3612055" lon="85.0499423"><time>2024-08-03T06:13:46.233</time></trkpt><trkpt lat="56.3612370" lon="85.0498797"><time>2024-08-03T06:13:49.240</time></trkpt><trkpt lat="56.3612749" lon="85.0498132"><time>2024-08-03T06:13:53.250</time></trkpt><trkpt lat="56.3613134" lon="85.0497474"><time>2024-08-03T06:13:57.230</time></trkpt><trkpt lat="56.3613522" lon="85.0496860"><time>2024-08-03T06:14:01.210</time></trkpt><trkpt lat="56.3613951" lon="85.0496245"><time>2024-08-03T06:14:06.327</time></trkpt><trkpt lat="56.3614304" lon="85.0495624"><time>2024-08-03T06:14:09.253</time></trkpt><trkpt lat="56.3614780" lon="85.0494974"><time>2024-08-03T06:14:13.213</time></trkpt><trkpt lat="56.3615189" lon="85.0494519"><time>2024-08-03T06:14:17.313</time></trkpt><trkpt lat="56.3615560" lon="85.0493877"><time>2024-08-03T06:14:22.297</time></trkpt><trkpt lat="56.3615870" lon="85.0493279"><time>2024-08-03T06:14:25.307</time></trkpt><trkpt lat="56.3616245" lon="85.0492517"><time>2024-08-03T06:14:29.227</time></trkpt><trkpt lat="56.3616542" lon="85.0491814"><time>2024-08-03T06:14:33.367</time></trkpt><trkpt lat="56.3616836" lon="85.0491068"><time>2024-08-03T06:14:38.237</time></trkpt><trkpt lat="56.3617108" lon="85.0490169"><time>2024-08-03T06:14:42.313</time></trkpt><trkpt lat="56.3617349" lon="85.0489268"><time>2024-08-03T06:14:46.237</time></trkpt><trkpt lat="56.3617548" lon="85.0488527"><time>2024-08-03T06:14:49.230</time></trkpt><trkpt lat="56.3617721" lon="85.0487723"><time>2024-08-03T06:14:53.187</time></trkpt><trkpt lat="56.3617888" lon="85.0486825"><time>2024-08-03T06:14:57.280</time></trkpt><trkpt lat="56.3618094" lon="85.0486026"><time>2024-08-03T06:15:01.313</time></trkpt><trkpt lat="56.3618358" lon="85.0485371"><time>2024-08-03T06:15:04.333</time></trkpt><trkpt lat="56.3618665" lon="85.0484574"><time>2024-08-03T06:15:09.350</time></trkpt><trkpt lat="56.3619026" lon="85.0483996"><time>2024-08-03T06:15:13.327</time></trkpt><trkpt lat="56.3619372" lon="85.0483349"><time>2024-08-03T06:15:16.290</time></trkpt><trkpt lat="56.3619683" lon="85.0482736"><time>2024-08-03T06:15:19.313</time></trkpt><trkpt lat="56.3620076" lon="85.0482208"><time>2024-08-03T06:15:23.290</time></trkpt><trkpt lat="56.3620580" lon="85.0481770"><time>2024-08-03T06:15:28.310</time></trkpt><trkpt lat="56.3620981" lon="85.0481269"><time>2024-08-03T06:15:32.307</time></trkpt><trkpt lat="56.3621419" lon="85.0480673"><time>2024-08-03T06:15:36.217</time></trkpt><trkpt lat="56.3621793" lon="85.0480024"><time>2024-08-03T06:15:41.347</time></trkpt><trkpt lat="56.3622106" lon="85.0479388"><time>2024-08-03T06:15:46.297</time></trkpt><trkpt lat="56.3622469" lon="85.0479863"><time>2024-08-03T06:15:58.300</time></trkpt><trkpt lat="56.3622242" lon="85.0480735"><time>2024-08-03T06:16:02.170</time></trkpt><trkpt lat="56.3622200" lon="85.0481581"><time>2024-08-03T06:16:07.173</time></trkpt><trkpt lat="56.3622555" lon="85.0482166"><time>2024-08-03T06:16:12.207</time></trkpt><trkpt lat="56.3622560" lon="85.0482161"><time>2024-08-03T06:16:14.410</time></trkpt><trkpt lat="56.3622291" lon="85.0481407"><time>2024-08-03T06:16:20.190</time></trkpt><trkpt lat="56.3622422" lon="85.0480488"><time>2024-08-03T06:16:24.243</time></trkpt><trkpt lat="56.3622627" lon="85.0479542"><time>2024-08-03T06:16:29.197</time></trkpt><trkpt lat="56.3622764" lon="85.0478736"><time>2024-08-03T06:16:34.220</time></trkpt><trkpt lat="56.3622948" lon="85.0477898"><time>2024-08-03T06:16:39.217</time></trkpt><trkpt lat="56.3623088" lon="85.0476990"><time>2024-08-03T06:16:44.237</time></trkpt><trkpt lat="56.3623271" lon="85.0476219"><time>2024-08-03T06:16:48.217</time></trkpt><trkpt lat="56.3623483" lon="85.0475442"><time>2024-08-03T06:17:00.223</time></trkpt><trkpt lat="56.3623742" lon="85.0474677"><time>2024-08-03T06:17:05.223</time></trkpt><trkpt lat="56.3623962" lon="85.0473930"><time>2024-08-03T06:17:09.237</time></trkpt><trkpt lat="56.3624217" lon="85.0473111"><time>2024-08-03T06:17:13.220</time></trkpt><trkpt lat="56.3624558" lon="85.0472326"><time>2024-08-03T06:17:17.230</time></trkpt><trkpt lat="56.3624816" lon="85.0471447"><time>2024-08-03T06:17:21.223</time></trkpt><trkpt lat="56.3625065" lon="85.0470678"><time>2024-08-03T06:17:25.217</time></trkpt><trkpt lat="56.3625265" lon="85.0469891"><time>2024-08-03T06:17:29.217</time></trkpt><trkpt lat="56.3625504" lon="85.0469041"><time>2024-08-03T06:17:33.203</time></trkpt><trkpt lat="56.3625774" lon="85.0468173"><time>2024-08-03T06:17:37.190</time></trkpt><trkpt lat="56.3626048" lon="85.0467352"><time>2024-08-03T06:17:41.230</time></trkpt><trkpt lat="56.3626267" lon="85.0466490"><time>2024-08-03T06:17:45.170</time></trkpt><trkpt lat="56.3626569" lon="85.0465594"><time>2024-08-03T06:17:49.233</time></trkpt><trkpt lat="56.3626814" lon="85.0464696"><time>2024-08-03T06:17:53.187</time></trkpt><trkpt lat="56.3626944" lon="85.0463780"><time>2024-08-03T06:17:57.227</time></trkpt><trkpt lat="56.3627134" lon="85.0462831"><time>2024-08-03T06:18:01.297</time></trkpt><trkpt lat="56.3627214" lon="85.0461884"><time>2024-08-03T06:18:05.290</time></trkpt><trkpt lat="56.3627315" lon="85.0460899"><time>2024-08-03T06:18:09.310</time></trkpt><trkpt lat="56.3627327" lon="85.0459939"><time>2024-08-03T06:18:13.307</time></trkpt><trkpt lat="56.3627384" lon="85.0458933"><time>2024-08-03T06:18:17.297</time></trkpt><trkpt lat="56.3627409" lon="85.0457968"><time>2024-08-03T06:18:21.307</time></trkpt><trkpt lat="56.3627439" lon="85.0457016"><time>2024-08-03T06:18:25.310</time></trkpt><trkpt lat="56.3627597" lon="85.0456220"><time>2024-08-03T06:18:29.373</time></trkpt><trkpt lat="56.3628165" lon="85.0456343"><time>2024-08-03T06:18:53.300</time></trkpt><trkpt lat="56.3628706" lon="85.0456415"><time>2024-08-03T06:18:57.287</time></trkpt><trkpt lat="56.3629168" lon="85.0456202"><time>2024-08-03T06:19:01.293</time></trkpt><trkpt lat="56.3629724" lon="85.0456343"><time>2024-08-03T06:19:06.300</time></trkpt><trkpt lat="56.3630265" lon="85.0456393"><time>2024-08-03T06:19:11.243</time></trkpt><trkpt lat="56.3630806" lon="85.0456522"><time>2024-08-03T06:19:16.293</time></trkpt><trkpt lat="56.3631216" lon="85.0456879"><time>2024-08-03T06:19:21.257</time></trkpt><trkpt lat="56.3631743" lon="85.0457243"><time>2024-08-03T06:19:25.323</time></trkpt><trkpt lat="56.3632165" lon="85.0457522"><time>2024-08-03T06:19:29.297</time></trkpt><trkpt lat="56.3632626" lon="85.0457622"><time>2024-08-03T06:19:33.297</time></trkpt><trkpt lat="56.3633066" lon="85.0458157"><time>2024-08-03T06:19:38.307</time></trkpt><trkpt lat="56.3633425" lon="85.0458751"><time>2024-08-03T06:19:42.310</time></trkpt><trkpt lat="56.3633841" lon="85.0459325"><time>2024-08-03T06:19:47.227</time></trkpt><trkpt lat="56.3634180" lon="85.0459858"><time>2024-08-03T06:19:51.303</time></trkpt><trkpt lat="56.3634507" lon="85.0460449"><time>2024-08-03T06:19:55.300</time></trkpt><trkpt lat="56.3634872" lon="85.0461071"><time>2024-08-03T06:20:28.193</time></trkpt><trkpt lat="56.3635258" lon="85.0461675"><time>2024-08-03T06:20:32.200</time></trkpt><trkpt lat="56.3635639" lon="85.0462402"><time>2024-08-03T06:20:36.203</time></trkpt><trkpt lat="56.3636016" lon="85.0463045"><time>2024-08-03T06:20:40.300</time></trkpt><trkpt lat="56.3636384" lon="85.0463781"><time>2024-08-03T06:20:44.297</time></trkpt><trkpt lat="56.3636721" lon="85.0464456"><time>2024-08-03T06:20:48.320</time></trkpt><trkpt lat="56.3637110" lon="85.0465267"><time>2024-08-03T06:20:52.227</time></trkpt><trkpt lat="56.3637445" lon="85.0466071"><time>2024-08-03T06:20:56.310</time></trkpt><trkpt lat="56.3637845" lon="85.0466787"><time>2024-08-03T06:21:01.363</time></trkpt><trkpt lat="56.3638261" lon="85.0467419"><time>2024-08-03T06:21:04.307</time></trkpt><trkpt lat="56.3638666" lon="85.0468116"><time>2024-08-03T06:21:08.207</time></trkpt><trkpt lat="56.3639104" lon="85.0468705"><time>2024-08-03T06:21:12.210</time></trkpt><trkpt lat="56.3639500" lon="85.0469234"><time>2024-08-03T06:21:16.233</time></trkpt><trkpt lat="56.3639883" lon="85.0469689"><time>2024-08-03T06:21:20.230</time></trkpt><trkpt lat="56.3640334" lon="85.0470209"><time>2024-08-03T06:21:24.297</time></trkpt><trkpt lat="56.3640696" lon="85.0470703"><time>2024-08-03T06:21:27.300</time></trkpt><trkpt lat="56.3641067" lon="85.0471222"><time>2024-08-03T06:21:30.280</time></trkpt><trkpt lat="56.3641448" lon="85.0471740"><time>2024-08-03T06:21:33.293</time></trkpt><trkpt lat="56.3641827" lon="85.0472204"><time>2024-08-03T06:21:36.243</time></trkpt><trkpt lat="56.3642211" lon="85.0472751"><time>2024-08-03T06:21:40.277</time></trkpt><trkpt lat="56.3642597" lon="85.0473195"><time>2024-08-03T06:21:44.307</time></trkpt><trkpt lat="56.3643009" lon="85.0473678"><time>2024-08-03T06:21:48.300</time></trkpt><trkpt lat="56.3643410" lon="85.0474171"><time>2024-08-03T06:21:51.180</time></trkpt><trkpt lat="56.3643858" lon="85.0474800"><time>2024-08-03T06:21:55.287</time></trkpt><trkpt lat="56.3644272" lon="85.0475403"><time>2024-08-03T06:21:59.193</time></trkpt><trkpt lat="56.3644694" lon="85.0475995"><time>2024-08-03T06:22:04.357</time></trkpt><trkpt lat="56.3645118" lon="85.0476490"><time>2024-08-03T06:22:08.240</time></trkpt><trkpt lat="56.3645508" lon="85.0476963"><time>2024-08-03T06:22:11.320</time></trkpt><trkpt lat="56.3645892" lon="85.0477388"><time>2024-08-03T06:22:14.203</time></trkpt><trkpt lat="56.3646275" lon="85.0477836"><time>2024-08-03T06:22:17.360</time></trkpt><trkpt lat="56.3646745" lon="85.0478337"><time>2024-08-03T06:22:22.297</time></trkpt><trkpt lat="56.3647129" lon="85.0478910"><time>2024-08-03T06:22:26.337</time></trkpt><trkpt lat="56.3647611" lon="85.0479552"><time>2024-08-03T06:22:30.233</time></trkpt><trkpt lat="56.3647963" lon="85.0480120"><time>2024-08-03T06:22:33.307</time></trkpt><trkpt lat="56.3648241" lon="85.0480889"><time>2024-08-03T06:22:37.230</time></trkpt><trkpt lat="56.3648471" lon="85.0481713"><time>2024-08-03T06:22:41.220</time></trkpt><trkpt lat="56.3648751" lon="85.0482536"><time>2024-08-03T06:22:45.243</time></trkpt><trkpt lat="56.3649067" lon="85.0483238"><time>2024-08-03T06:22:49.220</time></trkpt><trkpt lat="56.3649455" lon="85.0483872"><time>2024-08-03T06:22:53.233</time></trkpt><trkpt lat="56.3649873" lon="85.0484561"><time>2024-08-03T06:22:58.183</time></trkpt><trkpt lat="56.3650199" lon="85.0485173"><time>2024-08-03T06:23:02.197</time></trkpt><trkpt lat="56.3650578" lon="85.0485870"><time>2024-08-03T06:23:07.207</time></trkpt><trkpt lat="56.3650914" lon="85.0486533"><time>2024-08-03T06:23:11.197</time></trkpt><trkpt lat="56.3651313" lon="85.0487278"><time>2024-08-03T06:23:15.200</time></trkpt><trkpt lat="56.3651619" lon="85.0487962"><time>2024-08-03T06:23:19.200</time></trkpt><trkpt lat="56.3651980" lon="85.0488496"><time>2024-08-03T06:23:23.190</time></trkpt><trkpt lat="56.3652370" lon="85.0488981"><time>2024-08-03T06:23:27.180</time></trkpt><trkpt lat="56.3652702" lon="85.0489537"><time>2024-08-03T06:23:30.193</time></trkpt><trkpt lat="56.3653154" lon="85.0490207"><time>2024-08-03T06:23:34.193</time></trkpt><trkpt lat="56.3653535" lon="85.0490798"><time>2024-08-03T06:23:38.193</time></trkpt><trkpt lat="56.3653763" lon="85.0491574"><time>2024-08-03T06:23:42.207</time></trkpt><trkpt lat="56.3653979" lon="85.0492473"><time>2024-08-03T06:23:46.207</time></trkpt><trkpt lat="56.3654210" lon="85.0493238"><time>2024-08-03T06:23:49.217</time></trkpt><trkpt lat="56.3654474" lon="85.0494068"><time>2024-08-03T06:23:53.197</time></trkpt><trkpt lat="56.3654735" lon="85.0494840"><time>2024-08-03T06:23:57.200</time></trkpt><trkpt lat="56.3654977" lon="85.0495527"><time>2024-08-03T06:24:01.197</time></trkpt><trkpt lat="56.3655213" lon="85.0496338"><time>2024-08-03T06:24:05.197</time></trkpt><trkpt lat="56.3655378" lon="85.0497323"><time>2024-08-03T06:24:09.183</time></trkpt><trkpt lat="56.3655547" lon="85.0498106"><time>2024-08-03T06:24:12.197</time></trkpt><trkpt lat="56.3655961" lon="85.0497604"><time>2024-08-03T06:25:19.220</time></trkpt><trkpt lat="56.3656165" lon="85.0496778"><time>2024-08-03T06:25:23.230</time></trkpt><trkpt lat="56.3656449" lon="85.0495951"><time>2024-08-03T06:25:28.237</time></trkpt><trkpt lat="56.3656696" lon="85.0495212"><time>2024-08-03T06:25:46.223</time></trkpt><trkpt lat="56.3656784" lon="85.0494336"><time>2024-08-03T06:25:50.177</time></trkpt><trkpt lat="56.3656870" lon="85.0493490"><time>2024-08-03T06:25:54.207</time></trkpt><trkpt lat="56.3657148" lon="85.0492651"><time>2024-08-03T06:25:59.317</time></trkpt><trkpt lat="56.3657450" lon="85.0491909"><time>2024-08-03T06:26:03.270</time></trkpt><trkpt lat="56.3657728" lon="85.0491065"><time>2024-08-03T06:26:07.267</time></trkpt><trkpt lat="56.3657943" lon="85.0490240"><time>2024-08-03T06:26:11.303</time></trkpt><trkpt lat="56.3658079" lon="85.0489353"><time>2024-08-03T06:26:15.317</time></trkpt><trkpt lat="56.3658288" lon="85.0488366"><time>2024-08-03T06:26:19.307</time></trkpt><trkpt lat="56.3658590" lon="85.0487725"><time>2024-08-03T06:26:23.330</time></trkpt><trkpt lat="56.3658987" lon="85.0487225"><time>2024-08-03T06:26:27.300</time></trkpt><trkpt lat="56.3659429" lon="85.0486881"><time>2024-08-03T06:26:31.290</time></trkpt><trkpt lat="56.3659807" lon="85.0486396"><time>2024-08-03T06:26:35.320</time></trkpt><trkpt lat="56.3660070" lon="85.0485533"><time>2024-08-03T06:26:39.273</time></trkpt><trkpt lat="56.3660221" lon="85.0484758"><time>2024-08-03T06:26:43.340</time></trkpt><trkpt lat="56.3660547" lon="85.0483843"><time>2024-08-03T06:26:47.320</time></trkpt><trkpt lat="56.3660872" lon="85.0483138"><time>2024-08-03T06:26:52.297</time></trkpt><trkpt lat="56.3661257" lon="85.0482472"><time>2024-08-03T06:26:56.210</time></trkpt><trkpt lat="56.3661781" lon="85.0481996"><time>2024-08-03T06:27:01.283</time></trkpt><trkpt lat="56.3662294" lon="85.0481843"><time>2024-08-03T06:27:06.297</time></trkpt><trkpt lat="56.3662757" lon="85.0481758"><time>2024-08-03T06:27:10.297</time></trkpt><trkpt lat="56.3663306" lon="85.0481811"><time>2024-08-03T06:27:15.360</time></trkpt><trkpt lat="56.3663862" lon="85.0482024"><time>2024-08-03T06:27:20.287</time></trkpt><trkpt lat="56.3664333" lon="85.0482264"><time>2024-08-03T06:27:24.290</time></trkpt><trkpt lat="56.3664762" lon="85.0482513"><time>2024-08-03T06:27:28.227</time></trkpt><trkpt lat="56.3665211" lon="85.0482865"><time>2024-08-03T06:27:32.277</time></trkpt><trkpt lat="56.3665672" lon="85.0483192"><time>2024-08-03T06:27:36.310</time></trkpt><trkpt lat="56.3666138" lon="85.0483560"><time>2024-08-03T06:27:40.337</time></trkpt><trkpt lat="56.3666640" lon="85.0483906"><time>2024-08-03T06:27:44.330</time></trkpt><trkpt lat="56.3667111" lon="85.0484237"><time>2024-08-03T06:27:48.303</time></trkpt><trkpt lat="56.3667621" lon="85.0484476"><time>2024-08-03T06:27:52.227</time></trkpt><trkpt lat="56.3668121" lon="85.0484703"><time>2024-08-03T06:27:56.220</time></trkpt><trkpt lat="56.3668674" lon="85.0484964"><time>2024-08-03T06:28:01.340</time></trkpt><trkpt lat="56.3669151" lon="85.0485184"><time>2024-08-03T06:28:05.313</time></trkpt><trkpt lat="56.3669727" lon="85.0485561"><time>2024-08-03T06:28:10.307</time></trkpt><trkpt lat="56.3670204" lon="85.0485915"><time>2024-08-03T06:28:15.310</time></trkpt><trkpt lat="56.3670686" lon="85.0486247"><time>2024-08-03T06:28:19.323</time></trkpt><trkpt lat="56.3671184" lon="85.0486688"><time>2024-08-03T06:28:24.290</time></trkpt><trkpt lat="56.3671650" lon="85.0487131"><time>2024-08-03T06:28:27.170</time></trkpt><trkpt lat="56.3672068" lon="85.0487484"><time>2024-08-03T06:28:31.173</time></trkpt><trkpt lat="56.3672480" lon="85.0487936"><time>2024-08-03T06:28:35.217</time></trkpt><trkpt lat="56.3672899" lon="85.0488444"><time>2024-08-03T06:28:39.220</time></trkpt><trkpt lat="56.3673310" lon="85.0488918"><time>2024-08-03T06:28:43.177</time></trkpt><trkpt lat="56.3673707" lon="85.0489415"><time>2024-08-03T06:28:47.180</time></trkpt><trkpt lat="56.3674082" lon="85.0489926"><time>2024-08-03T06:28:51.170</time></trkpt><trkpt lat="56.3674544" lon="85.0490461"><time>2024-08-03T06:28:56.187</time></trkpt><trkpt lat="56.3674955" lon="85.0490868"><time>2024-08-03T06:29:00.180</time></trkpt><trkpt lat="56.3675402" lon="85.0491235"><time>2024-08-03T06:29:04.190</time></trkpt><trkpt lat="56.3675830" lon="85.0491608"><time>2024-08-03T06:29:08.177</time></trkpt><trkpt lat="56.3676249" lon="85.0491971"><time>2024-08-03T06:29:12.217</time></trkpt><trkpt lat="56.3676687" lon="85.0492382"><time>2024-08-03T06:29:16.167</time></trkpt><trkpt lat="56.3677113" lon="85.0492733"><time>2024-08-03T06:29:20.210</time></trkpt><trkpt lat="56.3677599" lon="85.0493157"><time>2024-08-03T06:29:25.183</time></trkpt><trkpt lat="56.3678080" lon="85.0493582"><time>2024-08-03T06:29:30.183</time></trkpt><trkpt lat="56.3678529" lon="85.0493975"><time>2024-08-03T06:29:35.180</time></trkpt><trkpt lat="56.3678964" lon="85.0494353"><time>2024-08-03T06:29:40.187</time></trkpt><trkpt lat="56.3679439" lon="85.0494767"><time>2024-08-03T06:29:45.187</time></trkpt><trkpt lat="56.3679894" lon="85.0495186"><time>2024-08-03T06:29:49.243</time></trkpt><trkpt lat="56.3680359" lon="85.0495618"><time>2024-08-03T06:30:06.170</time></trkpt><trkpt lat="56.3680808" lon="85.0496158"><time>2024-08-03T06:30:10.177</time></trkpt><trkpt lat="56.3681227" lon="85.0496677"><time>2024-08-03T06:30:14.170</time></trkpt><trkpt lat="56.3681662" lon="85.0497195"><time>2024-08-03T06:30:18.233</time></trkpt><trkpt lat="56.3704702" lon="85.0442942"><time>2024-08-03T06:35:30.610</time></trkpt><trkpt lat="56.3728184" lon="85.0451571"><time>2024-08-03T06:40:18.507</time></trkpt><trkpt lat="56.3728604" lon="85.0452320"><time>2024-08-03T06:40:22.177</time></trkpt><trkpt lat="56.3728756" lon="85.0453266"><time>2024-08-03T06:40:26.240</time></trkpt><trkpt lat="56.3728372" lon="85.0453900"><time>2024-08-03T06:40:32.233</time></trkpt><trkpt lat="56.3728327" lon="85.0453997"><time>2024-08-03T06:41:02.237</time></trkpt><trkpt lat="56.3728818" lon="85.0453401"><time>2024-08-03T06:41:11.217</time></trkpt><trkpt lat="56.3728772" lon="85.0452590"><time>2024-08-03T06:41:14.210</time></trkpt><trkpt lat="56.3728502" lon="85.0451886"><time>2024-08-03T06:41:18.230</time></trkpt><trkpt lat="56.3728090" lon="85.0451555"><time>2024-08-03T06:44:01.183</time></trkpt><trkpt lat="56.3727804" lon="85.0450862"><time>2024-08-03T06:44:08.197</time></trkpt><trkpt lat="56.3727892" lon="85.0450044"><time>2024-08-03T06:45:00.330</time></trkpt><trkpt lat="56.3727647" lon="85.0449234"><time>2024-08-03T06:45:04.310</time></trkpt><trkpt lat="56.3727357" lon="85.0448398"><time>2024-08-03T06:45:08.290</time></trkpt><trkpt lat="56.3727070" lon="85.0447626"><time>2024-08-03T06:45:12.247</time></trkpt><trkpt lat="56.3726893" lon="85.0446797"><time>2024-08-03T06:45:16.340</time></trkpt><trkpt lat="56.3726717" lon="85.0445895"><time>2024-08-03T06:46:48.270</time></trkpt><trkpt lat="56.3726634" lon="85.0444978"><time>2024-08-03T06:46:52.337</time></trkpt><trkpt lat="56.3726649" lon="85.0444049"><time>2024-08-03T06:46:56.307</time></trkpt><trkpt lat="56.3726753" lon="85.0443109"><time>2024-08-03T06:47:00.347</time></trkpt><trkpt lat="56.3726889" lon="85.0442181"><time>2024-08-03T06:47:04.327</time></trkpt><trkpt lat="56.3727029" lon="85.0441291"><time>2024-08-03T06:47:08.350</time></trkpt><trkpt lat="56.3727235" lon="85.0440355"><time>2024-08-03T06:47:12.277</time></trkpt><trkpt lat="56.3727410" lon="85.0439400"><time>2024-08-03T06:47:16.303</time></trkpt><trkpt lat="56.3727524" lon="85.0438466"><time>2024-08-03T06:47:20.280</time></trkpt><trkpt lat="56.3727684" lon="85.0437439"><time>2024-08-03T06:47:24.217</time></trkpt><trkpt lat="56.3727916" lon="85.0436429"><time>2024-08-03T06:47:28.293</time></trkpt><trkpt lat="56.3728147" lon="85.0435643"><time>2024-08-03T06:47:31.350</time></trkpt><trkpt lat="56.3728443" lon="85.0434765"><time>2024-08-03T06:47:35.310</time></trkpt><trkpt lat="56.3728574" lon="85.0433966"><time>2024-08-03T06:47:38.283</time></trkpt><trkpt lat="56.3728774" lon="85.0433075"><time>2024-08-03T06:47:42.310</time></trkpt><trkpt lat="56.3729135" lon="85.0432559"><time>2024-08-03T06:47:45.233</time></trkpt><trkpt lat="56.3729618" lon="85.0432253"><time>2024-08-03T06:47:49.343</time></trkpt><trkpt lat="56.3730068" lon="85.0431831"><time>2024-08-03T06:47:52.340</time></trkpt><trkpt lat="56.3730580" lon="85.0431512"><time>2024-08-03T06:47:56.303</time></trkpt><trkpt lat="56.3731050" lon="85.0431298"><time>2024-08-03T06:48:00.303</time></trkpt><trkpt lat="56.3731500" lon="85.0430966"><time>2024-08-03T06:48:04.210</time></trkpt><trkpt lat="56.3731909" lon="85.0430584"><time>2024-08-03T06:48:07.303</time></trkpt><trkpt lat="56.3732293" lon="85.0430060"><time>2024-08-03T06:48:11.197</time></trkpt><trkpt lat="56.3732727" lon="85.0429473"><time>2024-08-03T06:48:16.167</time></trkpt><trkpt lat="56.3733072" lon="85.0428782"><time>2024-08-03T06:48:20.173</time></trkpt><trkpt lat="56.3733278" lon="85.0427903"><time>2024-08-03T06:48:24.167</time></trkpt><trkpt lat="56.3733301" lon="85.0426992"><time>2024-08-03T06:48:28.177</time></trkpt><trkpt lat="56.3733391" lon="85.0426171"><time>2024-08-03T06:48:32.183</time></trkpt><trkpt lat="56.3733440" lon="85.0425298"><time>2024-08-03T06:48:37.173</time></trkpt><trkpt lat="56.3733495" lon="85.0424305"><time>2024-08-03T06:48:42.180</time></trkpt><trkpt lat="56.3733535" lon="85.0423489"><time>2024-08-03T06:48:46.167</time></trkpt><trkpt lat="56.3733653" lon="85.0422626"><time>2024-08-03T06:48:50.167</time></trkpt><trkpt lat="56.3733956" lon="85.0421785"><time>2024-08-03T06:48:54.177</time></trkpt><trkpt lat="56.3734348" lon="85.0421035"><time>2024-08-03T06:48:58.167</time></trkpt><trkpt lat="56.3734780" lon="85.0420382"><time>2024-08-03T06:49:02.170</time></trkpt><trkpt lat="56.3735189" lon="85.0419895"><time>2024-08-03T06:49:06.173</time></trkpt><trkpt lat="56.3735598" lon="85.0419412"><time>2024-08-03T06:49:10.223</time></trkpt><trkpt lat="56.3735999" lon="85.0418945"><time>2024-08-03T06:49:14.207</time></trkpt><trkpt lat="56.3736441" lon="85.0418587"><time>2024-08-03T06:49:18.340</time></trkpt><trkpt lat="56.3736884" lon="85.0418289"><time>2024-08-03T06:49:22.293</time></trkpt><trkpt lat="56.3737331" lon="85.0417780"><time>2024-08-03T06:49:26.367</time></trkpt><trkpt lat="56.3737812" lon="85.0417288"><time>2024-08-03T06:49:30.313</time></trkpt><trkpt lat="56.3738251" lon="85.0416714"><time>2024-08-03T06:49:34.170</time></trkpt><trkpt lat="56.3738699" lon="85.0416103"><time>2024-08-03T06:49:38.163</time></trkpt><trkpt lat="56.3739122" lon="85.0415607"><time>2024-08-03T06:49:42.203</time></trkpt><trkpt lat="56.3739533" lon="85.0415139"><time>2024-08-03T06:49:46.207</time></trkpt><trkpt lat="56.3739954" lon="85.0414531"><time>2024-08-03T06:49:50.177</time></trkpt><trkpt lat="56.3740351" lon="85.0414010"><time>2024-08-03T06:49:54.183</time></trkpt><trkpt lat="56.3740740" lon="85.0413372"><time>2024-08-03T06:49:58.217</time></trkpt><trkpt lat="56.3741127" lon="85.0412768"><time>2024-08-03T06:50:02.177</time></trkpt><trkpt lat="56.3741601" lon="85.0412211"><time>2024-08-03T06:50:07.183</time></trkpt><trkpt lat="56.3742062" lon="85.0411652"><time>2024-08-03T06:50:11.197</time></trkpt><trkpt lat="56.3742503" lon="85.0411416"><time>2024-08-03T06:50:14.217</time></trkpt><trkpt lat="56.3743016" lon="85.0411515"><time>2024-08-03T06:50:18.217</time></trkpt><trkpt lat="56.3743449" lon="85.0412017"><time>2024-08-03T06:50:22.210</time></trkpt><trkpt lat="56.3743897" lon="85.0412482"><time>2024-08-03T06:50:26.237</time></trkpt><trkpt lat="56.3744326" lon="85.0412874"><time>2024-08-03T06:50:30.227</time></trkpt><trkpt lat="56.3744813" lon="85.0412963"><time>2024-08-03T06:50:34.197</time></trkpt><trkpt lat="56.3745344" lon="85.0413160"><time>2024-08-03T06:50:38.173</time></trkpt><trkpt lat="56.3745882" lon="85.0413189"><time>2024-08-03T06:50:42.207</time></trkpt><trkpt lat="56.3746426" lon="85.0413150"><time>2024-08-03T06:50:46.203</time></trkpt><trkpt lat="56.3746986" lon="85.0413113"><time>2024-08-03T06:50:50.217</time></trkpt><trkpt lat="56.3747506" lon="85.0413088"><time>2024-08-03T06:50:54.223</time></trkpt><trkpt lat="56.3748020" lon="85.0412977"><time>2024-08-03T06:50:58.240</time></trkpt><trkpt lat="56.3748483" lon="85.0413036"><time>2024-08-03T06:51:02.230</time></trkpt><trkpt lat="56.3748937" lon="85.0412982"><time>2024-08-03T06:51:06.240</time></trkpt><trkpt lat="56.3749399" lon="85.0412755"><time>2024-08-03T06:51:10.233</time></trkpt><trkpt lat="56.3749798" lon="85.0412227"><time>2024-08-03T06:51:14.230</time></trkpt><trkpt lat="56.3750186" lon="85.0411691"><time>2024-08-03T06:51:18.187</time></trkpt><trkpt lat="56.3750556" lon="85.0411204"><time>2024-08-03T06:51:22.213</time></trkpt><trkpt lat="56.3750968" lon="85.0410651"><time>2024-08-03T06:51:26.187</time></trkpt><trkpt lat="56.3751347" lon="85.0410102"><time>2024-08-03T06:51:30.203</time></trkpt><trkpt lat="56.3751792" lon="85.0409413"><time>2024-08-03T06:51:34.220</time></trkpt><trkpt lat="56.3752191" lon="85.0408800"><time>2024-08-03T06:51:38.170</time></trkpt><trkpt lat="56.3752688" lon="85.0408301"><time>2024-08-03T06:51:42.170</time></trkpt><trkpt lat="56.3753154" lon="85.0407947"><time>2024-08-03T06:51:45.207</time></trkpt><trkpt lat="56.3753668" lon="85.0407672"><time>2024-08-03T06:51:48.220</time></trkpt><trkpt lat="56.3754188" lon="85.0407568"><time>2024-08-03T06:51:52.317</time></trkpt><trkpt lat="56.3754726" lon="85.0407470"><time>2024-08-03T06:51:56.313</time></trkpt><trkpt lat="56.3755202" lon="85.0407209"><time>2024-08-03T06:52:00.280</time></trkpt><trkpt lat="56.3755604" lon="85.0406732"><time>2024-08-03T06:52:05.320</time></trkpt><trkpt lat="56.3756035" lon="85.0406383"><time>2024-08-03T06:52:13.290</time></trkpt><trkpt lat="56.3756230" lon="85.0405643"><time>2024-08-03T06:52:17.180</time></trkpt><trkpt lat="56.3756430" lon="85.0404665"><time>2024-08-03T06:52:22.187</time></trkpt><trkpt lat="56.3756505" lon="85.0403712"><time>2024-08-03T06:52:26.207</time></trkpt><trkpt lat="56.3756484" lon="85.0402714"><time>2024-08-03T06:52:30.230</time></trkpt><trkpt lat="56.3756458" lon="85.0401692"><time>2024-08-03T06:52:34.327</time></trkpt><trkpt lat="56.3756464" lon="85.0400705"><time>2024-08-03T06:52:38.297</time></trkpt><trkpt lat="56.3756477" lon="85.0399886"><time>2024-08-03T06:52:41.303</time></trkpt><trkpt lat="56.3756507" lon="85.0398908"><time>2024-08-03T06:52:45.300</time></trkpt><trkpt lat="56.3756555" lon="85.0397925"><time>2024-08-03T06:52:49.377</time></trkpt><trkpt lat="56.3756660" lon="85.0397134"><time>2024-08-03T06:52:52.230</time></trkpt><trkpt lat="56.3756724" lon="85.0396152"><time>2024-08-03T06:52:56.280</time></trkpt><trkpt lat="56.3756880" lon="85.0395238"><time>2024-08-03T06:53:00.240</time></trkpt><trkpt lat="56.3757170" lon="85.0394565"><time>2024-08-03T06:53:03.270</time></trkpt><trkpt lat="56.3757589" lon="85.0393756"><time>2024-08-03T06:53:07.183</time></trkpt><trkpt lat="56.3757982" lon="85.0393114"><time>2024-08-03T06:53:11.177</time></trkpt><trkpt lat="56.3758346" lon="85.0392422"><time>2024-08-03T06:53:15.187</time></trkpt><trkpt lat="56.3758687" lon="85.0391744"><time>2024-08-03T06:53:19.187</time></trkpt><trkpt lat="56.3759014" lon="85.0391024"><time>2024-08-03T06:53:23.200</time></trkpt><trkpt lat="56.3759271" lon="85.0390274"><time>2024-08-03T06:53:27.187</time></trkpt><trkpt lat="56.3759703" lon="85.0389632"><time>2024-08-03T06:53:31.220</time></trkpt><trkpt lat="56.3760098" lon="85.0389021"><time>2024-08-03T06:53:35.207</time></trkpt><trkpt lat="56.3760525" lon="85.0388623"><time>2024-08-03T06:53:39.210</time></trkpt><trkpt lat="56.3761000" lon="85.0388356"><time>2024-08-03T06:53:42.200</time></trkpt><trkpt lat="56.3761503" lon="85.0387964"><time>2024-08-03T06:53:46.200</time></trkpt><trkpt lat="56.3762010" lon="85.0387560"><time>2024-08-03T06:53:50.207</time></trkpt><trkpt lat="56.3762499" lon="85.0387042"><time>2024-08-03T06:53:54.180</time></trkpt><trkpt lat="56.3762916" lon="85.0386512"><time>2024-08-03T06:53:58.230</time></trkpt><trkpt lat="56.3763325" lon="85.0386083"><time>2024-08-03T06:54:03.360</time></trkpt><trkpt lat="56.3763857" lon="85.0385591"><time>2024-08-03T06:54:09.287</time></trkpt><trkpt lat="56.3764345" lon="85.0385032"><time>2024-08-03T06:54:13.313</time></trkpt><trkpt lat="56.3764746" lon="85.0384560"><time>2024-08-03T06:54:16.290</time></trkpt><trkpt lat="56.3765141" lon="85.0384153"><time>2024-08-03T06:54:19.287</time></trkpt><trkpt lat="56.3765556" lon="85.0383794"><time>2024-08-03T06:54:22.343</time></trkpt><trkpt lat="56.3766014" lon="85.0383397"><time>2024-08-03T06:54:26.290</time></trkpt><trkpt lat="56.3766495" lon="85.0383435"><time>2024-08-03T06:54:31.297</time></trkpt><trkpt lat="56.3766347" lon="85.0384319"><time>2024-08-03T06:54:47.217</time></trkpt><trkpt lat="56.3766173" lon="85.0385304"><time>2024-08-03T06:55:12.197</time></trkpt><trkpt lat="56.3765889" lon="85.0386005"><time>2024-08-03T06:55:16.177</time></trkpt><trkpt lat="56.3765675" lon="85.0386751"><time>2024-08-03T06:55:20.193</time></trkpt><trkpt lat="56.3765358" lon="85.0387371"><time>2024-08-03T06:55:29.227</time></trkpt><trkpt lat="56.3765098" lon="85.0388054"><time>2024-08-03T06:55:33.223</time></trkpt><trkpt lat="56.3764833" lon="85.0388895"><time>2024-08-03T06:55:37.207</time></trkpt><trkpt lat="56.3764607" lon="85.0389739"><time>2024-08-03T06:55:43.187</time></trkpt><trkpt lat="56.3764318" lon="85.0390630"><time>2024-08-03T06:55:47.200</time></trkpt><trkpt lat="56.3764145" lon="85.0391513"><time>2024-08-03T06:55:51.217</time></trkpt><trkpt lat="56.3763939" lon="85.0392235"><time>2024-08-03T06:55:55.207</time></trkpt><trkpt lat="56.3764199" lon="85.0391443"><time>2024-08-03T06:56:09.250</time></trkpt><trkpt lat="56.3764396" lon="85.0390508"><time>2024-08-03T06:56:14.307</time></trkpt><trkpt lat="56.3764499" lon="85.0389634"><time>2024-08-03T06:56:19.303</time></trkpt><trkpt lat="56.3764788" lon="85.0388907"><time>2024-08-03T06:56:24.277</time></trkpt><trkpt lat="56.3765076" lon="85.0388127"><time>2024-08-03T06:56:28.300</time></trkpt><trkpt lat="56.3765312" lon="85.0387366"><time>2024-08-03T06:56:33.290</time></trkpt><trkpt lat="56.3765554" lon="85.0386579"><time>2024-08-03T06:56:37.370</time></trkpt><trkpt lat="56.3765878" lon="85.0385798"><time>2024-08-03T06:56:42.287</time></trkpt><trkpt lat="56.3766151" lon="85.0384947"><time>2024-08-03T06:56:46.297</time></trkpt><trkpt lat="56.3766392" lon="85.0384052"><time>2024-08-03T06:56:51.283</time></trkpt><trkpt lat="56.3766658" lon="85.0383129"><time>2024-08-03T06:56:56.307</time></trkpt><trkpt lat="56.3766999" lon="85.0382382"><time>2024-08-03T06:57:01.307</time></trkpt><trkpt lat="56.3767432" lon="85.0382940"><time>2024-08-03T06:57:11.287</time></trkpt><trkpt lat="56.3767653" lon="85.0383686"><time>2024-08-03T06:57:25.293</time></trkpt><trkpt lat="56.3767669" lon="85.0384510"><time>2024-08-03T06:57:38.273</time></trkpt><trkpt lat="56.3767723" lon="85.0385324"><time>2024-08-03T06:57:51.307</time></trkpt><trkpt lat="56.3768226" lon="85.0385368"><time>2024-08-03T06:58:11.347</time></trkpt><trkpt lat="56.3768672" lon="85.0385578"><time>2024-08-03T06:59:06.290</time></trkpt><trkpt lat="56.3768210" lon="85.0385832"><time>2024-08-03T07:00:52.283</time></trkpt><trkpt lat="56.3768206" lon="85.0386719"><time>2024-08-03T07:01:47.287</time></trkpt><trkpt lat="56.3767935" lon="85.0387532"><time>2024-08-03T07:01:59.297</time></trkpt><trkpt lat="56.3767821" lon="85.0388400"><time>2024-08-03T07:02:05.280</time></trkpt><trkpt lat="56.3767714" lon="85.0389212"><time>2024-08-03T07:02:11.270</time></trkpt><trkpt lat="56.3767936" lon="85.0390013"><time>2024-08-03T07:02:18.270</time></trkpt><trkpt lat="56.3768371" lon="85.0390298"><time>2024-08-03T07:02:27.280</time></trkpt><trkpt lat="56.3768805" lon="85.0390518"><time>2024-08-03T07:02:33.267</time></trkpt><trkpt lat="56.3769156" lon="85.0391051"><time>2024-08-03T07:02:38.287</time></trkpt><trkpt lat="56.3771711" lon="85.0394789"><time>2024-08-03T07:09:23.713</time></trkpt><trkpt lat="56.3771711" lon="85.0394789"><time>2024-08-03T07:09:23.943</time></trkpt><trkpt lat="56.3771920" lon="85.0393866"><time>2024-08-03T07:09:29.207</time></trkpt><trkpt lat="56.3771759" lon="85.0393066"><time>2024-08-03T07:09:32.227</time></trkpt><trkpt lat="56.3771297" lon="85.0392733"><time>2024-08-03T07:09:35.203</time></trkpt><trkpt lat="56.3770783" lon="85.0392879"><time>2024-08-03T07:09:38.197</time></trkpt><trkpt lat="56.3770399" lon="85.0393351"><time>2024-08-03T07:09:41.200</time></trkpt><trkpt lat="56.3770076" lon="85.0394025"><time>2024-08-03T07:09:44.230</time></trkpt><trkpt lat="56.3769934" lon="85.0394812"><time>2024-08-03T07:09:47.213</time></trkpt><trkpt lat="56.3769971" lon="85.0395795"><time>2024-08-03T07:09:51.227</time></trkpt><trkpt lat="56.3770125" lon="85.0396800"><time>2024-08-03T07:09:55.210</time></trkpt><trkpt lat="56.3770437" lon="85.0397616"><time>2024-08-03T07:09:59.187</time></trkpt><trkpt lat="56.3770729" lon="85.0398502"><time>2024-08-03T07:10:03.210</time></trkpt><trkpt lat="56.3770884" lon="85.0399377"><time>2024-08-03T07:10:07.237</time></trkpt><trkpt lat="56.3770985" lon="85.0400391"><time>2024-08-03T07:10:11.293</time></trkpt><trkpt lat="56.3771182" lon="85.0401223"><time>2024-08-03T07:10:15.223</time></trkpt><trkpt lat="56.3771582" lon="85.0401841"><time>2024-08-03T07:10:19.217</time></trkpt><trkpt lat="56.3772089" lon="85.0402017"><time>2024-08-03T07:10:23.240</time></trkpt><trkpt lat="56.3772599" lon="85.0402000"><time>2024-08-03T07:10:27.230</time></trkpt><trkpt lat="56.3773177" lon="85.0401942"><time>2024-08-03T07:10:32.233</time></trkpt><trkpt lat="56.3773742" lon="85.0401846"><time>2024-08-03T07:10:36.247</time></trkpt><trkpt lat="56.3774221" lon="85.0401530"><time>2024-08-03T07:10:40.217</time></trkpt><trkpt lat="56.3774643" lon="85.0401118"><time>2024-08-03T07:10:44.227</time></trkpt><trkpt lat="56.3775094" lon="85.0400716"><time>2024-08-03T07:10:48.233</time></trkpt><trkpt lat="56.3775557" lon="85.0400370"><time>2024-08-03T07:10:52.237</time></trkpt><trkpt lat="56.3775989" lon="85.0400005"><time>2024-08-03T07:10:56.237</time></trkpt><trkpt lat="56.3776467" lon="85.0399717"><time>2024-08-03T07:11:00.250</time></trkpt><trkpt lat="56.3776909" lon="85.0399496"><time>2024-08-03T07:11:04.253</time></trkpt><trkpt lat="56.3777393" lon="85.0398921"><time>2024-08-03T07:11:08.233</time></trkpt><trkpt lat="56.3777589" lon="85.0398082"><time>2024-08-03T07:11:12.247</time></trkpt><trkpt lat="56.3777766" lon="85.0397216"><time>2024-08-03T07:11:16.243</time></trkpt><trkpt lat="56.3777903" lon="85.0396322"><time>2024-08-03T07:11:20.247</time></trkpt><trkpt lat="56.3778089" lon="85.0395583"><time>2024-08-03T07:11:23.243</time></trkpt><trkpt lat="56.3778395" lon="85.0394727"><time>2024-08-03T07:11:27.323</time></trkpt><trkpt lat="56.3778740" lon="85.0394043"><time>2024-08-03T07:11:31.217</time></trkpt><trkpt lat="56.3779262" lon="85.0393683"><time>2024-08-03T07:11:35.310</time></trkpt><trkpt lat="56.3779810" lon="85.0393964"><time>2024-08-03T07:11:39.323</time></trkpt><trkpt lat="56.3780205" lon="85.0394400"><time>2024-08-03T07:11:42.243</time></trkpt><trkpt lat="56.3780538" lon="85.0395144"><time>2024-08-03T07:11:46.310</time></trkpt><trkpt lat="56.3780910" lon="85.0395761"><time>2024-08-03T07:11:50.303</time></trkpt><trkpt lat="56.3781256" lon="85.0396533"><time>2024-08-03T07:11:54.297</time></trkpt><trkpt lat="56.3781662" lon="85.0397261"><time>2024-08-03T07:11:58.253</time></trkpt><trkpt lat="56.3782044" lon="85.0397711"><time>2024-08-03T07:12:01.317</time></trkpt><trkpt lat="56.3782538" lon="85.0397994"><time>2024-08-03T07:12:05.320</time></trkpt><trkpt lat="56.3783008" lon="85.0397715"><time>2024-08-03T07:12:09.210</time></trkpt><trkpt lat="56.3783405" lon="85.0397008"><time>2024-08-03T07:12:13.183</time></trkpt><trkpt lat="56.3783749" lon="85.0396324"><time>2024-08-03T07:12:17.183</time></trkpt><trkpt lat="56.3784073" lon="85.0395665"><time>2024-08-03T07:12:21.177</time></trkpt><trkpt lat="56.3784398" lon="85.0394918"><time>2024-08-03T07:12:25.183</time></trkpt><trkpt lat="56.3784695" lon="85.0394294"><time>2024-08-03T07:12:29.187</time></trkpt><trkpt lat="56.3785103" lon="85.0393907"><time>2024-08-03T07:12:43.213</time></trkpt><trkpt lat="56.3785456" lon="85.0393336"><time>2024-08-03T07:12:47.197</time></trkpt><trkpt lat="56.3785776" lon="85.0392570"><time>2024-08-03T07:12:51.230</time></trkpt><trkpt lat="56.3786054" lon="85.0391911"><time>2024-08-03T07:12:55.227</time></trkpt><trkpt lat="56.3785808" lon="85.0391052"><time>2024-08-03T07:13:05.300</time></trkpt><trkpt lat="56.3785712" lon="85.0390083"><time>2024-08-03T07:13:09.360</time></trkpt><trkpt lat="56.3785813" lon="85.0389139"><time>2024-08-03T07:13:13.297</time></trkpt><trkpt lat="56.3785888" lon="85.0388322"><time>2024-08-03T07:13:16.317</time></trkpt><trkpt lat="56.3786039" lon="85.0387474"><time>2024-08-03T07:13:20.187</time></trkpt><trkpt lat="56.3786202" lon="85.0386679"><time>2024-08-03T07:13:24.180</time></trkpt><trkpt lat="56.3786320" lon="85.0385676"><time>2024-08-03T07:13:29.190</time></trkpt><trkpt lat="56.3786361" lon="85.0384781"><time>2024-08-03T07:13:33.183</time></trkpt><trkpt lat="56.3786535" lon="85.0383937"><time>2024-08-03T07:13:37.187</time></trkpt><trkpt lat="56.3786818" lon="85.0383164"><time>2024-08-03T07:13:41.190</time></trkpt><trkpt lat="56.3787069" lon="85.0382332"><time>2024-08-03T07:13:45.197</time></trkpt><trkpt lat="56.3787453" lon="85.0381498"><time>2024-08-03T07:13:49.203</time></trkpt><trkpt lat="56.3787739" lon="85.0380651"><time>2024-08-03T07:13:53.223</time></trkpt><trkpt lat="56.3788125" lon="85.0379862"><time>2024-08-03T07:13:57.227</time></trkpt><trkpt lat="56.3788419" lon="85.0379016"><time>2024-08-03T07:14:01.227</time></trkpt><trkpt lat="56.3788734" lon="85.0378312"><time>2024-08-03T07:14:05.197</time></trkpt><trkpt lat="56.3789108" lon="85.0377757"><time>2024-08-03T07:14:09.210</time></trkpt><trkpt lat="56.3789489" lon="85.0377059"><time>2024-08-03T07:14:13.233</time></trkpt><trkpt lat="56.3789813" lon="85.0376202"><time>2024-08-03T07:14:17.227</time></trkpt><trkpt lat="56.3790040" lon="85.0375493"><time>2024-08-03T07:14:20.217</time></trkpt><trkpt lat="56.3790251" lon="85.0374619"><time>2024-08-03T07:14:24.207</time></trkpt><trkpt lat="56.3790544" lon="85.0373827"><time>2024-08-03T07:14:28.217</time></trkpt><trkpt lat="56.3790920" lon="85.0373135"><time>2024-08-03T07:14:32.230</time></trkpt><trkpt lat="56.3791386" lon="85.0372991"><time>2024-08-03T07:14:38.187</time></trkpt><trkpt lat="56.3791913" lon="85.0373252"><time>2024-08-03T07:14:42.237</time></trkpt><trkpt lat="56.3792318" lon="85.0373790"><time>2024-08-03T07:14:46.260</time></trkpt><trkpt lat="56.3792692" lon="85.0374249"><time>2024-08-03T07:14:50.237</time></trkpt><trkpt lat="56.3793139" lon="85.0374599"><time>2024-08-03T07:14:54.317</time></trkpt><trkpt lat="56.3793722" lon="85.0374747"><time>2024-08-03T07:14:58.297</time></trkpt><trkpt lat="56.3794259" lon="85.0374713"><time>2024-08-03T07:15:02.263</time></trkpt><trkpt lat="56.3794832" lon="85.0374793"><time>2024-08-03T07:15:06.207</time></trkpt><trkpt lat="56.3795402" lon="85.0374862"><time>2024-08-03T07:15:10.220</time></trkpt><trkpt lat="56.3795938" lon="85.0374987"><time>2024-08-03T07:15:14.180</time></trkpt><trkpt lat="56.3796470" lon="85.0375023"><time>2024-08-03T07:15:18.180</time></trkpt><trkpt lat="56.3796926" lon="85.0375160"><time>2024-08-03T07:15:22.177</time></trkpt><trkpt lat="56.3797396" lon="85.0375175"><time>2024-08-03T07:15:26.183</time></trkpt><trkpt lat="56.3797907" lon="85.0375198"><time>2024-08-03T07:15:30.183</time></trkpt><trkpt lat="56.3798421" lon="85.0375153"><time>2024-08-03T07:15:35.187</time></trkpt><trkpt lat="56.3798887" lon="85.0375402"><time>2024-08-03T07:15:39.213</time></trkpt><trkpt lat="56.3799333" lon="85.0375710"><time>2024-08-03T07:15:43.230</time></trkpt><trkpt lat="56.3799862" lon="85.0375844"><time>2024-08-03T07:15:47.233</time></trkpt><trkpt lat="56.3800355" lon="85.0375952"><time>2024-08-03T07:15:51.230</time></trkpt><trkpt lat="56.3800873" lon="85.0375985"><time>2024-08-03T07:15:55.230</time></trkpt><trkpt lat="56.3801443" lon="85.0375995"><time>2024-08-03T07:15:59.213</time></trkpt><trkpt lat="56.3801967" lon="85.0375981"><time>2024-08-03T07:16:03.233</time></trkpt><trkpt lat="56.3802422" lon="85.0375999"><time>2024-08-03T07:16:07.207</time></trkpt><trkpt lat="56.3802952" lon="85.0375944"><time>2024-08-03T07:16:12.190</time></trkpt><trkpt lat="56.3803470" lon="85.0375849"><time>2024-08-03T07:16:17.227</time></trkpt><trkpt lat="56.3803986" lon="85.0375736"><time>2024-08-03T07:16:22.173</time></trkpt><trkpt lat="56.3804492" lon="85.0375470"><time>2024-08-03T07:16:27.177</time></trkpt><trkpt lat="56.3804851" lon="85.0374925"><time>2024-08-03T07:16:31.180</time></trkpt><trkpt lat="56.3805183" lon="85.0374352"><time>2024-08-03T07:16:35.177</time></trkpt><trkpt lat="56.3805621" lon="85.0373820"><time>2024-08-03T07:16:40.237</time></trkpt><trkpt lat="56.3806041" lon="85.0373394"><time>2024-08-03T07:16:44.230</time></trkpt><trkpt lat="56.3806389" lon="85.0372768"><time>2024-08-03T07:16:48.237</time></trkpt><trkpt lat="56.3806718" lon="85.0372171"><time>2024-08-03T07:16:52.237</time></trkpt><trkpt lat="56.3807167" lon="85.0371650"><time>2024-08-03T07:16:57.210</time></trkpt><trkpt lat="56.3807624" lon="85.0371227"><time>2024-08-03T07:17:02.233</time></trkpt><trkpt lat="56.3808037" lon="85.0370602"><time>2024-08-03T07:17:07.263</time></trkpt><trkpt lat="56.3808419" lon="85.0370053"><time>2024-08-03T07:17:12.320</time></trkpt><trkpt lat="56.3808851" lon="85.0369727"><time>2024-08-03T07:17:17.357</time></trkpt><trkpt lat="56.3809253" lon="85.0369221"><time>2024-08-03T07:17:22.223</time></trkpt><trkpt lat="56.3809670" lon="85.0368655"><time>2024-08-03T07:17:27.250</time></trkpt><trkpt lat="56.3810056" lon="85.0368228"><time>2024-08-03T07:17:32.230</time></trkpt><trkpt lat="56.3810479" lon="85.0367803"><time>2024-08-03T07:17:37.237</time></trkpt><trkpt lat="56.3810926" lon="85.0367564"><time>2024-08-03T07:17:44.190</time></trkpt><trkpt lat="56.3811285" lon="85.0367001"><time>2024-08-03T07:17:52.240</time></trkpt><trkpt lat="56.3811698" lon="85.0366279"><time>2024-08-03T07:17:57.237</time></trkpt><trkpt lat="56.3811964" lon="85.0365506"><time>2024-08-03T07:18:02.200</time></trkpt><trkpt lat="56.3812181" lon="85.0364777"><time>2024-08-03T07:18:06.213</time></trkpt><trkpt lat="56.3812503" lon="85.0364174"><time>2024-08-03T07:18:10.240</time></trkpt><trkpt lat="56.3812785" lon="85.0363460"><time>2024-08-03T07:18:17.227</time></trkpt><trkpt lat="56.3813239" lon="85.0362810"><time>2024-08-03T07:18:21.217</time></trkpt><trkpt lat="56.3813547" lon="85.0362071"><time>2024-08-03T07:18:25.177</time></trkpt><trkpt lat="56.3813926" lon="85.0361329"><time>2024-08-03T07:18:29.247</time></trkpt><trkpt lat="56.3814404" lon="85.0360975"><time>2024-08-03T07:18:33.193</time></trkpt><trkpt lat="56.3814831" lon="85.0360677"><time>2024-08-03T07:18:52.220</time></trkpt><trkpt lat="56.3815337" lon="85.0361158"><time>2024-08-03T07:19:04.207</time></trkpt><trkpt lat="56.3815647" lon="85.0361874"><time>2024-08-03T07:19:08.187</time></trkpt><trkpt lat="56.3815895" lon="85.0362677"><time>2024-08-03T07:19:12.227</time></trkpt><trkpt lat="56.3815992" lon="85.0363509"><time>2024-08-03T07:19:17.197</time></trkpt><trkpt lat="56.3816134" lon="85.0364280"><time>2024-08-03T07:19:20.230</time></trkpt><trkpt lat="56.3816265" lon="85.0365114"><time>2024-08-03T07:19:24.240</time></trkpt><trkpt lat="56.3816484" lon="85.0365934"><time>2024-08-03T07:19:30.253</time></trkpt><trkpt lat="56.3816854" lon="85.0366530"><time>2024-08-03T07:19:34.250</time></trkpt><trkpt lat="56.3817176" lon="85.0367100"><time>2024-08-03T07:19:38.257</time></trkpt><trkpt lat="56.3817556" lon="85.0367713"><time>2024-08-03T07:19:42.297</time></trkpt><trkpt lat="56.3817896" lon="85.0368328"><time>2024-08-03T07:19:46.197</time></trkpt><trkpt lat="56.3818221" lon="85.0369123"><time>2024-08-03T07:19:50.247</time></trkpt><trkpt lat="56.3818572" lon="85.0369798"><time>2024-08-03T07:19:55.320</time></trkpt><trkpt lat="56.3818951" lon="85.0370283"><time>2024-08-03T07:19:59.267</time></trkpt><trkpt lat="56.3819324" lon="85.0370862"><time>2024-08-03T07:20:03.327</time></trkpt><trkpt lat="56.3819644" lon="85.0371444"><time>2024-08-03T07:20:06.237</time></trkpt><trkpt lat="56.3820050" lon="85.0372176"><time>2024-08-03T07:20:10.333</time></trkpt><trkpt lat="56.3820323" lon="85.0372861"><time>2024-08-03T07:20:15.307</time></trkpt><trkpt lat="56.3820604" lon="85.0373556"><time>2024-08-03T07:20:18.303</time></trkpt><trkpt lat="56.3820858" lon="85.0374242"><time>2024-08-03T07:20:22.303</time></trkpt><trkpt lat="56.3821100" lon="85.0374933"><time>2024-08-03T07:20:27.347</time></trkpt><trkpt lat="56.3821430" lon="85.0375514"><time>2024-08-03T07:20:31.293</time></trkpt><trkpt lat="56.3821724" lon="85.0376205"><time>2024-08-03T07:20:35.227</time></trkpt><trkpt lat="56.3822108" lon="85.0377051"><time>2024-08-03T07:20:40.293</time></trkpt><trkpt lat="56.3822553" lon="85.0377640"><time>2024-08-03T07:20:45.337</time></trkpt><trkpt lat="56.3822741" lon="85.0378446"><time>2024-08-03T07:20:50.187</time></trkpt><trkpt lat="56.3823086" lon="85.0379021"><time>2024-08-03T07:20:57.177</time></trkpt><trkpt lat="56.3823530" lon="85.0379559"><time>2024-08-03T07:21:02.187</time></trkpt><trkpt lat="56.3823752" lon="85.0380290"><time>2024-08-03T07:21:08.187</time></trkpt><trkpt lat="56.3824104" lon="85.0381006"><time>2024-08-03T07:21:13.193</time></trkpt><trkpt lat="56.3824545" lon="85.0381474"><time>2024-08-03T07:21:17.183</time></trkpt><trkpt lat="56.3824912" lon="85.0382096"><time>2024-08-03T07:21:22.220</time></trkpt><trkpt lat="56.3825314" lon="85.0382629"><time>2024-08-03T07:21:27.300</time></trkpt><trkpt lat="56.3825659" lon="85.0383244"><time>2024-08-03T07:21:31.303</time></trkpt><trkpt lat="56.3825935" lon="85.0384025"><time>2024-08-03T07:21:37.230</time></trkpt><trkpt lat="56.3826303" lon="85.0384607"><time>2024-08-03T07:21:40.277</time></trkpt><trkpt lat="56.3826602" lon="85.0385394"><time>2024-08-03T07:21:45.217</time></trkpt><trkpt lat="56.3826919" lon="85.0386231"><time>2024-08-03T07:21:49.303</time></trkpt><trkpt lat="56.3827325" lon="85.0386825"><time>2024-08-03T07:21:53.293</time></trkpt><trkpt lat="56.3827695" lon="85.0387520"><time>2024-08-03T07:21:58.240</time></trkpt><trkpt lat="56.3827999" lon="85.0388267"><time>2024-08-03T07:22:02.237</time></trkpt><trkpt lat="56.3828460" lon="85.0388846"><time>2024-08-03T07:22:06.237</time></trkpt><trkpt lat="56.3828836" lon="85.0389326"><time>2024-08-03T07:22:10.193</time></trkpt><trkpt lat="56.3829285" lon="85.0389822"><time>2024-08-03T07:22:15.207</time></trkpt><trkpt lat="56.3829305" lon="85.0390670"><time>2024-08-03T07:22:20.210</time></trkpt><trkpt lat="56.3829647" lon="85.0391399"><time>2024-08-03T07:22:27.207</time></trkpt><trkpt lat="56.3829988" lon="85.0391966"><time>2024-08-03T07:22:31.217</time></trkpt><trkpt lat="56.3830454" lon="85.0392478"><time>2024-08-03T07:22:35.207</time></trkpt><trkpt lat="56.3830849" lon="85.0392997"><time>2024-08-03T07:22:39.220</time></trkpt><trkpt lat="56.3831224" lon="85.0393661"><time>2024-08-03T07:22:43.213</time></trkpt><trkpt lat="56.3831534" lon="85.0394368"><time>2024-08-03T07:22:47.220</time></trkpt><trkpt lat="56.3831918" lon="85.0394909"><time>2024-08-03T07:22:52.210</time></trkpt><trkpt lat="56.3832326" lon="85.0395290"><time>2024-08-03T07:22:57.220</time></trkpt><trkpt lat="56.3832837" lon="85.0395545"><time>2024-08-03T07:23:02.220</time></trkpt><trkpt lat="56.3833207" lon="85.0396106"><time>2024-08-03T07:23:06.203</time></trkpt><trkpt lat="56.3833697" lon="85.0396525"><time>2024-08-03T07:23:10.220</time></trkpt><trkpt lat="56.3834143" lon="85.0397012"><time>2024-08-03T07:23:15.217</time></trkpt><trkpt lat="56.3834556" lon="85.0397493"><time>2024-08-03T07:23:20.220</time></trkpt><trkpt lat="56.3834972" lon="85.0398183"><time>2024-08-03T07:23:25.230</time></trkpt><trkpt lat="56.3835382" lon="85.0398677"><time>2024-08-03T07:23:30.250</time></trkpt><trkpt lat="56.3835814" lon="85.0399190"><time>2024-08-03T07:23:35.217</time></trkpt><trkpt lat="56.3836225" lon="85.0399550"><time>2024-08-03T07:23:39.203</time></trkpt><trkpt lat="56.3836633" lon="85.0400184"><time>2024-08-03T07:23:44.217</time></trkpt><trkpt lat="56.3837089" lon="85.0400675"><time>2024-08-03T07:23:50.193</time></trkpt><trkpt lat="56.3837469" lon="85.0401251"><time>2024-08-03T07:23:54.223</time></trkpt><trkpt lat="56.3837958" lon="85.0401704"><time>2024-08-03T07:23:59.187</time></trkpt><trkpt lat="56.3838391" lon="85.0402019"><time>2024-08-03T07:24:03.203</time></trkpt><trkpt lat="56.3838726" lon="85.0402574"><time>2024-08-03T07:24:07.200</time></trkpt><trkpt lat="56.3839097" lon="85.0403070"><time>2024-08-03T07:24:11.210</time></trkpt><trkpt lat="56.3839431" lon="85.0403739"><time>2024-08-03T07:24:15.227</time></trkpt><trkpt lat="56.3839844" lon="85.0404424"><time>2024-08-03T07:24:19.187</time></trkpt><trkpt lat="56.3840100" lon="85.0405257"><time>2024-08-03T07:24:23.207</time></trkpt><trkpt lat="56.3840401" lon="85.0406095"><time>2024-08-03T07:24:27.237</time></trkpt><trkpt lat="56.3840770" lon="85.0406881"><time>2024-08-03T07:24:32.210</time></trkpt><trkpt lat="56.3841119" lon="85.0407716"><time>2024-08-03T07:24:36.227</time></trkpt><trkpt lat="56.3841461" lon="85.0408336"><time>2024-08-03T07:24:40.223</time></trkpt><trkpt lat="56.3841820" lon="85.0408994"><time>2024-08-03T07:24:44.230</time></trkpt><trkpt lat="56.3842248" lon="85.0409552"><time>2024-08-03T07:24:48.197</time></trkpt><trkpt lat="56.3842667" lon="85.0410160"><time>2024-08-03T07:24:53.227</time></trkpt><trkpt lat="56.3843034" lon="85.0410749"><time>2024-08-03T07:24:59.223</time></trkpt><trkpt lat="56.3842896" lon="85.0409938"><time>2024-08-03T07:25:16.187</time></trkpt><trkpt lat="56.3843230" lon="85.0409283"><time>2024-08-03T07:25:22.183</time></trkpt><trkpt lat="56.3843474" lon="85.0408573"><time>2024-08-03T07:25:28.177</time></trkpt><trkpt lat="56.3843870" lon="85.0408109"><time>2024-08-03T07:25:34.177</time></trkpt><trkpt lat="56.3844303" lon="85.0407698"><time>2024-08-03T07:25:40.217</time></trkpt><trkpt lat="56.3844725" lon="85.0407288"><time>2024-08-03T07:25:46.203</time></trkpt><trkpt lat="56.3845076" lon="85.0406734"><time>2024-08-03T07:25:51.207</time></trkpt><trkpt lat="56.3845454" lon="85.0406080"><time>2024-08-03T07:25:57.217</time></trkpt><trkpt lat="56.3845726" lon="85.0405338"><time>2024-08-03T07:26:03.207</time></trkpt><trkpt lat="56.3845965" lon="85.0404602"><time>2024-08-03T07:26:09.217</time></trkpt><trkpt lat="56.3846195" lon="85.0403720"><time>2024-08-03T07:26:15.217</time></trkpt><trkpt lat="56.3846425" lon="85.0402965"><time>2024-08-03T07:26:19.220</time></trkpt><trkpt lat="56.3846925" lon="85.0402604"><time>2024-08-03T07:26:24.200</time></trkpt><trkpt lat="56.3847354" lon="85.0403012"><time>2024-08-03T07:26:27.223</time></trkpt><trkpt lat="56.3847881" lon="85.0403162"><time>2024-08-03T07:26:31.217</time></trkpt><trkpt lat="56.3848338" lon="85.0403471"><time>2024-08-03T07:26:35.180</time></trkpt><trkpt lat="56.3848656" lon="85.0404244"><time>2024-08-03T07:26:39.180</time></trkpt><trkpt lat="56.3849037" lon="85.0404803"><time>2024-08-03T07:26:43.193</time></trkpt><trkpt lat="56.3849525" lon="85.0404741"><time>2024-08-03T07:26:47.220</time></trkpt><trkpt lat="56.3850033" lon="85.0404329"><time>2024-08-03T07:26:52.213</time></trkpt><trkpt lat="56.3850382" lon="85.0403738"><time>2024-08-03T07:27:01.203</time></trkpt><trkpt lat="56.3850669" lon="85.0403018"><time>2024-08-03T07:27:10.187</time></trkpt><trkpt lat="56.3850417" lon="85.0402082"><time>2024-08-03T07:27:17.210</time></trkpt><trkpt lat="56.3850454" lon="85.0401197"><time>2024-08-03T07:27:23.230</time></trkpt><trkpt lat="56.3850529" lon="85.0400354"><time>2024-08-03T07:27:30.213</time></trkpt><trkpt lat="56.3850309" lon="85.0399570"><time>2024-08-03T07:27:35.183</time></trkpt><trkpt lat="56.3849805" lon="85.0399276"><time>2024-08-03T07:27:40.207</time></trkpt><trkpt lat="56.3849604" lon="85.0398424"><time>2024-08-03T07:27:49.200</time></trkpt><trkpt lat="56.3849217" lon="85.0397866"><time>2024-08-03T07:27:53.200</time></trkpt><trkpt lat="56.3848727" lon="85.0398064"><time>2024-08-03T07:27:58.227</time></trkpt><trkpt lat="56.3848379" lon="85.0397502"><time>2024-08-03T07:28:03.233</time></trkpt><trkpt lat="56.3848074" lon="85.0397184"><time>2024-08-03T07:28:13.747</time></trkpt><trkpt lat="56.3848748" lon="85.0398005"><time>2024-08-03T07:28:25.180</time></trkpt><trkpt lat="56.3848970" lon="85.0398907"><time>2024-08-03T07:28:31.217</time></trkpt><trkpt lat="56.3848720" lon="85.0399819"><time>2024-08-03T07:28:37.237</time></trkpt><trkpt lat="56.3848434" lon="85.0400484"><time>2024-08-03T07:28:41.197</time></trkpt><trkpt lat="56.3848160" lon="85.0401258"><time>2024-08-03T07:28:46.227</time></trkpt><trkpt lat="56.3847970" lon="85.0402157"><time>2024-08-03T07:28:50.227</time></trkpt><trkpt lat="56.3847543" lon="85.0402899"><time>2024-08-03T07:28:55.310</time></trkpt><trkpt lat="56.3847290" lon="85.0403686"><time>2024-08-03T07:29:14.297</time></trkpt><trkpt lat="56.3847324" lon="85.0404609"><time>2024-08-03T07:29:18.293</time></trkpt><trkpt lat="56.3847387" lon="85.0405510"><time>2024-08-03T07:29:22.310</time></trkpt><trkpt lat="56.3847508" lon="85.0406411"><time>2024-08-03T07:29:26.320</time></trkpt><trkpt lat="56.3847675" lon="85.0407262"><time>2024-08-03T07:29:30.183</time></trkpt><trkpt lat="56.3847911" lon="85.0408062"><time>2024-08-03T07:29:34.237</time></trkpt><trkpt lat="56.3848202" lon="85.0408781"><time>2024-08-03T07:29:37.187</time></trkpt><trkpt lat="56.3848506" lon="85.0409501"><time>2024-08-03T07:29:40.187</time></trkpt><trkpt lat="56.3848661" lon="85.0410341"><time>2024-08-03T07:29:44.183</time></trkpt><trkpt lat="56.3848857" lon="85.0411259"><time>2024-08-03T07:29:48.173</time></trkpt><trkpt lat="56.3849036" lon="85.0412135"><time>2024-08-03T07:29:52.223</time></trkpt><trkpt lat="56.3849269" lon="85.0413032"><time>2024-08-03T07:29:56.217</time></trkpt><trkpt lat="56.3849463" lon="85.0413902"><time>2024-08-03T07:30:00.223</time></trkpt><trkpt lat="56.3849675" lon="85.0414762"><time>2024-08-03T07:30:04.173</time></trkpt><trkpt lat="56.3849846" lon="85.0415515"><time>2024-08-03T07:30:07.187</time></trkpt><trkpt lat="56.3850015" lon="85.0416376"><time>2024-08-03T07:30:10.257</time></trkpt><trkpt lat="56.3850192" lon="85.0417232"><time>2024-08-03T07:30:14.187</time></trkpt><trkpt lat="56.3850373" lon="85.0418157"><time>2024-08-03T07:30:18.230</time></trkpt><trkpt lat="56.3850485" lon="85.0419058"><time>2024-08-03T07:30:22.403</time></trkpt><trkpt lat="56.3850496" lon="85.0419986"><time>2024-08-03T07:30:26.177</time></trkpt><trkpt lat="56.3850533" lon="85.0420895"><time>2024-08-03T07:30:30.213</time></trkpt><trkpt lat="56.3850748" lon="85.0421805"><time>2024-08-03T07:30:34.230</time></trkpt><trkpt lat="56.3850941" lon="85.0422576"><time>2024-08-03T07:30:37.203</time></trkpt><trkpt lat="56.3851159" lon="85.0423419"><time>2024-08-03T07:30:40.700</time></trkpt><trkpt lat="56.3851397" lon="85.0424180"><time>2024-08-03T07:30:43.213</time></trkpt><trkpt lat="56.3851598" lon="85.0424961"><time>2024-08-03T07:30:46.290</time></trkpt><trkpt lat="56.3851848" lon="85.0425927"><time>2024-08-03T07:30:50.300</time></trkpt><trkpt lat="56.3852108" lon="85.0426929"><time>2024-08-03T07:30:54.340</time></trkpt><trkpt lat="56.3852297" lon="85.0427899"><time>2024-08-03T07:30:58.307</time></trkpt><trkpt lat="56.3852451" lon="85.0428729"><time>2024-08-03T07:31:02.280</time></trkpt><trkpt lat="56.3852664" lon="85.0429633"><time>2024-08-03T07:31:06.310</time></trkpt><trkpt lat="56.3852789" lon="85.0430617"><time>2024-08-03T07:31:10.313</time></trkpt><trkpt lat="56.3852906" lon="85.0431428"><time>2024-08-03T07:31:13.217</time></trkpt><trkpt lat="56.3852955" lon="85.0432461"><time>2024-08-03T07:31:17.367</time></trkpt><trkpt lat="56.3853077" lon="85.0433367"><time>2024-08-03T07:31:21.330</time></trkpt><trkpt lat="56.3853301" lon="85.0434284"><time>2024-08-03T07:31:26.317</time></trkpt><trkpt lat="56.3853521" lon="85.0435126"><time>2024-08-03T07:31:30.270</time></trkpt><trkpt lat="56.3853816" lon="85.0435812"><time>2024-08-03T07:31:34.197</time></trkpt><trkpt lat="56.3854134" lon="85.0436704"><time>2024-08-03T07:31:38.183</time></trkpt><trkpt lat="56.3854338" lon="85.0437485"><time>2024-08-03T07:31:41.243</time></trkpt><trkpt lat="56.3854626" lon="85.0438310"><time>2024-08-03T07:31:45.173</time></trkpt><trkpt lat="56.3854964" lon="85.0439139"><time>2024-08-03T07:31:49.180</time></trkpt><trkpt lat="56.3855270" lon="85.0439823"><time>2024-08-03T07:31:53.173</time></trkpt><trkpt lat="56.3855492" lon="85.0440553"><time>2024-08-03T07:31:57.203</time></trkpt><trkpt lat="56.3855852" lon="85.0441166"><time>2024-08-03T07:32:01.173</time></trkpt><trkpt lat="56.3856208" lon="85.0441932"><time>2024-08-03T07:32:05.203</time></trkpt><trkpt lat="56.3856538" lon="85.0442692"><time>2024-08-03T07:32:09.203</time></trkpt><trkpt lat="56.3856863" lon="85.0443260"><time>2024-08-03T07:32:12.180</time></trkpt><trkpt lat="56.3857129" lon="85.0444135"><time>2024-08-03T07:32:16.197</time></trkpt><trkpt lat="56.3857467" lon="85.0444924"><time>2024-08-03T07:32:20.197</time></trkpt><trkpt lat="56.3857804" lon="85.0445515"><time>2024-08-03T07:32:23.230</time></trkpt><trkpt lat="56.3858173" lon="85.0446092"><time>2024-08-03T07:32:26.237</time></trkpt><trkpt lat="56.3858612" lon="85.0446789"><time>2024-08-03T07:32:30.177</time></trkpt><trkpt lat="56.3859025" lon="85.0447531"><time>2024-08-03T07:32:34.237</time></trkpt><trkpt lat="56.3859377" lon="85.0448224"><time>2024-08-03T07:32:39.177</time></trkpt><trkpt lat="56.3859754" lon="85.0448856"><time>2024-08-03T07:32:43.213</time></trkpt><trkpt lat="56.3860104" lon="85.0449371"><time>2024-08-03T07:32:46.203</time></trkpt><trkpt lat="56.3860501" lon="85.0450057"><time>2024-08-03T07:32:50.193</time></trkpt><trkpt lat="56.3860796" lon="85.0450707"><time>2024-08-03T07:32:53.220</time></trkpt><trkpt lat="56.3861012" lon="85.0451643"><time>2024-08-03T07:32:57.223</time></trkpt><trkpt lat="56.3861252" lon="85.0452531"><time>2024-08-03T07:33:01.207</time></trkpt><trkpt lat="56.3861447" lon="85.0453305"><time>2024-08-03T07:33:04.210</time></trkpt><trkpt lat="56.3861721" lon="85.0454345"><time>2024-08-03T07:33:08.213</time></trkpt><trkpt lat="56.3861906" lon="85.0455154"><time>2024-08-03T07:33:12.223</time></trkpt><trkpt lat="56.3862149" lon="85.0456008"><time>2024-08-03T07:33:16.233</time></trkpt><trkpt lat="56.3862450" lon="85.0456898"><time>2024-08-03T07:33:20.220</time></trkpt><trkpt lat="56.3862781" lon="85.0457668"><time>2024-08-03T07:33:24.280</time></trkpt><trkpt lat="56.3863129" lon="85.0458411"><time>2024-08-03T07:33:28.177</time></trkpt><trkpt lat="56.3863369" lon="85.0459289"><time>2024-08-03T07:33:32.220</time></trkpt><trkpt lat="56.3863693" lon="85.0460136"><time>2024-08-03T07:33:36.187</time></trkpt><trkpt lat="56.3863968" lon="85.0460801"><time>2024-08-03T07:33:39.190</time></trkpt><trkpt lat="56.3864288" lon="85.0461497"><time>2024-08-03T07:33:43.197</time></trkpt><trkpt lat="56.3864683" lon="85.0462139"><time>2024-08-03T07:33:47.223</time></trkpt><trkpt lat="56.3865055" lon="85.0462659"><time>2024-08-03T07:33:51.193</time></trkpt><trkpt lat="56.3865522" lon="85.0463211"><time>2024-08-03T07:33:55.217</time></trkpt><trkpt lat="56.3865877" lon="85.0463738"><time>2024-08-03T07:33:58.233</time></trkpt><trkpt lat="56.3866307" lon="85.0464411"><time>2024-08-03T07:34:02.227</time></trkpt><trkpt lat="56.3866714" lon="85.0465024"><time>2024-08-03T07:34:06.227</time></trkpt><trkpt lat="56.3867152" lon="85.0465549"><time>2024-08-03T07:34:10.207</time></trkpt><trkpt lat="56.3867528" lon="85.0466286"><time>2024-08-03T07:34:15.180</time></trkpt><trkpt lat="56.3867823" lon="85.0467050"><time>2024-08-03T07:34:19.200</time></trkpt><trkpt lat="56.3868150" lon="85.0467831"><time>2024-08-03T07:34:23.213</time></trkpt><trkpt lat="56.3868453" lon="85.0468464"><time>2024-08-03T07:34:26.223</time></trkpt><trkpt lat="56.3868795" lon="85.0469316"><time>2024-08-03T07:34:30.243</time></trkpt><trkpt lat="56.3868960" lon="85.0470154"><time>2024-08-03T07:34:34.233</time></trkpt><trkpt lat="56.3869237" lon="85.0470998"><time>2024-08-03T07:34:38.217</time></trkpt><trkpt lat="56.3869482" lon="85.0471699"><time>2024-08-03T07:34:42.227</time></trkpt><trkpt lat="56.3869724" lon="85.0472412"><time>2024-08-03T07:34:45.207</time></trkpt><trkpt lat="56.3870014" lon="85.0473113"><time>2024-08-03T07:34:48.213</time></trkpt><trkpt lat="56.3870254" lon="85.0473906"><time>2024-08-03T07:34:51.223</time></trkpt><trkpt lat="56.3870492" lon="85.0474663"><time>2024-08-03T07:34:54.217</time></trkpt><trkpt lat="56.3870774" lon="85.0475506"><time>2024-08-03T07:34:57.257</time></trkpt><trkpt lat="56.3870997" lon="85.0476269"><time>2024-08-03T07:35:00.207</time></trkpt><trkpt lat="56.3871215" lon="85.0477024"><time>2024-08-03T07:35:03.213</time></trkpt><trkpt lat="56.3871508" lon="85.0477877"><time>2024-08-03T07:35:07.187</time></trkpt><trkpt lat="56.3871598" lon="85.0478809"><time>2024-08-03T07:35:11.210</time></trkpt><trkpt lat="56.3871501" lon="85.0479728"><time>2024-08-03T07:35:15.193</time></trkpt><trkpt lat="56.3871117" lon="85.0480470"><time>2024-08-03T07:35:19.213</time></trkpt><trkpt lat="56.3870595" lon="85.0480895"><time>2024-08-03T07:35:23.177</time></trkpt><trkpt lat="56.3870151" lon="85.0481317"><time>2024-08-03T07:35:27.177</time></trkpt><trkpt lat="56.3869741" lon="85.0481989"><time>2024-08-03T07:35:31.190</time></trkpt><trkpt lat="56.3869421" lon="85.0482690"><time>2024-08-03T07:35:35.227</time></trkpt><trkpt lat="56.3869067" lon="85.0483334"><time>2024-08-03T07:35:39.183</time></trkpt><trkpt lat="56.3868741" lon="85.0483910"><time>2024-08-03T07:35:42.187</time></trkpt><trkpt lat="56.3868389" lon="85.0484645"><time>2024-08-03T07:35:46.227</time></trkpt><trkpt lat="56.3868135" lon="85.0485433"><time>2024-08-03T07:35:50.193</time></trkpt><trkpt lat="56.3867880" lon="85.0486170"><time>2024-08-03T07:35:54.190</time></trkpt><trkpt lat="56.3867632" lon="85.0486951"><time>2024-08-03T07:35:59.197</time></trkpt><trkpt lat="56.3867502" lon="85.0487872"><time>2024-08-03T07:36:03.230</time></trkpt><trkpt lat="56.3867355" lon="85.0488873"><time>2024-08-03T07:36:07.223</time></trkpt><trkpt lat="56.3867393" lon="85.0489769"><time>2024-08-03T07:36:11.210</time></trkpt><trkpt lat="56.3867499" lon="85.0490701"><time>2024-08-03T07:36:15.250</time></trkpt><trkpt lat="56.3867629" lon="85.0491654"><time>2024-08-03T07:36:19.200</time></trkpt><trkpt lat="56.3867665" lon="85.0492558"><time>2024-08-03T07:36:23.217</time></trkpt><trkpt lat="56.3867709" lon="85.0493451"><time>2024-08-03T07:36:27.197</time></trkpt><trkpt lat="56.3867795" lon="85.0494497"><time>2024-08-03T07:36:31.223</time></trkpt><trkpt lat="56.3867784" lon="85.0495355"><time>2024-08-03T07:36:35.240</time></trkpt><trkpt lat="56.3867665" lon="85.0496229"><time>2024-08-03T07:36:39.217</time></trkpt><trkpt lat="56.3867696" lon="85.0497166"><time>2024-08-03T07:36:43.223</time></trkpt><trkpt lat="56.3867519" lon="85.0498141"><time>2024-08-03T07:36:47.220</time></trkpt><trkpt lat="56.3867454" lon="85.0499003"><time>2024-08-03T07:36:51.227</time></trkpt><trkpt lat="56.3867382" lon="85.0499958"><time>2024-08-03T07:36:55.217</time></trkpt><trkpt lat="56.3867426" lon="85.0500887"><time>2024-08-03T07:36:59.220</time></trkpt><trkpt lat="56.3867554" lon="85.0501800"><time>2024-08-03T07:37:03.183</time></trkpt><trkpt lat="56.3867553" lon="85.0502803"><time>2024-08-03T07:37:07.197</time></trkpt><trkpt lat="56.3867611" lon="85.0503693"><time>2024-08-03T07:37:11.197</time></trkpt><trkpt lat="56.3867595" lon="85.0504503"><time>2024-08-03T07:37:14.207</time></trkpt><trkpt lat="56.3867514" lon="85.0505328"><time>2024-08-03T07:37:18.220</time></trkpt><trkpt lat="56.3867451" lon="85.0506231"><time>2024-08-03T07:37:22.177</time></trkpt><trkpt lat="56.3867306" lon="85.0507145"><time>2024-08-03T07:37:27.180</time></trkpt><trkpt lat="56.3867319" lon="85.0507966"><time>2024-08-03T07:37:31.173</time></trkpt><trkpt lat="56.3867341" lon="85.0508923"><time>2024-08-03T07:37:36.213</time></trkpt><trkpt lat="56.3867416" lon="85.0509832"><time>2024-08-03T07:37:41.237</time></trkpt><trkpt lat="56.3867635" lon="85.0510650"><time>2024-08-03T07:37:46.200</time></trkpt><trkpt lat="56.3867920" lon="85.0511319"><time>2024-08-03T07:37:51.217</time></trkpt><trkpt lat="56.3868221" lon="85.0512122"><time>2024-08-03T07:37:56.193</time></trkpt><trkpt lat="56.3868488" lon="85.0512776"><time>2024-08-03T07:38:00.193</time></trkpt><trkpt lat="56.3868795" lon="85.0513374"><time>2024-08-03T07:38:04.177</time></trkpt><trkpt lat="56.3869171" lon="85.0514062"><time>2024-08-03T07:38:09.183</time></trkpt><trkpt lat="56.3869509" lon="85.0514790"><time>2024-08-03T07:38:14.177</time></trkpt><trkpt lat="56.3869839" lon="85.0515459"><time>2024-08-03T07:38:23.233</time></trkpt><trkpt lat="56.3870218" lon="85.0516151"><time>2024-08-03T07:38:28.193</time></trkpt><trkpt lat="56.3870646" lon="85.0516565"><time>2024-08-03T07:38:32.220</time></trkpt><trkpt lat="56.3870907" lon="85.0517277"><time>2024-08-03T07:38:36.177</time></trkpt><trkpt lat="56.3871185" lon="85.0517998"><time>2024-08-03T07:38:40.200</time></trkpt><trkpt lat="56.3871460" lon="85.0518645"><time>2024-08-03T07:38:44.183</time></trkpt><trkpt lat="56.3871819" lon="85.0519363"><time>2024-08-03T07:38:49.247</time></trkpt><trkpt lat="56.3872153" lon="85.0520060"><time>2024-08-03T07:38:54.187</time></trkpt><trkpt lat="56.3872420" lon="85.0520880"><time>2024-08-03T07:39:04.180</time></trkpt><trkpt lat="56.3872845" lon="85.0521501"><time>2024-08-03T07:39:08.220</time></trkpt><trkpt lat="56.3873163" lon="85.0522220"><time>2024-08-03T07:39:12.230</time></trkpt><trkpt lat="56.3873502" lon="85.0522927"><time>2024-08-03T07:39:16.287</time></trkpt><trkpt lat="56.3873798" lon="85.0523671"><time>2024-08-03T07:39:20.290</time></trkpt><trkpt lat="56.3874037" lon="85.0524490"><time>2024-08-03T07:39:24.387</time></trkpt><trkpt lat="56.3874286" lon="85.0525383"><time>2024-08-03T07:39:28.180</time></trkpt><trkpt lat="56.3874486" lon="85.0526268"><time>2024-08-03T07:39:32.177</time></trkpt><trkpt lat="56.3874591" lon="85.0527277"><time>2024-08-03T07:39:36.213</time></trkpt><trkpt lat="56.3874759" lon="85.0528059"><time>2024-08-03T07:39:39.220</time></trkpt><trkpt lat="56.3874946" lon="85.0528916"><time>2024-08-03T07:39:43.293</time></trkpt><trkpt lat="56.3874949" lon="85.0529853"><time>2024-08-03T07:39:47.323</time></trkpt><trkpt lat="56.3874943" lon="85.0530823"><time>2024-08-03T07:39:51.297</time></trkpt><trkpt lat="56.3874972" lon="85.0531861"><time>2024-08-03T07:39:55.310</time></trkpt><trkpt lat="56.3874959" lon="85.0532778"><time>2024-08-03T07:39:59.173</time></trkpt><trkpt lat="56.3874975" lon="85.0533614"><time>2024-08-03T07:40:03.173</time></trkpt><trkpt lat="56.3875038" lon="85.0534448"><time>2024-08-03T07:40:07.170</time></trkpt><trkpt lat="56.3875087" lon="85.0535269"><time>2024-08-03T07:40:11.173</time></trkpt><trkpt lat="56.3875145" lon="85.0536276"><time>2024-08-03T07:40:16.170</time></trkpt><trkpt lat="56.3875093" lon="85.0537094"><time>2024-08-03T07:40:20.173</time></trkpt><trkpt lat="56.3875031" lon="85.0538104"><time>2024-08-03T07:40:25.233</time></trkpt><trkpt lat="56.3875005" lon="85.0539000"><time>2024-08-03T07:40:29.183</time></trkpt><trkpt lat="56.3874928" lon="85.0539927"><time>2024-08-03T07:40:33.177</time></trkpt><trkpt lat="56.3874704" lon="85.0540841"><time>2024-08-03T07:40:37.217</time></trkpt><trkpt lat="56.3874370" lon="85.0541714"><time>2024-08-03T07:40:41.187</time></trkpt><trkpt lat="56.3874031" lon="85.0542493"><time>2024-08-03T07:40:45.237</time></trkpt><trkpt lat="56.3873635" lon="85.0543133"><time>2024-08-03T07:40:49.197</time></trkpt><trkpt lat="56.3873145" lon="85.0543675"><time>2024-08-03T07:40:53.210</time></trkpt><trkpt lat="56.3872780" lon="85.0544194"><time>2024-08-03T07:40:56.227</time></trkpt><trkpt lat="56.3872391" lon="85.0544821"><time>2024-08-03T07:41:00.240</time></trkpt><trkpt lat="56.3872006" lon="85.0545369"><time>2024-08-03T07:41:04.293</time></trkpt><trkpt lat="56.3871661" lon="85.0545908"><time>2024-08-03T07:41:08.270</time></trkpt><trkpt lat="56.3871329" lon="85.0546588"><time>2024-08-03T07:41:12.307</time></trkpt><trkpt lat="56.3870977" lon="85.0547371"><time>2024-08-03T07:41:16.290</time></trkpt><trkpt lat="56.3870526" lon="85.0548048"><time>2024-08-03T07:41:20.313</time></trkpt><trkpt lat="56.3870137" lon="85.0548668"><time>2024-08-03T07:41:24.290</time></trkpt><trkpt lat="56.3869799" lon="85.0549368"><time>2024-08-03T07:41:28.327</time></trkpt><trkpt lat="56.3869444" lon="85.0550044"><time>2024-08-03T07:41:32.303</time></trkpt><trkpt lat="56.3869071" lon="85.0550823"><time>2024-08-03T07:41:36.217</time></trkpt><trkpt lat="56.3868748" lon="85.0551450"><time>2024-08-03T07:41:39.297</time></trkpt><trkpt lat="56.3868374" lon="85.0552046"><time>2024-08-03T07:41:43.297</time></trkpt><trkpt lat="56.3868099" lon="85.0552693"><time>2024-08-03T07:41:47.350</time></trkpt><trkpt lat="56.3867755" lon="85.0553460"><time>2024-08-03T07:41:51.327</time></trkpt><trkpt lat="56.3867414" lon="85.0554319"><time>2024-08-03T07:41:55.313</time></trkpt><trkpt lat="56.3867162" lon="85.0555020"><time>2024-08-03T07:41:58.317</time></trkpt><trkpt lat="56.3866856" lon="85.0555717"><time>2024-08-03T07:42:02.273</time></trkpt><trkpt lat="56.3866582" lon="85.0556399"><time>2024-08-03T07:42:06.290</time></trkpt><trkpt lat="56.3866286" lon="85.0557092"><time>2024-08-03T07:42:10.350</time></trkpt><trkpt lat="56.3866086" lon="85.0557935"><time>2024-08-03T07:42:14.310</time></trkpt><trkpt lat="56.3865777" lon="85.0558525"><time>2024-08-03T07:42:17.367</time></trkpt><trkpt lat="56.3865530" lon="85.0559301"><time>2024-08-03T07:42:20.320</time></trkpt><trkpt lat="56.3865305" lon="85.0560220"><time>2024-08-03T07:42:24.397</time></trkpt><trkpt lat="56.3865251" lon="85.0561087"><time>2024-08-03T07:42:28.297</time></trkpt><trkpt lat="56.3865166" lon="85.0562090"><time>2024-08-03T07:42:33.300</time></trkpt><trkpt lat="56.3865001" lon="85.0563115"><time>2024-08-03T07:42:36.207</time></trkpt><trkpt lat="56.3864995" lon="85.0563945"><time>2024-08-03T07:42:39.310</time></trkpt><trkpt lat="56.3865007" lon="85.0564929"><time>2024-08-03T07:42:44.317</time></trkpt><trkpt lat="56.3864975" lon="85.0565864"><time>2024-08-03T07:42:48.230</time></trkpt><trkpt lat="56.3864864" lon="85.0566845"><time>2024-08-03T07:42:52.337</time></trkpt><trkpt lat="56.3864875" lon="85.0567740"><time>2024-08-03T07:42:56.340</time></trkpt><trkpt lat="56.3864899" lon="85.0568560"><time>2024-08-03T07:43:00.240</time></trkpt><trkpt lat="56.3865001" lon="85.0569517"><time>2024-08-03T07:43:04.187</time></trkpt><trkpt lat="56.3865005" lon="85.0570481"><time>2024-08-03T07:43:08.173</time></trkpt><trkpt lat="56.3865073" lon="85.0571398"><time>2024-08-03T07:43:12.197</time></trkpt><trkpt lat="56.3865138" lon="85.0572360"><time>2024-08-03T07:43:16.183</time></trkpt><trkpt lat="56.3865151" lon="85.0573347"><time>2024-08-03T07:43:20.187</time></trkpt><trkpt lat="56.3865198" lon="85.0574360"><time>2024-08-03T07:43:24.183</time></trkpt><trkpt lat="56.3865241" lon="85.0575331"><time>2024-08-03T07:43:29.183</time></trkpt><trkpt lat="56.3865202" lon="85.0576216"><time>2024-08-03T07:43:33.173</time></trkpt><trkpt lat="56.3865203" lon="85.0577173"><time>2024-08-03T07:43:52.173</time></trkpt><trkpt lat="56.3865245" lon="85.0578143"><time>2024-08-03T07:43:59.187</time></trkpt><trkpt lat="56.3865242" lon="85.0578979"><time>2024-08-03T07:44:03.183</time></trkpt><trkpt lat="56.3864174" lon="85.0586931"><time>2024-08-03T07:44:35.310</time></trkpt><trkpt lat="56.3891436" lon="85.0647534"><time>2024-08-03T07:53:15.350</time></trkpt><trkpt lat="56.3897153" lon="85.0659404"><time>2024-08-03T07:54:27.477</time></trkpt><trkpt lat="56.3896832" lon="85.0614628"><time>2024-08-03T08:00:06.233</time></trkpt><trkpt lat="56.3896325" lon="85.0614473"><time>2024-08-03T08:00:10.220</time></trkpt><trkpt lat="56.3896259" lon="85.0614383"><time>2024-08-03T08:00:11.870</time></trkpt><trkpt lat="56.3896877" lon="85.0614373"><time>2024-08-03T08:00:19.190</time></trkpt><trkpt lat="56.3897402" lon="85.0614527"><time>2024-08-03T08:00:24.210</time></trkpt><trkpt lat="56.3897909" lon="85.0614334"><time>2024-08-03T08:00:28.207</time></trkpt><trkpt lat="56.3898209" lon="85.0615057"><time>2024-08-03T08:00:32.210</time></trkpt><trkpt lat="56.3898341" lon="85.0615840"><time>2024-08-03T08:00:35.210</time></trkpt><trkpt lat="56.3898657" lon="85.0616646"><time>2024-08-03T08:00:39.217</time></trkpt><trkpt lat="56.3899011" lon="85.0617327"><time>2024-08-03T08:00:43.167</time></trkpt><trkpt lat="56.3899347" lon="85.0618057"><time>2024-08-03T08:00:47.210</time></trkpt><trkpt lat="56.3899816" lon="85.0618620"><time>2024-08-03T08:00:51.173</time></trkpt><trkpt lat="56.3900285" lon="85.0619235"><time>2024-08-03T08:00:55.220</time></trkpt><trkpt lat="56.3900763" lon="85.0619498"><time>2024-08-03T08:00:59.167</time></trkpt><trkpt lat="56.3901288" lon="85.0619574"><time>2024-08-03T08:01:03.210</time></trkpt><trkpt lat="56.3901797" lon="85.0619938"><time>2024-08-03T08:01:07.213</time></trkpt><trkpt lat="56.3902250" lon="85.0620413"><time>2024-08-03T08:01:11.183</time></trkpt><trkpt lat="56.3902758" lon="85.0620870"><time>2024-08-03T08:01:16.210</time></trkpt><trkpt lat="56.3903312" lon="85.0621048"><time>2024-08-03T08:01:21.250</time></trkpt><trkpt lat="56.3903767" lon="85.0621338"><time>2024-08-03T08:01:24.283</time></trkpt><trkpt lat="56.3904265" lon="85.0621567"><time>2024-08-03T08:01:27.310</time></trkpt><trkpt lat="56.3904743" lon="85.0621821"><time>2024-08-03T08:01:30.287</time></trkpt><trkpt lat="56.3905172" lon="85.0622063"><time>2024-08-03T08:01:33.267</time></trkpt><trkpt lat="56.3905592" lon="85.0622375"><time>2024-08-03T08:01:36.197</time></trkpt><trkpt lat="56.3905989" lon="85.0622758"><time>2024-08-03T08:01:39.280</time></trkpt><trkpt lat="56.3906485" lon="85.0623374"><time>2024-08-03T08:01:43.317</time></trkpt><trkpt lat="56.3906833" lon="85.0624022"><time>2024-08-03T08:01:46.303</time></trkpt><trkpt lat="56.3907148" lon="85.0624763"><time>2024-08-03T08:01:49.293</time></trkpt><trkpt lat="56.3907446" lon="85.0625480"><time>2024-08-03T08:01:52.287</time></trkpt><trkpt lat="56.3907713" lon="85.0626271"><time>2024-08-03T08:01:55.270</time></trkpt><trkpt lat="56.3907980" lon="85.0627065"><time>2024-08-03T08:01:58.203</time></trkpt><trkpt lat="56.3908202" lon="85.0627812"><time>2024-08-03T08:02:01.163</time></trkpt><trkpt lat="56.3908468" lon="85.0628542"><time>2024-08-03T08:02:04.197</time></trkpt><trkpt lat="56.3908730" lon="85.0629201"><time>2024-08-03T08:02:07.197</time></trkpt><trkpt lat="56.3909041" lon="85.0630103"><time>2024-08-03T08:02:11.223</time></trkpt><trkpt lat="56.3909296" lon="85.0631026"><time>2024-08-03T08:02:15.243</time></trkpt><trkpt lat="56.3909576" lon="85.0631963"><time>2024-08-03T08:02:19.207</time></trkpt><trkpt lat="56.3909827" lon="85.0632656"><time>2024-08-03T08:02:22.183</time></trkpt><trkpt lat="56.3910101" lon="85.0633518"><time>2024-08-03T08:02:26.167</time></trkpt><trkpt lat="56.3910378" lon="85.0634384"><time>2024-08-03T08:02:30.167</time></trkpt><trkpt lat="56.3910608" lon="85.0635262"><time>2024-08-03T08:02:34.187</time></trkpt><trkpt lat="56.3910884" lon="85.0636203"><time>2024-08-03T08:02:38.240</time></trkpt><trkpt lat="56.3911066" lon="85.0636967"><time>2024-08-03T08:02:41.203</time></trkpt><trkpt lat="56.3911283" lon="85.0637695"><time>2024-08-03T08:02:44.180</time></trkpt><trkpt lat="56.3911520" lon="85.0638470"><time>2024-08-03T08:02:47.193</time></trkpt><trkpt lat="56.3911770" lon="85.0639353"><time>2024-08-03T08:02:51.227</time></trkpt><trkpt lat="56.3911995" lon="85.0640324"><time>2024-08-03T08:02:55.300</time></trkpt><trkpt lat="56.3912206" lon="85.0641056"><time>2024-08-03T08:02:58.287</time></trkpt><trkpt lat="56.3912403" lon="85.0641861"><time>2024-08-03T08:03:01.273</time></trkpt><trkpt lat="56.3912510" lon="85.0642675"><time>2024-08-03T08:03:04.307</time></trkpt><trkpt lat="56.3912629" lon="85.0643559"><time>2024-08-03T08:03:07.287</time></trkpt><trkpt lat="56.3912756" lon="85.0644430"><time>2024-08-03T08:03:10.283</time></trkpt><trkpt lat="56.3912967" lon="85.0645402"><time>2024-08-03T08:03:14.290</time></trkpt><trkpt lat="56.3913339" lon="85.0645873"><time>2024-08-03T08:03:27.193</time></trkpt><trkpt lat="56.3913784" lon="85.0646297"><time>2024-08-03T08:03:32.197</time></trkpt><trkpt lat="56.3914073" lon="85.0646984"><time>2024-08-03T08:03:36.173</time></trkpt><trkpt lat="56.3914371" lon="85.0647592"><time>2024-08-03T08:03:40.177</time></trkpt><trkpt lat="56.3914648" lon="85.0648361"><time>2024-08-03T08:03:44.180</time></trkpt><trkpt lat="56.3914788" lon="85.0649365"><time>2024-08-03T08:03:49.197</time></trkpt><trkpt lat="56.3915031" lon="85.0650173"><time>2024-08-03T08:03:53.233</time></trkpt><trkpt lat="56.3915184" lon="85.0650972"><time>2024-08-03T08:03:57.180</time></trkpt><trkpt lat="56.3915459" lon="85.0651884"><time>2024-08-03T08:04:01.177</time></trkpt><trkpt lat="56.3915673" lon="85.0652663"><time>2024-08-03T08:04:04.203</time></trkpt><trkpt lat="56.3916105" lon="85.0653398"><time>2024-08-03T08:04:07.207</time></trkpt><trkpt lat="56.3916367" lon="85.0654164"><time>2024-08-03T08:04:10.197</time></trkpt><trkpt lat="56.3916488" lon="85.0655135"><time>2024-08-03T08:04:14.200</time></trkpt><trkpt lat="56.3916630" lon="85.0656148"><time>2024-08-03T08:04:18.197</time></trkpt><trkpt lat="56.3916736" lon="85.0656956"><time>2024-08-03T08:04:21.220</time></trkpt><trkpt lat="56.3916918" lon="85.0657945"><time>2024-08-03T08:04:25.170</time></trkpt><trkpt lat="56.3917226" lon="85.0658824"><time>2024-08-03T08:04:29.207</time></trkpt><trkpt lat="56.3917457" lon="85.0659690"><time>2024-08-03T08:04:33.223</time></trkpt><trkpt lat="56.3917785" lon="85.0660482"><time>2024-08-03T08:04:37.217</time></trkpt><trkpt lat="56.3918105" lon="85.0661309"><time>2024-08-03T08:04:41.210</time></trkpt><trkpt lat="56.3918403" lon="85.0661919"><time>2024-08-03T08:04:44.203</time></trkpt><trkpt lat="56.3918740" lon="85.0662533"><time>2024-08-03T08:04:47.190</time></trkpt><trkpt lat="56.3919137" lon="85.0663187"><time>2024-08-03T08:04:50.223</time></trkpt><trkpt lat="56.3919564" lon="85.0663676"><time>2024-08-03T08:04:53.233</time></trkpt><trkpt lat="56.3920045" lon="85.0664095"><time>2024-08-03T08:04:56.227</time></trkpt><trkpt lat="56.3920486" lon="85.0664482"><time>2024-08-03T08:04:59.207</time></trkpt><trkpt lat="56.3920846" lon="85.0665185"><time>2024-08-03T08:05:02.197</time></trkpt><trkpt lat="56.3921132" lon="85.0665887"><time>2024-08-03T08:05:05.203</time></trkpt><trkpt lat="56.3921392" lon="85.0666661"><time>2024-08-03T08:05:08.220</time></trkpt><trkpt lat="56.3921658" lon="85.0667579"><time>2024-08-03T08:05:12.197</time></trkpt><trkpt lat="56.3921889" lon="85.0668525"><time>2024-08-03T08:05:16.213</time></trkpt><trkpt lat="56.3922294" lon="85.0669263"><time>2024-08-03T08:05:20.200</time></trkpt><trkpt lat="56.3922735" lon="85.0669604"><time>2024-08-03T08:05:23.193</time></trkpt><trkpt lat="56.3923172" lon="85.0669924"><time>2024-08-03T08:05:26.207</time></trkpt><trkpt lat="56.3923609" lon="85.0670310"><time>2024-08-03T08:05:30.213</time></trkpt><trkpt lat="56.3924123" lon="85.0670799"><time>2024-08-03T08:05:34.233</time></trkpt><trkpt lat="56.3924589" lon="85.0671412"><time>2024-08-03T08:05:38.200</time></trkpt><trkpt lat="56.3924986" lon="85.0672184"><time>2024-08-03T08:05:42.193</time></trkpt><trkpt lat="56.3925336" lon="85.0672876"><time>2024-08-03T08:05:45.210</time></trkpt><trkpt lat="56.3925619" lon="85.0673529"><time>2024-08-03T08:05:48.213</time></trkpt><trkpt lat="56.3925875" lon="85.0674209"><time>2024-08-03T08:05:51.200</time></trkpt><trkpt lat="56.3926197" lon="85.0674935"><time>2024-08-03T08:05:55.167</time></trkpt><trkpt lat="56.3926453" lon="85.0675794"><time>2024-08-03T08:05:59.170</time></trkpt><trkpt lat="56.3926619" lon="85.0676639"><time>2024-08-03T08:06:03.187</time></trkpt><trkpt lat="56.3926590" lon="85.0677599"><time>2024-08-03T08:06:07.217</time></trkpt><trkpt lat="56.3926424" lon="85.0678551"><time>2024-08-03T08:06:11.193</time></trkpt><trkpt lat="56.3926261" lon="85.0679315"><time>2024-08-03T08:06:14.207</time></trkpt><trkpt lat="56.3926118" lon="85.0680205"><time>2024-08-03T08:06:17.217</time></trkpt><trkpt lat="56.3925968" lon="85.0681247"><time>2024-08-03T08:06:21.203</time></trkpt><trkpt lat="56.3926075" lon="85.0682040"><time>2024-08-03T08:06:24.243</time></trkpt><trkpt lat="56.3926286" lon="85.0682760"><time>2024-08-03T08:06:27.247</time></trkpt><trkpt lat="56.3926726" lon="85.0683433"><time>2024-08-03T08:06:31.233</time></trkpt><trkpt lat="56.3927124" lon="85.0684201"><time>2024-08-03T08:06:35.213</time></trkpt><trkpt lat="56.3927467" lon="85.0685062"><time>2024-08-03T08:06:39.240</time></trkpt><trkpt lat="56.3927433" lon="85.0686078"><time>2024-08-03T08:06:43.207</time></trkpt><trkpt lat="56.3927177" lon="85.0686787"><time>2024-08-03T08:06:46.183</time></trkpt><trkpt lat="56.3926887" lon="85.0687724"><time>2024-08-03T08:06:50.200</time></trkpt><trkpt lat="56.3926577" lon="85.0688365"><time>2024-08-03T08:06:53.210</time></trkpt><trkpt lat="56.3926196" lon="85.0688959"><time>2024-08-03T08:06:56.220</time></trkpt><trkpt lat="56.3925835" lon="85.0689802"><time>2024-08-03T08:07:00.213</time></trkpt><trkpt lat="56.3925495" lon="85.0690416"><time>2024-08-03T08:07:03.180</time></trkpt><trkpt lat="56.3925131" lon="85.0691226"><time>2024-08-03T08:07:07.203</time></trkpt><trkpt lat="56.3924739" lon="85.0692044"><time>2024-08-03T08:07:11.167</time></trkpt><trkpt lat="56.3924343" lon="85.0692791"><time>2024-08-03T08:07:15.167</time></trkpt><trkpt lat="56.3924015" lon="85.0693526"><time>2024-08-03T08:07:19.187</time></trkpt><trkpt lat="56.3923691" lon="85.0694131"><time>2024-08-03T08:07:22.200</time></trkpt><trkpt lat="56.3923237" lon="85.0694833"><time>2024-08-03T08:07:26.243</time></trkpt><trkpt lat="56.3922903" lon="85.0695402"><time>2024-08-03T08:07:29.200</time></trkpt><trkpt lat="56.3922557" lon="85.0696018"><time>2024-08-03T08:07:32.187</time></trkpt><trkpt lat="56.3922148" lon="85.0696761"><time>2024-08-03T08:07:36.193</time></trkpt><trkpt lat="56.3921790" lon="85.0697536"><time>2024-08-03T08:07:40.207</time></trkpt><trkpt lat="56.3921385" lon="85.0698253"><time>2024-08-03T08:07:44.213</time></trkpt><trkpt lat="56.3921072" lon="85.0698856"><time>2024-08-03T08:07:47.190</time></trkpt><trkpt lat="56.3920742" lon="85.0699582"><time>2024-08-03T08:07:51.217</time></trkpt><trkpt lat="56.3920580" lon="85.0700403"><time>2024-08-03T08:07:56.213</time></trkpt><trkpt lat="56.3920727" lon="85.0701238"><time>2024-08-03T08:08:05.177</time></trkpt><trkpt lat="56.3921094" lon="85.0701823"><time>2024-08-03T08:08:10.190</time></trkpt><trkpt lat="56.3921368" lon="85.0702539"><time>2024-08-03T08:08:14.227</time></trkpt><trkpt lat="56.3921666" lon="85.0703224"><time>2024-08-03T08:08:18.227</time></trkpt><trkpt lat="56.3922021" lon="85.0703927"><time>2024-08-03T08:08:22.190</time></trkpt><trkpt lat="56.3922322" lon="85.0704716"><time>2024-08-03T08:08:26.210</time></trkpt><trkpt lat="56.3922694" lon="85.0705347"><time>2024-08-03T08:08:30.290</time></trkpt><trkpt lat="56.3922977" lon="85.0705990"><time>2024-08-03T08:08:33.283</time></trkpt><trkpt lat="56.3923391" lon="85.0706763"><time>2024-08-03T08:08:37.280</time></trkpt><trkpt lat="56.3923815" lon="85.0707517"><time>2024-08-03T08:08:41.300</time></trkpt><trkpt lat="56.3924173" lon="85.0708072"><time>2024-08-03T08:08:44.190</time></trkpt><trkpt lat="56.3924536" lon="85.0708620"><time>2024-08-03T08:08:47.183</time></trkpt><trkpt lat="56.3924899" lon="85.0709143"><time>2024-08-03T08:08:50.177</time></trkpt><trkpt lat="56.3925221" lon="85.0709758"><time>2024-08-03T08:08:53.180</time></trkpt><trkpt lat="56.3925590" lon="85.0710323"><time>2024-08-03T08:08:56.180</time></trkpt><trkpt lat="56.3926035" lon="85.0711041"><time>2024-08-03T08:09:00.173</time></trkpt><trkpt lat="56.3926423" lon="85.0711847"><time>2024-08-03T08:09:04.173</time></trkpt><trkpt lat="56.3926820" lon="85.0712590"><time>2024-08-03T08:09:08.217</time></trkpt><trkpt lat="56.3927220" lon="85.0713287"><time>2024-08-03T08:09:12.167</time></trkpt><trkpt lat="56.3927637" lon="85.0713950"><time>2024-08-03T08:09:16.190</time></trkpt><trkpt lat="56.3928023" lon="85.0714745"><time>2024-08-03T08:09:20.200</time></trkpt><trkpt lat="56.3928354" lon="85.0715452"><time>2024-08-03T08:09:24.203</time></trkpt><trkpt lat="56.3928704" lon="85.0716111"><time>2024-08-03T08:09:28.193</time></trkpt><trkpt lat="56.3929082" lon="85.0716675"><time>2024-08-03T08:09:32.187</time></trkpt><trkpt lat="56.3929523" lon="85.0717216"><time>2024-08-03T08:09:36.170</time></trkpt><trkpt lat="56.3929975" lon="85.0717822"><time>2024-08-03T08:09:40.217</time></trkpt><trkpt lat="56.3930435" lon="85.0718359"><time>2024-08-03T08:09:44.207</time></trkpt><trkpt lat="56.3930897" lon="85.0719035"><time>2024-08-03T08:09:48.180</time></trkpt><trkpt lat="56.3931299" lon="85.0719802"><time>2024-08-03T08:09:52.170</time></trkpt><trkpt lat="56.3931624" lon="85.0720370"><time>2024-08-03T08:09:55.207</time></trkpt><trkpt lat="56.3931946" lon="85.0721091"><time>2024-08-03T08:09:59.210</time></trkpt><trkpt lat="56.3932352" lon="85.0721879"><time>2024-08-03T08:10:03.193</time></trkpt><trkpt lat="56.3932777" lon="85.0722569"><time>2024-08-03T08:10:07.173</time></trkpt><trkpt lat="56.3933188" lon="85.0723256"><time>2024-08-03T08:10:11.200</time></trkpt><trkpt lat="56.3933635" lon="85.0723859"><time>2024-08-03T08:10:15.200</time></trkpt><trkpt lat="56.3934046" lon="85.0724503"><time>2024-08-03T08:10:19.203</time></trkpt><trkpt lat="56.3934432" lon="85.0725275"><time>2024-08-03T08:10:23.217</time></trkpt><trkpt lat="56.3934799" lon="85.0725965"><time>2024-08-03T08:10:27.200</time></trkpt><trkpt lat="56.3935130" lon="85.0726692"><time>2024-08-03T08:10:31.203</time></trkpt><trkpt lat="56.3935502" lon="85.0727415"><time>2024-08-03T08:10:35.187</time></trkpt><trkpt lat="56.3935829" lon="85.0728065"><time>2024-08-03T08:10:39.213</time></trkpt><trkpt lat="56.3936013" lon="85.0728824"><time>2024-08-03T08:10:42.200</time></trkpt><trkpt lat="56.3936033" lon="85.0729708"><time>2024-08-03T08:10:46.207</time></trkpt><trkpt lat="56.3936288" lon="85.0730448"><time>2024-08-03T08:11:13.207</time></trkpt><trkpt lat="56.3936744" lon="85.0730866"><time>2024-08-03T08:11:17.200</time></trkpt><trkpt lat="56.3937196" lon="85.0731146"><time>2024-08-03T08:11:20.210</time></trkpt><trkpt lat="56.3937515" lon="85.0731775"><time>2024-08-03T08:11:23.203</time></trkpt><trkpt lat="56.3937847" lon="85.0732382"><time>2024-08-03T08:11:26.197</time></trkpt><trkpt lat="56.3938033" lon="85.0733397"><time>2024-08-03T08:11:30.203</time></trkpt><trkpt lat="56.3938234" lon="85.0734216"><time>2024-08-03T08:11:33.163</time></trkpt><trkpt lat="56.3938416" lon="85.0735223"><time>2024-08-03T08:11:37.167</time></trkpt><trkpt lat="56.3938399" lon="85.0736066"><time>2024-08-03T08:11:40.177</time></trkpt><trkpt lat="56.3938417" lon="85.0736970"><time>2024-08-03T08:11:43.180</time></trkpt><trkpt lat="56.3938830" lon="85.0737681"><time>2024-08-03T08:11:46.207</time></trkpt><trkpt lat="56.3939270" lon="85.0738152"><time>2024-08-03T08:11:49.217</time></trkpt><trkpt lat="56.3939607" lon="85.0738813"><time>2024-08-03T08:11:52.203</time></trkpt><trkpt lat="56.3939946" lon="85.0739349"><time>2024-08-03T08:12:15.183</time></trkpt><trkpt lat="56.3940092" lon="85.0740179"><time>2024-08-03T08:12:21.177</time></trkpt><trkpt lat="56.3940561" lon="85.0740196"><time>2024-08-03T08:12:33.177</time></trkpt><trkpt lat="56.3940937" lon="85.0739692"><time>2024-08-03T08:12:36.173</time></trkpt><trkpt lat="56.3941371" lon="85.0739483"><time>2024-08-03T08:12:39.233</time></trkpt><trkpt lat="56.3941815" lon="85.0739124"><time>2024-08-03T08:12:42.223</time></trkpt><trkpt lat="56.3942272" lon="85.0738881"><time>2024-08-03T08:12:45.187</time></trkpt><trkpt lat="56.3942733" lon="85.0738856"><time>2024-08-03T08:12:48.243</time></trkpt><trkpt lat="56.3943311" lon="85.0739044"><time>2024-08-03T08:12:52.190</time></trkpt><trkpt lat="56.3943795" lon="85.0739054"><time>2024-08-03T08:12:55.177</time></trkpt><trkpt lat="56.3944249" lon="85.0738657"><time>2024-08-03T08:13:00.207</time></trkpt><trkpt lat="56.3944763" lon="85.0738147"><time>2024-08-03T08:13:04.203</time></trkpt><trkpt lat="56.3945239" lon="85.0737574"><time>2024-08-03T08:13:08.173</time></trkpt><trkpt lat="56.3945652" lon="85.0737224"><time>2024-08-03T08:13:11.183</time></trkpt><trkpt lat="56.3946100" lon="85.0737148"><time>2024-08-03T08:13:14.173</time></trkpt><trkpt lat="56.3946649" lon="85.0737133"><time>2024-08-03T08:13:17.243</time></trkpt><trkpt lat="56.3947132" lon="85.0737305"><time>2024-08-03T08:13:20.203</time></trkpt><trkpt lat="56.3947522" lon="85.0737810"><time>2024-08-03T08:13:23.230</time></trkpt><trkpt lat="56.3947915" lon="85.0738365"><time>2024-08-03T08:13:26.227</time></trkpt><trkpt lat="56.3948345" lon="85.0739060"><time>2024-08-03T08:13:29.193</time></trkpt><trkpt lat="56.3948821" lon="85.0739332"><time>2024-08-03T08:13:32.217</time></trkpt><trkpt lat="56.3949346" lon="85.0739572"><time>2024-08-03T08:13:35.173</time></trkpt><trkpt lat="56.3949845" lon="85.0739776"><time>2024-08-03T08:13:37.173</time></trkpt><trkpt lat="56.3950315" lon="85.0740210"><time>2024-08-03T08:13:39.187</time></trkpt><trkpt lat="56.3950722" lon="85.0740824"><time>2024-08-03T08:13:41.210</time></trkpt><trkpt lat="56.3951118" lon="85.0741251"><time>2024-08-03T08:13:43.177</time></trkpt><trkpt lat="56.3951661" lon="85.0741633"><time>2024-08-03T08:13:45.170</time></trkpt><trkpt lat="56.3952077" lon="85.0742054"><time>2024-08-03T08:13:47.163</time></trkpt><trkpt lat="56.3952441" lon="85.0742736"><time>2024-08-03T08:13:50.173</time></trkpt><trkpt lat="56.3952766" lon="85.0743320"><time>2024-08-03T08:13:53.160</time></trkpt><trkpt lat="56.3953195" lon="85.0743684"><time>2024-08-03T08:13:55.180</time></trkpt><trkpt lat="56.3953676" lon="85.0744122"><time>2024-08-03T08:13:58.217</time></trkpt><trkpt lat="56.3954087" lon="85.0744696"><time>2024-08-03T08:14:01.170</time></trkpt><trkpt lat="56.3954498" lon="85.0745065"><time>2024-08-03T08:14:04.203</time></trkpt><trkpt lat="56.3955019" lon="85.0745428"><time>2024-08-03T08:14:08.200</time></trkpt><trkpt lat="56.3955457" lon="85.0745690"><time>2024-08-03T08:14:11.207</time></trkpt><trkpt lat="56.3955906" lon="85.0745885"><time>2024-08-03T08:14:14.207</time></trkpt><trkpt lat="56.3956386" lon="85.0746125"><time>2024-08-03T08:14:19.200</time></trkpt><trkpt lat="56.3956809" lon="85.0746780"><time>2024-08-03T08:14:23.210</time></trkpt><trkpt lat="56.3957193" lon="85.0747553"><time>2024-08-03T08:14:27.163</time></trkpt><trkpt lat="56.3957487" lon="85.0748441"><time>2024-08-03T08:14:31.177</time></trkpt><trkpt lat="56.3957524" lon="85.0749409"><time>2024-08-03T08:14:36.197</time></trkpt><trkpt lat="56.3957148" lon="85.0749920"><time>2024-08-03T08:14:42.197</time></trkpt><trkpt lat="56.3957198" lon="85.0750120"><time>2024-08-03T08:14:44.127</time></trkpt><trkpt lat="56.3957387" lon="85.0749163"><time>2024-08-03T08:14:54.210</time></trkpt><trkpt lat="56.3957356" lon="85.0748213"><time>2024-08-03T08:14:59.197</time></trkpt><trkpt lat="56.3956982" lon="85.0747459"><time>2024-08-03T08:15:04.210</time></trkpt><trkpt lat="56.3956579" lon="85.0746677"><time>2024-08-03T08:15:08.207</time></trkpt><trkpt lat="56.3956095" lon="85.0746141"><time>2024-08-03T08:15:12.187</time></trkpt><trkpt lat="56.3955571" lon="85.0745833"><time>2024-08-03T08:15:16.183</time></trkpt><trkpt lat="56.3955025" lon="85.0745486"><time>2024-08-03T08:15:20.187</time></trkpt><trkpt lat="56.3954477" lon="85.0745195"><time>2024-08-03T08:15:24.187</time></trkpt><trkpt lat="56.3954049" lon="85.0744910"><time>2024-08-03T08:15:27.213</time></trkpt><trkpt lat="56.3953568" lon="85.0744336"><time>2024-08-03T08:15:31.180</time></trkpt><trkpt lat="56.3953101" lon="85.0743769"><time>2024-08-03T08:15:35.200</time></trkpt><trkpt lat="56.3952683" lon="85.0743459"><time>2024-08-03T08:15:38.177</time></trkpt><trkpt lat="56.3952293" lon="85.0742840"><time>2024-08-03T08:15:42.180</time></trkpt><trkpt lat="56.3952017" lon="85.0742157"><time>2024-08-03T08:15:45.160</time></trkpt><trkpt lat="56.3951551" lon="85.0741515"><time>2024-08-03T08:15:49.183</time></trkpt><trkpt lat="56.3951070" lon="85.0741207"><time>2024-08-03T08:15:53.213</time></trkpt><trkpt lat="56.3950620" lon="85.0740720"><time>2024-08-03T08:15:57.207</time></trkpt><trkpt lat="56.3950283" lon="85.0740171"><time>2024-08-03T08:16:00.187</time></trkpt><trkpt lat="56.3949916" lon="85.0739623"><time>2024-08-03T08:16:04.173</time></trkpt><trkpt lat="56.3949475" lon="85.0739133"><time>2024-08-03T08:16:08.220</time></trkpt><trkpt lat="56.3948995" lon="85.0738925"><time>2024-08-03T08:16:12.220</time></trkpt><trkpt lat="56.3948509" lon="85.0738781"><time>2024-08-03T08:16:16.167</time></trkpt><trkpt lat="56.3948050" lon="85.0738310"><time>2024-08-03T08:16:20.193</time></trkpt><trkpt lat="56.3947576" lon="85.0737769"><time>2024-08-03T08:16:25.167</time></trkpt><trkpt lat="56.3947134" lon="85.0737361"><time>2024-08-03T08:16:29.163</time></trkpt><trkpt lat="56.3946564" lon="85.0737092"><time>2024-08-03T08:16:33.187</time></trkpt><trkpt lat="56.3946092" lon="85.0737062"><time>2024-08-03T08:16:36.167</time></trkpt><trkpt lat="56.3945492" lon="85.0737294"><time>2024-08-03T08:16:40.170</time></trkpt><trkpt lat="56.3945017" lon="85.0737767"><time>2024-08-03T08:16:44.183</time></trkpt><trkpt lat="56.3944603" lon="85.0738362"><time>2024-08-03T08:16:48.200</time></trkpt><trkpt lat="56.3944141" lon="85.0738805"><time>2024-08-03T08:16:52.223</time></trkpt><trkpt lat="56.3943694" lon="85.0739112"><time>2024-08-03T08:16:55.293</time></trkpt><trkpt lat="56.3943159" lon="85.0738933"><time>2024-08-03T08:16:59.233</time></trkpt><trkpt lat="56.3942720" lon="85.0738675"><time>2024-08-03T08:17:02.327</time></trkpt><trkpt lat="56.3942206" lon="85.0738664"><time>2024-08-03T08:17:05.267</time></trkpt><trkpt lat="56.3941727" lon="85.0738914"><time>2024-08-03T08:17:08.283</time></trkpt><trkpt lat="56.3941271" lon="85.0739300"><time>2024-08-03T08:17:11.297</time></trkpt><trkpt lat="56.3940752" lon="85.0739492"><time>2024-08-03T08:17:15.277</time></trkpt><trkpt lat="56.3940309" lon="85.0739176"><time>2024-08-03T08:17:18.167</time></trkpt><trkpt lat="56.3939657" lon="85.0738865"><time>2024-08-03T08:17:22.163</time></trkpt><trkpt lat="56.3939247" lon="85.0738335"><time>2024-08-03T08:17:25.227</time></trkpt><trkpt lat="56.3938938" lon="85.0737690"><time>2024-08-03T08:17:28.213</time></trkpt><trkpt lat="56.3938470" lon="85.0737163"><time>2024-08-03T08:17:32.163</time></trkpt><trkpt lat="56.3938299" lon="85.0736327"><time>2024-08-03T08:17:35.207</time></trkpt><trkpt lat="56.3938145" lon="85.0735331"><time>2024-08-03T08:17:39.207</time></trkpt><trkpt lat="56.3937894" lon="85.0734321"><time>2024-08-03T08:17:43.207</time></trkpt><trkpt lat="56.3937675" lon="85.0733388"><time>2024-08-03T08:17:46.207</time></trkpt><trkpt lat="56.3937576" lon="85.0732440"><time>2024-08-03T08:17:49.200</time></trkpt><trkpt lat="56.3937226" lon="85.0731623"><time>2024-08-03T08:17:53.210</time></trkpt><trkpt lat="56.3936860" lon="85.0730952"><time>2024-08-03T08:17:57.197</time></trkpt><trkpt lat="56.3936376" lon="85.0730796"><time>2024-08-03T08:18:00.203</time></trkpt><trkpt lat="56.3935979" lon="85.0731304"><time>2024-08-03T08:18:03.203</time></trkpt><trkpt lat="56.3935740" lon="85.0732086"><time>2024-08-03T08:18:06.240</time></trkpt><trkpt lat="56.3935430" lon="85.0732957"><time>2024-08-03T08:18:10.190</time></trkpt><trkpt lat="56.3935158" lon="85.0733685"><time>2024-08-03T08:18:13.320</time></trkpt><trkpt lat="56.3934876" lon="85.0734394"><time>2024-08-03T08:18:16.190</time></trkpt><trkpt lat="56.3934522" lon="85.0735122"><time>2024-08-03T08:18:19.220</time></trkpt><trkpt lat="56.3934160" lon="85.0735805"><time>2024-08-03T08:18:22.313</time></trkpt><trkpt lat="56.3933802" lon="85.0736475"><time>2024-08-03T08:18:25.303</time></trkpt><trkpt lat="56.3933460" lon="85.0737065"><time>2024-08-03T08:18:28.207</time></trkpt><trkpt lat="56.3932985" lon="85.0737706"><time>2024-08-03T08:18:32.273</time></trkpt><trkpt lat="56.3932593" lon="85.0738281"><time>2024-08-03T08:18:35.310</time></trkpt><trkpt lat="56.3932166" lon="85.0739039"><time>2024-08-03T08:18:39.303</time></trkpt><trkpt lat="56.3931765" lon="85.0739815"><time>2024-08-03T08:18:43.297</time></trkpt><trkpt lat="56.3931386" lon="85.0740595"><time>2024-08-03T08:18:47.273</time></trkpt><trkpt lat="56.3930963" lon="85.0741352"><time>2024-08-03T08:18:51.357</time></trkpt><trkpt lat="56.3930631" lon="85.0741914"><time>2024-08-03T08:18:54.347</time></trkpt><trkpt lat="56.3930259" lon="85.0742711"><time>2024-08-03T08:18:58.220</time></trkpt><trkpt lat="56.3929953" lon="85.0743305"><time>2024-08-03T08:19:01.210</time></trkpt><trkpt lat="56.3929626" lon="85.0743867"><time>2024-08-03T08:19:04.313</time></trkpt><trkpt lat="56.3929220" lon="85.0744610"><time>2024-08-03T08:19:08.230</time></trkpt><trkpt lat="56.3928903" lon="85.0745209"><time>2024-08-03T08:19:11.287</time></trkpt><trkpt lat="56.3928467" lon="85.0745921"><time>2024-08-03T08:19:15.323</time></trkpt><trkpt lat="56.3928037" lon="85.0746633"><time>2024-08-03T08:19:19.273</time></trkpt><trkpt lat="56.3927683" lon="85.0747496"><time>2024-08-03T08:19:23.293</time></trkpt><trkpt lat="56.3927264" lon="85.0748254"><time>2024-08-03T08:19:27.300</time></trkpt><trkpt lat="56.3926863" lon="85.0749022"><time>2024-08-03T08:19:31.287</time></trkpt><trkpt lat="56.3926450" lon="85.0749699"><time>2024-08-03T08:19:35.360</time></trkpt><trkpt lat="56.3926113" lon="85.0750285"><time>2024-08-03T08:19:38.280</time></trkpt><trkpt lat="56.3925760" lon="85.0750834"><time>2024-08-03T08:19:41.317</time></trkpt><trkpt lat="56.3925435" lon="85.0751514"><time>2024-08-03T08:19:44.357</time></trkpt><trkpt lat="56.3925118" lon="85.0752193"><time>2024-08-03T08:19:47.160</time></trkpt><trkpt lat="56.3924770" lon="85.0752862"><time>2024-08-03T08:19:50.163</time></trkpt><trkpt lat="56.3924425" lon="85.0753458"><time>2024-08-03T08:19:53.217</time></trkpt><trkpt lat="56.3924112" lon="85.0754118"><time>2024-08-03T08:19:56.170</time></trkpt><trkpt lat="56.3923801" lon="85.0754808"><time>2024-08-03T08:19:59.163</time></trkpt><trkpt lat="56.3923480" lon="85.0755430"><time>2024-08-03T08:20:02.170</time></trkpt><trkpt lat="56.3923081" lon="85.0756203"><time>2024-08-03T08:20:06.157</time></trkpt><trkpt lat="56.3922672" lon="85.0756921"><time>2024-08-03T08:20:10.163</time></trkpt><trkpt lat="56.3922337" lon="85.0757475"><time>2024-08-03T08:20:13.163</time></trkpt><trkpt lat="56.3921994" lon="85.0758080"><time>2024-08-03T08:20:16.163</time></trkpt><trkpt lat="56.3921688" lon="85.0758672"><time>2024-08-03T08:20:19.163</time></trkpt><trkpt lat="56.3921276" lon="85.0759442"><time>2024-08-03T08:20:23.160</time></trkpt><trkpt lat="56.3920853" lon="85.0760126"><time>2024-08-03T08:20:27.167</time></trkpt><trkpt lat="56.3920464" lon="85.0760905"><time>2024-08-03T08:20:31.160</time></trkpt><trkpt lat="56.3920149" lon="85.0761484"><time>2024-08-03T08:20:34.163</time></trkpt><trkpt lat="56.3919739" lon="85.0762210"><time>2024-08-03T08:20:38.160</time></trkpt><trkpt lat="56.3919441" lon="85.0762837"><time>2024-08-03T08:20:41.163</time></trkpt><trkpt lat="56.3919029" lon="85.0763614"><time>2024-08-03T08:20:45.163</time></trkpt><trkpt lat="56.3918599" lon="85.0764334"><time>2024-08-03T08:20:49.213</time></trkpt><trkpt lat="56.3918166" lon="85.0765092"><time>2024-08-03T08:20:53.223</time></trkpt><trkpt lat="56.3917793" lon="85.0765868"><time>2024-08-03T08:20:57.160</time></trkpt><trkpt lat="56.3917370" lon="85.0766586"><time>2024-08-03T08:21:01.160</time></trkpt><trkpt lat="56.3916931" lon="85.0767281"><time>2024-08-03T08:21:05.160</time></trkpt><trkpt lat="56.3916481" lon="85.0768012"><time>2024-08-03T08:21:09.167</time></trkpt><trkpt lat="56.3916107" lon="85.0768522"><time>2024-08-03T08:21:12.160</time></trkpt><trkpt lat="56.3915652" lon="85.0769181"><time>2024-08-03T08:21:16.163</time></trkpt><trkpt lat="56.3915144" lon="85.0769729"><time>2024-08-03T08:21:20.227</time></trkpt><trkpt lat="56.3914651" lon="85.0770274"><time>2024-08-03T08:21:24.227</time></trkpt><trkpt lat="56.3914141" lon="85.0770743"><time>2024-08-03T08:21:28.187</time></trkpt><trkpt lat="56.3913611" lon="85.0771095"><time>2024-08-03T08:21:32.167</time></trkpt><trkpt lat="56.3913157" lon="85.0771400"><time>2024-08-03T08:21:35.163</time></trkpt><trkpt lat="56.3912623" lon="85.0771827"><time>2024-08-03T08:21:39.163</time></trkpt><trkpt lat="56.3912197" lon="85.0772095"><time>2024-08-03T08:21:42.160</time></trkpt><trkpt lat="56.3911740" lon="85.0772214"><time>2024-08-03T08:21:45.163</time></trkpt><trkpt lat="56.3911266" lon="85.0772252"><time>2024-08-03T08:21:48.213</time></trkpt><trkpt lat="56.3910776" lon="85.0772266"><time>2024-08-03T08:21:51.187</time></trkpt><trkpt lat="56.3910315" lon="85.0772364"><time>2024-08-03T08:21:54.223</time></trkpt><trkpt lat="56.3909842" lon="85.0772433"><time>2024-08-03T08:21:57.197</time></trkpt><trkpt lat="56.3909368" lon="85.0772459"><time>2024-08-03T08:22:00.197</time></trkpt><trkpt lat="56.3908833" lon="85.0772464"><time>2024-08-03T08:22:03.217</time></trkpt><trkpt lat="56.3908301" lon="85.0772478"><time>2024-08-03T08:22:06.200</time></trkpt><trkpt lat="56.3907776" lon="85.0772449"><time>2024-08-03T08:22:09.197</time></trkpt><trkpt lat="56.3907252" lon="85.0772393"><time>2024-08-03T08:22:12.217</time></trkpt><trkpt lat="56.3906727" lon="85.0772256"><time>2024-08-03T08:22:15.210</time></trkpt><trkpt lat="56.3906229" lon="85.0772204"><time>2024-08-03T08:22:18.217</time></trkpt><trkpt lat="56.3905744" lon="85.0772142"><time>2024-08-03T08:22:21.220</time></trkpt><trkpt lat="56.3905287" lon="85.0771996"><time>2024-08-03T08:22:24.213</time></trkpt><trkpt lat="56.3904721" lon="85.0771762"><time>2024-08-03T08:22:28.197</time></trkpt><trkpt lat="56.3904179" lon="85.0771330"><time>2024-08-03T08:22:32.187</time></trkpt><trkpt lat="56.3903695" lon="85.0771144"><time>2024-08-03T08:22:35.207</time></trkpt><trkpt lat="56.3903223" lon="85.0770801"><time>2024-08-03T08:22:38.223</time></trkpt><trkpt lat="56.3902705" lon="85.0770652"><time>2024-08-03T08:22:41.203</time></trkpt><trkpt lat="56.3902231" lon="85.0770482"><time>2024-08-03T08:22:44.193</time></trkpt><trkpt lat="56.3901761" lon="85.0770379"><time>2024-08-03T08:22:47.203</time></trkpt><trkpt lat="56.3901331" lon="85.0770705"><time>2024-08-03T08:22:51.170</time></trkpt><trkpt lat="56.3901261" lon="85.0769859"><time>2024-08-03T08:23:25.210</time></trkpt><trkpt lat="56.3900972" lon="85.0769223"><time>2024-08-03T08:23:29.180</time></trkpt><trkpt lat="56.3900590" lon="85.0768424"><time>2024-08-03T08:23:32.200</time></trkpt><trkpt lat="56.3900199" lon="85.0767839"><time>2024-08-03T08:23:35.207</time></trkpt><trkpt lat="56.3899784" lon="85.0767290"><time>2024-08-03T08:23:38.220</time></trkpt><trkpt lat="56.3899386" lon="85.0766616"><time>2024-08-03T08:23:41.207</time></trkpt><trkpt lat="56.3898998" lon="85.0766052"><time>2024-08-03T08:23:44.213</time></trkpt><trkpt lat="56.3898619" lon="85.0765438"><time>2024-08-03T08:23:47.207</time></trkpt><trkpt lat="56.3898257" lon="85.0764877"><time>2024-08-03T08:23:50.160</time></trkpt><trkpt lat="56.3898701" lon="85.0765458"><time>2024-08-03T08:23:57.177</time></trkpt><trkpt lat="56.3899105" lon="85.0766028"><time>2024-08-03T08:24:00.173</time></trkpt><trkpt lat="56.3899518" lon="85.0766659"><time>2024-08-03T08:24:03.167</time></trkpt><trkpt lat="56.3899883" lon="85.0767267"><time>2024-08-03T08:24:06.197</time></trkpt><trkpt lat="56.3900204" lon="85.0767938"><time>2024-08-03T08:24:09.167</time></trkpt><trkpt lat="56.3900601" lon="85.0768549"><time>2024-08-03T08:24:12.213</time></trkpt><trkpt lat="56.3901014" lon="85.0769121"><time>2024-08-03T08:24:15.187</time></trkpt><trkpt lat="56.3901419" lon="85.0769737"><time>2024-08-03T08:24:18.220</time></trkpt><trkpt lat="56.3901797" lon="85.0770397"><time>2024-08-03T08:24:21.207</time></trkpt><trkpt lat="56.3902158" lon="85.0771057"><time>2024-08-03T08:24:24.210</time></trkpt><trkpt lat="56.3902454" lon="85.0771781"><time>2024-08-03T08:24:27.207</time></trkpt><trkpt lat="56.3902819" lon="85.0772432"><time>2024-08-03T08:24:30.210</time></trkpt><trkpt lat="56.3903172" lon="85.0773096"><time>2024-08-03T08:24:33.217</time></trkpt><trkpt lat="56.3903552" lon="85.0773671"><time>2024-08-03T08:24:36.183</time></trkpt><trkpt lat="56.3903940" lon="85.0774299"><time>2024-08-03T08:24:39.197</time></trkpt><trkpt lat="56.3904329" lon="85.0774881"><time>2024-08-03T08:24:42.210</time></trkpt><trkpt lat="56.3904526" lon="85.0775850"><time>2024-08-03T08:24:48.190</time></trkpt><trkpt lat="56.3904500" lon="85.0776719"><time>2024-08-03T08:24:51.187</time></trkpt><trkpt lat="56.3904778" lon="85.0777621"><time>2024-08-03T08:24:55.217</time></trkpt><trkpt lat="56.3905143" lon="85.0778121"><time>2024-08-03T08:24:58.197</time></trkpt><trkpt lat="56.3905432" lon="85.0778793"><time>2024-08-03T08:25:01.167</time></trkpt><trkpt lat="56.3905791" lon="85.0779345"><time>2024-08-03T08:25:04.220</time></trkpt><trkpt lat="56.3906164" lon="85.0779882"><time>2024-08-03T08:25:07.213</time></trkpt><trkpt lat="56.3906528" lon="85.0780421"><time>2024-08-03T08:25:10.213</time></trkpt><trkpt lat="56.3906846" lon="85.0781025"><time>2024-08-03T08:25:13.207</time></trkpt><trkpt lat="56.3907179" lon="85.0781600"><time>2024-08-03T08:25:16.207</time></trkpt><trkpt lat="56.3907530" lon="85.0782236"><time>2024-08-03T08:25:19.200</time></trkpt><trkpt lat="56.3907896" lon="85.0782850"><time>2024-08-03T08:25:22.207</time></trkpt><trkpt lat="56.3908253" lon="85.0783512"><time>2024-08-03T08:25:25.173</time></trkpt><trkpt lat="56.3908600" lon="85.0784123"><time>2024-08-03T08:25:28.173</time></trkpt><trkpt lat="56.3908974" lon="85.0784679"><time>2024-08-03T08:25:31.177</time></trkpt><trkpt lat="56.3908943" lon="85.0785571"><time>2024-08-03T08:25:34.207</time></trkpt><trkpt lat="56.3908515" lon="85.0786320"><time>2024-08-03T08:25:37.173</time></trkpt><trkpt lat="56.3908150" lon="85.0787026"><time>2024-08-03T08:25:40.163</time></trkpt><trkpt lat="56.3907797" lon="85.0787797"><time>2024-08-03T08:25:43.160</time></trkpt><trkpt lat="56.3907474" lon="85.0788531"><time>2024-08-03T08:25:46.183</time></trkpt><trkpt lat="56.3907173" lon="85.0789304"><time>2024-08-03T08:25:49.217</time></trkpt><trkpt lat="56.3906844" lon="85.0789941"><time>2024-08-03T08:25:52.187</time></trkpt><trkpt lat="56.3906489" lon="85.0790590"><time>2024-08-03T08:25:55.230</time></trkpt><trkpt lat="56.3906123" lon="85.0791276"><time>2024-08-03T08:25:58.337</time></trkpt><trkpt lat="56.3905719" lon="85.0791865"><time>2024-08-03T08:26:01.353</time></trkpt><trkpt lat="56.3905339" lon="85.0792460"><time>2024-08-03T08:26:04.277</time></trkpt><trkpt lat="56.3904976" lon="85.0793078"><time>2024-08-03T08:26:07.280</time></trkpt><trkpt lat="56.3904546" lon="85.0793730"><time>2024-08-03T08:26:10.357</time></trkpt><trkpt lat="56.3904153" lon="85.0794380"><time>2024-08-03T08:26:13.280</time></trkpt><trkpt lat="56.3903855" lon="85.0795105"><time>2024-08-03T08:26:16.293</time></trkpt><trkpt lat="56.3903543" lon="85.0795728"><time>2024-08-03T08:26:19.337</time></trkpt><trkpt lat="56.3903246" lon="85.0796404"><time>2024-08-03T08:26:22.317</time></trkpt><trkpt lat="56.3902989" lon="85.0797108"><time>2024-08-03T08:26:25.160</time></trkpt><trkpt lat="56.3902581" lon="85.0797886"><time>2024-08-03T08:26:29.217</time></trkpt><trkpt lat="56.3902219" lon="85.0798702"><time>2024-08-03T08:26:33.163</time></trkpt><trkpt lat="56.3901849" lon="85.0799505"><time>2024-08-03T08:26:37.167</time></trkpt><trkpt lat="56.3901490" lon="85.0800295"><time>2024-08-03T08:26:41.160</time></trkpt><trkpt lat="56.3901190" lon="85.0800914"><time>2024-08-03T08:26:44.170</time></trkpt><trkpt lat="56.3878867" lon="85.0833000"><time>2024-08-03T08:29:47.097</time></trkpt><trkpt lat="56.3867152" lon="85.0839694"><time>2024-08-03T08:31:06.013</time></trkpt><trkpt lat="56.3856543" lon="85.0812866"><time>2024-08-03T08:41:23.943</time></trkpt><trkpt lat="56.3856279" lon="85.0812859"><time>2024-08-03T08:41:27.417</time></trkpt><trkpt lat="56.3857031" lon="85.0812742"><time>2024-08-03T08:41:41.177</time></trkpt><trkpt lat="56.3857059" lon="85.0813623"><time>2024-08-03T08:41:48.197</time></trkpt><trkpt lat="56.3856587" lon="85.0814136"><time>2024-08-03T08:41:52.190</time></trkpt><trkpt lat="56.3856011" lon="85.0814347"><time>2024-08-03T08:41:57.227</time></trkpt><trkpt lat="56.3855512" lon="85.0814824"><time>2024-08-03T08:42:03.213</time></trkpt><trkpt lat="56.3855030" lon="85.0815197"><time>2024-08-03T08:42:07.167</time></trkpt><trkpt lat="56.3854446" lon="85.0815118"><time>2024-08-03T08:42:12.187</time></trkpt><trkpt lat="56.3853914" lon="85.0815094"><time>2024-08-03T08:42:15.207</time></trkpt><trkpt lat="56.3853415" lon="85.0814961"><time>2024-08-03T08:42:18.217</time></trkpt><trkpt lat="56.3853947" lon="85.0815296"><time>2024-08-03T08:42:38.177</time></trkpt><trkpt lat="56.3854259" lon="85.0815891"><time>2024-08-03T08:42:42.177</time></trkpt><trkpt lat="56.3854571" lon="85.0816531"><time>2024-08-03T08:42:47.200</time></trkpt><trkpt lat="56.3854992" lon="85.0817028"><time>2024-08-03T08:42:51.197</time></trkpt><trkpt lat="56.3855474" lon="85.0817246"><time>2024-08-03T08:42:54.183</time></trkpt><trkpt lat="56.3855967" lon="85.0817476"><time>2024-08-03T08:42:57.207</time></trkpt><trkpt lat="56.3855718" lon="85.0818289"><time>2024-08-03T08:43:08.163</time></trkpt><trkpt lat="56.3855319" lon="85.0818800"><time>2024-08-03T08:43:14.167</time></trkpt><trkpt lat="56.3855229" lon="85.0819611"><time>2024-08-03T08:43:21.200</time></trkpt><trkpt lat="56.3854916" lon="85.0820293"><time>2024-08-03T08:43:35.183</time></trkpt><trkpt lat="56.3854678" lon="85.0820990"><time>2024-08-03T08:43:43.167</time></trkpt><trkpt lat="56.3854241" lon="85.0821375"><time>2024-08-03T08:43:55.187</time></trkpt><trkpt lat="56.3854063" lon="85.0822146"><time>2024-08-03T08:44:14.160</time></trkpt><trkpt lat="56.3853805" lon="85.0822885"><time>2024-08-03T08:44:20.153</time></trkpt><trkpt lat="56.3853630" lon="85.0823644"><time>2024-08-03T08:44:30.153</time></trkpt><trkpt lat="56.3853191" lon="85.0824120"><time>2024-08-03T08:44:38.183</time></trkpt><trkpt lat="56.3853083" lon="85.0825038"><time>2024-08-03T08:44:45.177</time></trkpt><trkpt lat="56.3853017" lon="85.0825843"><time>2024-08-03T08:44:50.157</time></trkpt><trkpt lat="56.3852879" lon="85.0826708"><time>2024-08-03T08:44:54.163</time></trkpt><trkpt lat="56.3852809" lon="85.0827661"><time>2024-08-03T08:44:59.207</time></trkpt><trkpt lat="56.3852503" lon="85.0828374"><time>2024-08-03T08:45:05.167</time></trkpt><trkpt lat="56.3852451" lon="85.0829294"><time>2024-08-03T08:45:12.220</time></trkpt><trkpt lat="56.3852052" lon="85.0829713"><time>2024-08-03T08:45:19.167</time></trkpt><trkpt lat="56.3851577" lon="85.0829149"><time>2024-08-03T08:45:27.263</time></trkpt><trkpt lat="56.3851161" lon="85.0828654"><time>2024-08-03T08:45:30.280</time></trkpt><trkpt lat="56.3850678" lon="85.0829113"><time>2024-08-03T08:45:37.277</time></trkpt><trkpt lat="56.3850258" lon="85.0829541"><time>2024-08-03T08:45:40.293</time></trkpt><trkpt lat="56.3849815" lon="85.0830001"><time>2024-08-03T08:45:43.277</time></trkpt><trkpt lat="56.3850280" lon="85.0829790"><time>2024-08-03T08:45:50.293</time></trkpt><trkpt lat="56.3850713" lon="85.0829020"><time>2024-08-03T08:45:53.193</time></trkpt><trkpt lat="56.3851252" lon="85.0829067"><time>2024-08-03T08:45:57.253</time></trkpt><trkpt lat="56.3851766" lon="85.0829647"><time>2024-08-03T08:46:01.290</time></trkpt><trkpt lat="56.3852199" lon="85.0829909"><time>2024-08-03T08:46:07.280</time></trkpt><trkpt lat="56.3852408" lon="85.0830664"><time>2024-08-03T08:46:12.177</time></trkpt><trkpt lat="56.3852771" lon="85.0831257"><time>2024-08-03T08:46:16.247</time></trkpt><trkpt lat="56.3853124" lon="85.0831867"><time>2024-08-03T08:46:20.323</time></trkpt><trkpt lat="56.3853603" lon="85.0832113"><time>2024-08-03T08:46:26.247</time></trkpt><trkpt lat="56.3854072" lon="85.0832169"><time>2024-08-03T08:46:34.277</time></trkpt><trkpt lat="56.3854027" lon="85.0833005"><time>2024-08-03T08:46:42.320</time></trkpt><trkpt lat="56.3853607" lon="85.0833521"><time>2024-08-03T08:46:47.307</time></trkpt><trkpt lat="56.3853227" lon="85.0834024"><time>2024-08-03T08:46:53.290</time></trkpt><trkpt lat="56.3852763" lon="85.0834190"><time>2024-08-03T08:46:59.273</time></trkpt><trkpt lat="56.3852282" lon="85.0834114"><time>2024-08-03T08:47:04.323</time></trkpt><trkpt lat="56.3851951" lon="85.0834743"><time>2024-08-03T08:47:09.290</time></trkpt><trkpt lat="56.3851531" lon="85.0835185"><time>2024-08-03T08:47:14.287</time></trkpt><trkpt lat="56.3851054" lon="85.0835411"><time>2024-08-03T08:47:20.230</time></trkpt><trkpt lat="56.3850607" lon="85.0835688"><time>2024-08-03T08:47:26.270</time></trkpt><trkpt lat="56.3850148" lon="85.0835770"><time>2024-08-03T08:47:32.330</time></trkpt><trkpt lat="56.3849668" lon="85.0835859"><time>2024-08-03T08:47:47.287</time></trkpt><trkpt lat="56.3849188" lon="85.0835269"><time>2024-08-03T08:47:51.157</time></trkpt><trkpt lat="56.3848652" lon="85.0835082"><time>2024-08-03T08:47:55.160</time></trkpt><trkpt lat="56.3848091" lon="85.0834827"><time>2024-08-03T08:47:59.203</time></trkpt><trkpt lat="56.3847534" lon="85.0834534"><time>2024-08-03T08:48:03.197</time></trkpt><trkpt lat="56.3847074" lon="85.0834313"><time>2024-08-03T08:48:06.157</time></trkpt><trkpt lat="56.3846601" lon="85.0834088"><time>2024-08-03T08:48:09.157</time></trkpt><trkpt lat="56.3846116" lon="85.0833903"><time>2024-08-03T08:48:13.157</time></trkpt><trkpt lat="56.3845537" lon="85.0833678"><time>2024-08-03T08:48:17.170</time></trkpt><trkpt lat="56.3845061" lon="85.0833454"><time>2024-08-03T08:48:20.160</time></trkpt><trkpt lat="56.3844608" lon="85.0833157"><time>2024-08-03T08:48:23.173</time></trkpt><trkpt lat="56.3844141" lon="85.0832891"><time>2024-08-03T08:48:26.207</time></trkpt><trkpt lat="56.3843648" lon="85.0832604"><time>2024-08-03T08:48:29.287</time></trkpt><trkpt lat="56.3843115" lon="85.0832237"><time>2024-08-03T08:48:32.170</time></trkpt><trkpt lat="56.3842583" lon="85.0832010"><time>2024-08-03T08:48:36.197</time></trkpt><trkpt lat="56.3842137" lon="85.0831819"><time>2024-08-03T08:48:39.210</time></trkpt><trkpt lat="56.3841694" lon="85.0831575"><time>2024-08-03T08:48:42.187</time></trkpt><trkpt lat="56.3841236" lon="85.0831266"><time>2024-08-03T08:48:45.197</time></trkpt><trkpt lat="56.3840754" lon="85.0830949"><time>2024-08-03T08:48:48.210</time></trkpt><trkpt lat="56.3840266" lon="85.0830692"><time>2024-08-03T08:48:51.207</time></trkpt><trkpt lat="56.3839777" lon="85.0830473"><time>2024-08-03T08:48:54.213</time></trkpt><trkpt lat="56.3839336" lon="85.0830213"><time>2024-08-03T08:48:57.220</time></trkpt><trkpt lat="56.3838884" lon="85.0829775"><time>2024-08-03T08:49:00.247</time></trkpt><trkpt lat="56.3838447" lon="85.0829493"><time>2024-08-03T08:49:03.327</time></trkpt><trkpt lat="56.3837969" lon="85.0829134"><time>2024-08-03T08:49:06.330</time></trkpt><trkpt lat="56.3837509" lon="85.0828905"><time>2024-08-03T08:49:09.277</time></trkpt><trkpt lat="56.3837065" lon="85.0828672"><time>2024-08-03T08:49:12.273</time></trkpt><trkpt lat="56.3836628" lon="85.0828411"><time>2024-08-03T08:49:15.293</time></trkpt><trkpt lat="56.3836170" lon="85.0828154"><time>2024-08-03T08:49:18.217</time></trkpt><trkpt lat="56.3835739" lon="85.0827826"><time>2024-08-03T08:49:21.333</time></trkpt><trkpt lat="56.3835190" lon="85.0827438"><time>2024-08-03T08:49:25.293</time></trkpt><trkpt lat="56.3834709" lon="85.0827212"><time>2024-08-03T08:49:28.277</time></trkpt><trkpt lat="56.3834258" lon="85.0827000"><time>2024-08-03T08:49:31.297</time></trkpt><trkpt lat="56.3833799" lon="85.0826836"><time>2024-08-03T08:49:34.277</time></trkpt><trkpt lat="56.3833258" lon="85.0826522"><time>2024-08-03T08:49:38.313</time></trkpt><trkpt lat="56.3832701" lon="85.0826196"><time>2024-08-03T08:49:42.303</time></trkpt><trkpt lat="56.3832206" lon="85.0825936"><time>2024-08-03T08:49:45.203</time></trkpt><trkpt lat="56.3831709" lon="85.0825673"><time>2024-08-03T08:49:48.223</time></trkpt><trkpt lat="56.3831228" lon="85.0825454"><time>2024-08-03T08:49:51.183</time></trkpt><trkpt lat="56.3830769" lon="85.0825303"><time>2024-08-03T08:49:54.297</time></trkpt><trkpt lat="56.3830304" lon="85.0825198"><time>2024-08-03T08:49:57.303</time></trkpt><trkpt lat="56.3829790" lon="85.0824915"><time>2024-08-03T08:50:01.337</time></trkpt><trkpt lat="56.3829251" lon="85.0824499"><time>2024-08-03T08:50:05.253</time></trkpt><trkpt lat="56.3828808" lon="85.0824210"><time>2024-08-03T08:50:08.190</time></trkpt><trkpt lat="56.3828316" lon="85.0823959"><time>2024-08-03T08:50:11.203</time></trkpt><trkpt lat="56.3827786" lon="85.0823778"><time>2024-08-03T08:50:14.187</time></trkpt><trkpt lat="56.3827235" lon="85.0823420"><time>2024-08-03T08:50:18.340</time></trkpt><trkpt lat="56.3826702" lon="85.0823234"><time>2024-08-03T08:50:22.197</time></trkpt><trkpt lat="56.3826197" lon="85.0823192"><time>2024-08-03T08:50:25.200</time></trkpt><trkpt lat="56.3825723" lon="85.0823038"><time>2024-08-03T08:50:28.160</time></trkpt><trkpt lat="56.3825197" lon="85.0822983"><time>2024-08-03T08:50:31.150</time></trkpt><trkpt lat="56.3824675" lon="85.0822748"><time>2024-08-03T08:50:34.203</time></trkpt><trkpt lat="56.3824160" lon="85.0822682"><time>2024-08-03T08:50:37.210</time></trkpt><trkpt lat="56.3823690" lon="85.0822771"><time>2024-08-03T08:50:40.210</time></trkpt><trkpt lat="56.3823210" lon="85.0822778"><time>2024-08-03T08:50:43.203</time></trkpt><trkpt lat="56.3822724" lon="85.0822852"><time>2024-08-03T08:50:46.180</time></trkpt><trkpt lat="56.3822250" lon="85.0822933"><time>2024-08-03T08:50:49.210</time></trkpt><trkpt lat="56.3821752" lon="85.0823022"><time>2024-08-03T08:50:52.190</time></trkpt><trkpt lat="56.3821273" lon="85.0822989"><time>2024-08-03T08:50:55.207</time></trkpt><trkpt lat="56.3820782" lon="85.0823048"><time>2024-08-03T08:50:58.210</time></trkpt><trkpt lat="56.3820325" lon="85.0823251"><time>2024-08-03T08:51:01.163</time></trkpt><trkpt lat="56.3819872" lon="85.0823485"><time>2024-08-03T08:51:04.207</time></trkpt><trkpt lat="56.3819307" lon="85.0823712"><time>2024-08-03T08:51:08.180</time></trkpt><trkpt lat="56.3818816" lon="85.0823936"><time>2024-08-03T08:51:11.207</time></trkpt><trkpt lat="56.3818264" lon="85.0824158"><time>2024-08-03T08:51:15.197</time></trkpt><trkpt lat="56.3817816" lon="85.0824364"><time>2024-08-03T08:51:18.163</time></trkpt><trkpt lat="56.3817366" lon="85.0824576"><time>2024-08-03T08:51:21.210</time></trkpt><trkpt lat="56.3816915" lon="85.0824822"><time>2024-08-03T08:51:24.167</time></trkpt><trkpt lat="56.3816466" lon="85.0825047"><time>2024-08-03T08:51:27.187</time></trkpt><trkpt lat="56.3815935" lon="85.0825160"><time>2024-08-03T08:51:31.207</time></trkpt><trkpt lat="56.3815427" lon="85.0825274"><time>2024-08-03T08:51:34.187</time></trkpt><trkpt lat="56.3814942" lon="85.0825354"><time>2024-08-03T08:51:37.290</time></trkpt><trkpt lat="56.3814364" lon="85.0825476"><time>2024-08-03T08:51:41.257</time></trkpt><trkpt lat="56.3813813" lon="85.0825587"><time>2024-08-03T08:51:45.220</time></trkpt><trkpt lat="56.3813234" lon="85.0825536"><time>2024-08-03T08:51:49.207</time></trkpt><trkpt lat="56.3812783" lon="85.0825683"><time>2024-08-03T08:51:52.277</time></trkpt><trkpt lat="56.3812324" lon="85.0825814"><time>2024-08-03T08:51:55.270</time></trkpt><trkpt lat="56.3811812" lon="85.0825896"><time>2024-08-03T08:51:58.273</time></trkpt><trkpt lat="56.3811310" lon="85.0826088"><time>2024-08-03T08:52:01.273</time></trkpt><trkpt lat="56.3810857" lon="85.0826505"><time>2024-08-03T08:52:04.273</time></trkpt><trkpt lat="56.3810373" lon="85.0826761"><time>2024-08-03T08:52:07.270</time></trkpt><trkpt lat="56.3809900" lon="85.0826962"><time>2024-08-03T08:52:10.247</time></trkpt><trkpt lat="56.3809413" lon="85.0827124"><time>2024-08-03T08:52:13.297</time></trkpt><trkpt lat="56.3808903" lon="85.0827145"><time>2024-08-03T08:52:16.280</time></trkpt><trkpt lat="56.3808411" lon="85.0827240"><time>2024-08-03T08:52:19.337</time></trkpt><trkpt lat="56.3807933" lon="85.0827295"><time>2024-08-03T08:52:22.277</time></trkpt><trkpt lat="56.3807445" lon="85.0827433"><time>2024-08-03T08:52:25.333</time></trkpt><trkpt lat="56.3806950" lon="85.0827636"><time>2024-08-03T08:52:28.293</time></trkpt><trkpt lat="56.3806457" lon="85.0827915"><time>2024-08-03T08:52:31.317</time></trkpt><trkpt lat="56.3806023" lon="85.0828202"><time>2024-08-03T08:52:34.163</time></trkpt><trkpt lat="56.3805589" lon="85.0828446"><time>2024-08-03T08:52:37.257</time></trkpt><trkpt lat="56.3805143" lon="85.0828700"><time>2024-08-03T08:52:40.267</time></trkpt><trkpt lat="56.3804678" lon="85.0828881"><time>2024-08-03T08:52:43.277</time></trkpt><trkpt lat="56.3804234" lon="85.0829116"><time>2024-08-03T08:52:46.307</time></trkpt><trkpt lat="56.3803776" lon="85.0829370"><time>2024-08-03T08:52:49.283</time></trkpt><trkpt lat="56.3803234" lon="85.0829702"><time>2024-08-03T08:52:53.190</time></trkpt><trkpt lat="56.3802709" lon="85.0830025"><time>2024-08-03T08:52:57.217</time></trkpt><trkpt lat="56.3802173" lon="85.0830465"><time>2024-08-03T08:53:01.227</time></trkpt><trkpt lat="56.3801732" lon="85.0830707"><time>2024-08-03T08:53:04.160</time></trkpt><trkpt lat="56.3801280" lon="85.0830926"><time>2024-08-03T08:53:07.167</time></trkpt><trkpt lat="56.3800718" lon="85.0831151"><time>2024-08-03T08:53:11.197</time></trkpt><trkpt lat="56.3800270" lon="85.0831300"><time>2024-08-03T08:53:14.167</time></trkpt><trkpt lat="56.3799741" lon="85.0831436"><time>2024-08-03T08:53:18.153</time></trkpt><trkpt lat="56.3799171" lon="85.0831571"><time>2024-08-03T08:53:22.160</time></trkpt><trkpt lat="56.3798585" lon="85.0831797"><time>2024-08-03T08:53:26.150</time></trkpt><trkpt lat="56.3798046" lon="85.0831973"><time>2024-08-03T08:53:30.153</time></trkpt><trkpt lat="56.3797453" lon="85.0831988"><time>2024-08-03T08:53:34.183</time></trkpt><trkpt lat="56.3796970" lon="85.0831990"><time>2024-08-03T08:53:37.203</time></trkpt><trkpt lat="56.3796415" lon="85.0831991"><time>2024-08-03T08:53:40.187</time></trkpt><trkpt lat="56.3795962" lon="85.0832000"><time>2024-08-03T08:53:43.197</time></trkpt><trkpt lat="56.3795427" lon="85.0832007"><time>2024-08-03T08:53:46.157</time></trkpt><trkpt lat="56.3794818" lon="85.0831990"><time>2024-08-03T08:53:49.160</time></trkpt><trkpt lat="56.3794345" lon="85.0832070"><time>2024-08-03T08:53:51.160</time></trkpt><trkpt lat="56.3793873" lon="85.0832134"><time>2024-08-03T08:53:53.157</time></trkpt><trkpt lat="56.3793395" lon="85.0832049"><time>2024-08-03T08:53:55.160</time></trkpt><trkpt lat="56.3792937" lon="85.0832024"><time>2024-08-03T08:53:57.167</time></trkpt><trkpt lat="56.3792277" lon="85.0832092"><time>2024-08-03T08:54:00.163</time></trkpt><trkpt lat="56.3791667" lon="85.0832102"><time>2024-08-03T08:54:03.190</time></trkpt><trkpt lat="56.3791064" lon="85.0832203"><time>2024-08-03T08:54:06.183</time></trkpt><trkpt lat="56.3790448" lon="85.0832223"><time>2024-08-03T08:54:09.160</time></trkpt><trkpt lat="56.3789858" lon="85.0832138"><time>2024-08-03T08:54:12.167</time></trkpt><trkpt lat="56.3789280" lon="85.0832099"><time>2024-08-03T08:54:15.150</time></trkpt><trkpt lat="56.3788658" lon="85.0832089"><time>2024-08-03T08:54:18.163</time></trkpt><trkpt lat="56.3788093" lon="85.0831963"><time>2024-08-03T08:54:21.167</time></trkpt><trkpt lat="56.3787505" lon="85.0831735"><time>2024-08-03T08:54:24.153</time></trkpt><trkpt lat="56.3787052" lon="85.0831494"><time>2024-08-03T08:54:26.177</time></trkpt><trkpt lat="56.3786620" lon="85.0831106"><time>2024-08-03T08:54:28.167</time></trkpt><trkpt lat="56.3786156" lon="85.0830618"><time>2024-08-03T08:54:31.157</time></trkpt><trkpt lat="56.3785702" lon="85.0830071"><time>2024-08-03T08:54:34.193</time></trkpt><trkpt lat="56.3785366" lon="85.0829439"><time>2024-08-03T08:54:37.197</time></trkpt><trkpt lat="56.3785021" lon="85.0828569"><time>2024-08-03T08:54:41.183</time></trkpt><trkpt lat="56.3784683" lon="85.0827963"><time>2024-08-03T08:54:44.177</time></trkpt><trkpt lat="56.3784267" lon="85.0827375"><time>2024-08-03T08:54:47.170</time></trkpt><trkpt lat="56.3783866" lon="85.0826729"><time>2024-08-03T08:54:50.183</time></trkpt><trkpt lat="56.3783436" lon="85.0826247"><time>2024-08-03T08:54:53.183</time></trkpt><trkpt lat="56.3782997" lon="85.0825825"><time>2024-08-03T08:54:56.187</time></trkpt><trkpt lat="56.3782585" lon="85.0825325"><time>2024-08-03T08:54:59.193</time></trkpt><trkpt lat="56.3782120" lon="85.0824791"><time>2024-08-03T08:55:02.177</time></trkpt><trkpt lat="56.3781679" lon="85.0824390"><time>2024-08-03T08:55:05.173</time></trkpt><trkpt lat="56.3781169" lon="85.0824201"><time>2024-08-03T08:55:08.157</time></trkpt><trkpt lat="56.3780642" lon="85.0824101"><time>2024-08-03T08:55:12.173</time></trkpt><trkpt lat="56.3780112" lon="85.0823961"><time>2024-08-03T08:55:16.190</time></trkpt><trkpt lat="56.3779632" lon="85.0823981"><time>2024-08-03T08:55:19.177</time></trkpt><trkpt lat="56.3779078" lon="85.0823868"><time>2024-08-03T08:55:22.177</time></trkpt><trkpt lat="56.3778582" lon="85.0823804"><time>2024-08-03T08:55:25.193</time></trkpt><trkpt lat="56.3777985" lon="85.0823846"><time>2024-08-03T08:55:28.197</time></trkpt><trkpt lat="56.3777458" lon="85.0823949"><time>2024-08-03T08:55:31.207</time></trkpt><trkpt lat="56.3776840" lon="85.0823867"><time>2024-08-03T08:55:34.203</time></trkpt><trkpt lat="56.3776381" lon="85.0823845"><time>2024-08-03T08:55:37.180</time></trkpt><trkpt lat="56.3775854" lon="85.0823912"><time>2024-08-03T08:55:40.157</time></trkpt><trkpt lat="56.3775339" lon="85.0824036"><time>2024-08-03T08:55:43.160</time></trkpt><trkpt lat="56.3774877" lon="85.0824366"><time>2024-08-03T08:55:45.157</time></trkpt><trkpt lat="56.3774408" lon="85.0824633"><time>2024-08-03T08:55:48.167</time></trkpt><trkpt lat="56.3773837" lon="85.0824935"><time>2024-08-03T08:55:52.177</time></trkpt><trkpt lat="56.3773316" lon="85.0825169"><time>2024-08-03T08:55:56.173</time></trkpt><trkpt lat="56.3772803" lon="85.0825316"><time>2024-08-03T08:56:00.180</time></trkpt><trkpt lat="56.3772342" lon="85.0825379"><time>2024-08-03T08:56:03.183</time></trkpt><trkpt lat="56.3771825" lon="85.0825549"><time>2024-08-03T08:56:07.190</time></trkpt><trkpt lat="56.3771239" lon="85.0825747"><time>2024-08-03T08:56:11.193</time></trkpt><trkpt lat="56.3770626" lon="85.0825981"><time>2024-08-03T08:56:15.220</time></trkpt><trkpt lat="56.3770120" lon="85.0826152"><time>2024-08-03T08:56:18.183</time></trkpt><trkpt lat="56.3769569" lon="85.0826278"><time>2024-08-03T08:56:22.177</time></trkpt><trkpt lat="56.3769054" lon="85.0826394"><time>2024-08-03T08:56:25.150</time></trkpt><trkpt lat="56.3768589" lon="85.0826704"><time>2024-08-03T08:56:28.187</time></trkpt><trkpt lat="56.3768097" lon="85.0827092"><time>2024-08-03T08:56:31.153</time></trkpt><trkpt lat="56.3767691" lon="85.0827693"><time>2024-08-03T08:56:34.207</time></trkpt><trkpt lat="56.3767350" lon="85.0828328"><time>2024-08-03T08:56:37.190</time></trkpt><trkpt lat="56.3767071" lon="85.0829205"><time>2024-08-03T08:56:41.160</time></trkpt><trkpt lat="56.3766728" lon="85.0830037"><time>2024-08-03T08:56:45.187</time></trkpt><trkpt lat="56.3766346" lon="85.0830776"><time>2024-08-03T08:56:48.190</time></trkpt><trkpt lat="56.3765991" lon="85.0831587"><time>2024-08-03T08:56:52.180</time></trkpt><trkpt lat="56.3765686" lon="85.0832217"><time>2024-08-03T08:56:55.193</time></trkpt><trkpt lat="56.3765366" lon="85.0832792"><time>2024-08-03T08:56:58.207</time></trkpt><trkpt lat="56.3764867" lon="85.0833423"><time>2024-08-03T08:57:02.280</time></trkpt><trkpt lat="56.3764450" lon="85.0833850"><time>2024-08-03T08:57:05.263</time></trkpt><trkpt lat="56.3764056" lon="85.0834297"><time>2024-08-03T08:57:08.283</time></trkpt><trkpt lat="56.3763633" lon="85.0834649"><time>2024-08-03T08:57:11.343</time></trkpt><trkpt lat="56.3763205" lon="85.0834912"><time>2024-08-03T08:57:14.277</time></trkpt><trkpt lat="56.3762689" lon="85.0835095"><time>2024-08-03T08:57:18.290</time></trkpt><trkpt lat="56.3762253" lon="85.0835302"><time>2024-08-03T08:57:21.210</time></trkpt><trkpt lat="56.3761820" lon="85.0835515"><time>2024-08-03T08:57:25.263</time></trkpt><trkpt lat="56.3761199" lon="85.0835654"><time>2024-08-03T08:57:28.277</time></trkpt><trkpt lat="56.3760741" lon="85.0835824"><time>2024-08-03T08:57:31.267</time></trkpt><trkpt lat="56.3760231" lon="85.0835811"><time>2024-08-03T08:57:34.150</time></trkpt><trkpt lat="56.3759751" lon="85.0835715"><time>2024-08-03T08:57:37.153</time></trkpt><trkpt lat="56.3759273" lon="85.0835637"><time>2024-08-03T08:57:40.153</time></trkpt><trkpt lat="56.3758764" lon="85.0835574"><time>2024-08-03T08:57:43.203</time></trkpt><trkpt lat="56.3758305" lon="85.0835557"><time>2024-08-03T08:57:49.183</time></trkpt><trkpt lat="56.3757813" lon="85.0835432"><time>2024-08-03T08:57:52.197</time></trkpt><trkpt lat="56.3757355" lon="85.0835294"><time>2024-08-03T08:57:55.160</time></trkpt><trkpt lat="56.3756914" lon="85.0835114"><time>2024-08-03T08:57:58.187</time></trkpt><trkpt lat="56.3756505" lon="85.0834548"><time>2024-08-03T08:58:01.197</time></trkpt><trkpt lat="56.3756096" lon="85.0833952"><time>2024-08-03T08:58:04.197</time></trkpt><trkpt lat="56.3755653" lon="85.0833559"><time>2024-08-03T08:58:07.207</time></trkpt><trkpt lat="56.3755228" lon="85.0833244"><time>2024-08-03T08:58:10.180</time></trkpt><trkpt lat="56.3754728" lon="85.0832995"><time>2024-08-03T08:58:14.203</time></trkpt><trkpt lat="56.3754404" lon="85.0832164"><time>2024-08-03T08:58:18.210</time></trkpt><trkpt lat="56.3754346" lon="85.0831075"><time>2024-08-03T08:58:22.177</time></trkpt><trkpt lat="56.3754481" lon="85.0830136"><time>2024-08-03T08:58:26.200</time></trkpt><trkpt lat="56.3754570" lon="85.0829248"><time>2024-08-03T08:58:29.207</time></trkpt><trkpt lat="56.3754465" lon="85.0828250"><time>2024-08-03T08:58:33.153</time></trkpt><trkpt lat="56.3754446" lon="85.0827210"><time>2024-08-03T08:58:37.200</time></trkpt><trkpt lat="56.3754298" lon="85.0826377"><time>2024-08-03T08:58:41.190</time></trkpt><trkpt lat="56.3754024" lon="85.0825666"><time>2024-08-03T08:58:45.213</time></trkpt><trkpt lat="56.3753943" lon="85.0824824"><time>2024-08-03T08:58:50.187</time></trkpt><trkpt lat="56.3754017" lon="85.0824017"><time>2024-08-03T08:58:54.167</time></trkpt><trkpt lat="56.3754220" lon="85.0823245"><time>2024-08-03T08:58:58.173</time></trkpt><trkpt lat="56.3754384" lon="85.0822353"><time>2024-08-03T08:59:03.267</time></trkpt><trkpt lat="56.3754509" lon="85.0821564"><time>2024-08-03T08:59:07.220</time></trkpt><trkpt lat="56.3754455" lon="85.0820617"><time>2024-08-03T08:59:11.297</time></trkpt><trkpt lat="56.3754365" lon="85.0821420"><time>2024-08-03T09:01:45.200</time></trkpt><trkpt lat="56.3754207" lon="85.0822458"><time>2024-08-03T09:01:49.207</time></trkpt><trkpt lat="56.3754088" lon="85.0823269"><time>2024-08-03T09:01:53.263</time></trkpt><trkpt lat="56.3753781" lon="85.0824089"><time>2024-08-03T09:01:57.253</time></trkpt><trkpt lat="56.3754034" lon="85.0825046"><time>2024-08-03T09:02:01.323</time></trkpt><trkpt lat="56.3753808" lon="85.0825773"><time>2024-08-03T09:02:04.270</time></trkpt><trkpt lat="56.3753242" lon="85.0825418"><time>2024-08-03T09:02:07.287</time></trkpt><trkpt lat="56.3752773" lon="85.0824843"><time>2024-08-03T09:02:10.270</time></trkpt><trkpt lat="56.3752273" lon="85.0824287"><time>2024-08-03T09:02:13.277</time></trkpt><trkpt lat="56.3751825" lon="85.0823730"><time>2024-08-03T09:02:16.167</time></trkpt><trkpt lat="56.3751421" lon="85.0823125"><time>2024-08-03T09:02:18.263</time></trkpt><trkpt lat="56.3751031" lon="85.0822515"><time>2024-08-03T09:02:20.257</time></trkpt><trkpt lat="56.3750622" lon="85.0821857"><time>2024-08-03T09:02:22.263</time></trkpt><trkpt lat="56.3750303" lon="85.0821148"><time>2024-08-03T09:02:24.330</time></trkpt><trkpt lat="56.3750057" lon="85.0820420"><time>2024-08-03T09:02:26.187</time></trkpt><trkpt lat="56.3749787" lon="85.0819337"><time>2024-08-03T09:02:29.277</time></trkpt><trkpt lat="56.3749535" lon="85.0818189"><time>2024-08-03T09:02:32.177</time></trkpt><trkpt lat="56.3749278" lon="85.0817318"><time>2024-08-03T09:02:34.173</time></trkpt><trkpt lat="56.3748993" lon="85.0816472"><time>2024-08-03T09:02:36.153</time></trkpt><trkpt lat="56.3748757" lon="85.0815748"><time>2024-08-03T09:02:38.170</time></trkpt><trkpt lat="56.3748541" lon="85.0814898"><time>2024-08-03T09:02:40.150</time></trkpt><trkpt lat="56.3748416" lon="85.0813983"><time>2024-08-03T09:02:42.177</time></trkpt><trkpt lat="56.3748249" lon="85.0812901"><time>2024-08-03T09:02:44.147</time></trkpt><trkpt lat="56.3747730" lon="85.0812084"><time>2024-08-03T09:02:47.160</time></trkpt><trkpt lat="56.3747445" lon="85.0811291"><time>2024-08-03T09:02:49.157</time></trkpt><trkpt lat="56.3747304" lon="85.0810442"><time>2024-08-03T09:02:51.150</time></trkpt><trkpt lat="56.3747072" lon="85.0809676"><time>2024-08-03T09:02:53.177</time></trkpt><trkpt lat="56.3746777" lon="85.0808845"><time>2024-08-03T09:02:55.157</time></trkpt><trkpt lat="56.3746445" lon="85.0808016"><time>2024-08-03T09:02:57.153</time></trkpt><trkpt lat="56.3746170" lon="85.0807179"><time>2024-08-03T09:02:59.153</time></trkpt><trkpt lat="56.3745936" lon="85.0806346"><time>2024-08-03T09:03:01.157</time></trkpt><trkpt lat="56.3745679" lon="85.0805677"><time>2024-08-03T09:03:03.157</time></trkpt><trkpt lat="56.3745355" lon="85.0804929"><time>2024-08-03T09:03:05.147</time></trkpt><trkpt lat="56.3745151" lon="85.0803910"><time>2024-08-03T09:03:07.150</time></trkpt><trkpt lat="56.3744850" lon="85.0802841"><time>2024-08-03T09:03:10.157</time></trkpt><trkpt lat="56.3744593" lon="85.0802033"><time>2024-08-03T09:03:12.147</time></trkpt><trkpt lat="56.3744311" lon="85.0801075"><time>2024-08-03T09:03:14.150</time></trkpt><trkpt lat="56.3744065" lon="85.0800051"><time>2024-08-03T09:03:16.153</time></trkpt><trkpt lat="56.3743810" lon="85.0799049"><time>2024-08-03T09:03:18.167</time></trkpt><trkpt lat="56.3743584" lon="85.0798185"><time>2024-08-03T09:03:20.167</time></trkpt><trkpt lat="56.3743339" lon="85.0797375"><time>2024-08-03T09:03:22.157</time></trkpt><trkpt lat="56.3743049" lon="85.0796525"><time>2024-08-03T09:03:24.160</time></trkpt><trkpt lat="56.3742714" lon="85.0795663"><time>2024-08-03T09:03:26.157</time></trkpt><trkpt lat="56.3742467" lon="85.0794975"><time>2024-08-03T09:03:28.157</time></trkpt><trkpt lat="56.3742269" lon="85.0793968"><time>2024-08-03T09:03:30.157</time></trkpt><trkpt lat="56.3742025" lon="85.0793094"><time>2024-08-03T09:03:32.163</time></trkpt><trkpt lat="56.3741712" lon="85.0792100"><time>2024-08-03T09:03:35.160</time></trkpt><trkpt lat="56.3741434" lon="85.0791461"><time>2024-08-03T09:03:37.157</time></trkpt><trkpt lat="56.3741045" lon="85.0790444"><time>2024-08-03T09:03:40.157</time></trkpt><trkpt lat="56.3740875" lon="85.0789659"><time>2024-08-03T09:03:42.160</time></trkpt><trkpt lat="56.3740678" lon="85.0788854"><time>2024-08-03T09:03:44.157</time></trkpt><trkpt lat="56.3740394" lon="85.0788050"><time>2024-08-03T09:03:46.157</time></trkpt><trkpt lat="56.3740119" lon="85.0787190"><time>2024-08-03T09:03:48.157</time></trkpt><trkpt lat="56.3739921" lon="85.0786372"><time>2024-08-03T09:03:50.157</time></trkpt><trkpt lat="56.3739653" lon="85.0785507"><time>2024-08-03T09:03:52.190</time></trkpt><trkpt lat="56.3739348" lon="85.0784827"><time>2024-08-03T09:03:54.173</time></trkpt><trkpt lat="56.3739069" lon="85.0784063"><time>2024-08-03T09:03:56.157</time></trkpt><trkpt lat="56.3738807" lon="85.0783251"><time>2024-08-03T09:03:58.157</time></trkpt><trkpt lat="56.3738520" lon="85.0782220"><time>2024-08-03T09:04:01.160</time></trkpt><trkpt lat="56.3738282" lon="85.0781525"><time>2024-08-03T09:04:03.163</time></trkpt><trkpt lat="56.3738095" lon="85.0780608"><time>2024-08-03T09:04:06.157</time></trkpt><trkpt lat="56.3737601" lon="85.0779797"><time>2024-08-03T09:04:11.157</time></trkpt><trkpt lat="56.3737247" lon="85.0779052"><time>2024-08-03T09:04:13.150</time></trkpt><trkpt lat="56.3737014" lon="85.0777953"><time>2024-08-03T09:04:16.160</time></trkpt><trkpt lat="56.3736600" lon="85.0776866"><time>2024-08-03T09:04:19.190</time></trkpt><trkpt lat="56.3736267" lon="85.0776179"><time>2024-08-03T09:04:21.180</time></trkpt><trkpt lat="56.3735997" lon="85.0775510"><time>2024-08-03T09:04:23.187</time></trkpt><trkpt lat="56.3735783" lon="85.0774695"><time>2024-08-03T09:04:26.167</time></trkpt><trkpt lat="56.3735486" lon="85.0773693"><time>2024-08-03T09:04:29.350</time></trkpt><trkpt lat="56.3735034" lon="85.0773212"><time>2024-08-03T09:04:31.170</time></trkpt><trkpt lat="56.3734717" lon="85.0772303"><time>2024-08-03T09:04:34.250</time></trkpt><trkpt lat="56.3734495" lon="85.0771184"><time>2024-08-03T09:04:37.203</time></trkpt><trkpt lat="56.3734291" lon="85.0770460"><time>2024-08-03T09:04:39.217</time></trkpt><trkpt lat="56.3734129" lon="85.0769518"><time>2024-08-03T09:04:43.167</time></trkpt><trkpt lat="56.3734010" lon="85.0768599"><time>2024-08-03T09:04:46.180</time></trkpt><trkpt lat="56.3733787" lon="85.0767620"><time>2024-08-03T09:04:49.207</time></trkpt><trkpt lat="56.3733633" lon="85.0766701"><time>2024-08-03T09:04:52.183</time></trkpt><trkpt lat="56.3733404" lon="85.0765870"><time>2024-08-03T09:04:55.183</time></trkpt><trkpt lat="56.3733127" lon="85.0765167"><time>2024-08-03T09:04:58.190</time></trkpt><trkpt lat="56.3732797" lon="85.0764441"><time>2024-08-03T09:05:01.187</time></trkpt><trkpt lat="56.3732582" lon="85.0763707"><time>2024-08-03T09:05:04.280</time></trkpt><trkpt lat="56.3732338" lon="85.0762907"><time>2024-08-03T09:05:07.293</time></trkpt><trkpt lat="56.3732201" lon="85.0761999"><time>2024-08-03T09:05:10.290</time></trkpt><trkpt lat="56.3732006" lon="85.0761186"><time>2024-08-03T09:05:13.340</time></trkpt><trkpt lat="56.3731755" lon="85.0760359"><time>2024-08-03T09:05:16.297</time></trkpt><trkpt lat="56.3731368" lon="85.0759657"><time>2024-08-03T09:05:19.350</time></trkpt><trkpt lat="56.3730997" lon="85.0758998"><time>2024-08-03T09:05:22.287</time></trkpt><trkpt lat="56.3730755" lon="85.0758276"><time>2024-08-03T09:05:25.327</time></trkpt><trkpt lat="56.3730493" lon="85.0757546"><time>2024-08-03T09:05:28.310</time></trkpt><trkpt lat="56.3730220" lon="85.0756775"><time>2024-08-03T09:05:31.277</time></trkpt><trkpt lat="56.3729890" lon="85.0755912"><time>2024-08-03T09:05:35.263</time></trkpt><trkpt lat="56.3729674" lon="85.0755176"><time>2024-08-03T09:05:38.210</time></trkpt><trkpt lat="56.3729502" lon="85.0754358"><time>2024-08-03T09:05:41.267</time></trkpt><trkpt lat="56.3729340" lon="85.0753511"><time>2024-08-03T09:05:44.293</time></trkpt><trkpt lat="56.3729195" lon="85.0752687"><time>2024-08-03T09:05:47.327</time></trkpt><trkpt lat="56.3728980" lon="85.0751929"><time>2024-08-03T09:05:50.307</time></trkpt><trkpt lat="56.3728727" lon="85.0751087"><time>2024-08-03T09:05:53.160</time></trkpt><trkpt lat="56.3728487" lon="85.0750396"><time>2024-08-03T09:05:57.157</time></trkpt><trkpt lat="56.3728239" lon="85.0749431"><time>2024-08-03T09:06:01.163</time></trkpt><trkpt lat="56.3728080" lon="85.0748380"><time>2024-08-03T09:06:05.193</time></trkpt><trkpt lat="56.3727891" lon="85.0747568"><time>2024-08-03T09:06:08.167</time></trkpt><trkpt lat="56.3727662" lon="85.0746512"><time>2024-08-03T09:06:11.150</time></trkpt><trkpt lat="56.3727448" lon="85.0745679"><time>2024-08-03T09:06:14.153</time></trkpt><trkpt lat="56.3727376" lon="85.0744806"><time>2024-08-03T09:06:17.160</time></trkpt><trkpt lat="56.3727783" lon="85.0744177"><time>2024-08-03T09:06:20.267</time></trkpt><trkpt lat="56.3728390" lon="85.0743797"><time>2024-08-03T09:06:27.167</time></trkpt><trkpt lat="56.3728849" lon="85.0743501"><time>2024-08-03T09:06:32.160</time></trkpt><trkpt lat="56.3729297" lon="85.0743100"><time>2024-08-03T09:06:36.147</time></trkpt><trkpt lat="56.3729757" lon="85.0742607"><time>2024-08-03T09:06:39.160</time></trkpt><trkpt lat="56.3730175" lon="85.0742066"><time>2024-08-03T09:06:43.200</time></trkpt><trkpt lat="56.3730494" lon="85.0741490"><time>2024-08-03T09:06:47.167</time></trkpt><trkpt lat="56.3730857" lon="85.0740772"><time>2024-08-03T09:06:50.187</time></trkpt><trkpt lat="56.3731158" lon="85.0740081"><time>2024-08-03T09:06:53.297</time></trkpt><trkpt lat="56.3731466" lon="85.0739454"><time>2024-08-03T09:06:57.277</time></trkpt><trkpt lat="56.3731746" lon="85.0738751"><time>2024-08-03T09:07:01.280</time></trkpt><trkpt lat="56.3731936" lon="85.0737945"><time>2024-08-03T09:07:05.277</time></trkpt><trkpt lat="56.3732035" lon="85.0737095"><time>2024-08-03T09:07:08.267</time></trkpt><trkpt lat="56.3732019" lon="85.0736174"><time>2024-08-03T09:07:14.273</time></trkpt><trkpt lat="56.3732271" lon="85.0735415"><time>2024-08-03T09:07:20.293</time></trkpt><trkpt lat="56.3732317" lon="85.0735092"><time>2024-08-03T09:07:22.880</time></trkpt><trkpt lat="56.3731827" lon="85.0735179"><time>2024-08-03T09:07:58.200</time></trkpt><trkpt lat="56.3731563" lon="85.0735887"><time>2024-08-03T09:08:27.280</time></trkpt><trkpt lat="56.3731559" lon="85.0737012"><time>2024-08-03T09:08:31.327</time></trkpt><trkpt lat="56.3731550" lon="85.0738106"><time>2024-08-03T09:08:34.287</time></trkpt><trkpt lat="56.3731317" lon="85.0739149"><time>2024-08-03T09:08:37.280</time></trkpt><trkpt lat="56.3731045" lon="85.0739996"><time>2024-08-03T09:08:39.333</time></trkpt><trkpt lat="56.3730702" lon="85.0740845"><time>2024-08-03T09:08:42.283</time></trkpt><trkpt lat="56.3730281" lon="85.0741664"><time>2024-08-03T09:08:45.210</time></trkpt><trkpt lat="56.3730014" lon="85.0742439"><time>2024-08-03T09:08:48.307</time></trkpt><trkpt lat="56.3729671" lon="85.0743016"><time>2024-08-03T09:08:51.323</time></trkpt><trkpt lat="56.3729148" lon="85.0743436"><time>2024-08-03T09:08:55.260</time></trkpt><trkpt lat="56.3728710" lon="85.0743745"><time>2024-08-03T09:08:58.273</time></trkpt><trkpt lat="56.3728295" lon="85.0744419"><time>2024-08-03T09:09:01.273</time></trkpt><trkpt lat="56.3728026" lon="85.0745317"><time>2024-08-03T09:09:04.277</time></trkpt><trkpt lat="56.3727975" lon="85.0746317"><time>2024-08-03T09:09:07.247</time></trkpt><trkpt lat="56.3728104" lon="85.0747155"><time>2024-08-03T09:09:10.290</time></trkpt><trkpt lat="56.3728261" lon="85.0748146"><time>2024-08-03T09:09:13.160</time></trkpt><trkpt lat="56.3728367" lon="85.0749017"><time>2024-08-03T09:09:16.157</time></trkpt><trkpt lat="56.3728412" lon="85.0750045"><time>2024-08-03T09:09:19.167</time></trkpt><trkpt lat="56.3728531" lon="85.0751166"><time>2024-08-03T09:09:22.173</time></trkpt><trkpt lat="56.3728768" lon="85.0751954"><time>2024-08-03T09:09:24.197</time></trkpt><trkpt lat="56.3729030" lon="85.0752728"><time>2024-08-03T09:09:26.227</time></trkpt><trkpt lat="56.3729262" lon="85.0753435"><time>2024-08-03T09:09:28.273</time></trkpt><trkpt lat="56.3729555" lon="85.0754279"><time>2024-08-03T09:09:31.267</time></trkpt><trkpt lat="56.3729788" lon="85.0755020"><time>2024-08-03T09:09:34.287</time></trkpt><trkpt lat="56.3730019" lon="85.0755805"><time>2024-08-03T09:09:37.270</time></trkpt><trkpt lat="56.3730258" lon="85.0756543"><time>2024-08-03T09:09:40.237</time></trkpt><trkpt lat="56.3730493" lon="85.0757366"><time>2024-08-03T09:09:43.283</time></trkpt><trkpt lat="56.3730721" lon="85.0758204"><time>2024-08-03T09:09:46.330</time></trkpt><trkpt lat="56.3731002" lon="85.0759028"><time>2024-08-03T09:09:49.187</time></trkpt><trkpt lat="56.3731225" lon="85.0759786"><time>2024-08-03T09:09:52.237</time></trkpt><trkpt lat="56.3731504" lon="85.0760550"><time>2024-08-03T09:09:55.477</time></trkpt><trkpt lat="56.3731765" lon="85.0761294"><time>2024-08-03T09:09:58.247</time></trkpt><trkpt lat="56.3731971" lon="85.0762039"><time>2024-08-03T09:10:01.217</time></trkpt><trkpt lat="56.3732203" lon="85.0762802"><time>2024-08-03T09:10:04.280</time></trkpt><trkpt lat="56.3732511" lon="85.0763664"><time>2024-08-03T09:10:08.303</time></trkpt><trkpt lat="56.3732830" lon="85.0764544"><time>2024-08-03T09:10:12.173</time></trkpt><trkpt lat="56.3733153" lon="85.0765208"><time>2024-08-03T09:10:15.180</time></trkpt><trkpt lat="56.3733388" lon="85.0765956"><time>2024-08-03T09:10:18.193</time></trkpt><trkpt lat="56.3733632" lon="85.0766700"><time>2024-08-03T09:10:21.200</time></trkpt><trkpt lat="56.3733913" lon="85.0767534"><time>2024-08-03T09:10:25.200</time></trkpt><trkpt lat="56.3734193" lon="85.0768427"><time>2024-08-03T09:10:29.187</time></trkpt><trkpt lat="56.3734562" lon="85.0769145"><time>2024-08-03T09:10:33.200</time></trkpt><trkpt lat="56.3734844" lon="85.0769967"><time>2024-08-03T09:10:37.180</time></trkpt><trkpt lat="56.3735009" lon="85.0770907"><time>2024-08-03T09:10:41.180</time></trkpt><trkpt lat="56.3735174" lon="85.0771935"><time>2024-08-03T09:10:45.200</time></trkpt><trkpt lat="56.3735345" lon="85.0772749"><time>2024-08-03T09:10:49.263</time></trkpt><trkpt lat="56.3735572" lon="85.0773491"><time>2024-08-03T09:10:51.267</time></trkpt><trkpt lat="56.3735793" lon="85.0774231"><time>2024-08-03T09:10:54.243</time></trkpt><trkpt lat="56.3736009" lon="85.0774968"><time>2024-08-03T09:10:57.263</time></trkpt><trkpt lat="56.3736245" lon="85.0775743"><time>2024-08-03T09:11:00.257</time></trkpt><trkpt lat="56.3736482" lon="85.0776478"><time>2024-08-03T09:11:03.270</time></trkpt><trkpt lat="56.3736678" lon="85.0777210"><time>2024-08-03T09:11:06.317</time></trkpt><trkpt lat="56.3737025" lon="85.0778050"><time>2024-08-03T09:11:10.260</time></trkpt><trkpt lat="56.3737325" lon="85.0778826"><time>2024-08-03T09:11:13.283</time></trkpt><trkpt lat="56.3737568" lon="85.0779625"><time>2024-08-03T09:11:16.253</time></trkpt><trkpt lat="56.3737770" lon="85.0780398"><time>2024-08-03T09:11:19.300</time></trkpt><trkpt lat="56.3737989" lon="85.0781322"><time>2024-08-03T09:11:23.273</time></trkpt><trkpt lat="56.3737550" lon="85.0782133"><time>2024-08-03T09:11:26.267</time></trkpt><trkpt lat="56.3736998" lon="85.0782769"><time>2024-08-03T09:11:29.290</time></trkpt><trkpt lat="56.3736231" lon="85.0783769"><time>2024-08-03T09:11:33.337</time></trkpt><trkpt lat="56.3735729" lon="85.0784539"><time>2024-08-03T09:11:36.273</time></trkpt><trkpt lat="56.3735362" lon="85.0785100"><time>2024-08-03T09:11:38.267</time></trkpt><trkpt lat="56.3734864" lon="85.0785857"><time>2024-08-03T09:11:41.310</time></trkpt><trkpt lat="56.3734493" lon="85.0786329"><time>2024-08-03T09:11:43.273</time></trkpt><trkpt lat="56.3733979" lon="85.0786907"><time>2024-08-03T09:11:46.277</time></trkpt><trkpt lat="56.3733545" lon="85.0787466"><time>2024-08-03T09:11:49.227</time></trkpt><trkpt lat="56.3733153" lon="85.0788113"><time>2024-08-03T09:11:52.180</time></trkpt><trkpt lat="56.3732738" lon="85.0788798"><time>2024-08-03T09:11:55.203</time></trkpt><trkpt lat="56.3732386" lon="85.0789322"><time>2024-08-03T09:11:58.207</time></trkpt><trkpt lat="56.3732013" lon="85.0789886"><time>2024-08-03T09:12:01.190</time></trkpt><trkpt lat="56.3731652" lon="85.0790492"><time>2024-08-03T09:12:04.207</time></trkpt><trkpt lat="56.3731195" lon="85.0791108"><time>2024-08-03T09:12:08.223</time></trkpt><trkpt lat="56.3730736" lon="85.0791655"><time>2024-08-03T09:12:12.307</time></trkpt><trkpt lat="56.3730401" lon="85.0792223"><time>2024-08-03T09:12:17.200</time></trkpt><trkpt lat="56.3730053" lon="85.0792990"><time>2024-08-03T09:12:21.207</time></trkpt><trkpt lat="56.3729598" lon="85.0793591"><time>2024-08-03T09:12:26.187</time></trkpt><trkpt lat="56.3729136" lon="85.0793405"><time>2024-08-03T09:12:30.210</time></trkpt><trkpt lat="56.3728839" lon="85.0792779"><time>2024-08-03T09:12:33.233</time></trkpt><trkpt lat="56.3728520" lon="85.0792004"><time>2024-08-03T09:12:36.270</time></trkpt><trkpt lat="56.3728173" lon="85.0791381"><time>2024-08-03T09:12:39.190</time></trkpt><trkpt lat="56.3727831" lon="85.0790666"><time>2024-08-03T09:12:42.203</time></trkpt><trkpt lat="56.3727536" lon="85.0789878"><time>2024-08-03T09:12:45.197</time></trkpt><trkpt lat="56.3727198" lon="85.0789042"><time>2024-08-03T09:12:49.257</time></trkpt><trkpt lat="56.3726943" lon="85.0788205"><time>2024-08-03T09:12:52.187</time></trkpt><trkpt lat="56.3726639" lon="85.0787474"><time>2024-08-03T09:12:55.200</time></trkpt><trkpt lat="56.3726334" lon="85.0786829"><time>2024-08-03T09:12:58.187</time></trkpt><trkpt lat="56.3726055" lon="85.0786046"><time>2024-08-03T09:13:01.167</time></trkpt><trkpt lat="56.3725722" lon="85.0785468"><time>2024-08-03T09:13:04.180</time></trkpt><trkpt lat="56.3725501" lon="85.0784718"><time>2024-08-03T09:13:07.183</time></trkpt><trkpt lat="56.3725229" lon="85.0783943"><time>2024-08-03T09:13:10.207</time></trkpt><trkpt lat="56.3724920" lon="85.0783221"><time>2024-08-03T09:13:13.193</time></trkpt><trkpt lat="56.3724573" lon="85.0782365"><time>2024-08-03T09:13:16.187</time></trkpt><trkpt lat="56.3724322" lon="85.0781460"><time>2024-08-03T09:13:19.190</time></trkpt><trkpt lat="56.3724035" lon="85.0780574"><time>2024-08-03T09:13:22.207</time></trkpt><trkpt lat="56.3723771" lon="85.0779801"><time>2024-08-03T09:13:25.183</time></trkpt><trkpt lat="56.3723518" lon="85.0779038"><time>2024-08-03T09:13:28.193</time></trkpt><trkpt lat="56.3723246" lon="85.0778335"><time>2024-08-03T09:13:31.187</time></trkpt><trkpt lat="56.3722933" lon="85.0777461"><time>2024-08-03T09:13:35.240</time></trkpt><trkpt lat="56.3722655" lon="85.0776704"><time>2024-08-03T09:13:38.213</time></trkpt><trkpt lat="56.3722364" lon="85.0776019"><time>2024-08-03T09:13:41.217</time></trkpt><trkpt lat="56.3722074" lon="85.0775330"><time>2024-08-03T09:13:44.177</time></trkpt><trkpt lat="56.3721828" lon="85.0774348"><time>2024-08-03T09:13:48.057</time></trkpt><trkpt lat="56.3721580" lon="85.0773457"><time>2024-08-03T09:13:50.193</time></trkpt><trkpt lat="56.3721302" lon="85.0772591"><time>2024-08-03T09:13:53.173</time></trkpt><trkpt lat="56.3721086" lon="85.0771805"><time>2024-08-03T09:13:56.200</time></trkpt><trkpt lat="56.3720821" lon="85.0770966"><time>2024-08-03T09:13:59.193</time></trkpt><trkpt lat="56.3720547" lon="85.0770222"><time>2024-08-03T09:14:02.187</time></trkpt><trkpt lat="56.3720271" lon="85.0769421"><time>2024-08-03T09:14:05.200</time></trkpt><trkpt lat="56.3719835" lon="85.0768672"><time>2024-08-03T09:14:09.203</time></trkpt><trkpt lat="56.3719610" lon="85.0767808"><time>2024-08-03T09:14:12.187</time></trkpt><trkpt lat="56.3719386" lon="85.0766990"><time>2024-08-03T09:14:15.157</time></trkpt><trkpt lat="56.3719150" lon="85.0766209"><time>2024-08-03T09:14:18.173</time></trkpt><trkpt lat="56.3718922" lon="85.0765496"><time>2024-08-03T09:14:21.147</time></trkpt><trkpt lat="56.3718643" lon="85.0764575"><time>2024-08-03T09:14:25.150</time></trkpt><trkpt lat="56.3718304" lon="85.0763697"><time>2024-08-03T09:14:29.153</time></trkpt><trkpt lat="56.3718121" lon="85.0762891"><time>2024-08-03T09:14:32.200</time></trkpt><trkpt lat="56.3717822" lon="85.0762127"><time>2024-08-03T09:14:35.187</time></trkpt><trkpt lat="56.3717547" lon="85.0761279"><time>2024-08-03T09:14:38.193</time></trkpt><trkpt lat="56.3717198" lon="85.0760539"><time>2024-08-03T09:14:41.197</time></trkpt><trkpt lat="56.3716967" lon="85.0759813"><time>2024-08-03T09:14:44.173</time></trkpt><trkpt lat="56.3716742" lon="85.0759091"><time>2024-08-03T09:14:47.160</time></trkpt><trkpt lat="56.3716495" lon="85.0758352"><time>2024-08-03T09:14:50.193</time></trkpt><trkpt lat="56.3716184" lon="85.0757484"><time>2024-08-03T09:14:54.207</time></trkpt><trkpt lat="56.3716079" lon="85.0756598"><time>2024-08-03T09:14:57.163</time></trkpt><trkpt lat="56.3715889" lon="85.0755832"><time>2024-08-03T09:15:00.147</time></trkpt><trkpt lat="56.3715776" lon="85.0755008"><time>2024-08-03T09:15:03.183</time></trkpt><trkpt lat="56.3715574" lon="85.0754057"><time>2024-08-03T09:15:06.163</time></trkpt><trkpt lat="56.3715318" lon="85.0753129"><time>2024-08-03T09:15:09.157</time></trkpt><trkpt lat="56.3715104" lon="85.0752236"><time>2024-08-03T09:15:12.183</time></trkpt><trkpt lat="56.3714864" lon="85.0751167"><time>2024-08-03T09:15:15.213</time></trkpt><trkpt lat="56.3714691" lon="85.0750308"><time>2024-08-03T09:15:17.277</time></trkpt><trkpt lat="56.3714552" lon="85.0749433"><time>2024-08-03T09:15:19.180</time></trkpt><trkpt lat="56.3714409" lon="85.0748658"><time>2024-08-03T09:15:21.273</time></trkpt><trkpt lat="56.3714143" lon="85.0747565"><time>2024-08-03T09:15:24.173</time></trkpt><trkpt lat="56.3713898" lon="85.0746722"><time>2024-08-03T09:15:26.213</time></trkpt><trkpt lat="56.3713722" lon="85.0745909"><time>2024-08-03T09:15:28.197</time></trkpt><trkpt lat="56.3713522" lon="85.0745038"><time>2024-08-03T09:15:30.193</time></trkpt><trkpt lat="56.3713330" lon="85.0744236"><time>2024-08-03T09:15:32.190</time></trkpt><trkpt lat="56.3713122" lon="85.0743517"><time>2024-08-03T09:15:34.197</time></trkpt><trkpt lat="56.3712927" lon="85.0742706"><time>2024-08-03T09:15:36.193</time></trkpt><trkpt lat="56.3712759" lon="85.0741952"><time>2024-08-03T09:15:38.190</time></trkpt><trkpt lat="56.3712456" lon="85.0740901"><time>2024-08-03T09:15:41.250</time></trkpt><trkpt lat="56.3712035" lon="85.0739947"><time>2024-08-03T09:15:44.253</time></trkpt><trkpt lat="56.3711660" lon="85.0739450"><time>2024-08-03T09:15:46.177</time></trkpt><trkpt lat="56.3711149" lon="85.0739334"><time>2024-08-03T09:15:48.203</time></trkpt><trkpt lat="56.3710538" lon="85.0739588"><time>2024-08-03T09:15:51.253</time></trkpt><trkpt lat="56.3710063" lon="85.0739910"><time>2024-08-03T09:15:54.180</time></trkpt><trkpt lat="56.3709645" lon="85.0740222"><time>2024-08-03T09:15:57.333</time></trkpt><trkpt lat="56.3709125" lon="85.0740666"><time>2024-08-03T09:16:01.200</time></trkpt><trkpt lat="56.3708555" lon="85.0740883"><time>2024-08-03T09:16:05.227</time></trkpt><trkpt lat="56.3708054" lon="85.0741124"><time>2024-08-03T09:16:08.193</time></trkpt><trkpt lat="56.3707608" lon="85.0741438"><time>2024-08-03T09:16:12.287</time></trkpt><trkpt lat="56.3707140" lon="85.0741752"><time>2024-08-03T09:16:17.180</time></trkpt><trkpt lat="56.3706715" lon="85.0742215"><time>2024-08-03T09:16:20.193</time></trkpt><trkpt lat="56.3706233" lon="85.0742760"><time>2024-08-03T09:16:24.187</time></trkpt><trkpt lat="56.3705724" lon="85.0743435"><time>2024-08-03T09:16:28.207</time></trkpt><trkpt lat="56.3705213" lon="85.0743871"><time>2024-08-03T09:16:31.210</time></trkpt><trkpt lat="56.3704777" lon="85.0744209"><time>2024-08-03T09:16:34.160</time></trkpt><trkpt lat="56.3704357" lon="85.0744502"><time>2024-08-03T09:16:37.173</time></trkpt><trkpt lat="56.3703927" lon="85.0744961"><time>2024-08-03T09:16:41.147</time></trkpt><trkpt lat="56.3703490" lon="85.0745448"><time>2024-08-03T09:16:46.150</time></trkpt><trkpt lat="56.3702980" lon="85.0745921"><time>2024-08-03T09:16:51.173</time></trkpt><trkpt lat="56.3702537" lon="85.0746270"><time>2024-08-03T09:16:55.170</time></trkpt><trkpt lat="56.3702078" lon="85.0746519"><time>2024-08-03T09:16:59.157</time></trkpt><trkpt lat="56.3701613" lon="85.0746950"><time>2024-08-03T09:17:04.157</time></trkpt><trkpt lat="56.3701185" lon="85.0747259"><time>2024-08-03T09:17:08.173</time></trkpt><trkpt lat="56.3700658" lon="85.0747339"><time>2024-08-03T09:17:12.173</time></trkpt><trkpt lat="56.3700256" lon="85.0747734"><time>2024-08-03T09:17:17.203</time></trkpt><trkpt lat="56.3699769" lon="85.0748175"><time>2024-08-03T09:17:21.197</time></trkpt><trkpt lat="56.3699323" lon="85.0748631"><time>2024-08-03T09:17:24.207</time></trkpt><trkpt lat="56.3698911" lon="85.0749073"><time>2024-08-03T09:17:28.217</time></trkpt><trkpt lat="56.3698474" lon="85.0749323"><time>2024-08-03T09:17:32.207</time></trkpt><trkpt lat="56.3698032" lon="85.0749761"><time>2024-08-03T09:17:35.160</time></trkpt><trkpt lat="56.3697657" lon="85.0750545"><time>2024-08-03T09:17:38.177</time></trkpt><trkpt lat="56.3697319" lon="85.0751509"><time>2024-08-03T09:17:41.163</time></trkpt><trkpt lat="56.3696990" lon="85.0752197"><time>2024-08-03T09:17:44.170</time></trkpt><trkpt lat="56.3696648" lon="85.0752966"><time>2024-08-03T09:17:47.183</time></trkpt><trkpt lat="56.3696476" lon="85.0753845"><time>2024-08-03T09:17:51.190</time></trkpt><trkpt lat="56.3696298" lon="85.0754690"><time>2024-08-03T09:17:55.167</time></trkpt><trkpt lat="56.3696120" lon="85.0755698"><time>2024-08-03T09:18:00.167</time></trkpt><trkpt lat="56.3695948" lon="85.0756648"><time>2024-08-03T09:18:05.163</time></trkpt><trkpt lat="56.3695880" lon="85.0757603"><time>2024-08-03T09:18:10.163</time></trkpt><trkpt lat="56.3695872" lon="85.0758579"><time>2024-08-03T09:18:14.147</time></trkpt><trkpt lat="56.3695760" lon="85.0759422"><time>2024-08-03T09:18:17.147</time></trkpt><trkpt lat="56.3695553" lon="85.0760156"><time>2024-08-03T09:18:20.153</time></trkpt><trkpt lat="56.3695255" lon="85.0760824"><time>2024-08-03T09:18:23.193</time></trkpt><trkpt lat="56.3695001" lon="85.0761551"><time>2024-08-03T09:18:26.193</time></trkpt><trkpt lat="56.3694775" lon="85.0762308"><time>2024-08-03T09:18:29.183</time></trkpt><trkpt lat="56.3694687" lon="85.0763169"><time>2024-08-03T09:18:32.197</time></trkpt><trkpt lat="56.3694574" lon="85.0763991"><time>2024-08-03T09:18:35.160</time></trkpt><trkpt lat="56.3694378" lon="85.0764787"><time>2024-08-03T09:18:38.213</time></trkpt><trkpt lat="56.3694133" lon="85.0765776"><time>2024-08-03T09:18:42.193</time></trkpt><trkpt lat="56.3693813" lon="85.0766606"><time>2024-08-03T09:18:46.157</time></trkpt><trkpt lat="56.3693452" lon="85.0767276"><time>2024-08-03T09:18:50.203</time></trkpt><trkpt lat="56.3693013" lon="85.0767895"><time>2024-08-03T09:18:54.190</time></trkpt><trkpt lat="56.3692722" lon="85.0768662"><time>2024-08-03T09:18:58.180</time></trkpt><trkpt lat="56.3692378" lon="85.0769445"><time>2024-08-03T09:19:02.157</time></trkpt><trkpt lat="56.3692035" lon="85.0770223"><time>2024-08-03T09:19:06.190</time></trkpt><trkpt lat="56.3691747" lon="85.0770922"><time>2024-08-03T09:19:09.147</time></trkpt><trkpt lat="56.3691454" lon="85.0771555"><time>2024-08-03T09:19:12.200</time></trkpt><trkpt lat="56.3691162" lon="85.0772236"><time>2024-08-03T09:19:15.207</time></trkpt><trkpt lat="56.3690903" lon="85.0772934"><time>2024-08-03T09:19:18.187</time></trkpt><trkpt lat="56.3690561" lon="85.0773830"><time>2024-08-03T09:19:22.180</time></trkpt><trkpt lat="56.3690272" lon="85.0774452"><time>2024-08-03T09:19:25.227</time></trkpt><trkpt lat="56.3690036" lon="85.0775192"><time>2024-08-03T09:19:28.273</time></trkpt><trkpt lat="56.3689780" lon="85.0775916"><time>2024-08-03T09:19:31.253</time></trkpt><trkpt lat="56.3689504" lon="85.0776684"><time>2024-08-03T09:19:34.267</time></trkpt><trkpt lat="56.3689130" lon="85.0777448"><time>2024-08-03T09:19:37.150</time></trkpt><trkpt lat="56.3688862" lon="85.0778126"><time>2024-08-03T09:19:40.153</time></trkpt><trkpt lat="56.3688622" lon="85.0778833"><time>2024-08-03T09:19:43.167</time></trkpt><trkpt lat="56.3688315" lon="85.0779737"><time>2024-08-03T09:19:47.193</time></trkpt><trkpt lat="56.3688081" lon="85.0780487"><time>2024-08-03T09:19:50.193</time></trkpt><trkpt lat="56.3687739" lon="85.0781329"><time>2024-08-03T09:19:54.157</time></trkpt><trkpt lat="56.3687512" lon="85.0782260"><time>2024-08-03T09:19:58.157</time></trkpt><trkpt lat="56.3687374" lon="85.0783034"><time>2024-08-03T09:20:01.197</time></trkpt><trkpt lat="56.3687240" lon="85.0784006"><time>2024-08-03T09:20:05.307</time></trkpt><trkpt lat="56.3687124" lon="85.0785046"><time>2024-08-03T09:20:09.367</time></trkpt><trkpt lat="56.3686997" lon="85.0785828"><time>2024-08-03T09:20:12.273</time></trkpt><trkpt lat="56.3686864" lon="85.0786665"><time>2024-08-03T09:20:15.147</time></trkpt><trkpt lat="56.3686759" lon="85.0787639"><time>2024-08-03T09:20:19.157</time></trkpt><trkpt lat="56.3686660" lon="85.0788565"><time>2024-08-03T09:20:23.150</time></trkpt><trkpt lat="56.3686598" lon="85.0789384"><time>2024-08-03T09:20:27.150</time></trkpt><trkpt lat="56.3686427" lon="85.0790374"><time>2024-08-03T09:20:31.147</time></trkpt><trkpt lat="56.3686260" lon="85.0791222"><time>2024-08-03T09:20:34.157</time></trkpt><trkpt lat="56.3686153" lon="85.0792052"><time>2024-08-03T09:20:37.210</time></trkpt><trkpt lat="56.3686007" lon="85.0792914"><time>2024-08-03T09:20:40.203</time></trkpt><trkpt lat="56.3685908" lon="85.0793796"><time>2024-08-03T09:20:43.247</time></trkpt><trkpt lat="56.3685752" lon="85.0794662"><time>2024-08-03T09:20:47.243</time></trkpt><trkpt lat="56.3685584" lon="85.0795523"><time>2024-08-03T09:20:49.317</time></trkpt><trkpt lat="56.3685408" lon="85.0796521"><time>2024-08-03T09:20:52.267</time></trkpt><trkpt lat="56.3685188" lon="85.0797407"><time>2024-08-03T09:20:55.317</time></trkpt><trkpt lat="56.3685027" lon="85.0798290"><time>2024-08-03T09:20:58.283</time></trkpt><trkpt lat="56.3684873" lon="85.0799085"><time>2024-08-03T09:21:01.290</time></trkpt><trkpt lat="56.3684709" lon="85.0799842"><time>2024-08-03T09:21:04.257</time></trkpt><trkpt lat="56.3684552" lon="85.0800603"><time>2024-08-03T09:21:07.297</time></trkpt><trkpt lat="56.3684390" lon="85.0801371"><time>2024-08-03T09:21:11.253</time></trkpt><trkpt lat="56.3684122" lon="85.0802045"><time>2024-08-03T09:21:17.273</time></trkpt><trkpt lat="56.3683796" lon="85.0802719"><time>2024-08-03T09:21:24.200</time></trkpt><trkpt lat="56.3683489" lon="85.0803576"><time>2024-08-03T09:21:29.247</time></trkpt><trkpt lat="56.3683196" lon="85.0804297"><time>2024-08-03T09:21:33.197</time></trkpt><trkpt lat="56.3682748" lon="85.0805059"><time>2024-08-03T09:21:37.213</time></trkpt><trkpt lat="56.3682328" lon="85.0805821"><time>2024-08-03T09:21:41.257</time></trkpt><trkpt lat="56.3681858" lon="85.0806511"><time>2024-08-03T09:21:45.183</time></trkpt><trkpt lat="56.3681436" lon="85.0807002"><time>2024-08-03T09:21:48.177</time></trkpt><trkpt lat="56.3681007" lon="85.0807480"><time>2024-08-03T09:21:52.157</time></trkpt><trkpt lat="56.3680611" lon="85.0808116"><time>2024-08-03T09:21:56.143</time></trkpt><trkpt lat="56.3680194" lon="85.0808785"><time>2024-08-03T09:22:00.147</time></trkpt><trkpt lat="56.3679751" lon="85.0809562"><time>2024-08-03T09:22:04.180</time></trkpt><trkpt lat="56.3679310" lon="85.0809974"><time>2024-08-03T09:22:08.157</time></trkpt><trkpt lat="56.3679279" lon="85.0809030"><time>2024-08-03T09:22:15.183</time></trkpt><trkpt lat="56.3679212" lon="85.0808222"><time>2024-08-03T09:22:19.177</time></trkpt><trkpt lat="56.3679038" lon="85.0807397"><time>2024-08-03T09:22:23.207</time></trkpt><trkpt lat="56.3678735" lon="85.0806545"><time>2024-08-03T09:22:27.183</time></trkpt><trkpt lat="56.3678393" lon="85.0805721"><time>2024-08-03T09:22:31.220</time></trkpt><trkpt lat="56.3678085" lon="85.0804980"><time>2024-08-03T09:22:35.190</time></trkpt><trkpt lat="56.3677819" lon="85.0804315"><time>2024-08-03T09:22:38.170</time></trkpt><trkpt lat="56.3677534" lon="85.0803569"><time>2024-08-03T09:22:42.190</time></trkpt><trkpt lat="56.3677278" lon="85.0802858"><time>2024-08-03T09:22:46.200</time></trkpt><trkpt lat="56.3677206" lon="85.0801860"><time>2024-08-03T09:22:50.170</time></trkpt><trkpt lat="56.3677456" lon="85.0801067"><time>2024-08-03T09:22:54.190</time></trkpt><trkpt lat="56.3677370" lon="85.0800249"><time>2024-08-03T09:23:02.157</time></trkpt><trkpt lat="56.3677341" lon="85.0799250"><time>2024-08-03T09:23:06.187</time></trkpt><trkpt lat="56.3677321" lon="85.0798373"><time>2024-08-03T09:23:10.187</time></trkpt><trkpt lat="56.3677391" lon="85.0797373"><time>2024-08-03T09:23:14.180</time></trkpt><trkpt lat="56.3677327" lon="85.0796552"><time>2024-08-03T09:23:27.190</time></trkpt><trkpt lat="56.3677498" lon="85.0795768"><time>2024-08-03T09:23:44.190</time></trkpt><trkpt lat="56.3677570" lon="85.0796678"><time>2024-08-03T09:23:51.200</time></trkpt><trkpt lat="56.3677473" lon="85.0797587"><time>2024-08-03T09:23:55.160</time></trkpt><trkpt lat="56.3677597" lon="85.0798478"><time>2024-08-03T09:23:59.147</time></trkpt><trkpt lat="56.3677665" lon="85.0799294"><time>2024-08-03T09:24:02.143</time></trkpt><trkpt lat="56.3677701" lon="85.0800196"><time>2024-08-03T09:24:06.183</time></trkpt><trkpt lat="56.3677527" lon="85.0801036"><time>2024-08-03T09:24:09.217</time></trkpt><trkpt lat="56.3677371" lon="85.0801809"><time>2024-08-03T09:24:12.227</time></trkpt><trkpt lat="56.3677498" lon="85.0802655"><time>2024-08-03T09:24:16.200</time></trkpt><trkpt lat="56.3677750" lon="85.0803441"><time>2024-08-03T09:24:20.267</time></trkpt><trkpt lat="56.3678056" lon="85.0804389"><time>2024-08-03T09:24:24.357</time></trkpt><trkpt lat="56.3678315" lon="85.0805056"><time>2024-08-03T09:24:27.140</time></trkpt><trkpt lat="56.3678635" lon="85.0805764"><time>2024-08-03T09:24:30.227</time></trkpt><trkpt lat="56.3678947" lon="85.0806467"><time>2024-08-03T09:24:33.150</time></trkpt><trkpt lat="56.3679174" lon="85.0807217"><time>2024-08-03T09:24:36.157</time></trkpt><trkpt lat="56.3679331" lon="85.0808110"><time>2024-08-03T09:24:40.150</time></trkpt><trkpt lat="56.3679426" lon="85.0808938"><time>2024-08-03T09:24:43.190</time></trkpt><trkpt lat="56.3679545" lon="85.0809783"><time>2024-08-03T09:24:46.157</time></trkpt><trkpt lat="56.3679349" lon="85.0810802"><time>2024-08-03T09:24:50.193</time></trkpt><trkpt lat="56.3679103" lon="85.0811631"><time>2024-08-03T09:24:54.187</time></trkpt><trkpt lat="56.3678789" lon="85.0812450"><time>2024-08-03T09:24:58.193</time></trkpt><trkpt lat="56.3678418" lon="85.0813209"><time>2024-08-03T09:25:02.190</time></trkpt><trkpt lat="56.3678370" lon="85.0814118"><time>2024-08-03T09:25:07.193</time></trkpt><trkpt lat="56.3678310" lon="85.0814955"><time>2024-08-03T09:25:11.217</time></trkpt><trkpt lat="56.3678168" lon="85.0815860"><time>2024-08-03T09:25:30.183</time></trkpt><trkpt lat="56.3678045" lon="85.0816689"><time>2024-08-03T09:25:34.197</time></trkpt><trkpt lat="56.3677926" lon="85.0817491"><time>2024-08-03T09:25:38.157</time></trkpt><trkpt lat="56.3677832" lon="85.0818380"><time>2024-08-03T09:25:42.160</time></trkpt><trkpt lat="56.3677712" lon="85.0819376"><time>2024-08-03T09:25:46.197</time></trkpt><trkpt lat="56.3677591" lon="85.0820395"><time>2024-08-03T09:25:50.167</time></trkpt><trkpt lat="56.3677381" lon="85.0821305"><time>2024-08-03T09:25:54.177</time></trkpt><trkpt lat="56.3677219" lon="85.0822166"><time>2024-08-03T09:25:58.187</time></trkpt><trkpt lat="56.3677000" lon="85.0823158"><time>2024-08-03T09:26:02.150</time></trkpt><trkpt lat="56.3676837" lon="85.0823973"><time>2024-08-03T09:26:05.193</time></trkpt><trkpt lat="56.3676740" lon="85.0824901"><time>2024-08-03T09:26:09.303</time></trkpt><trkpt lat="56.3676473" lon="85.0825677"><time>2024-08-03T09:26:13.273</time></trkpt><trkpt lat="56.3675974" lon="85.0826243"><time>2024-08-03T09:26:17.253</time></trkpt><trkpt lat="56.3675519" lon="85.0826782"><time>2024-08-03T09:26:21.267</time></trkpt><trkpt lat="56.3675200" lon="85.0827470"><time>2024-08-03T09:26:25.300</time></trkpt><trkpt lat="56.3674848" lon="85.0828035"><time>2024-08-03T09:26:28.290</time></trkpt><trkpt lat="56.3674435" lon="85.0828713"><time>2024-08-03T09:26:32.283</time></trkpt><trkpt lat="56.3674155" lon="85.0829392"><time>2024-08-03T09:26:35.163</time></trkpt><trkpt lat="56.3673904" lon="85.0830433"><time>2024-08-03T09:26:45.150</time></trkpt><trkpt lat="56.3673761" lon="85.0831218"><time>2024-08-03T09:26:47.153</time></trkpt><trkpt lat="56.3673583" lon="85.0832205"><time>2024-08-03T09:26:50.177</time></trkpt><trkpt lat="56.3673427" lon="85.0833253"><time>2024-08-03T09:26:54.193</time></trkpt><trkpt lat="56.3673242" lon="85.0834033"><time>2024-08-03T09:26:57.170</time></trkpt><trkpt lat="56.3673039" lon="85.0834858"><time>2024-08-03T09:27:00.150</time></trkpt><trkpt lat="56.3672812" lon="85.0835695"><time>2024-08-03T09:27:03.177</time></trkpt><trkpt lat="56.3672585" lon="85.0836414"><time>2024-08-03T09:27:06.187</time></trkpt><trkpt lat="56.3672302" lon="85.0837062"><time>2024-08-03T09:27:09.183</time></trkpt><trkpt lat="56.3671989" lon="85.0837669"><time>2024-08-03T09:27:12.207</time></trkpt><trkpt lat="56.3671653" lon="85.0838209"><time>2024-08-03T09:27:15.193</time></trkpt><trkpt lat="56.3671286" lon="85.0838744"><time>2024-08-03T09:27:18.177</time></trkpt><trkpt lat="56.3670927" lon="85.0839257"><time>2024-08-03T09:27:21.197</time></trkpt><trkpt lat="56.3670439" lon="85.0839942"><time>2024-08-03T09:27:25.187</time></trkpt><trkpt lat="56.3670078" lon="85.0840548"><time>2024-08-03T09:27:28.157</time></trkpt><trkpt lat="56.3669641" lon="85.0841326"><time>2024-08-03T09:27:32.170</time></trkpt><trkpt lat="56.3669307" lon="85.0841943"><time>2024-08-03T09:27:35.167</time></trkpt><trkpt lat="56.3669003" lon="85.0842582"><time>2024-08-03T09:27:38.187</time></trkpt><trkpt lat="56.3668592" lon="85.0843375"><time>2024-08-03T09:27:42.273</time></trkpt><trkpt lat="56.3668253" lon="85.0843999"><time>2024-08-03T09:27:45.257</time></trkpt><trkpt lat="56.3667936" lon="85.0844655"><time>2024-08-03T09:27:48.290</time></trkpt><trkpt lat="56.3667607" lon="85.0845302"><time>2024-08-03T09:27:51.267</time></trkpt><trkpt lat="56.3667285" lon="85.0845924"><time>2024-08-03T09:27:54.273</time></trkpt><trkpt lat="56.3666955" lon="85.0846586"><time>2024-08-03T09:27:57.260</time></trkpt><trkpt lat="56.3666608" lon="85.0847229"><time>2024-08-03T09:28:00.260</time></trkpt><trkpt lat="56.3666202" lon="85.0847942"><time>2024-08-03T09:28:04.263</time></trkpt><trkpt lat="56.3665882" lon="85.0848640"><time>2024-08-03T09:28:08.267</time></trkpt><trkpt lat="56.3665603" lon="85.0849448"><time>2024-08-03T09:28:12.260</time></trkpt><trkpt lat="56.3665304" lon="85.0850252"><time>2024-08-03T09:28:17.203</time></trkpt><trkpt lat="56.3665070" lon="85.0851176"><time>2024-08-03T09:28:21.277</time></trkpt><trkpt lat="56.3664823" lon="85.0851854"><time>2024-08-03T09:28:24.263</time></trkpt><trkpt lat="56.3664544" lon="85.0852589"><time>2024-08-03T09:28:27.290</time></trkpt><trkpt lat="56.3664249" lon="85.0853269"><time>2024-08-03T09:28:30.277</time></trkpt><trkpt lat="56.3663886" lon="85.0854016"><time>2024-08-03T09:28:33.283</time></trkpt><trkpt lat="56.3663476" lon="85.0855035"><time>2024-08-03T09:28:36.307</time></trkpt><trkpt lat="56.3663115" lon="85.0856011"><time>2024-08-03T09:28:39.277</time></trkpt><trkpt lat="56.3662896" lon="85.0856720"><time>2024-08-03T09:28:41.250</time></trkpt><trkpt lat="56.3662778" lon="85.0857533"><time>2024-08-03T09:28:43.310</time></trkpt><trkpt lat="56.3662868" lon="85.0858692"><time>2024-08-03T09:28:46.267</time></trkpt><trkpt lat="56.3663118" lon="85.0859724"><time>2024-08-03T09:28:49.307</time></trkpt><trkpt lat="56.3663375" lon="85.0860514"><time>2024-08-03T09:28:52.183</time></trkpt><trkpt lat="56.3663566" lon="85.0861283"><time>2024-08-03T09:28:55.300</time></trkpt><trkpt lat="56.3663794" lon="85.0862056"><time>2024-08-03T09:28:58.303</time></trkpt><trkpt lat="56.3663964" lon="85.0862868"><time>2024-08-03T09:29:01.293</time></trkpt><trkpt lat="56.3664095" lon="85.0863745"><time>2024-08-03T09:29:04.277</time></trkpt><trkpt lat="56.3664208" lon="85.0864597"><time>2024-08-03T09:29:07.297</time></trkpt><trkpt lat="56.3664243" lon="85.0865514"><time>2024-08-03T09:29:10.287</time></trkpt><trkpt lat="56.3664338" lon="85.0866387"><time>2024-08-03T09:29:13.323</time></trkpt><trkpt lat="56.3664509" lon="85.0867238"><time>2024-08-03T09:29:16.333</time></trkpt><trkpt lat="56.3664696" lon="85.0868038"><time>2024-08-03T09:29:19.267</time></trkpt><trkpt lat="56.3664969" lon="85.0868907"><time>2024-08-03T09:29:23.283</time></trkpt><trkpt lat="56.3665111" lon="85.0869849"><time>2024-08-03T09:29:27.257</time></trkpt><trkpt lat="56.3665244" lon="85.0870629"><time>2024-08-03T09:29:30.283</time></trkpt><trkpt lat="56.3665420" lon="85.0871385"><time>2024-08-03T09:29:33.323</time></trkpt><trkpt lat="56.3665681" lon="85.0872281"><time>2024-08-03T09:29:36.143</time></trkpt><trkpt lat="56.3665919" lon="85.0873365"><time>2024-08-03T09:29:39.143</time></trkpt><trkpt lat="56.3666163" lon="85.0874100"><time>2024-08-03T09:29:42.143</time></trkpt><trkpt lat="56.3666421" lon="85.0874856"><time>2024-08-03T09:29:46.200</time></trkpt><trkpt lat="56.3666682" lon="85.0875553"><time>2024-08-03T09:29:49.190</time></trkpt><trkpt lat="56.3666931" lon="85.0876367"><time>2024-08-03T09:29:53.197</time></trkpt><trkpt lat="56.3667116" lon="85.0877333"><time>2024-08-03T09:29:58.153</time></trkpt><trkpt lat="56.3667295" lon="85.0878269"><time>2024-08-03T09:30:02.160</time></trkpt><trkpt lat="56.3667348" lon="85.0879079"><time>2024-08-03T09:30:05.153</time></trkpt><trkpt lat="56.3667259" lon="85.0879991"><time>2024-08-03T09:30:09.197</time></trkpt><trkpt lat="56.3667122" lon="85.0880851"><time>2024-08-03T09:30:13.160</time></trkpt><trkpt lat="56.3667008" lon="85.0881849"><time>2024-08-03T09:30:17.173</time></trkpt><trkpt lat="56.3666938" lon="85.0882748"><time>2024-08-03T09:30:20.210</time></trkpt><trkpt lat="56.3666866" lon="85.0883652"><time>2024-08-03T09:30:23.170</time></trkpt><trkpt lat="56.3666730" lon="85.0884562"><time>2024-08-03T09:30:26.190</time></trkpt><trkpt lat="56.3666629" lon="85.0885372"><time>2024-08-03T09:30:29.190</time></trkpt><trkpt lat="56.3666403" lon="85.0886326"><time>2024-08-03T09:30:33.203</time></trkpt><trkpt lat="56.3666283" lon="85.0887116"><time>2024-08-03T09:30:36.187</time></trkpt><trkpt lat="56.3666162" lon="85.0887946"><time>2024-08-03T09:30:39.157</time></trkpt><trkpt lat="56.3666132" lon="85.0888798"><time>2024-08-03T09:30:42.190</time></trkpt><trkpt lat="56.3666084" lon="85.0889616"><time>2024-08-03T09:30:45.197</time></trkpt><trkpt lat="56.3665884" lon="85.0890567"><time>2024-08-03T09:30:49.197</time></trkpt><trkpt lat="56.3665525" lon="85.0891261"><time>2024-08-03T09:30:53.197</time></trkpt><trkpt lat="56.3665112" lon="85.0891596"><time>2024-08-03T09:30:56.173</time></trkpt><trkpt lat="56.3664747" lon="85.0892159"><time>2024-08-03T09:30:59.190</time></trkpt><trkpt lat="56.3664453" lon="85.0892809"><time>2024-08-03T09:31:02.190</time></trkpt><trkpt lat="56.3664192" lon="85.0893589"><time>2024-08-03T09:31:06.210</time></trkpt><trkpt lat="56.3663883" lon="85.0894424"><time>2024-08-03T09:31:11.180</time></trkpt><trkpt lat="56.3663582" lon="85.0895303"><time>2024-08-03T09:31:15.187</time></trkpt><trkpt lat="56.3663278" lon="85.0896096"><time>2024-08-03T09:31:19.197</time></trkpt><trkpt lat="56.3663063" lon="85.0896818"><time>2024-08-03T09:31:22.210</time></trkpt><trkpt lat="56.3663026" lon="85.0897810"><time>2024-08-03T09:31:26.190</time></trkpt><trkpt lat="56.3662912" lon="85.0898723"><time>2024-08-03T09:31:30.190</time></trkpt><trkpt lat="56.3662823" lon="85.0899543"><time>2024-08-03T09:31:34.163</time></trkpt><trkpt lat="56.3662762" lon="85.0900489"><time>2024-08-03T09:31:38.207</time></trkpt><trkpt lat="56.3662740" lon="85.0901403"><time>2024-08-03T09:31:42.207</time></trkpt><trkpt lat="56.3662669" lon="85.0902244"><time>2024-08-03T09:31:46.190</time></trkpt><trkpt lat="56.3662630" lon="85.0903211"><time>2024-08-03T09:31:50.197</time></trkpt><trkpt lat="56.3662657" lon="85.0904252"><time>2024-08-03T09:31:54.187</time></trkpt><trkpt lat="56.3662643" lon="85.0905243"><time>2024-08-03T09:31:58.157</time></trkpt><trkpt lat="56.3662479" lon="85.0906140"><time>2024-08-03T09:32:02.170</time></trkpt><trkpt lat="56.3662248" lon="85.0907138"><time>2024-08-03T09:32:06.193</time></trkpt><trkpt lat="56.3662040" lon="85.0907894"><time>2024-08-03T09:32:09.213</time></trkpt><trkpt lat="56.3661724" lon="85.0908809"><time>2024-08-03T09:32:13.153</time></trkpt><trkpt lat="56.3661423" lon="85.0909540"><time>2024-08-03T09:32:16.147</time></trkpt><trkpt lat="56.3661145" lon="85.0910267"><time>2024-08-03T09:32:19.147</time></trkpt><trkpt lat="56.3660940" lon="85.0911024"><time>2024-08-03T09:32:22.257</time></trkpt><trkpt lat="56.3660927" lon="85.0912077"><time>2024-08-03T09:32:26.197</time></trkpt><trkpt lat="56.3661396" lon="85.0912983"><time>2024-08-03T09:33:05.193</time></trkpt><trkpt lat="56.3661703" lon="85.0913598"><time>2024-08-03T09:33:07.177</time></trkpt><trkpt lat="56.3662188" lon="85.0914440"><time>2024-08-03T09:33:10.240</time></trkpt><trkpt lat="56.3662609" lon="85.0915067"><time>2024-08-03T09:33:13.143</time></trkpt><trkpt lat="56.3662994" lon="85.0915613"><time>2024-08-03T09:33:16.173</time></trkpt><trkpt lat="56.3663536" lon="85.0916189"><time>2024-08-03T09:33:20.197</time></trkpt><trkpt lat="56.3664077" lon="85.0916387"><time>2024-08-03T09:33:23.143</time></trkpt><trkpt lat="56.3664642" lon="85.0916540"><time>2024-08-03T09:33:27.183</time></trkpt><trkpt lat="56.3665173" lon="85.0916697"><time>2024-08-03T09:33:31.180</time></trkpt><trkpt lat="56.3665675" lon="85.0916526"><time>2024-08-03T09:33:35.187</time></trkpt><trkpt lat="56.3666219" lon="85.0916403"><time>2024-08-03T09:33:38.173</time></trkpt><trkpt lat="56.3666758" lon="85.0916249"><time>2024-08-03T09:33:41.147</time></trkpt><trkpt lat="56.3667338" lon="85.0916130"><time>2024-08-03T09:33:44.150</time></trkpt><trkpt lat="56.3667898" lon="85.0916205"><time>2024-08-03T09:33:47.140</time></trkpt><trkpt lat="56.3668519" lon="85.0916354"><time>2024-08-03T09:33:51.167</time></trkpt><trkpt lat="56.3668981" lon="85.0916672"><time>2024-08-03T09:33:54.157</time></trkpt><trkpt lat="56.3669508" lon="85.0917040"><time>2024-08-03T09:33:57.180</time></trkpt><trkpt lat="56.3670077" lon="85.0917195"><time>2024-08-03T09:34:00.173</time></trkpt><trkpt lat="56.3670718" lon="85.0917254"><time>2024-08-03T09:34:03.173</time></trkpt><trkpt lat="56.3671319" lon="85.0917379"><time>2024-08-03T09:34:07.160</time></trkpt><trkpt lat="56.3671875" lon="85.0917685"><time>2024-08-03T09:34:10.177</time></trkpt><trkpt lat="56.3672395" lon="85.0917875"><time>2024-08-03T09:34:13.143</time></trkpt><trkpt lat="56.3672880" lon="85.0918099"><time>2024-08-03T09:34:17.190</time></trkpt><trkpt lat="56.3673356" lon="85.0918642"><time>2024-08-03T09:34:21.147</time></trkpt><trkpt lat="56.3673731" lon="85.0919459"><time>2024-08-03T09:34:25.143</time></trkpt><trkpt lat="56.3673995" lon="85.0920239"><time>2024-08-03T09:34:28.143</time></trkpt><trkpt lat="56.3674304" lon="85.0920906"><time>2024-08-03T09:34:30.140</time></trkpt><trkpt lat="56.3674546" lon="85.0921868"><time>2024-08-03T09:34:34.143</time></trkpt><trkpt lat="56.3674667" lon="85.0922794"><time>2024-08-03T09:34:38.150</time></trkpt><trkpt lat="56.3674740" lon="85.0923732"><time>2024-08-03T09:34:41.157</time></trkpt><trkpt lat="56.3674937" lon="85.0924632"><time>2024-08-03T09:34:44.160</time></trkpt><trkpt lat="56.3675131" lon="85.0925480"><time>2024-08-03T09:34:47.200</time></trkpt><trkpt lat="56.3675405" lon="85.0926190"><time>2024-08-03T09:34:50.167</time></trkpt><trkpt lat="56.3675794" lon="85.0926950"><time>2024-08-03T09:34:53.153</time></trkpt><trkpt lat="56.3676143" lon="85.0927545"><time>2024-08-03T09:34:56.177</time></trkpt><trkpt lat="56.3676461" lon="85.0928172"><time>2024-08-03T09:34:59.167</time></trkpt><trkpt lat="56.3676746" lon="85.0928940"><time>2024-08-03T09:35:02.210</time></trkpt><trkpt lat="56.3676882" lon="85.0929777"><time>2024-08-03T09:35:05.163</time></trkpt><trkpt lat="56.3676939" lon="85.0930771"><time>2024-08-03T09:35:08.160</time></trkpt><trkpt lat="56.3676957" lon="85.0931751"><time>2024-08-03T09:35:11.150</time></trkpt><trkpt lat="56.3677015" lon="85.0932725"><time>2024-08-03T09:35:14.190</time></trkpt><trkpt lat="56.3677056" lon="85.0933636"><time>2024-08-03T09:35:17.173</time></trkpt><trkpt lat="56.3677179" lon="85.0934647"><time>2024-08-03T09:35:20.137</time></trkpt><trkpt lat="56.3677301" lon="85.0935642"><time>2024-08-03T09:35:23.147</time></trkpt><trkpt lat="56.3677480" lon="85.0936651"><time>2024-08-03T09:35:26.203</time></trkpt><trkpt lat="56.3677553" lon="85.0937623"><time>2024-08-03T09:35:29.147</time></trkpt><trkpt lat="56.3677618" lon="85.0938516"><time>2024-08-03T09:35:32.193</time></trkpt><trkpt lat="56.3677712" lon="85.0939479"><time>2024-08-03T09:35:35.140</time></trkpt><trkpt lat="56.3677808" lon="85.0940515"><time>2024-08-03T09:35:38.173</time></trkpt><trkpt lat="56.3677851" lon="85.0941567"><time>2024-08-03T09:35:41.190</time></trkpt><trkpt lat="56.3677868" lon="85.0942590"><time>2024-08-03T09:35:44.257</time></trkpt><trkpt lat="56.3677895" lon="85.0943650"><time>2024-08-03T09:35:47.147</time></trkpt><trkpt lat="56.3677904" lon="85.0944521"><time>2024-08-03T09:35:50.170</time></trkpt><trkpt lat="56.3678009" lon="85.0945438"><time>2024-08-03T09:35:53.147</time></trkpt><trkpt lat="56.3678055" lon="85.0946380"><time>2024-08-03T09:35:56.160</time></trkpt><trkpt lat="56.3678084" lon="85.0947240"><time>2024-08-03T09:35:59.150</time></trkpt><trkpt lat="56.3678126" lon="85.0948088"><time>2024-08-03T09:36:02.147</time></trkpt><trkpt lat="56.3678250" lon="85.0948954"><time>2024-08-03T09:36:05.210</time></trkpt><trkpt lat="56.3678282" lon="85.0949851"><time>2024-08-03T09:36:08.177</time></trkpt><trkpt lat="56.3678210" lon="85.0950861"><time>2024-08-03T09:36:11.183</time></trkpt><trkpt lat="56.3678111" lon="85.0951871"><time>2024-08-03T09:36:14.203</time></trkpt><trkpt lat="56.3678070" lon="85.0952890"><time>2024-08-03T09:36:17.150</time></trkpt><trkpt lat="56.3678016" lon="85.0953917"><time>2024-08-03T09:36:20.147</time></trkpt><trkpt lat="56.3678022" lon="85.0954817"><time>2024-08-03T09:36:23.147</time></trkpt><trkpt lat="56.3678015" lon="85.0955850"><time>2024-08-03T09:36:26.153</time></trkpt><trkpt lat="56.3678012" lon="85.0956879"><time>2024-08-03T09:36:29.140</time></trkpt><trkpt lat="56.3678036" lon="85.0957872"><time>2024-08-03T09:36:32.177</time></trkpt><trkpt lat="56.3678047" lon="85.0958784"><time>2024-08-03T09:36:35.137</time></trkpt><trkpt lat="56.3678087" lon="85.0959616"><time>2024-08-03T09:36:38.140</time></trkpt><trkpt lat="56.3678147" lon="85.0960500"><time>2024-08-03T09:36:41.177</time></trkpt><trkpt lat="56.3678174" lon="85.0961313"><time>2024-08-03T09:36:44.140</time></trkpt><trkpt lat="56.3678203" lon="85.0962134"><time>2024-08-03T09:36:47.163</time></trkpt><trkpt lat="56.3678284" lon="85.0963042"><time>2024-08-03T09:36:50.153</time></trkpt><trkpt lat="56.3678327" lon="85.0963917"><time>2024-08-03T09:36:53.150</time></trkpt><trkpt lat="56.3678492" lon="85.0964712"><time>2024-08-03T09:36:56.153</time></trkpt><trkpt lat="56.3678604" lon="85.0965519"><time>2024-08-03T09:36:59.153</time></trkpt><trkpt lat="56.3678796" lon="85.0966522"><time>2024-08-03T09:37:03.187</time></trkpt><trkpt lat="56.3678958" lon="85.0967327"><time>2024-08-03T09:37:06.190</time></trkpt><trkpt lat="56.3679094" lon="85.0968138"><time>2024-08-03T09:37:09.213</time></trkpt><trkpt lat="56.3679239" lon="85.0968966"><time>2024-08-03T09:37:12.190</time></trkpt><trkpt lat="56.3679338" lon="85.0969846"><time>2024-08-03T09:37:15.203</time></trkpt><trkpt lat="56.3679370" lon="85.0970726"><time>2024-08-03T09:37:18.200</time></trkpt><trkpt lat="56.3679305" lon="85.0971538"><time>2024-08-03T09:37:21.187</time></trkpt><trkpt lat="56.3679212" lon="85.0972481"><time>2024-08-03T09:37:24.203</time></trkpt><trkpt lat="56.3679111" lon="85.0973375"><time>2024-08-03T09:37:27.157</time></trkpt><trkpt lat="56.3678876" lon="85.0974197"><time>2024-08-03T09:37:30.147</time></trkpt><trkpt lat="56.3678654" lon="85.0974968"><time>2024-08-03T09:37:33.180</time></trkpt><trkpt lat="56.3678424" lon="85.0975969"><time>2024-08-03T09:37:37.197</time></trkpt><trkpt lat="56.3678173" lon="85.0976944"><time>2024-08-03T09:37:41.190</time></trkpt><trkpt lat="56.3677947" lon="85.0977778"><time>2024-08-03T09:37:44.177</time></trkpt><trkpt lat="56.3677578" lon="85.0978628"><time>2024-08-03T09:37:48.190</time></trkpt><trkpt lat="56.3677182" lon="85.0979445"><time>2024-08-03T09:37:52.143</time></trkpt><trkpt lat="56.3676846" lon="85.0980115"><time>2024-08-03T09:37:55.140</time></trkpt><trkpt lat="56.3676431" lon="85.0980533"><time>2024-08-03T09:37:58.150</time></trkpt><trkpt lat="56.3675961" lon="85.0981012"><time>2024-08-03T09:38:01.210</time></trkpt><trkpt lat="56.3675587" lon="85.0981521"><time>2024-08-03T09:38:04.183</time></trkpt><trkpt lat="56.3675155" lon="85.0981964"><time>2024-08-03T09:38:07.147</time></trkpt><trkpt lat="56.3674708" lon="85.0982383"><time>2024-08-03T09:38:10.150</time></trkpt><trkpt lat="56.3674221" lon="85.0982786"><time>2024-08-03T09:38:13.197</time></trkpt><trkpt lat="56.3673784" lon="85.0983306"><time>2024-08-03T09:38:16.147</time></trkpt><trkpt lat="56.3673417" lon="85.0983972"><time>2024-08-03T09:38:19.153</time></trkpt><trkpt lat="56.3673044" lon="85.0984585"><time>2024-08-03T09:38:22.180</time></trkpt><trkpt lat="56.3672591" lon="85.0985171"><time>2024-08-03T09:38:26.157</time></trkpt><trkpt lat="56.3672314" lon="85.0986027"><time>2024-08-03T09:38:30.187</time></trkpt><trkpt lat="56.3672272" lon="85.0986942"><time>2024-08-03T09:38:33.153</time></trkpt><trkpt lat="56.3672060" lon="85.0987931"><time>2024-08-03T09:38:37.150</time></trkpt><trkpt lat="56.3671943" lon="85.0988792"><time>2024-08-03T09:38:40.187</time></trkpt><trkpt lat="56.3671976" lon="85.0989750"><time>2024-08-03T09:38:43.137</time></trkpt><trkpt lat="56.3672051" lon="85.0990556"><time>2024-08-03T09:38:46.167</time></trkpt><trkpt lat="56.3672142" lon="85.0991459"><time>2024-08-03T09:38:49.177</time></trkpt><trkpt lat="56.3672315" lon="85.0992274"><time>2024-08-03T09:38:52.147</time></trkpt><trkpt lat="56.3672415" lon="85.0993158"><time>2024-08-03T09:38:55.157</time></trkpt><trkpt lat="56.3672607" lon="85.0993963"><time>2024-08-03T09:38:58.257</time></trkpt><trkpt lat="56.3672818" lon="85.0994794"><time>2024-08-03T09:39:01.283</time></trkpt><trkpt lat="56.3673067" lon="85.0995757"><time>2024-08-03T09:39:05.277</time></trkpt><trkpt lat="56.3673329" lon="85.0996644"><time>2024-08-03T09:39:09.257</time></trkpt><trkpt lat="56.3673563" lon="85.0997553"><time>2024-08-03T09:39:13.257</time></trkpt><trkpt lat="56.3673876" lon="85.0998497"><time>2024-08-03T09:39:17.167</time></trkpt><trkpt lat="56.3674221" lon="85.0999186"><time>2024-08-03T09:39:20.147</time></trkpt><trkpt lat="56.3674603" lon="85.1000016"><time>2024-08-03T09:39:24.153</time></trkpt><trkpt lat="56.3674888" lon="85.1000652"><time>2024-08-03T09:39:27.173</time></trkpt><trkpt lat="56.3675212" lon="85.1001378"><time>2024-08-03T09:39:30.153</time></trkpt><trkpt lat="56.3675542" lon="85.1002344"><time>2024-08-03T09:39:34.190</time></trkpt><trkpt lat="56.3675778" lon="85.1003049"><time>2024-08-03T09:39:37.177</time></trkpt><trkpt lat="56.3675938" lon="85.1003879"><time>2024-08-03T09:39:40.153</time></trkpt><trkpt lat="56.3676089" lon="85.1004925"><time>2024-08-03T09:39:44.157</time></trkpt><trkpt lat="56.3676210" lon="85.1005771"><time>2024-08-03T09:39:47.147</time></trkpt><trkpt lat="56.3676270" lon="85.1006615"><time>2024-08-03T09:39:50.217</time></trkpt><trkpt lat="56.3676274" lon="85.1007515"><time>2024-08-03T09:39:53.183</time></trkpt><trkpt lat="56.3676217" lon="85.1008381"><time>2024-08-03T09:39:56.187</time></trkpt><trkpt lat="56.3676167" lon="85.1009336"><time>2024-08-03T09:39:59.183</time></trkpt><trkpt lat="56.3676106" lon="85.1010243"><time>2024-08-03T09:40:02.170</time></trkpt><trkpt lat="56.3675970" lon="85.1011092"><time>2024-08-03T09:40:05.200</time></trkpt><trkpt lat="56.3675782" lon="85.1011866"><time>2024-08-03T09:40:08.150</time></trkpt><trkpt lat="56.3675537" lon="85.1012800"><time>2024-08-03T09:40:12.147</time></trkpt><trkpt lat="56.3675360" lon="85.1013552"><time>2024-08-03T09:40:15.187</time></trkpt><trkpt lat="56.3675093" lon="85.1014239"><time>2024-08-03T09:40:18.167</time></trkpt><trkpt lat="56.3674915" lon="85.1015033"><time>2024-08-03T09:40:21.207</time></trkpt><trkpt lat="56.3674990" lon="85.1015869"><time>2024-08-03T09:40:24.190</time></trkpt><trkpt lat="56.3675274" lon="85.1016663"><time>2024-08-03T09:40:27.153</time></trkpt><trkpt lat="56.3675579" lon="85.1017260"><time>2024-08-03T09:40:30.183</time></trkpt><trkpt lat="56.3675906" lon="85.1017857"><time>2024-08-03T09:40:33.143</time></trkpt><trkpt lat="56.3676263" lon="85.1018498"><time>2024-08-03T09:40:36.147</time></trkpt><trkpt lat="56.3676545" lon="85.1019258"><time>2024-08-03T09:40:39.197</time></trkpt><trkpt lat="56.3676868" lon="85.1019901"><time>2024-08-03T09:40:42.170</time></trkpt><trkpt lat="56.3677198" lon="85.1020601"><time>2024-08-03T09:40:45.173</time></trkpt><trkpt lat="56.3677500" lon="85.1021263"><time>2024-08-03T09:40:48.143</time></trkpt><trkpt lat="56.3677831" lon="85.1022181"><time>2024-08-03T09:40:52.200</time></trkpt><trkpt lat="56.3678103" lon="85.1022830"><time>2024-08-03T09:40:55.140</time></trkpt><trkpt lat="56.3678454" lon="85.1023694"><time>2024-08-03T09:40:59.147</time></trkpt><trkpt lat="56.3678752" lon="85.1024363"><time>2024-08-03T09:41:02.147</time></trkpt><trkpt lat="56.3679086" lon="85.1025026"><time>2024-08-03T09:41:05.137</time></trkpt><trkpt lat="56.3679447" lon="85.1025589"><time>2024-08-03T09:41:08.140</time></trkpt><trkpt lat="56.3679772" lon="85.1026199"><time>2024-08-03T09:41:11.147</time></trkpt><trkpt lat="56.3680097" lon="85.1026856"><time>2024-08-03T09:41:14.140</time></trkpt><trkpt lat="56.3680429" lon="85.1027540"><time>2024-08-03T09:41:17.140</time></trkpt><trkpt lat="56.3680746" lon="85.1028224"><time>2024-08-03T09:41:20.203</time></trkpt><trkpt lat="56.3681052" lon="85.1028905"><time>2024-08-03T09:41:23.220</time></trkpt><trkpt lat="56.3681334" lon="85.1029536"><time>2024-08-03T09:41:26.200</time></trkpt><trkpt lat="56.3681616" lon="85.1030226"><time>2024-08-03T09:41:29.203</time></trkpt><trkpt lat="56.3681944" lon="85.1030924"><time>2024-08-03T09:41:32.170</time></trkpt><trkpt lat="56.3682273" lon="85.1031571"><time>2024-08-03T09:41:35.153</time></trkpt><trkpt lat="56.3682593" lon="85.1032254"><time>2024-08-03T09:41:38.157</time></trkpt><trkpt lat="56.3682952" lon="85.1033137"><time>2024-08-03T09:41:42.217</time></trkpt><trkpt lat="56.3683281" lon="85.1033805"><time>2024-08-03T09:41:45.183</time></trkpt><trkpt lat="56.3683591" lon="85.1034425"><time>2024-08-03T09:41:48.193</time></trkpt><trkpt lat="56.3683851" lon="85.1035102"><time>2024-08-03T09:41:51.190</time></trkpt><trkpt lat="56.3684150" lon="85.1035828"><time>2024-08-03T09:41:54.173</time></trkpt><trkpt lat="56.3684458" lon="85.1036495"><time>2024-08-03T09:41:57.177</time></trkpt><trkpt lat="56.3684795" lon="85.1037152"><time>2024-08-03T09:42:00.143</time></trkpt><trkpt lat="56.3685108" lon="85.1037782"><time>2024-08-03T09:42:03.140</time></trkpt><trkpt lat="56.3716507" lon="85.1058730"><time>2024-08-03T09:46:17.593</time></trkpt><trkpt lat="56.3722949" lon="85.1053680"><time>2024-08-03T09:47:09.910</time></trkpt><trkpt lat="56.3740181" lon="85.1041598"><time>2024-08-03T09:48:56.160</time></trkpt><trkpt lat="56.3739102" lon="85.1039383"><time>2024-08-03T09:48:57.133</time></trkpt><trkpt lat="56.3739150" lon="85.1038529"><time>2024-08-03T09:48:59.143</time></trkpt><trkpt lat="56.3739224" lon="85.1037630"><time>2024-08-03T09:49:02.227</time></trkpt><trkpt lat="56.3739294" lon="85.1036790"><time>2024-08-03T09:49:05.217</time></trkpt><trkpt lat="56.3739539" lon="85.1036046"><time>2024-08-03T09:49:08.187</time></trkpt><trkpt lat="56.3739879" lon="85.1035460"><time>2024-08-03T09:49:11.170</time></trkpt><trkpt lat="56.3740183" lon="85.1034804"><time>2024-08-03T09:49:14.160</time></trkpt><trkpt lat="56.3740598" lon="85.1034137"><time>2024-08-03T09:49:17.163</time></trkpt><trkpt lat="56.3741031" lon="85.1033505"><time>2024-08-03T09:49:20.187</time></trkpt><trkpt lat="56.3741401" lon="85.1032859"><time>2024-08-03T09:49:23.183</time></trkpt><trkpt lat="56.3741846" lon="85.1032276"><time>2024-08-03T09:49:36.160</time></trkpt><trkpt lat="56.3742257" lon="85.1031874"><time>2024-08-03T09:49:39.177</time></trkpt><trkpt lat="56.3742713" lon="85.1031489"><time>2024-08-03T09:49:42.167</time></trkpt><trkpt lat="56.3743065" lon="85.1030954"><time>2024-08-03T09:49:45.193</time></trkpt><trkpt lat="56.3743390" lon="85.1030367"><time>2024-08-03T09:49:48.180</time></trkpt><trkpt lat="56.3743712" lon="85.1029712"><time>2024-08-03T09:49:51.187</time></trkpt><trkpt lat="56.3744064" lon="85.1029044"><time>2024-08-03T09:49:54.217</time></trkpt><trkpt lat="56.3744423" lon="85.1028380"><time>2024-08-03T09:49:57.193</time></trkpt><trkpt lat="56.3744785" lon="85.1027706"><time>2024-08-03T09:50:00.160</time></trkpt><trkpt lat="56.3745164" lon="85.1027049"><time>2024-08-03T09:50:03.173</time></trkpt><trkpt lat="56.3745543" lon="85.1026502"><time>2024-08-03T09:50:06.247</time></trkpt><trkpt lat="56.3745958" lon="85.1026022"><time>2024-08-03T09:50:09.170</time></trkpt><trkpt lat="56.3746341" lon="85.1025571"><time>2024-08-03T09:50:12.177</time></trkpt><trkpt lat="56.3746771" lon="85.1025121"><time>2024-08-03T09:50:15.177</time></trkpt><trkpt lat="56.3747232" lon="85.1024530"><time>2024-08-03T09:50:19.180</time></trkpt><trkpt lat="56.3747697" lon="85.1023850"><time>2024-08-03T09:50:23.227</time></trkpt><trkpt lat="56.3748046" lon="85.1023246"><time>2024-08-03T09:50:26.173</time></trkpt><trkpt lat="56.3748413" lon="85.1022686"><time>2024-08-03T09:50:29.200</time></trkpt><trkpt lat="56.3748738" lon="85.1022073"><time>2024-08-03T09:50:32.163</time></trkpt><trkpt lat="56.3748943" lon="85.1021336"><time>2024-08-03T09:50:35.183</time></trkpt><trkpt lat="56.3749318" lon="85.1020648"><time>2024-08-03T09:50:39.197</time></trkpt><trkpt lat="56.3749757" lon="85.1020023"><time>2024-08-03T09:50:43.187</time></trkpt><trkpt lat="56.3750169" lon="85.1019337"><time>2024-08-03T09:50:47.167</time></trkpt><trkpt lat="56.3750475" lon="85.1018615"><time>2024-08-03T09:50:50.170</time></trkpt><trkpt lat="56.3750793" lon="85.1017767"><time>2024-08-03T09:50:54.170</time></trkpt><trkpt lat="56.3751082" lon="85.1017116"><time>2024-08-03T09:50:57.187</time></trkpt><trkpt lat="56.3751144" lon="85.1016165"><time>2024-08-03T09:51:01.187</time></trkpt><trkpt lat="56.3750824" lon="85.1015382"><time>2024-08-03T09:51:05.183</time></trkpt><trkpt lat="56.3750472" lon="85.1014631"><time>2024-08-03T09:51:09.183</time></trkpt><trkpt lat="56.3750011" lon="85.1013994"><time>2024-08-03T09:51:13.167</time></trkpt><trkpt lat="56.3749568" lon="85.1013503"><time>2024-08-03T09:51:16.173</time></trkpt><trkpt lat="56.3749192" lon="85.1013033"><time>2024-08-03T09:51:19.180</time></trkpt><trkpt lat="56.3748897" lon="85.1012402"><time>2024-08-03T09:51:22.177</time></trkpt><trkpt lat="56.3748606" lon="85.1011762"><time>2024-08-03T09:51:25.163</time></trkpt><trkpt lat="56.3748204" lon="85.1011076"><time>2024-08-03T09:51:29.170</time></trkpt><trkpt lat="56.3747707" lon="85.1010719"><time>2024-08-03T09:51:33.187</time></trkpt><trkpt lat="56.3747253" lon="85.1010364"><time>2024-08-03T09:51:38.187</time></trkpt></trkseg></trk></gpx>